<?xml version="1.0" encoding="UTF-8" standalone="no" ?>
<gpx xmlns="http://www.topografix.com/GPX/1/1" xmlns:xsi="http://www.w3.org/2001/XMLSchema-instance" xsi:schemaLocation="http://www.topografix.com/GPX/1/1 http://www.topografix.com/GPX/1/1/gpx.xsd" version="1.1" creator="VisuGPX - https://www.visugpx.com">
  <metadata>
    <name>St Restitut (Mamelon du Barry via l'Oppidum protohistorique de Barry et le Village troglodytique de Barry) le 30 avril 2025</name>
    <desc><![CDATA[Boucle de 13 km, dénivelé 290 m au départ des caves cathédrales de St Restitut]]></desc>
  </metadata>
  <trk>
    <name><![CDATA[St Restitut (Mamelon du Barry via l'Oppidum protohistorique de Barry et le Village troglodytique de Barry) le 30 avril 2025]]></name>
    <trkseg>
      <trkpt lat="44.32633" lon="4.76337">
        <ele>277</ele>
        <time>2025-04-30T07:57:32.005Z</time>
      </trkpt>
      <trkpt lat="44.32631" lon="4.76337">
        <ele>277.2</ele>
        <time>2025-04-30T07:57:34.000Z</time>
      </trkpt>
      <trkpt lat="44.32628" lon="4.76336">
        <ele>277.4</ele>
        <time>2025-04-30T07:58:10.000Z</time>
      </trkpt>
      <trkpt lat="44.32625" lon="4.76338">
        <ele>277.9</ele>
        <time>2025-04-30T07:58:14.000Z</time>
      </trkpt>
      <trkpt lat="44.32625" lon="4.76335">
        <ele>277.7</ele>
        <time>2025-04-30T07:58:18.000Z</time>
      </trkpt>
      <trkpt lat="44.32625" lon="4.76339">
        <ele>278</ele>
        <time>2025-04-30T07:58:22.000Z</time>
      </trkpt>
      <trkpt lat="44.32627" lon="4.76336">
        <ele>277.6</ele>
        <time>2025-04-30T07:58:29.000Z</time>
      </trkpt>
      <trkpt lat="44.32629" lon="4.76334">
        <ele>277.2</ele>
        <time>2025-04-30T07:58:31.000Z</time>
      </trkpt>
      <trkpt lat="44.3263" lon="4.76331">
        <ele>276.7</ele>
        <time>2025-04-30T07:58:36.000Z</time>
      </trkpt>
      <trkpt lat="44.3263" lon="4.76334">
        <ele>277</ele>
        <time>2025-04-30T07:58:41.000Z</time>
      </trkpt>
      <trkpt lat="44.32629" lon="4.76336">
        <ele>277.3</ele>
        <time>2025-04-30T07:58:45.000Z</time>
      </trkpt>
      <trkpt lat="44.32626" lon="4.76335">
        <ele>277.5</ele>
        <time>2025-04-30T07:59:16.000Z</time>
      </trkpt>
      <trkpt lat="44.32628" lon="4.76337">
        <ele>277.5</ele>
        <time>2025-04-30T07:59:20.000Z</time>
      </trkpt>
      <trkpt lat="44.3263" lon="4.76338">
        <ele>277.5</ele>
        <time>2025-04-30T07:59:45.000Z</time>
      </trkpt>
      <trkpt lat="44.32629" lon="4.76341">
        <ele>277.8</ele>
        <time>2025-04-30T08:00:04.000Z</time>
      </trkpt>
      <trkpt lat="44.32627" lon="4.76343">
        <ele>278.2</ele>
        <time>2025-04-30T08:00:30.000Z</time>
      </trkpt>
      <trkpt lat="44.32628" lon="4.7634">
        <ele>277.8</ele>
        <time>2025-04-30T08:00:47.000Z</time>
      </trkpt>
      <trkpt lat="44.32623" lon="4.76342">
        <ele>278.5</ele>
        <time>2025-04-30T08:01:17.000Z</time>
      </trkpt>
      <trkpt lat="44.32625" lon="4.76341">
        <ele>278.2</ele>
        <time>2025-04-30T08:01:34.000Z</time>
      </trkpt>
      <trkpt lat="44.32626" lon="4.76344">
        <ele>278.4</ele>
        <time>2025-04-30T08:01:43.000Z</time>
      </trkpt>
      <trkpt lat="44.32624" lon="4.76342">
        <ele>278.3</ele>
        <time>2025-04-30T08:02:03.000Z</time>
      </trkpt>
      <trkpt lat="44.32622" lon="4.76341">
        <ele>278.5</ele>
        <time>2025-04-30T08:02:07.000Z</time>
      </trkpt>
      <trkpt lat="44.3262" lon="4.76339">
        <ele>278.5</ele>
        <time>2025-04-30T08:02:26.000Z</time>
      </trkpt>
      <trkpt lat="44.32618" lon="4.76337">
        <ele>278.5</ele>
        <time>2025-04-30T08:02:28.000Z</time>
      </trkpt>
      <trkpt lat="44.32617" lon="4.76334">
        <ele>278.4</ele>
        <time>2025-04-30T08:02:30.000Z</time>
      </trkpt>
      <trkpt lat="44.32615" lon="4.76331">
        <ele>278.3</ele>
        <time>2025-04-30T08:02:33.000Z</time>
      </trkpt>
      <trkpt lat="44.32614" lon="4.76328">
        <ele>278.2</ele>
        <time>2025-04-30T08:02:36.000Z</time>
      </trkpt>
      <trkpt lat="44.32612" lon="4.76327">
        <ele>278.2</ele>
        <time>2025-04-30T08:02:39.000Z</time>
      </trkpt>
      <trkpt lat="44.32612" lon="4.76324">
        <ele>277.9</ele>
        <time>2025-04-30T08:02:44.000Z</time>
      </trkpt>
      <trkpt lat="44.32611" lon="4.76322">
        <ele>277.8</ele>
        <time>2025-04-30T08:02:46.000Z</time>
      </trkpt>
      <trkpt lat="44.32609" lon="4.7632">
        <ele>277.8</ele>
        <time>2025-04-30T08:02:49.000Z</time>
      </trkpt>
      <trkpt lat="44.32607" lon="4.76319">
        <ele>277.9</ele>
        <time>2025-04-30T08:02:52.000Z</time>
      </trkpt>
      <trkpt lat="44.32605" lon="4.76318">
        <ele>278</ele>
        <time>2025-04-30T08:02:55.000Z</time>
      </trkpt>
      <trkpt lat="44.32603" lon="4.76319">
        <ele>278.3</ele>
        <time>2025-04-30T08:02:58.000Z</time>
      </trkpt>
      <trkpt lat="44.32601" lon="4.76319">
        <ele>278.5</ele>
        <time>2025-04-30T08:03:02.000Z</time>
      </trkpt>
      <trkpt lat="44.326" lon="4.76316">
        <ele>278.5</ele>
        <time>2025-04-30T08:03:06.000Z</time>
      </trkpt>
      <trkpt lat="44.32598" lon="4.76314">
        <ele>278.5</ele>
        <time>2025-04-30T08:03:08.000Z</time>
      </trkpt>
      <trkpt lat="44.32596" lon="4.76313">
        <ele>278.6</ele>
        <time>2025-04-30T08:03:11.000Z</time>
      </trkpt>
      <trkpt lat="44.32595" lon="4.76312">
        <ele>278.8</ele>
        <time>2025-04-30T08:03:13.000Z</time>
      </trkpt>
      <trkpt lat="44.32592" lon="4.76311">
        <ele>279</ele>
        <time>2025-04-30T08:03:15.000Z</time>
      </trkpt>
      <trkpt lat="44.32591" lon="4.7631">
        <ele>279.1</ele>
        <time>2025-04-30T08:03:17.000Z</time>
      </trkpt>
      <trkpt lat="44.3259" lon="4.76307">
        <ele>279.1</ele>
        <time>2025-04-30T08:03:19.000Z</time>
      </trkpt>
      <trkpt lat="44.32588" lon="4.76306">
        <ele>279.4</ele>
        <time>2025-04-30T08:03:23.000Z</time>
      </trkpt>
      <trkpt lat="44.32586" lon="4.76305">
        <ele>279.6</ele>
        <time>2025-04-30T08:03:25.000Z</time>
      </trkpt>
      <trkpt lat="44.32583" lon="4.76305">
        <ele>279.9</ele>
        <time>2025-04-30T08:03:28.000Z</time>
      </trkpt>
      <trkpt lat="44.32581" lon="4.76304">
        <ele>280</ele>
        <time>2025-04-30T08:03:30.000Z</time>
      </trkpt>
      <trkpt lat="44.32579" lon="4.76303">
        <ele>280.1</ele>
        <time>2025-04-30T08:03:32.000Z</time>
      </trkpt>
      <trkpt lat="44.32578" lon="4.76301">
        <ele>280.1</ele>
        <time>2025-04-30T08:03:37.000Z</time>
      </trkpt>
      <trkpt lat="44.32576" lon="4.76299">
        <ele>280.2</ele>
        <time>2025-04-30T08:03:40.000Z</time>
      </trkpt>
      <trkpt lat="44.32573" lon="4.76298">
        <ele>280.4</ele>
        <time>2025-04-30T08:03:47.000Z</time>
      </trkpt>
      <trkpt lat="44.32572" lon="4.76295">
        <ele>280.4</ele>
        <time>2025-04-30T08:03:49.000Z</time>
      </trkpt>
      <trkpt lat="44.3257" lon="4.76292">
        <ele>280.4</ele>
        <time>2025-04-30T08:03:52.000Z</time>
      </trkpt>
      <trkpt lat="44.32568" lon="4.7629">
        <ele>280.6</ele>
        <time>2025-04-30T08:03:55.000Z</time>
      </trkpt>
      <trkpt lat="44.32565" lon="4.76288">
        <ele>280.9</ele>
        <time>2025-04-30T08:03:58.000Z</time>
      </trkpt>
      <trkpt lat="44.32563" lon="4.76288">
        <ele>281.1</ele>
        <time>2025-04-30T08:04:00.000Z</time>
      </trkpt>
      <trkpt lat="44.32561" lon="4.76287">
        <ele>281.3</ele>
        <time>2025-04-30T08:04:02.000Z</time>
      </trkpt>
      <trkpt lat="44.32558" lon="4.76288">
        <ele>281.7</ele>
        <time>2025-04-30T08:04:04.000Z</time>
      </trkpt>
      <trkpt lat="44.32557" lon="4.7629">
        <ele>281.9</ele>
        <time>2025-04-30T08:04:05.000Z</time>
      </trkpt>
      <trkpt lat="44.32556" lon="4.76286">
        <ele>282</ele>
        <time>2025-04-30T08:04:07.000Z</time>
      </trkpt>
      <trkpt lat="44.32554" lon="4.76285">
        <ele>282.2</ele>
        <time>2025-04-30T08:04:10.000Z</time>
      </trkpt>
      <trkpt lat="44.32551" lon="4.76284">
        <ele>282.5</ele>
        <time>2025-04-30T08:04:13.000Z</time>
      </trkpt>
      <trkpt lat="44.32549" lon="4.76286">
        <ele>282.7</ele>
        <time>2025-04-30T08:04:16.000Z</time>
      </trkpt>
      <trkpt lat="44.32548" lon="4.76288">
        <ele>282.8</ele>
        <time>2025-04-30T08:04:19.000Z</time>
      </trkpt>
      <trkpt lat="44.32548" lon="4.76291">
        <ele>282.9</ele>
        <time>2025-04-30T08:04:21.000Z</time>
      </trkpt>
      <trkpt lat="44.32547" lon="4.76295">
        <ele>282.9</ele>
        <time>2025-04-30T08:04:23.000Z</time>
      </trkpt>
      <trkpt lat="44.32547" lon="4.76299">
        <ele>282.9</ele>
        <time>2025-04-30T08:04:25.000Z</time>
      </trkpt>
      <trkpt lat="44.32546" lon="4.76302">
        <ele>283</ele>
        <time>2025-04-30T08:04:27.000Z</time>
      </trkpt>
      <trkpt lat="44.32545" lon="4.76305">
        <ele>283.1</ele>
        <time>2025-04-30T08:04:30.000Z</time>
      </trkpt>
      <trkpt lat="44.32543" lon="4.76308">
        <ele>283.2</ele>
        <time>2025-04-30T08:04:33.000Z</time>
      </trkpt>
      <trkpt lat="44.32542" lon="4.7631">
        <ele>283.3</ele>
        <time>2025-04-30T08:04:36.000Z</time>
      </trkpt>
      <trkpt lat="44.3254" lon="4.76312">
        <ele>283.5</ele>
        <time>2025-04-30T08:04:39.000Z</time>
      </trkpt>
      <trkpt lat="44.32538" lon="4.76313">
        <ele>283.6</ele>
        <time>2025-04-30T08:04:43.000Z</time>
      </trkpt>
      <trkpt lat="44.32536" lon="4.76314">
        <ele>283.9</ele>
        <time>2025-04-30T08:04:46.000Z</time>
      </trkpt>
      <trkpt lat="44.32534" lon="4.76315">
        <ele>284</ele>
        <time>2025-04-30T08:04:49.000Z</time>
      </trkpt>
      <trkpt lat="44.32532" lon="4.76316">
        <ele>284.2</ele>
        <time>2025-04-30T08:04:52.000Z</time>
      </trkpt>
      <trkpt lat="44.3253" lon="4.76319">
        <ele>284.3</ele>
        <time>2025-04-30T08:04:57.000Z</time>
      </trkpt>
      <trkpt lat="44.32529" lon="4.76322">
        <ele>284.3</ele>
        <time>2025-04-30T08:05:00.000Z</time>
      </trkpt>
      <trkpt lat="44.32527" lon="4.76323">
        <ele>284.5</ele>
        <time>2025-04-30T08:05:02.000Z</time>
      </trkpt>
      <trkpt lat="44.32526" lon="4.76325">
        <ele>284.5</ele>
        <time>2025-04-30T08:05:04.000Z</time>
      </trkpt>
      <trkpt lat="44.32524" lon="4.76327">
        <ele>284.6</ele>
        <time>2025-04-30T08:05:07.000Z</time>
      </trkpt>
      <trkpt lat="44.32522" lon="4.76328">
        <ele>284.7</ele>
        <time>2025-04-30T08:05:09.000Z</time>
      </trkpt>
      <trkpt lat="44.32521" lon="4.76331">
        <ele>284.8</ele>
        <time>2025-04-30T08:05:12.000Z</time>
      </trkpt>
      <trkpt lat="44.32518" lon="4.76333">
        <ele>285</ele>
        <time>2025-04-30T08:05:14.000Z</time>
      </trkpt>
      <trkpt lat="44.32517" lon="4.76335">
        <ele>285.2</ele>
        <time>2025-04-30T08:05:17.000Z</time>
      </trkpt>
      <trkpt lat="44.32515" lon="4.76337">
        <ele>285.4</ele>
        <time>2025-04-30T08:05:19.000Z</time>
      </trkpt>
      <trkpt lat="44.32513" lon="4.76339">
        <ele>285.6</ele>
        <time>2025-04-30T08:05:21.000Z</time>
      </trkpt>
      <trkpt lat="44.32512" lon="4.76341">
        <ele>285.7</ele>
        <time>2025-04-30T08:05:24.000Z</time>
      </trkpt>
      <trkpt lat="44.32511" lon="4.76343">
        <ele>285.9</ele>
        <time>2025-04-30T08:05:27.000Z</time>
      </trkpt>
      <trkpt lat="44.32509" lon="4.76346">
        <ele>286</ele>
        <time>2025-04-30T08:05:29.000Z</time>
      </trkpt>
      <trkpt lat="44.32508" lon="4.76349">
        <ele>286.2</ele>
        <time>2025-04-30T08:05:32.000Z</time>
      </trkpt>
      <trkpt lat="44.32506" lon="4.76351">
        <ele>286.4</ele>
        <time>2025-04-30T08:05:34.000Z</time>
      </trkpt>
      <trkpt lat="44.32504" lon="4.76352">
        <ele>286.5</ele>
        <time>2025-04-30T08:05:36.000Z</time>
      </trkpt>
      <trkpt lat="44.32503" lon="4.76353">
        <ele>286.7</ele>
        <time>2025-04-30T08:05:39.000Z</time>
      </trkpt>
      <trkpt lat="44.325" lon="4.76353">
        <ele>287</ele>
        <time>2025-04-30T08:05:41.000Z</time>
      </trkpt>
      <trkpt lat="44.32499" lon="4.76355">
        <ele>287.1</ele>
        <time>2025-04-30T08:05:43.000Z</time>
      </trkpt>
      <trkpt lat="44.32497" lon="4.76358">
        <ele>287.2</ele>
        <time>2025-04-30T08:05:46.000Z</time>
      </trkpt>
      <trkpt lat="44.32496" lon="4.76361">
        <ele>287.3</ele>
        <time>2025-04-30T08:05:48.000Z</time>
      </trkpt>
      <trkpt lat="44.32494" lon="4.76363">
        <ele>287.4</ele>
        <time>2025-04-30T08:05:51.000Z</time>
      </trkpt>
      <trkpt lat="44.32491" lon="4.76366">
        <ele>287.6</ele>
        <time>2025-04-30T08:05:53.000Z</time>
      </trkpt>
      <trkpt lat="44.3249" lon="4.76367">
        <ele>287.7</ele>
        <time>2025-04-30T08:05:54.000Z</time>
      </trkpt>
      <trkpt lat="44.32488" lon="4.76368">
        <ele>287.9</ele>
        <time>2025-04-30T08:05:56.000Z</time>
      </trkpt>
      <trkpt lat="44.32486" lon="4.76371">
        <ele>288</ele>
        <time>2025-04-30T08:06:00.000Z</time>
      </trkpt>
      <trkpt lat="44.32484" lon="4.76374">
        <ele>288.2</ele>
        <time>2025-04-30T08:06:01.000Z</time>
      </trkpt>
      <trkpt lat="44.32481" lon="4.76376">
        <ele>288.4</ele>
        <time>2025-04-30T08:06:02.000Z</time>
      </trkpt>
      <trkpt lat="44.32479" lon="4.76378">
        <ele>288.5</ele>
        <time>2025-04-30T08:06:03.000Z</time>
      </trkpt>
      <trkpt lat="44.32478" lon="4.7638">
        <ele>288.6</ele>
        <time>2025-04-30T08:06:06.000Z</time>
      </trkpt>
      <trkpt lat="44.32476" lon="4.76382">
        <ele>288.7</ele>
        <time>2025-04-30T08:06:08.000Z</time>
      </trkpt>
      <trkpt lat="44.32474" lon="4.76385">
        <ele>288.9</ele>
        <time>2025-04-30T08:06:10.000Z</time>
      </trkpt>
      <trkpt lat="44.32472" lon="4.76388">
        <ele>289</ele>
        <time>2025-04-30T08:06:12.000Z</time>
      </trkpt>
      <trkpt lat="44.32471" lon="4.7639">
        <ele>289</ele>
        <time>2025-04-30T08:06:14.000Z</time>
      </trkpt>
      <trkpt lat="44.32473" lon="4.76391">
        <ele>288.9</ele>
        <time>2025-04-30T08:06:15.000Z</time>
      </trkpt>
      <trkpt lat="44.32476" lon="4.76392">
        <ele>288.7</ele>
        <time>2025-04-30T08:06:16.000Z</time>
      </trkpt>
      <trkpt lat="44.32475" lon="4.76395">
        <ele>288.6</ele>
        <time>2025-04-30T08:06:18.000Z</time>
      </trkpt>
      <trkpt lat="44.32473" lon="4.76398">
        <ele>288.6</ele>
        <time>2025-04-30T08:06:20.000Z</time>
      </trkpt>
      <trkpt lat="44.32471" lon="4.76401">
        <ele>288.6</ele>
        <time>2025-04-30T08:06:22.000Z</time>
      </trkpt>
      <trkpt lat="44.32468" lon="4.76402">
        <ele>288.5</ele>
        <time>2025-04-30T08:06:24.000Z</time>
      </trkpt>
      <trkpt lat="44.32467" lon="4.76404">
        <ele>288.5</ele>
        <time>2025-04-30T08:06:27.000Z</time>
      </trkpt>
      <trkpt lat="44.32466" lon="4.76407">
        <ele>288.4</ele>
        <time>2025-04-30T08:06:30.000Z</time>
      </trkpt>
      <trkpt lat="44.32465" lon="4.7641">
        <ele>288.3</ele>
        <time>2025-04-30T08:06:32.000Z</time>
      </trkpt>
      <trkpt lat="44.32462" lon="4.76412">
        <ele>288.2</ele>
        <time>2025-04-30T08:06:35.000Z</time>
      </trkpt>
      <trkpt lat="44.3246" lon="4.76413">
        <ele>288.1</ele>
        <time>2025-04-30T08:06:38.000Z</time>
      </trkpt>
      <trkpt lat="44.32456" lon="4.76414">
        <ele>288.1</ele>
        <time>2025-04-30T08:06:41.000Z</time>
      </trkpt>
      <trkpt lat="44.32453" lon="4.76415">
        <ele>288.1</ele>
        <time>2025-04-30T08:06:42.000Z</time>
      </trkpt>
      <trkpt lat="44.32452" lon="4.76417">
        <ele>288</ele>
        <time>2025-04-30T08:06:43.000Z</time>
      </trkpt>
      <trkpt lat="44.32449" lon="4.76416">
        <ele>288</ele>
        <time>2025-04-30T08:06:47.000Z</time>
      </trkpt>
      <trkpt lat="44.32447" lon="4.76416">
        <ele>288</ele>
        <time>2025-04-30T08:06:51.000Z</time>
      </trkpt>
      <trkpt lat="44.32445" lon="4.76416">
        <ele>288</ele>
        <time>2025-04-30T08:06:53.000Z</time>
      </trkpt>
      <trkpt lat="44.32444" lon="4.7642">
        <ele>287.8</ele>
        <time>2025-04-30T08:06:55.000Z</time>
      </trkpt>
      <trkpt lat="44.32443" lon="4.76422">
        <ele>287.5</ele>
        <time>2025-04-30T08:06:57.000Z</time>
      </trkpt>
      <trkpt lat="44.32441" lon="4.76424">
        <ele>287.3</ele>
        <time>2025-04-30T08:06:58.000Z</time>
      </trkpt>
      <trkpt lat="44.3244" lon="4.76426">
        <ele>287</ele>
        <time>2025-04-30T08:07:00.000Z</time>
      </trkpt>
      <trkpt lat="44.32438" lon="4.76426">
        <ele>286.8</ele>
        <time>2025-04-30T08:07:02.000Z</time>
      </trkpt>
      <trkpt lat="44.32436" lon="4.76428">
        <ele>286.5</ele>
        <time>2025-04-30T08:07:05.000Z</time>
      </trkpt>
      <trkpt lat="44.32434" lon="4.7643">
        <ele>286.3</ele>
        <time>2025-04-30T08:07:07.000Z</time>
      </trkpt>
      <trkpt lat="44.32431" lon="4.76431">
        <ele>286</ele>
        <time>2025-04-30T08:07:10.000Z</time>
      </trkpt>
      <trkpt lat="44.32429" lon="4.76431">
        <ele>285.8</ele>
        <time>2025-04-30T08:07:12.000Z</time>
      </trkpt>
      <trkpt lat="44.32427" lon="4.76431">
        <ele>285.7</ele>
        <time>2025-04-30T08:07:15.000Z</time>
      </trkpt>
      <trkpt lat="44.32424" lon="4.76431">
        <ele>285.5</ele>
        <time>2025-04-30T08:07:18.000Z</time>
      </trkpt>
      <trkpt lat="44.32422" lon="4.76432">
        <ele>285.3</ele>
        <time>2025-04-30T08:07:20.000Z</time>
      </trkpt>
      <trkpt lat="44.3242" lon="4.76433">
        <ele>285</ele>
        <time>2025-04-30T08:07:22.000Z</time>
      </trkpt>
      <trkpt lat="44.32418" lon="4.76432">
        <ele>285</ele>
        <time>2025-04-30T08:07:24.000Z</time>
      </trkpt>
      <trkpt lat="44.32416" lon="4.7643">
        <ele>285</ele>
        <time>2025-04-30T08:07:26.000Z</time>
      </trkpt>
      <trkpt lat="44.32413" lon="4.76432">
        <ele>284.9</ele>
        <time>2025-04-30T08:07:28.000Z</time>
      </trkpt>
      <trkpt lat="44.32411" lon="4.76434">
        <ele>284.8</ele>
        <time>2025-04-30T08:07:30.000Z</time>
      </trkpt>
      <trkpt lat="44.32411" lon="4.76438">
        <ele>284.5</ele>
        <time>2025-04-30T08:07:32.000Z</time>
      </trkpt>
      <trkpt lat="44.32409" lon="4.76441">
        <ele>284.3</ele>
        <time>2025-04-30T08:07:34.000Z</time>
      </trkpt>
      <trkpt lat="44.32407" lon="4.76442">
        <ele>284.2</ele>
        <time>2025-04-30T08:07:36.000Z</time>
      </trkpt>
      <trkpt lat="44.32405" lon="4.76443">
        <ele>284.1</ele>
        <time>2025-04-30T08:07:38.000Z</time>
      </trkpt>
      <trkpt lat="44.32403" lon="4.76444">
        <ele>284</ele>
        <time>2025-04-30T08:07:40.000Z</time>
      </trkpt>
      <trkpt lat="44.32401" lon="4.76445">
        <ele>284</ele>
        <time>2025-04-30T08:07:42.000Z</time>
      </trkpt>
      <trkpt lat="44.32399" lon="4.76445">
        <ele>284</ele>
        <time>2025-04-30T08:07:45.000Z</time>
      </trkpt>
      <trkpt lat="44.32399" lon="4.76448">
        <ele>283.9</ele>
        <time>2025-04-30T08:07:55.000Z</time>
      </trkpt>
      <trkpt lat="44.32401" lon="4.76452">
        <ele>283.7</ele>
        <time>2025-04-30T08:08:00.000Z</time>
      </trkpt>
      <trkpt lat="44.32402" lon="4.76454">
        <ele>283.7</ele>
        <time>2025-04-30T08:08:02.000Z</time>
      </trkpt>
      <trkpt lat="44.324" lon="4.76453">
        <ele>283.7</ele>
        <time>2025-04-30T08:08:06.000Z</time>
      </trkpt>
      <trkpt lat="44.32398" lon="4.76453">
        <ele>283.7</ele>
        <time>2025-04-30T08:08:12.000Z</time>
      </trkpt>
      <trkpt lat="44.32398" lon="4.7645">
        <ele>283.8</ele>
        <time>2025-04-30T08:08:23.000Z</time>
      </trkpt>
      <trkpt lat="44.32401" lon="4.76449">
        <ele>283.9</ele>
        <time>2025-04-30T08:08:26.000Z</time>
      </trkpt>
      <trkpt lat="44.32403" lon="4.76447">
        <ele>283.9</ele>
        <time>2025-04-30T08:08:34.000Z</time>
      </trkpt>
      <trkpt lat="44.32404" lon="4.76445">
        <ele>284</ele>
        <time>2025-04-30T08:08:37.000Z</time>
      </trkpt>
      <trkpt lat="44.32407" lon="4.76447">
        <ele>283.9</ele>
        <time>2025-04-30T08:08:40.000Z</time>
      </trkpt>
      <trkpt lat="44.3241" lon="4.76447">
        <ele>283.9</ele>
        <time>2025-04-30T08:08:42.000Z</time>
      </trkpt>
      <trkpt lat="44.32411" lon="4.76444">
        <ele>284</ele>
        <time>2025-04-30T08:08:44.000Z</time>
      </trkpt>
      <trkpt lat="44.32412" lon="4.76442">
        <ele>284.2</ele>
        <time>2025-04-30T08:08:45.000Z</time>
      </trkpt>
      <trkpt lat="44.32415" lon="4.76441">
        <ele>284.2</ele>
        <time>2025-04-30T08:08:47.000Z</time>
      </trkpt>
      <trkpt lat="44.32418" lon="4.7644">
        <ele>284.4</ele>
        <time>2025-04-30T08:08:49.000Z</time>
      </trkpt>
      <trkpt lat="44.3242" lon="4.76439">
        <ele>284.6</ele>
        <time>2025-04-30T08:08:50.000Z</time>
      </trkpt>
      <trkpt lat="44.32423" lon="4.76437">
        <ele>285</ele>
        <time>2025-04-30T08:08:51.000Z</time>
      </trkpt>
      <trkpt lat="44.32426" lon="4.76436">
        <ele>285.3</ele>
        <time>2025-04-30T08:08:53.000Z</time>
      </trkpt>
      <trkpt lat="44.32427" lon="4.76433">
        <ele>285.6</ele>
        <time>2025-04-30T08:08:56.000Z</time>
      </trkpt>
      <trkpt lat="44.32429" lon="4.76432">
        <ele>285.8</ele>
        <time>2025-04-30T08:08:59.000Z</time>
      </trkpt>
      <trkpt lat="44.3243" lon="4.76428">
        <ele>286.2</ele>
        <time>2025-04-30T08:09:03.000Z</time>
      </trkpt>
      <trkpt lat="44.32432" lon="4.76427">
        <ele>286.4</ele>
        <time>2025-04-30T08:09:05.000Z</time>
      </trkpt>
      <trkpt lat="44.32435" lon="4.76427">
        <ele>286.6</ele>
        <time>2025-04-30T08:09:07.000Z</time>
      </trkpt>
      <trkpt lat="44.32436" lon="4.76426">
        <ele>286.8</ele>
        <time>2025-04-30T08:09:09.000Z</time>
      </trkpt>
      <trkpt lat="44.3244" lon="4.76426">
        <ele>287</ele>
        <time>2025-04-30T08:09:11.000Z</time>
      </trkpt>
      <trkpt lat="44.32442" lon="4.76424">
        <ele>287.3</ele>
        <time>2025-04-30T08:09:13.000Z</time>
      </trkpt>
      <trkpt lat="44.32445" lon="4.76422">
        <ele>287.6</ele>
        <time>2025-04-30T08:09:15.000Z</time>
      </trkpt>
      <trkpt lat="44.32447" lon="4.76421">
        <ele>287.7</ele>
        <time>2025-04-30T08:09:16.000Z</time>
      </trkpt>
      <trkpt lat="44.32448" lon="4.7642">
        <ele>287.8</ele>
        <time>2025-04-30T08:09:18.000Z</time>
      </trkpt>
      <trkpt lat="44.32451" lon="4.76417">
        <ele>288</ele>
        <time>2025-04-30T08:09:21.000Z</time>
      </trkpt>
      <trkpt lat="44.32453" lon="4.76416">
        <ele>288</ele>
        <time>2025-04-30T08:09:23.000Z</time>
      </trkpt>
      <trkpt lat="44.32455" lon="4.76415">
        <ele>288</ele>
        <time>2025-04-30T08:09:25.000Z</time>
      </trkpt>
      <trkpt lat="44.32457" lon="4.76415">
        <ele>288.1</ele>
        <time>2025-04-30T08:09:27.000Z</time>
      </trkpt>
      <trkpt lat="44.32459" lon="4.76414">
        <ele>288.1</ele>
        <time>2025-04-30T08:09:29.000Z</time>
      </trkpt>
      <trkpt lat="44.32461" lon="4.76414">
        <ele>288.1</ele>
        <time>2025-04-30T08:09:30.000Z</time>
      </trkpt>
      <trkpt lat="44.32462" lon="4.76411">
        <ele>288.2</ele>
        <time>2025-04-30T08:09:32.000Z</time>
      </trkpt>
      <trkpt lat="44.32464" lon="4.76409">
        <ele>288.3</ele>
        <time>2025-04-30T08:09:34.000Z</time>
      </trkpt>
      <trkpt lat="44.32467" lon="4.76406">
        <ele>288.4</ele>
        <time>2025-04-30T08:09:36.000Z</time>
      </trkpt>
      <trkpt lat="44.32469" lon="4.76405">
        <ele>288.4</ele>
        <time>2025-04-30T08:09:37.000Z</time>
      </trkpt>
      <trkpt lat="44.32472" lon="4.76404">
        <ele>288.5</ele>
        <time>2025-04-30T08:09:39.000Z</time>
      </trkpt>
      <trkpt lat="44.32474" lon="4.76403">
        <ele>288.4</ele>
        <time>2025-04-30T08:09:42.000Z</time>
      </trkpt>
      <trkpt lat="44.32476" lon="4.76401">
        <ele>288.4</ele>
        <time>2025-04-30T08:09:44.000Z</time>
      </trkpt>
      <trkpt lat="44.32477" lon="4.76396">
        <ele>288.4</ele>
        <time>2025-04-30T08:09:46.000Z</time>
      </trkpt>
      <trkpt lat="44.32478" lon="4.76393">
        <ele>288.5</ele>
        <time>2025-04-30T08:09:47.000Z</time>
      </trkpt>
      <trkpt lat="44.32479" lon="4.7639">
        <ele>288.5</ele>
        <time>2025-04-30T08:09:48.000Z</time>
      </trkpt>
      <trkpt lat="44.3248" lon="4.76386">
        <ele>288.4</ele>
        <time>2025-04-30T08:09:50.000Z</time>
      </trkpt>
      <trkpt lat="44.32483" lon="4.76384">
        <ele>288.2</ele>
        <time>2025-04-30T08:09:53.000Z</time>
      </trkpt>
      <trkpt lat="44.32485" lon="4.76382">
        <ele>288.1</ele>
        <time>2025-04-30T08:09:56.000Z</time>
      </trkpt>
      <trkpt lat="44.32486" lon="4.7638">
        <ele>288</ele>
        <time>2025-04-30T08:09:59.000Z</time>
      </trkpt>
      <trkpt lat="44.32488" lon="4.76379">
        <ele>287.9</ele>
        <time>2025-04-30T08:10:00.000Z</time>
      </trkpt>
      <trkpt lat="44.32489" lon="4.76376">
        <ele>287.8</ele>
        <time>2025-04-30T08:10:02.000Z</time>
      </trkpt>
      <trkpt lat="44.32491" lon="4.76373">
        <ele>287.7</ele>
        <time>2025-04-30T08:10:05.000Z</time>
      </trkpt>
      <trkpt lat="44.32492" lon="4.76371">
        <ele>287.6</ele>
        <time>2025-04-30T08:10:06.000Z</time>
      </trkpt>
      <trkpt lat="44.32494" lon="4.76368">
        <ele>287.4</ele>
        <time>2025-04-30T08:10:08.000Z</time>
      </trkpt>
      <trkpt lat="44.32496" lon="4.76365">
        <ele>287.3</ele>
        <time>2025-04-30T08:10:10.000Z</time>
      </trkpt>
      <trkpt lat="44.32499" lon="4.76363">
        <ele>287.1</ele>
        <time>2025-04-30T08:10:12.000Z</time>
      </trkpt>
      <trkpt lat="44.32501" lon="4.76362">
        <ele>286.9</ele>
        <time>2025-04-30T08:10:14.000Z</time>
      </trkpt>
      <trkpt lat="44.32503" lon="4.7636">
        <ele>286.7</ele>
        <time>2025-04-30T08:10:16.000Z</time>
      </trkpt>
      <trkpt lat="44.32505" lon="4.76358">
        <ele>286.4</ele>
        <time>2025-04-30T08:10:18.000Z</time>
      </trkpt>
      <trkpt lat="44.32508" lon="4.76356">
        <ele>286.2</ele>
        <time>2025-04-30T08:10:20.000Z</time>
      </trkpt>
      <trkpt lat="44.3251" lon="4.76354">
        <ele>285.9</ele>
        <time>2025-04-30T08:10:22.000Z</time>
      </trkpt>
      <trkpt lat="44.32513" lon="4.76352">
        <ele>285.6</ele>
        <time>2025-04-30T08:10:24.000Z</time>
      </trkpt>
      <trkpt lat="44.32515" lon="4.7635">
        <ele>285.4</ele>
        <time>2025-04-30T08:10:26.000Z</time>
      </trkpt>
      <trkpt lat="44.32516" lon="4.76347">
        <ele>285.3</ele>
        <time>2025-04-30T08:10:29.000Z</time>
      </trkpt>
      <trkpt lat="44.32518" lon="4.76346">
        <ele>285.1</ele>
        <time>2025-04-30T08:10:31.000Z</time>
      </trkpt>
      <trkpt lat="44.3252" lon="4.76343">
        <ele>284.9</ele>
        <time>2025-04-30T08:10:33.000Z</time>
      </trkpt>
      <trkpt lat="44.32521" lon="4.7634">
        <ele>284.7</ele>
        <time>2025-04-30T08:10:35.000Z</time>
      </trkpt>
      <trkpt lat="44.32523" lon="4.76338">
        <ele>284.5</ele>
        <time>2025-04-30T08:10:37.000Z</time>
      </trkpt>
      <trkpt lat="44.32524" lon="4.76336">
        <ele>284.4</ele>
        <time>2025-04-30T08:10:38.000Z</time>
      </trkpt>
      <trkpt lat="44.32526" lon="4.76334">
        <ele>284.2</ele>
        <time>2025-04-30T08:10:40.000Z</time>
      </trkpt>
      <trkpt lat="44.32529" lon="4.76332">
        <ele>284</ele>
        <time>2025-04-30T08:10:42.000Z</time>
      </trkpt>
      <trkpt lat="44.32531" lon="4.7633">
        <ele>283.8</ele>
        <time>2025-04-30T08:10:44.000Z</time>
      </trkpt>
      <trkpt lat="44.32533" lon="4.76328">
        <ele>283.6</ele>
        <time>2025-04-30T08:10:46.000Z</time>
      </trkpt>
      <trkpt lat="44.32535" lon="4.76326">
        <ele>283.5</ele>
        <time>2025-04-30T08:10:47.000Z</time>
      </trkpt>
      <trkpt lat="44.32537" lon="4.76325">
        <ele>283.3</ele>
        <time>2025-04-30T08:10:48.000Z</time>
      </trkpt>
      <trkpt lat="44.32539" lon="4.76324">
        <ele>283.2</ele>
        <time>2025-04-30T08:10:50.000Z</time>
      </trkpt>
      <trkpt lat="44.32541" lon="4.76321">
        <ele>283.1</ele>
        <time>2025-04-30T08:10:53.000Z</time>
      </trkpt>
      <trkpt lat="44.32542" lon="4.76317">
        <ele>283</ele>
        <time>2025-04-30T08:10:55.000Z</time>
      </trkpt>
      <trkpt lat="44.32544" lon="4.76315">
        <ele>282.9</ele>
        <time>2025-04-30T08:10:57.000Z</time>
      </trkpt>
      <trkpt lat="44.32545" lon="4.76314">
        <ele>282.8</ele>
        <time>2025-04-30T08:10:59.000Z</time>
      </trkpt>
      <trkpt lat="44.32546" lon="4.76311">
        <ele>282.8</ele>
        <time>2025-04-30T08:11:01.000Z</time>
      </trkpt>
      <trkpt lat="44.32548" lon="4.76308">
        <ele>282.8</ele>
        <time>2025-04-30T08:11:03.000Z</time>
      </trkpt>
      <trkpt lat="44.32548" lon="4.76304">
        <ele>282.8</ele>
        <time>2025-04-30T08:11:05.000Z</time>
      </trkpt>
      <trkpt lat="44.3255" lon="4.76302">
        <ele>282.6</ele>
        <time>2025-04-30T08:11:07.000Z</time>
      </trkpt>
      <trkpt lat="44.32553" lon="4.76301">
        <ele>282.3</ele>
        <time>2025-04-30T08:11:09.000Z</time>
      </trkpt>
      <trkpt lat="44.32556" lon="4.763">
        <ele>282</ele>
        <time>2025-04-30T08:11:11.000Z</time>
      </trkpt>
      <trkpt lat="44.32559" lon="4.76299">
        <ele>281.7</ele>
        <time>2025-04-30T08:11:13.000Z</time>
      </trkpt>
      <trkpt lat="44.32562" lon="4.76298">
        <ele>281.4</ele>
        <time>2025-04-30T08:11:15.000Z</time>
      </trkpt>
      <trkpt lat="44.32564" lon="4.76298">
        <ele>281.3</ele>
        <time>2025-04-30T08:11:17.000Z</time>
      </trkpt>
      <trkpt lat="44.32566" lon="4.76298">
        <ele>281</ele>
        <time>2025-04-30T08:11:20.000Z</time>
      </trkpt>
      <trkpt lat="44.32568" lon="4.76298">
        <ele>280.8</ele>
        <time>2025-04-30T08:11:23.000Z</time>
      </trkpt>
      <trkpt lat="44.32571" lon="4.763">
        <ele>280.7</ele>
        <time>2025-04-30T08:11:25.000Z</time>
      </trkpt>
      <trkpt lat="44.32572" lon="4.76302">
        <ele>280.6</ele>
        <time>2025-04-30T08:11:27.000Z</time>
      </trkpt>
      <trkpt lat="44.32574" lon="4.76304">
        <ele>280.6</ele>
        <time>2025-04-30T08:11:29.000Z</time>
      </trkpt>
      <trkpt lat="44.32576" lon="4.76305">
        <ele>280.5</ele>
        <time>2025-04-30T08:11:31.000Z</time>
      </trkpt>
      <trkpt lat="44.32578" lon="4.76307">
        <ele>280.4</ele>
        <time>2025-04-30T08:11:34.000Z</time>
      </trkpt>
      <trkpt lat="44.32581" lon="4.76308">
        <ele>280.2</ele>
        <time>2025-04-30T08:11:36.000Z</time>
      </trkpt>
      <trkpt lat="44.32583" lon="4.76309">
        <ele>280.1</ele>
        <time>2025-04-30T08:11:38.000Z</time>
      </trkpt>
      <trkpt lat="44.32585" lon="4.7631">
        <ele>279.9</ele>
        <time>2025-04-30T08:11:40.000Z</time>
      </trkpt>
      <trkpt lat="44.32587" lon="4.76312">
        <ele>279.8</ele>
        <time>2025-04-30T08:11:42.000Z</time>
      </trkpt>
      <trkpt lat="44.32589" lon="4.76313">
        <ele>279.6</ele>
        <time>2025-04-30T08:11:43.000Z</time>
      </trkpt>
      <trkpt lat="44.32592" lon="4.76313">
        <ele>279.3</ele>
        <time>2025-04-30T08:11:45.000Z</time>
      </trkpt>
      <trkpt lat="44.32594" lon="4.76315">
        <ele>279.1</ele>
        <time>2025-04-30T08:11:48.000Z</time>
      </trkpt>
      <trkpt lat="44.32597" lon="4.76315">
        <ele>278.8</ele>
        <time>2025-04-30T08:11:51.000Z</time>
      </trkpt>
      <trkpt lat="44.326" lon="4.76317">
        <ele>278.5</ele>
        <time>2025-04-30T08:11:53.000Z</time>
      </trkpt>
      <trkpt lat="44.32602" lon="4.76318">
        <ele>278.4</ele>
        <time>2025-04-30T08:11:55.000Z</time>
      </trkpt>
      <trkpt lat="44.32604" lon="4.7632">
        <ele>278.3</ele>
        <time>2025-04-30T08:11:56.000Z</time>
      </trkpt>
      <trkpt lat="44.32605" lon="4.76321">
        <ele>278.3</ele>
        <time>2025-04-30T08:11:57.000Z</time>
      </trkpt>
      <trkpt lat="44.32608" lon="4.76323">
        <ele>278.1</ele>
        <time>2025-04-30T08:11:59.000Z</time>
      </trkpt>
      <trkpt lat="44.32611" lon="4.76325">
        <ele>278.2</ele>
        <time>2025-04-30T08:12:01.000Z</time>
      </trkpt>
      <trkpt lat="44.32612" lon="4.76328">
        <ele>278.3</ele>
        <time>2025-04-30T08:12:03.000Z</time>
      </trkpt>
      <trkpt lat="44.32614" lon="4.7633">
        <ele>278.4</ele>
        <time>2025-04-30T08:12:05.000Z</time>
      </trkpt>
      <trkpt lat="44.32616" lon="4.76332">
        <ele>278.3</ele>
        <time>2025-04-30T08:12:07.000Z</time>
      </trkpt>
      <trkpt lat="44.32619" lon="4.76333">
        <ele>278.1</ele>
        <time>2025-04-30T08:12:09.000Z</time>
      </trkpt>
      <trkpt lat="44.32622" lon="4.76333">
        <ele>277.9</ele>
        <time>2025-04-30T08:12:11.000Z</time>
      </trkpt>
      <trkpt lat="44.32624" lon="4.76334">
        <ele>277.7</ele>
        <time>2025-04-30T08:12:13.000Z</time>
      </trkpt>
      <trkpt lat="44.32626" lon="4.76333">
        <ele>277.4</ele>
        <time>2025-04-30T08:12:16.000Z</time>
      </trkpt>
      <trkpt lat="44.32628" lon="4.76332">
        <ele>277.1</ele>
        <time>2025-04-30T08:12:19.000Z</time>
      </trkpt>
      <trkpt lat="44.32629" lon="4.7633">
        <ele>276.7</ele>
        <time>2025-04-30T08:12:27.000Z</time>
      </trkpt>
      <trkpt lat="44.32628" lon="4.76332">
        <ele>277.1</ele>
        <time>2025-04-30T08:12:44.000Z</time>
      </trkpt>
      <trkpt lat="44.3263" lon="4.76334">
        <ele>277.1</ele>
        <time>2025-04-30T08:13:23.000Z</time>
      </trkpt>
      <trkpt lat="44.32628" lon="4.76337">
        <ele>277.5</ele>
        <time>2025-04-30T08:13:26.000Z</time>
      </trkpt>
      <trkpt lat="44.32625" lon="4.76338">
        <ele>277.9</ele>
        <time>2025-04-30T08:13:28.000Z</time>
      </trkpt>
      <trkpt lat="44.32623" lon="4.76338">
        <ele>278.1</ele>
        <time>2025-04-30T08:13:30.000Z</time>
      </trkpt>
      <trkpt lat="44.3262" lon="4.76337">
        <ele>278.3</ele>
        <time>2025-04-30T08:13:32.000Z</time>
      </trkpt>
      <trkpt lat="44.32619" lon="4.76336">
        <ele>278.4</ele>
        <time>2025-04-30T08:13:33.000Z</time>
      </trkpt>
      <trkpt lat="44.32617" lon="4.76333">
        <ele>278.3</ele>
        <time>2025-04-30T08:13:41.000Z</time>
      </trkpt>
      <trkpt lat="44.32616" lon="4.76331">
        <ele>278.3</ele>
        <time>2025-04-30T08:13:43.000Z</time>
      </trkpt>
      <trkpt lat="44.32614" lon="4.76328">
        <ele>278.2</ele>
        <time>2025-04-30T08:13:45.000Z</time>
      </trkpt>
      <trkpt lat="44.32612" lon="4.76326">
        <ele>278</ele>
        <time>2025-04-30T08:13:47.000Z</time>
      </trkpt>
      <trkpt lat="44.32611" lon="4.76323">
        <ele>277.9</ele>
        <time>2025-04-30T08:13:50.000Z</time>
      </trkpt>
      <trkpt lat="44.32609" lon="4.76321">
        <ele>277.9</ele>
        <time>2025-04-30T08:13:52.000Z</time>
      </trkpt>
      <trkpt lat="44.32606" lon="4.7632">
        <ele>278.1</ele>
        <time>2025-04-30T08:13:54.000Z</time>
      </trkpt>
      <trkpt lat="44.32603" lon="4.76318">
        <ele>278.3</ele>
        <time>2025-04-30T08:13:56.000Z</time>
      </trkpt>
      <trkpt lat="44.32601" lon="4.7632">
        <ele>278.6</ele>
        <time>2025-04-30T08:13:59.000Z</time>
      </trkpt>
      <trkpt lat="44.32599" lon="4.76317">
        <ele>278.6</ele>
        <time>2025-04-30T08:14:02.000Z</time>
      </trkpt>
      <trkpt lat="44.32596" lon="4.76316">
        <ele>278.8</ele>
        <time>2025-04-30T08:14:04.000Z</time>
      </trkpt>
      <trkpt lat="44.32594" lon="4.76314">
        <ele>279</ele>
        <time>2025-04-30T08:14:07.000Z</time>
      </trkpt>
      <trkpt lat="44.32592" lon="4.76311">
        <ele>279.1</ele>
        <time>2025-04-30T08:14:09.000Z</time>
      </trkpt>
      <trkpt lat="44.3259" lon="4.76309">
        <ele>279.2</ele>
        <time>2025-04-30T08:14:12.000Z</time>
      </trkpt>
      <trkpt lat="44.32589" lon="4.76307">
        <ele>279.3</ele>
        <time>2025-04-30T08:14:14.000Z</time>
      </trkpt>
      <trkpt lat="44.32586" lon="4.76306">
        <ele>279.6</ele>
        <time>2025-04-30T08:14:16.000Z</time>
      </trkpt>
      <trkpt lat="44.32585" lon="4.76304">
        <ele>279.7</ele>
        <time>2025-04-30T08:14:18.000Z</time>
      </trkpt>
      <trkpt lat="44.32582" lon="4.76301">
        <ele>279.8</ele>
        <time>2025-04-30T08:14:20.000Z</time>
      </trkpt>
      <trkpt lat="44.32581" lon="4.76301">
        <ele>279.9</ele>
        <time>2025-04-30T08:14:22.000Z</time>
      </trkpt>
      <trkpt lat="44.32578" lon="4.76299">
        <ele>280</ele>
        <time>2025-04-30T08:14:24.000Z</time>
      </trkpt>
      <trkpt lat="44.32576" lon="4.76298">
        <ele>280.1</ele>
        <time>2025-04-30T08:14:26.000Z</time>
      </trkpt>
      <trkpt lat="44.32574" lon="4.76296">
        <ele>280.2</ele>
        <time>2025-04-30T08:14:28.000Z</time>
      </trkpt>
      <trkpt lat="44.32572" lon="4.76293">
        <ele>280.3</ele>
        <time>2025-04-30T08:14:30.000Z</time>
      </trkpt>
      <trkpt lat="44.3257" lon="4.76291">
        <ele>280.5</ele>
        <time>2025-04-30T08:14:32.000Z</time>
      </trkpt>
      <trkpt lat="44.32568" lon="4.7629">
        <ele>280.6</ele>
        <time>2025-04-30T08:14:34.000Z</time>
      </trkpt>
      <trkpt lat="44.32565" lon="4.76288">
        <ele>280.8</ele>
        <time>2025-04-30T08:14:36.000Z</time>
      </trkpt>
      <trkpt lat="44.32564" lon="4.76287">
        <ele>281</ele>
        <time>2025-04-30T08:14:38.000Z</time>
      </trkpt>
      <trkpt lat="44.32562" lon="4.76286">
        <ele>281.2</ele>
        <time>2025-04-30T08:14:40.000Z</time>
      </trkpt>
      <trkpt lat="44.3256" lon="4.76285">
        <ele>281.5</ele>
        <time>2025-04-30T08:14:42.000Z</time>
      </trkpt>
      <trkpt lat="44.32557" lon="4.76285">
        <ele>281.8</ele>
        <time>2025-04-30T08:14:45.000Z</time>
      </trkpt>
      <trkpt lat="44.32554" lon="4.76285">
        <ele>282.1</ele>
        <time>2025-04-30T08:14:48.000Z</time>
      </trkpt>
      <trkpt lat="44.32552" lon="4.76285">
        <ele>282.4</ele>
        <time>2025-04-30T08:14:50.000Z</time>
      </trkpt>
      <trkpt lat="44.3255" lon="4.76287">
        <ele>282.6</ele>
        <time>2025-04-30T08:14:52.000Z</time>
      </trkpt>
      <trkpt lat="44.32549" lon="4.76289">
        <ele>282.7</ele>
        <time>2025-04-30T08:14:54.000Z</time>
      </trkpt>
      <trkpt lat="44.32548" lon="4.76292">
        <ele>282.8</ele>
        <time>2025-04-30T08:14:56.000Z</time>
      </trkpt>
      <trkpt lat="44.32546" lon="4.76294">
        <ele>283</ele>
        <time>2025-04-30T08:14:58.000Z</time>
      </trkpt>
      <trkpt lat="44.32544" lon="4.76295">
        <ele>283.2</ele>
        <time>2025-04-30T08:15:00.000Z</time>
      </trkpt>
      <trkpt lat="44.32542" lon="4.76296">
        <ele>283.4</ele>
        <time>2025-04-30T08:15:01.000Z</time>
      </trkpt>
      <trkpt lat="44.32541" lon="4.76298">
        <ele>283.6</ele>
        <time>2025-04-30T08:15:03.000Z</time>
      </trkpt>
      <trkpt lat="44.32539" lon="4.76301">
        <ele>283.7</ele>
        <time>2025-04-30T08:15:05.000Z</time>
      </trkpt>
      <trkpt lat="44.32538" lon="4.76304">
        <ele>283.9</ele>
        <time>2025-04-30T08:15:09.000Z</time>
      </trkpt>
      <trkpt lat="44.32536" lon="4.76305">
        <ele>284.1</ele>
        <time>2025-04-30T08:15:11.000Z</time>
      </trkpt>
      <trkpt lat="44.32534" lon="4.76307">
        <ele>284.2</ele>
        <time>2025-04-30T08:15:13.000Z</time>
      </trkpt>
      <trkpt lat="44.32533" lon="4.7631">
        <ele>284.3</ele>
        <time>2025-04-30T08:15:15.000Z</time>
      </trkpt>
      <trkpt lat="44.32531" lon="4.76313">
        <ele>284.4</ele>
        <time>2025-04-30T08:15:17.000Z</time>
      </trkpt>
      <trkpt lat="44.32529" lon="4.76316">
        <ele>284.5</ele>
        <time>2025-04-30T08:15:19.000Z</time>
      </trkpt>
      <trkpt lat="44.32528" lon="4.7632">
        <ele>284.5</ele>
        <time>2025-04-30T08:15:21.000Z</time>
      </trkpt>
      <trkpt lat="44.32526" lon="4.76323">
        <ele>284.5</ele>
        <time>2025-04-30T08:15:23.000Z</time>
      </trkpt>
      <trkpt lat="44.32524" lon="4.76325">
        <ele>284.7</ele>
        <time>2025-04-30T08:15:25.000Z</time>
      </trkpt>
      <trkpt lat="44.32522" lon="4.76327">
        <ele>284.8</ele>
        <time>2025-04-30T08:15:27.000Z</time>
      </trkpt>
      <trkpt lat="44.3252" lon="4.76329">
        <ele>285</ele>
        <time>2025-04-30T08:15:30.000Z</time>
      </trkpt>
      <trkpt lat="44.32518" lon="4.76331">
        <ele>285.1</ele>
        <time>2025-04-30T08:15:32.000Z</time>
      </trkpt>
      <trkpt lat="44.32517" lon="4.76332">
        <ele>285.2</ele>
        <time>2025-04-30T08:15:34.000Z</time>
      </trkpt>
      <trkpt lat="44.32515" lon="4.76335">
        <ele>285.4</ele>
        <time>2025-04-30T08:15:36.000Z</time>
      </trkpt>
      <trkpt lat="44.32513" lon="4.76337">
        <ele>285.6</ele>
        <time>2025-04-30T08:15:38.000Z</time>
      </trkpt>
      <trkpt lat="44.32512" lon="4.76339">
        <ele>285.8</ele>
        <time>2025-04-30T08:15:40.000Z</time>
      </trkpt>
      <trkpt lat="44.3251" lon="4.76342">
        <ele>285.9</ele>
        <time>2025-04-30T08:15:43.000Z</time>
      </trkpt>
      <trkpt lat="44.32508" lon="4.76344">
        <ele>286.1</ele>
        <time>2025-04-30T08:15:45.000Z</time>
      </trkpt>
      <trkpt lat="44.32507" lon="4.76347">
        <ele>286.2</ele>
        <time>2025-04-30T08:15:47.000Z</time>
      </trkpt>
      <trkpt lat="44.32505" lon="4.76349">
        <ele>286.4</ele>
        <time>2025-04-30T08:15:49.000Z</time>
      </trkpt>
      <trkpt lat="44.32503" lon="4.76351">
        <ele>286.7</ele>
        <time>2025-04-30T08:15:51.000Z</time>
      </trkpt>
      <trkpt lat="44.32502" lon="4.76353">
        <ele>286.8</ele>
        <time>2025-04-30T08:15:54.000Z</time>
      </trkpt>
      <trkpt lat="44.325" lon="4.76355">
        <ele>287</ele>
        <time>2025-04-30T08:15:57.000Z</time>
      </trkpt>
      <trkpt lat="44.32498" lon="4.76357">
        <ele>287.2</ele>
        <time>2025-04-30T08:15:59.000Z</time>
      </trkpt>
      <trkpt lat="44.32496" lon="4.76358">
        <ele>287.3</ele>
        <time>2025-04-30T08:16:01.000Z</time>
      </trkpt>
      <trkpt lat="44.32494" lon="4.7636">
        <ele>287.4</ele>
        <time>2025-04-30T08:16:03.000Z</time>
      </trkpt>
      <trkpt lat="44.32492" lon="4.76362">
        <ele>287.5</ele>
        <time>2025-04-30T08:16:05.000Z</time>
      </trkpt>
      <trkpt lat="44.3249" lon="4.76364">
        <ele>287.7</ele>
        <time>2025-04-30T08:16:08.000Z</time>
      </trkpt>
      <trkpt lat="44.32488" lon="4.76367">
        <ele>287.9</ele>
        <time>2025-04-30T08:16:10.000Z</time>
      </trkpt>
      <trkpt lat="44.32485" lon="4.76369">
        <ele>288.1</ele>
        <time>2025-04-30T08:16:13.000Z</time>
      </trkpt>
      <trkpt lat="44.32484" lon="4.76371">
        <ele>288.2</ele>
        <time>2025-04-30T08:16:15.000Z</time>
      </trkpt>
      <trkpt lat="44.32481" lon="4.76372">
        <ele>288.4</ele>
        <time>2025-04-30T08:16:17.000Z</time>
      </trkpt>
      <trkpt lat="44.32478" lon="4.76373">
        <ele>288.6</ele>
        <time>2025-04-30T08:16:19.000Z</time>
      </trkpt>
      <trkpt lat="44.32477" lon="4.76375">
        <ele>288.7</ele>
        <time>2025-04-30T08:16:21.000Z</time>
      </trkpt>
      <trkpt lat="44.32475" lon="4.76377">
        <ele>288.8</ele>
        <time>2025-04-30T08:16:23.000Z</time>
      </trkpt>
      <trkpt lat="44.32473" lon="4.7638">
        <ele>288.9</ele>
        <time>2025-04-30T08:16:25.000Z</time>
      </trkpt>
      <trkpt lat="44.32472" lon="4.76384">
        <ele>289</ele>
        <time>2025-04-30T08:16:27.000Z</time>
      </trkpt>
      <trkpt lat="44.32471" lon="4.76387">
        <ele>289</ele>
        <time>2025-04-30T08:16:29.000Z</time>
      </trkpt>
      <trkpt lat="44.32471" lon="4.76391">
        <ele>288.9</ele>
        <time>2025-04-30T08:16:31.000Z</time>
      </trkpt>
      <trkpt lat="44.3247" lon="4.76393">
        <ele>288.9</ele>
        <time>2025-04-30T08:16:32.000Z</time>
      </trkpt>
      <trkpt lat="44.32469" lon="4.76395">
        <ele>288.8</ele>
        <time>2025-04-30T08:16:34.000Z</time>
      </trkpt>
      <trkpt lat="44.32465" lon="4.76398">
        <ele>288.7</ele>
        <time>2025-04-30T08:16:36.000Z</time>
      </trkpt>
      <trkpt lat="44.32463" lon="4.76399">
        <ele>288.7</ele>
        <time>2025-04-30T08:16:37.000Z</time>
      </trkpt>
      <trkpt lat="44.32461" lon="4.76399">
        <ele>288.6</ele>
        <time>2025-04-30T08:16:39.000Z</time>
      </trkpt>
      <trkpt lat="44.32458" lon="4.76402">
        <ele>288.5</ele>
        <time>2025-04-30T08:16:42.000Z</time>
      </trkpt>
      <trkpt lat="44.32456" lon="4.76403">
        <ele>288.5</ele>
        <time>2025-04-30T08:16:44.000Z</time>
      </trkpt>
      <trkpt lat="44.32454" lon="4.76403">
        <ele>288.5</ele>
        <time>2025-04-30T08:16:45.000Z</time>
      </trkpt>
      <trkpt lat="44.32452" lon="4.76406">
        <ele>288.4</ele>
        <time>2025-04-30T08:16:47.000Z</time>
      </trkpt>
      <trkpt lat="44.3245" lon="4.76408">
        <ele>288.3</ele>
        <time>2025-04-30T08:16:49.000Z</time>
      </trkpt>
      <trkpt lat="44.32447" lon="4.76408">
        <ele>288.3</ele>
        <time>2025-04-30T08:16:52.000Z</time>
      </trkpt>
      <trkpt lat="44.32443" lon="4.76406">
        <ele>288.3</ele>
        <time>2025-04-30T08:16:54.000Z</time>
      </trkpt>
      <trkpt lat="44.32441" lon="4.76412">
        <ele>288</ele>
        <time>2025-04-30T08:16:55.000Z</time>
      </trkpt>
      <trkpt lat="44.32444" lon="4.76413">
        <ele>288.1</ele>
        <time>2025-04-30T08:16:56.000Z</time>
      </trkpt>
      <trkpt lat="44.3244" lon="4.76414">
        <ele>287.8</ele>
        <time>2025-04-30T08:17:00.000Z</time>
      </trkpt>
      <trkpt lat="44.32438" lon="4.76413">
        <ele>287.7</ele>
        <time>2025-04-30T08:17:02.000Z</time>
      </trkpt>
      <trkpt lat="44.32437" lon="4.76416">
        <ele>287.5</ele>
        <time>2025-04-30T08:17:04.000Z</time>
      </trkpt>
      <trkpt lat="44.32434" lon="4.76416">
        <ele>287.3</ele>
        <time>2025-04-30T08:17:06.000Z</time>
      </trkpt>
      <trkpt lat="44.32433" lon="4.76418">
        <ele>287</ele>
        <time>2025-04-30T08:17:07.000Z</time>
      </trkpt>
      <trkpt lat="44.32431" lon="4.7642">
        <ele>286.8</ele>
        <time>2025-04-30T08:17:08.000Z</time>
      </trkpt>
      <trkpt lat="44.32429" lon="4.76422">
        <ele>286.5</ele>
        <time>2025-04-30T08:17:10.000Z</time>
      </trkpt>
      <trkpt lat="44.32426" lon="4.76423">
        <ele>286.2</ele>
        <time>2025-04-30T08:17:12.000Z</time>
      </trkpt>
      <trkpt lat="44.32423" lon="4.76423">
        <ele>286</ele>
        <time>2025-04-30T08:17:14.000Z</time>
      </trkpt>
      <trkpt lat="44.32421" lon="4.76425">
        <ele>285.7</ele>
        <time>2025-04-30T08:17:16.000Z</time>
      </trkpt>
      <trkpt lat="44.32419" lon="4.76425">
        <ele>285.5</ele>
        <time>2025-04-30T08:17:18.000Z</time>
      </trkpt>
      <trkpt lat="44.32417" lon="4.76427">
        <ele>285.3</ele>
        <time>2025-04-30T08:17:20.000Z</time>
      </trkpt>
      <trkpt lat="44.32417" lon="4.7643">
        <ele>285</ele>
        <time>2025-04-30T08:17:22.000Z</time>
      </trkpt>
      <trkpt lat="44.32415" lon="4.76433">
        <ele>284.8</ele>
        <time>2025-04-30T08:17:23.000Z</time>
      </trkpt>
      <trkpt lat="44.32412" lon="4.76434">
        <ele>284.7</ele>
        <time>2025-04-30T08:17:25.000Z</time>
      </trkpt>
      <trkpt lat="44.3241" lon="4.76434">
        <ele>284.8</ele>
        <time>2025-04-30T08:17:26.000Z</time>
      </trkpt>
      <trkpt lat="44.32407" lon="4.76435">
        <ele>284.7</ele>
        <time>2025-04-30T08:17:28.000Z</time>
      </trkpt>
      <trkpt lat="44.32405" lon="4.76436">
        <ele>284.6</ele>
        <time>2025-04-30T08:17:30.000Z</time>
      </trkpt>
      <trkpt lat="44.32403" lon="4.76437">
        <ele>284.6</ele>
        <time>2025-04-30T08:17:33.000Z</time>
      </trkpt>
      <trkpt lat="44.32401" lon="4.76438">
        <ele>284.5</ele>
        <time>2025-04-30T08:17:36.000Z</time>
      </trkpt>
      <trkpt lat="44.32402" lon="4.76443">
        <ele>284.1</ele>
        <time>2025-04-30T08:17:38.000Z</time>
      </trkpt>
      <trkpt lat="44.32403" lon="4.76446">
        <ele>284</ele>
        <time>2025-04-30T08:17:40.000Z</time>
      </trkpt>
      <trkpt lat="44.32402" lon="4.76444">
        <ele>284.1</ele>
        <time>2025-04-30T08:17:46.000Z</time>
      </trkpt>
      <trkpt lat="44.32401" lon="4.76441">
        <ele>284.2</ele>
        <time>2025-04-30T08:17:50.000Z</time>
      </trkpt>
      <trkpt lat="44.32399" lon="4.76441">
        <ele>284.3</ele>
        <time>2025-04-30T08:17:55.000Z</time>
      </trkpt>
      <trkpt lat="44.32397" lon="4.7644">
        <ele>284.3</ele>
        <time>2025-04-30T08:17:59.000Z</time>
      </trkpt>
      <trkpt lat="44.32396" lon="4.76437">
        <ele>284.5</ele>
        <time>2025-04-30T08:18:02.000Z</time>
      </trkpt>
      <trkpt lat="44.32398" lon="4.76438">
        <ele>284.5</ele>
        <time>2025-04-30T08:18:03.000Z</time>
      </trkpt>
      <trkpt lat="44.32398" lon="4.76433">
        <ele>284.8</ele>
        <time>2025-04-30T08:18:07.000Z</time>
      </trkpt>
      <trkpt lat="44.32397" lon="4.7643">
        <ele>285</ele>
        <time>2025-04-30T08:18:08.000Z</time>
      </trkpt>
      <trkpt lat="44.32395" lon="4.76429">
        <ele>285.1</ele>
        <time>2025-04-30T08:18:09.000Z</time>
      </trkpt>
      <trkpt lat="44.32394" lon="4.76427">
        <ele>285.2</ele>
        <time>2025-04-30T08:18:12.000Z</time>
      </trkpt>
      <trkpt lat="44.32395" lon="4.76424">
        <ele>285.5</ele>
        <time>2025-04-30T08:18:17.000Z</time>
      </trkpt>
      <trkpt lat="44.32396" lon="4.76422">
        <ele>285.6</ele>
        <time>2025-04-30T08:18:20.000Z</time>
      </trkpt>
      <trkpt lat="44.32397" lon="4.76418">
        <ele>285.9</ele>
        <time>2025-04-30T08:18:22.000Z</time>
      </trkpt>
      <trkpt lat="44.32398" lon="4.76416">
        <ele>286.1</ele>
        <time>2025-04-30T08:18:24.000Z</time>
      </trkpt>
      <trkpt lat="44.32399" lon="4.76414">
        <ele>286.3</ele>
        <time>2025-04-30T08:18:26.000Z</time>
      </trkpt>
      <trkpt lat="44.32398" lon="4.76411">
        <ele>286.6</ele>
        <time>2025-04-30T08:18:28.000Z</time>
      </trkpt>
      <trkpt lat="44.32399" lon="4.76408">
        <ele>286.9</ele>
        <time>2025-04-30T08:18:30.000Z</time>
      </trkpt>
      <trkpt lat="44.32399" lon="4.76406">
        <ele>287.2</ele>
        <time>2025-04-30T08:18:32.000Z</time>
      </trkpt>
      <trkpt lat="44.324" lon="4.76403">
        <ele>287.4</ele>
        <time>2025-04-30T08:18:38.000Z</time>
      </trkpt>
      <trkpt lat="44.324" lon="4.764">
        <ele>287.8</ele>
        <time>2025-04-30T08:18:44.000Z</time>
      </trkpt>
      <trkpt lat="44.324" lon="4.76397">
        <ele>288.2</ele>
        <time>2025-04-30T08:18:46.000Z</time>
      </trkpt>
      <trkpt lat="44.324" lon="4.76403">
        <ele>287.5</ele>
        <time>2025-04-30T08:18:48.000Z</time>
      </trkpt>
      <trkpt lat="44.32399" lon="4.7641">
        <ele>286.7</ele>
        <time>2025-04-30T08:18:49.000Z</time>
      </trkpt>
      <trkpt lat="44.32401" lon="4.7642">
        <ele>285.8</ele>
        <time>2025-04-30T08:18:50.000Z</time>
      </trkpt>
      <trkpt lat="44.32402" lon="4.76424">
        <ele>285.5</ele>
        <time>2025-04-30T08:18:51.000Z</time>
      </trkpt>
      <trkpt lat="44.32403" lon="4.76421">
        <ele>285.7</ele>
        <time>2025-04-30T08:18:52.000Z</time>
      </trkpt>
      <trkpt lat="44.32403" lon="4.76414">
        <ele>286.2</ele>
        <time>2025-04-30T08:18:54.000Z</time>
      </trkpt>
      <trkpt lat="44.32403" lon="4.76411">
        <ele>286.6</ele>
        <time>2025-04-30T08:18:55.000Z</time>
      </trkpt>
      <trkpt lat="44.32403" lon="4.76407">
        <ele>287.1</ele>
        <time>2025-04-30T08:18:56.000Z</time>
      </trkpt>
      <trkpt lat="44.32403" lon="4.76402">
        <ele>287.6</ele>
        <time>2025-04-30T08:18:57.000Z</time>
      </trkpt>
      <trkpt lat="44.32403" lon="4.76398">
        <ele>288</ele>
        <time>2025-04-30T08:18:58.000Z</time>
      </trkpt>
      <trkpt lat="44.32403" lon="4.76394">
        <ele>288.4</ele>
        <time>2025-04-30T08:19:00.000Z</time>
      </trkpt>
      <trkpt lat="44.32404" lon="4.76391">
        <ele>288.8</ele>
        <time>2025-04-30T08:19:02.000Z</time>
      </trkpt>
      <trkpt lat="44.32403" lon="4.76389">
        <ele>289</ele>
        <time>2025-04-30T08:19:03.000Z</time>
      </trkpt>
      <trkpt lat="44.32403" lon="4.76385">
        <ele>289.3</ele>
        <time>2025-04-30T08:19:06.000Z</time>
      </trkpt>
      <trkpt lat="44.32401" lon="4.76382">
        <ele>289.5</ele>
        <time>2025-04-30T08:19:08.000Z</time>
      </trkpt>
      <trkpt lat="44.32399" lon="4.76379">
        <ele>289.7</ele>
        <time>2025-04-30T08:19:10.000Z</time>
      </trkpt>
      <trkpt lat="44.32399" lon="4.76376">
        <ele>290</ele>
        <time>2025-04-30T08:19:12.000Z</time>
      </trkpt>
      <trkpt lat="44.32398" lon="4.76373">
        <ele>290.1</ele>
        <time>2025-04-30T08:19:23.000Z</time>
      </trkpt>
      <trkpt lat="44.32397" lon="4.7637">
        <ele>290.3</ele>
        <time>2025-04-30T08:19:25.000Z</time>
      </trkpt>
      <trkpt lat="44.32395" lon="4.76368">
        <ele>290.5</ele>
        <time>2025-04-30T08:19:27.000Z</time>
      </trkpt>
      <trkpt lat="44.32394" lon="4.76365">
        <ele>290.7</ele>
        <time>2025-04-30T08:19:29.000Z</time>
      </trkpt>
      <trkpt lat="44.32392" lon="4.76362">
        <ele>290.9</ele>
        <time>2025-04-30T08:19:31.000Z</time>
      </trkpt>
      <trkpt lat="44.3239" lon="4.7636">
        <ele>291.1</ele>
        <time>2025-04-30T08:19:37.000Z</time>
      </trkpt>
      <trkpt lat="44.32388" lon="4.76359">
        <ele>291.3</ele>
        <time>2025-04-30T08:19:39.000Z</time>
      </trkpt>
      <trkpt lat="44.32386" lon="4.76357">
        <ele>291.5</ele>
        <time>2025-04-30T08:19:50.000Z</time>
      </trkpt>
      <trkpt lat="44.32383" lon="4.76355">
        <ele>291.9</ele>
        <time>2025-04-30T08:19:52.000Z</time>
      </trkpt>
      <trkpt lat="44.3238" lon="4.76353">
        <ele>292.2</ele>
        <time>2025-04-30T08:19:57.000Z</time>
      </trkpt>
      <trkpt lat="44.32378" lon="4.76351">
        <ele>292.6</ele>
        <time>2025-04-30T08:19:59.000Z</time>
      </trkpt>
      <trkpt lat="44.32376" lon="4.76351">
        <ele>292.7</ele>
        <time>2025-04-30T08:20:00.000Z</time>
      </trkpt>
      <trkpt lat="44.32374" lon="4.76351">
        <ele>292.8</ele>
        <time>2025-04-30T08:20:01.000Z</time>
      </trkpt>
      <trkpt lat="44.32371" lon="4.7635">
        <ele>293.1</ele>
        <time>2025-04-30T08:20:12.000Z</time>
      </trkpt>
      <trkpt lat="44.32369" lon="4.76349">
        <ele>293.3</ele>
        <time>2025-04-30T08:20:13.000Z</time>
      </trkpt>
      <trkpt lat="44.32367" lon="4.76348">
        <ele>293.5</ele>
        <time>2025-04-30T08:20:15.000Z</time>
      </trkpt>
      <trkpt lat="44.32364" lon="4.76348">
        <ele>293.7</ele>
        <time>2025-04-30T08:20:17.000Z</time>
      </trkpt>
      <trkpt lat="44.32363" lon="4.76347">
        <ele>293.9</ele>
        <time>2025-04-30T08:20:18.000Z</time>
      </trkpt>
      <trkpt lat="44.32361" lon="4.76346">
        <ele>294.1</ele>
        <time>2025-04-30T08:20:19.000Z</time>
      </trkpt>
      <trkpt lat="44.32359" lon="4.76345">
        <ele>294.3</ele>
        <time>2025-04-30T08:20:22.000Z</time>
      </trkpt>
      <trkpt lat="44.32356" lon="4.76343">
        <ele>294.8</ele>
        <time>2025-04-30T08:20:24.000Z</time>
      </trkpt>
      <trkpt lat="44.32355" lon="4.76342">
        <ele>295.1</ele>
        <time>2025-04-30T08:20:25.000Z</time>
      </trkpt>
      <trkpt lat="44.32351" lon="4.76341">
        <ele>295.6</ele>
        <time>2025-04-30T08:20:28.000Z</time>
      </trkpt>
      <trkpt lat="44.32348" lon="4.76339">
        <ele>296</ele>
        <time>2025-04-30T08:20:30.000Z</time>
      </trkpt>
      <trkpt lat="44.32345" lon="4.76336">
        <ele>296.6</ele>
        <time>2025-04-30T08:20:34.000Z</time>
      </trkpt>
      <trkpt lat="44.32343" lon="4.76334">
        <ele>296.9</ele>
        <time>2025-04-30T08:20:36.000Z</time>
      </trkpt>
      <trkpt lat="44.32341" lon="4.76331">
        <ele>297.3</ele>
        <time>2025-04-30T08:20:40.000Z</time>
      </trkpt>
      <trkpt lat="44.3234" lon="4.76328">
        <ele>297.7</ele>
        <time>2025-04-30T08:20:42.000Z</time>
      </trkpt>
      <trkpt lat="44.32338" lon="4.76326">
        <ele>298</ele>
        <time>2025-04-30T08:20:44.000Z</time>
      </trkpt>
      <trkpt lat="44.32335" lon="4.76321">
        <ele>298.7</ele>
        <time>2025-04-30T08:20:50.000Z</time>
      </trkpt>
      <trkpt lat="44.32334" lon="4.76318">
        <ele>299</ele>
        <time>2025-04-30T08:20:53.000Z</time>
      </trkpt>
      <trkpt lat="44.32334" lon="4.76314">
        <ele>299.3</ele>
        <time>2025-04-30T08:20:57.000Z</time>
      </trkpt>
      <trkpt lat="44.32332" lon="4.76309">
        <ele>299.9</ele>
        <time>2025-04-30T08:21:02.000Z</time>
      </trkpt>
      <trkpt lat="44.32329" lon="4.76306">
        <ele>300.4</ele>
        <time>2025-04-30T08:21:04.000Z</time>
      </trkpt>
      <trkpt lat="44.32328" lon="4.76304">
        <ele>300.7</ele>
        <time>2025-04-30T08:21:08.000Z</time>
      </trkpt>
      <trkpt lat="44.32328" lon="4.763">
        <ele>301</ele>
        <time>2025-04-30T08:21:11.000Z</time>
      </trkpt>
      <trkpt lat="44.32325" lon="4.76297">
        <ele>301.6</ele>
        <time>2025-04-30T08:21:15.000Z</time>
      </trkpt>
      <trkpt lat="44.32323" lon="4.76294">
        <ele>302</ele>
        <time>2025-04-30T08:21:17.000Z</time>
      </trkpt>
      <trkpt lat="44.3232" lon="4.76291">
        <ele>302.5</ele>
        <time>2025-04-30T08:21:21.000Z</time>
      </trkpt>
      <trkpt lat="44.32318" lon="4.76289">
        <ele>302.9</ele>
        <time>2025-04-30T08:21:23.000Z</time>
      </trkpt>
      <trkpt lat="44.32313" lon="4.76286">
        <ele>303.6</ele>
        <time>2025-04-30T08:21:27.000Z</time>
      </trkpt>
      <trkpt lat="44.32311" lon="4.76286">
        <ele>303.9</ele>
        <time>2025-04-30T08:21:29.000Z</time>
      </trkpt>
      <trkpt lat="44.32308" lon="4.76285">
        <ele>304.2</ele>
        <time>2025-04-30T08:21:31.000Z</time>
      </trkpt>
      <trkpt lat="44.32306" lon="4.76284">
        <ele>304.5</ele>
        <time>2025-04-30T08:21:32.000Z</time>
      </trkpt>
      <trkpt lat="44.32303" lon="4.76282">
        <ele>304.9</ele>
        <time>2025-04-30T08:21:34.000Z</time>
      </trkpt>
      <trkpt lat="44.32301" lon="4.7628">
        <ele>305.1</ele>
        <time>2025-04-30T08:21:37.000Z</time>
      </trkpt>
      <trkpt lat="44.32299" lon="4.76279">
        <ele>305.4</ele>
        <time>2025-04-30T08:21:40.000Z</time>
      </trkpt>
      <trkpt lat="44.32296" lon="4.76277">
        <ele>305.7</ele>
        <time>2025-04-30T08:21:44.000Z</time>
      </trkpt>
      <trkpt lat="44.32294" lon="4.76279">
        <ele>305.7</ele>
        <time>2025-04-30T08:21:47.000Z</time>
      </trkpt>
      <trkpt lat="44.32291" lon="4.76279">
        <ele>306</ele>
        <time>2025-04-30T08:21:51.000Z</time>
      </trkpt>
      <trkpt lat="44.32289" lon="4.7628">
        <ele>306</ele>
        <time>2025-04-30T08:21:54.000Z</time>
      </trkpt>
      <trkpt lat="44.32287" lon="4.7628">
        <ele>306.1</ele>
        <time>2025-04-30T08:21:58.000Z</time>
      </trkpt>
      <trkpt lat="44.32284" lon="4.76278">
        <ele>306.6</ele>
        <time>2025-04-30T08:22:03.000Z</time>
      </trkpt>
      <trkpt lat="44.32282" lon="4.76276">
        <ele>306.9</ele>
        <time>2025-04-30T08:22:05.000Z</time>
      </trkpt>
      <trkpt lat="44.32279" lon="4.76273">
        <ele>307.4</ele>
        <time>2025-04-30T08:22:09.000Z</time>
      </trkpt>
      <trkpt lat="44.32278" lon="4.76271">
        <ele>307.7</ele>
        <time>2025-04-30T08:22:11.000Z</time>
      </trkpt>
      <trkpt lat="44.32276" lon="4.76268">
        <ele>308.1</ele>
        <time>2025-04-30T08:22:15.000Z</time>
      </trkpt>
      <trkpt lat="44.32274" lon="4.76266">
        <ele>308.3</ele>
        <time>2025-04-30T08:22:17.000Z</time>
      </trkpt>
      <trkpt lat="44.32272" lon="4.76264">
        <ele>308.6</ele>
        <time>2025-04-30T08:22:21.000Z</time>
      </trkpt>
      <trkpt lat="44.3227" lon="4.76262">
        <ele>308.9</ele>
        <time>2025-04-30T08:22:23.000Z</time>
      </trkpt>
      <trkpt lat="44.32269" lon="4.76259">
        <ele>309.2</ele>
        <time>2025-04-30T08:22:27.000Z</time>
      </trkpt>
      <trkpt lat="44.32267" lon="4.76258">
        <ele>309.5</ele>
        <time>2025-04-30T08:22:30.000Z</time>
      </trkpt>
      <trkpt lat="44.32266" lon="4.76255">
        <ele>309.9</ele>
        <time>2025-04-30T08:22:34.000Z</time>
      </trkpt>
      <trkpt lat="44.32265" lon="4.7625">
        <ele>310.4</ele>
        <time>2025-04-30T08:22:39.000Z</time>
      </trkpt>
      <trkpt lat="44.32265" lon="4.76247">
        <ele>310.7</ele>
        <time>2025-04-30T08:22:43.000Z</time>
      </trkpt>
      <trkpt lat="44.32265" lon="4.76245">
        <ele>310.8</ele>
        <time>2025-04-30T08:22:46.000Z</time>
      </trkpt>
      <trkpt lat="44.32267" lon="4.76242">
        <ele>311</ele>
        <time>2025-04-30T08:22:49.000Z</time>
      </trkpt>
      <trkpt lat="44.32269" lon="4.76241">
        <ele>311</ele>
        <time>2025-04-30T08:22:54.000Z</time>
      </trkpt>
      <trkpt lat="44.32271" lon="4.76237">
        <ele>311.2</ele>
        <time>2025-04-30T08:22:58.000Z</time>
      </trkpt>
      <trkpt lat="44.32272" lon="4.76234">
        <ele>311.4</ele>
        <time>2025-04-30T08:23:01.000Z</time>
      </trkpt>
      <trkpt lat="44.32273" lon="4.76232">
        <ele>311.5</ele>
        <time>2025-04-30T08:23:04.000Z</time>
      </trkpt>
      <trkpt lat="44.32275" lon="4.7623">
        <ele>311.6</ele>
        <time>2025-04-30T08:23:06.000Z</time>
      </trkpt>
      <trkpt lat="44.32277" lon="4.76226">
        <ele>311.7</ele>
        <time>2025-04-30T08:23:10.000Z</time>
      </trkpt>
      <trkpt lat="44.32278" lon="4.76224">
        <ele>311.8</ele>
        <time>2025-04-30T08:23:13.000Z</time>
      </trkpt>
      <trkpt lat="44.3228" lon="4.76222">
        <ele>311.7</ele>
        <time>2025-04-30T08:23:16.000Z</time>
      </trkpt>
      <trkpt lat="44.32282" lon="4.7622">
        <ele>311.5</ele>
        <time>2025-04-30T08:23:19.000Z</time>
      </trkpt>
      <trkpt lat="44.32282" lon="4.76217">
        <ele>311.5</ele>
        <time>2025-04-30T08:23:23.000Z</time>
      </trkpt>
      <trkpt lat="44.32283" lon="4.76215">
        <ele>311.3</ele>
        <time>2025-04-30T08:23:27.000Z</time>
      </trkpt>
      <trkpt lat="44.32285" lon="4.76213">
        <ele>311.2</ele>
        <time>2025-04-30T08:23:55.000Z</time>
      </trkpt>
      <trkpt lat="44.32286" lon="4.76209">
        <ele>310.9</ele>
        <time>2025-04-30T08:24:02.000Z</time>
      </trkpt>
      <trkpt lat="44.32287" lon="4.76206">
        <ele>310.8</ele>
        <time>2025-04-30T08:24:08.000Z</time>
      </trkpt>
      <trkpt lat="44.32285" lon="4.76204">
        <ele>311.1</ele>
        <time>2025-04-30T08:25:14.000Z</time>
      </trkpt>
      <trkpt lat="44.32283" lon="4.76203">
        <ele>311.3</ele>
        <time>2025-04-30T08:25:17.000Z</time>
      </trkpt>
      <trkpt lat="44.32281" lon="4.76202">
        <ele>311.5</ele>
        <time>2025-04-30T08:25:24.000Z</time>
      </trkpt>
      <trkpt lat="44.32281" lon="4.762">
        <ele>311.6</ele>
        <time>2025-04-30T08:25:44.000Z</time>
      </trkpt>
      <trkpt lat="44.32278" lon="4.76198">
        <ele>312</ele>
        <time>2025-04-30T08:25:50.000Z</time>
      </trkpt>
      <trkpt lat="44.32278" lon="4.76195">
        <ele>312</ele>
        <time>2025-04-30T08:25:53.000Z</time>
      </trkpt>
      <trkpt lat="44.32277" lon="4.76193">
        <ele>311.8</ele>
        <time>2025-04-30T08:25:56.000Z</time>
      </trkpt>
      <trkpt lat="44.32276" lon="4.7619">
        <ele>311.6</ele>
        <time>2025-04-30T08:25:58.000Z</time>
      </trkpt>
      <trkpt lat="44.32276" lon="4.76188">
        <ele>311.4</ele>
        <time>2025-04-30T08:26:00.000Z</time>
      </trkpt>
      <trkpt lat="44.32275" lon="4.76185">
        <ele>311.1</ele>
        <time>2025-04-30T08:26:03.000Z</time>
      </trkpt>
      <trkpt lat="44.32275" lon="4.76183">
        <ele>310.8</ele>
        <time>2025-04-30T08:26:06.000Z</time>
      </trkpt>
      <trkpt lat="44.32275" lon="4.7618">
        <ele>310.6</ele>
        <time>2025-04-30T08:26:11.000Z</time>
      </trkpt>
      <trkpt lat="44.32274" lon="4.76177">
        <ele>310.2</ele>
        <time>2025-04-30T08:26:20.000Z</time>
      </trkpt>
      <trkpt lat="44.32276" lon="4.76175">
        <ele>310</ele>
        <time>2025-04-30T08:26:24.000Z</time>
      </trkpt>
      <trkpt lat="44.32275" lon="4.76172">
        <ele>309.7</ele>
        <time>2025-04-30T08:26:28.000Z</time>
      </trkpt>
      <trkpt lat="44.32274" lon="4.7617">
        <ele>309.5</ele>
        <time>2025-04-30T08:26:31.000Z</time>
      </trkpt>
      <trkpt lat="44.32273" lon="4.76169">
        <ele>309.4</ele>
        <time>2025-04-30T08:26:34.000Z</time>
      </trkpt>
      <trkpt lat="44.32273" lon="4.76166">
        <ele>309</ele>
        <time>2025-04-30T08:26:37.000Z</time>
      </trkpt>
      <trkpt lat="44.32271" lon="4.76163">
        <ele>308.5</ele>
        <time>2025-04-30T08:26:40.000Z</time>
      </trkpt>
      <trkpt lat="44.32272" lon="4.7616">
        <ele>307.8</ele>
        <time>2025-04-30T08:26:46.000Z</time>
      </trkpt>
      <trkpt lat="44.32272" lon="4.76157">
        <ele>307.3</ele>
        <time>2025-04-30T08:26:49.000Z</time>
      </trkpt>
      <trkpt lat="44.3227" lon="4.76156">
        <ele>307.1</ele>
        <time>2025-04-30T08:26:51.000Z</time>
      </trkpt>
      <trkpt lat="44.32269" lon="4.76154">
        <ele>306.7</ele>
        <time>2025-04-30T08:26:53.000Z</time>
      </trkpt>
      <trkpt lat="44.32267" lon="4.76152">
        <ele>306.4</ele>
        <time>2025-04-30T08:26:56.000Z</time>
      </trkpt>
      <trkpt lat="44.32265" lon="4.76151">
        <ele>306.3</ele>
        <time>2025-04-30T08:26:58.000Z</time>
      </trkpt>
      <trkpt lat="44.32262" lon="4.7615">
        <ele>306.2</ele>
        <time>2025-04-30T08:27:01.000Z</time>
      </trkpt>
      <trkpt lat="44.32261" lon="4.76147">
        <ele>305.8</ele>
        <time>2025-04-30T08:27:03.000Z</time>
      </trkpt>
      <trkpt lat="44.32261" lon="4.76144">
        <ele>305.3</ele>
        <time>2025-04-30T08:27:06.000Z</time>
      </trkpt>
      <trkpt lat="44.32262" lon="4.76142">
        <ele>304.7</ele>
        <time>2025-04-30T08:27:10.000Z</time>
      </trkpt>
      <trkpt lat="44.32262" lon="4.76139">
        <ele>304.2</ele>
        <time>2025-04-30T08:27:16.000Z</time>
      </trkpt>
      <trkpt lat="44.32261" lon="4.76137">
        <ele>303.7</ele>
        <time>2025-04-30T08:27:18.000Z</time>
      </trkpt>
      <trkpt lat="44.32262" lon="4.76133">
        <ele>302.7</ele>
        <time>2025-04-30T08:27:22.000Z</time>
      </trkpt>
      <trkpt lat="44.32264" lon="4.76133">
        <ele>302.3</ele>
        <time>2025-04-30T08:27:25.000Z</time>
      </trkpt>
      <trkpt lat="44.32265" lon="4.76129">
        <ele>301.3</ele>
        <time>2025-04-30T08:27:30.000Z</time>
      </trkpt>
      <trkpt lat="44.32264" lon="4.76126">
        <ele>300.5</ele>
        <time>2025-04-30T08:27:35.000Z</time>
      </trkpt>
      <trkpt lat="44.32263" lon="4.76123">
        <ele>299.8</ele>
        <time>2025-04-30T08:27:40.000Z</time>
      </trkpt>
      <trkpt lat="44.32262" lon="4.76121">
        <ele>299.3</ele>
        <time>2025-04-30T08:27:43.000Z</time>
      </trkpt>
      <trkpt lat="44.3226" lon="4.76119">
        <ele>298.9</ele>
        <time>2025-04-30T08:27:47.000Z</time>
      </trkpt>
      <trkpt lat="44.32258" lon="4.76117">
        <ele>298.6</ele>
        <time>2025-04-30T08:27:49.000Z</time>
      </trkpt>
      <trkpt lat="44.32256" lon="4.76114">
        <ele>298.2</ele>
        <time>2025-04-30T08:27:53.000Z</time>
      </trkpt>
      <trkpt lat="44.32255" lon="4.76113">
        <ele>297.9</ele>
        <time>2025-04-30T08:27:55.000Z</time>
      </trkpt>
      <trkpt lat="44.32254" lon="4.7611">
        <ele>297.2</ele>
        <time>2025-04-30T08:27:56.000Z</time>
      </trkpt>
      <trkpt lat="44.32252" lon="4.76108">
        <ele>296.9</ele>
        <time>2025-04-30T08:27:58.000Z</time>
      </trkpt>
      <trkpt lat="44.3225" lon="4.76107">
        <ele>296.8</ele>
        <time>2025-04-30T08:27:59.000Z</time>
      </trkpt>
      <trkpt lat="44.32248" lon="4.76106">
        <ele>296.7</ele>
        <time>2025-04-30T08:28:01.000Z</time>
      </trkpt>
      <trkpt lat="44.32246" lon="4.76104">
        <ele>296.3</ele>
        <time>2025-04-30T08:28:03.000Z</time>
      </trkpt>
      <trkpt lat="44.32246" lon="4.761">
        <ele>295.2</ele>
        <time>2025-04-30T08:28:05.000Z</time>
      </trkpt>
      <trkpt lat="44.32244" lon="4.76098">
        <ele>294.7</ele>
        <time>2025-04-30T08:28:08.000Z</time>
      </trkpt>
      <trkpt lat="44.32242" lon="4.76096">
        <ele>294.5</ele>
        <time>2025-04-30T08:28:10.000Z</time>
      </trkpt>
      <trkpt lat="44.3224" lon="4.76094">
        <ele>294.1</ele>
        <time>2025-04-30T08:28:12.000Z</time>
      </trkpt>
      <trkpt lat="44.32238" lon="4.76092">
        <ele>293.8</ele>
        <time>2025-04-30T08:28:14.000Z</time>
      </trkpt>
      <trkpt lat="44.32236" lon="4.7609">
        <ele>293.7</ele>
        <time>2025-04-30T08:28:16.000Z</time>
      </trkpt>
      <trkpt lat="44.32235" lon="4.76087">
        <ele>293.1</ele>
        <time>2025-04-30T08:28:18.000Z</time>
      </trkpt>
      <trkpt lat="44.32232" lon="4.76085">
        <ele>292.9</ele>
        <time>2025-04-30T08:28:22.000Z</time>
      </trkpt>
      <trkpt lat="44.32231" lon="4.76083">
        <ele>292.6</ele>
        <time>2025-04-30T08:28:25.000Z</time>
      </trkpt>
      <trkpt lat="44.32231" lon="4.7608">
        <ele>291.9</ele>
        <time>2025-04-30T08:28:29.000Z</time>
      </trkpt>
      <trkpt lat="44.3223" lon="4.76078">
        <ele>291.4</ele>
        <time>2025-04-30T08:28:32.000Z</time>
      </trkpt>
      <trkpt lat="44.32228" lon="4.76076">
        <ele>291.1</ele>
        <time>2025-04-30T08:28:36.000Z</time>
      </trkpt>
      <trkpt lat="44.32227" lon="4.76074">
        <ele>290.9</ele>
        <time>2025-04-30T08:28:39.000Z</time>
      </trkpt>
      <trkpt lat="44.32226" lon="4.76071">
        <ele>290.4</ele>
        <time>2025-04-30T08:28:41.000Z</time>
      </trkpt>
      <trkpt lat="44.32225" lon="4.76069">
        <ele>289.9</ele>
        <time>2025-04-30T08:28:43.000Z</time>
      </trkpt>
      <trkpt lat="44.32223" lon="4.76067">
        <ele>289.6</ele>
        <time>2025-04-30T08:28:45.000Z</time>
      </trkpt>
      <trkpt lat="44.32222" lon="4.76065">
        <ele>289.5</ele>
        <time>2025-04-30T08:28:47.000Z</time>
      </trkpt>
      <trkpt lat="44.3222" lon="4.76063">
        <ele>289.2</ele>
        <time>2025-04-30T08:28:49.000Z</time>
      </trkpt>
      <trkpt lat="44.32218" lon="4.76061">
        <ele>288.9</ele>
        <time>2025-04-30T08:28:52.000Z</time>
      </trkpt>
      <trkpt lat="44.32217" lon="4.76059">
        <ele>288.5</ele>
        <time>2025-04-30T08:28:57.000Z</time>
      </trkpt>
      <trkpt lat="44.32214" lon="4.76056">
        <ele>288.2</ele>
        <time>2025-04-30T08:29:02.000Z</time>
      </trkpt>
      <trkpt lat="44.32213" lon="4.76054">
        <ele>288</ele>
        <time>2025-04-30T08:29:06.000Z</time>
      </trkpt>
      <trkpt lat="44.32211" lon="4.76052">
        <ele>287.9</ele>
        <time>2025-04-30T08:29:14.000Z</time>
      </trkpt>
      <trkpt lat="44.32209" lon="4.7605">
        <ele>287.7</ele>
        <time>2025-04-30T08:29:16.000Z</time>
      </trkpt>
      <trkpt lat="44.32208" lon="4.76047">
        <ele>287.4</ele>
        <time>2025-04-30T08:29:20.000Z</time>
      </trkpt>
      <trkpt lat="44.32206" lon="4.76044">
        <ele>287.2</ele>
        <time>2025-04-30T08:29:23.000Z</time>
      </trkpt>
      <trkpt lat="44.32204" lon="4.76042">
        <ele>286.9</ele>
        <time>2025-04-30T08:29:26.000Z</time>
      </trkpt>
      <trkpt lat="44.32203" lon="4.76039">
        <ele>286.6</ele>
        <time>2025-04-30T08:29:29.000Z</time>
      </trkpt>
      <trkpt lat="44.32202" lon="4.76037">
        <ele>286.5</ele>
        <time>2025-04-30T08:29:31.000Z</time>
      </trkpt>
      <trkpt lat="44.32199" lon="4.76036">
        <ele>286.6</ele>
        <time>2025-04-30T08:29:34.000Z</time>
      </trkpt>
      <trkpt lat="44.32197" lon="4.76035">
        <ele>286.8</ele>
        <time>2025-04-30T08:29:36.000Z</time>
      </trkpt>
      <trkpt lat="44.32195" lon="4.76034">
        <ele>287.1</ele>
        <time>2025-04-30T08:29:41.000Z</time>
      </trkpt>
      <trkpt lat="44.32193" lon="4.76034">
        <ele>287.1</ele>
        <time>2025-04-30T08:29:42.000Z</time>
      </trkpt>
      <trkpt lat="44.32191" lon="4.76034">
        <ele>287.1</ele>
        <time>2025-04-30T08:29:44.000Z</time>
      </trkpt>
      <trkpt lat="44.32189" lon="4.76034">
        <ele>287.2</ele>
        <time>2025-04-30T08:29:46.000Z</time>
      </trkpt>
      <trkpt lat="44.32187" lon="4.76034">
        <ele>287.1</ele>
        <time>2025-04-30T08:29:48.000Z</time>
      </trkpt>
      <trkpt lat="44.32185" lon="4.76032">
        <ele>287</ele>
        <time>2025-04-30T08:29:51.000Z</time>
      </trkpt>
      <trkpt lat="44.32183" lon="4.76031">
        <ele>286.8</ele>
        <time>2025-04-30T08:29:53.000Z</time>
      </trkpt>
      <trkpt lat="44.32181" lon="4.7603">
        <ele>286.8</ele>
        <time>2025-04-30T08:29:55.000Z</time>
      </trkpt>
      <trkpt lat="44.32179" lon="4.7603">
        <ele>286.8</ele>
        <time>2025-04-30T08:29:57.000Z</time>
      </trkpt>
      <trkpt lat="44.32177" lon="4.7603">
        <ele>286.9</ele>
        <time>2025-04-30T08:30:00.000Z</time>
      </trkpt>
      <trkpt lat="44.32174" lon="4.7603">
        <ele>286.9</ele>
        <time>2025-04-30T08:30:03.000Z</time>
      </trkpt>
      <trkpt lat="44.32172" lon="4.76028">
        <ele>286.9</ele>
        <time>2025-04-30T08:30:05.000Z</time>
      </trkpt>
      <trkpt lat="44.3217" lon="4.76027">
        <ele>286.8</ele>
        <time>2025-04-30T08:30:07.000Z</time>
      </trkpt>
      <trkpt lat="44.32167" lon="4.76026">
        <ele>286.8</ele>
        <time>2025-04-30T08:30:11.000Z</time>
      </trkpt>
      <trkpt lat="44.32165" lon="4.76026">
        <ele>286.4</ele>
        <time>2025-04-30T08:30:14.000Z</time>
      </trkpt>
      <trkpt lat="44.32163" lon="4.76024">
        <ele>286</ele>
        <time>2025-04-30T08:30:16.000Z</time>
      </trkpt>
      <trkpt lat="44.32161" lon="4.76021">
        <ele>285.5</ele>
        <time>2025-04-30T08:30:19.000Z</time>
      </trkpt>
      <trkpt lat="44.32159" lon="4.7602">
        <ele>285.2</ele>
        <time>2025-04-30T08:30:22.000Z</time>
      </trkpt>
      <trkpt lat="44.32158" lon="4.76019">
        <ele>284.9</ele>
        <time>2025-04-30T08:30:24.000Z</time>
      </trkpt>
      <trkpt lat="44.32156" lon="4.76017">
        <ele>284.7</ele>
        <time>2025-04-30T08:30:27.000Z</time>
      </trkpt>
      <trkpt lat="44.32153" lon="4.76017">
        <ele>284.4</ele>
        <time>2025-04-30T08:30:31.000Z</time>
      </trkpt>
      <trkpt lat="44.32151" lon="4.76017">
        <ele>284.1</ele>
        <time>2025-04-30T08:30:33.000Z</time>
      </trkpt>
      <trkpt lat="44.32149" lon="4.76014">
        <ele>283.9</ele>
        <time>2025-04-30T08:30:35.000Z</time>
      </trkpt>
      <trkpt lat="44.32146" lon="4.76012">
        <ele>283.7</ele>
        <time>2025-04-30T08:30:37.000Z</time>
      </trkpt>
      <trkpt lat="44.32144" lon="4.7601">
        <ele>283.6</ele>
        <time>2025-04-30T08:30:39.000Z</time>
      </trkpt>
      <trkpt lat="44.32142" lon="4.76007">
        <ele>283.7</ele>
        <time>2025-04-30T08:30:42.000Z</time>
      </trkpt>
      <trkpt lat="44.32141" lon="4.76005">
        <ele>283.7</ele>
        <time>2025-04-30T08:30:44.000Z</time>
      </trkpt>
      <trkpt lat="44.32139" lon="4.76005">
        <ele>283.7</ele>
        <time>2025-04-30T08:30:46.000Z</time>
      </trkpt>
      <trkpt lat="44.32138" lon="4.76003">
        <ele>283.7</ele>
        <time>2025-04-30T08:30:48.000Z</time>
      </trkpt>
      <trkpt lat="44.32137" lon="4.76">
        <ele>283.9</ele>
        <time>2025-04-30T08:30:50.000Z</time>
      </trkpt>
      <trkpt lat="44.32137" lon="4.75996">
        <ele>283.8</ele>
        <time>2025-04-30T08:30:53.000Z</time>
      </trkpt>
      <trkpt lat="44.32137" lon="4.75994">
        <ele>283.7</ele>
        <time>2025-04-30T08:30:55.000Z</time>
      </trkpt>
      <trkpt lat="44.32135" lon="4.75991">
        <ele>283.6</ele>
        <time>2025-04-30T08:30:58.000Z</time>
      </trkpt>
      <trkpt lat="44.32133" lon="4.75988">
        <ele>283.5</ele>
        <time>2025-04-30T08:31:00.000Z</time>
      </trkpt>
      <trkpt lat="44.32132" lon="4.75986">
        <ele>283.5</ele>
        <time>2025-04-30T08:31:02.000Z</time>
      </trkpt>
      <trkpt lat="44.3213" lon="4.75984">
        <ele>283.5</ele>
        <time>2025-04-30T08:31:04.000Z</time>
      </trkpt>
      <trkpt lat="44.32128" lon="4.75982">
        <ele>283.6</ele>
        <time>2025-04-30T08:31:06.000Z</time>
      </trkpt>
      <trkpt lat="44.32126" lon="4.7598">
        <ele>283.7</ele>
        <time>2025-04-30T08:31:08.000Z</time>
      </trkpt>
      <trkpt lat="44.32126" lon="4.75977">
        <ele>283.8</ele>
        <time>2025-04-30T08:31:10.000Z</time>
      </trkpt>
      <trkpt lat="44.32125" lon="4.75974">
        <ele>283.9</ele>
        <time>2025-04-30T08:31:12.000Z</time>
      </trkpt>
      <trkpt lat="44.32123" lon="4.75973">
        <ele>284.1</ele>
        <time>2025-04-30T08:31:14.000Z</time>
      </trkpt>
      <trkpt lat="44.32122" lon="4.75971">
        <ele>284.2</ele>
        <time>2025-04-30T08:31:16.000Z</time>
      </trkpt>
      <trkpt lat="44.3212" lon="4.7597">
        <ele>284.3</ele>
        <time>2025-04-30T08:31:19.000Z</time>
      </trkpt>
      <trkpt lat="44.32118" lon="4.75969">
        <ele>284.3</ele>
        <time>2025-04-30T08:31:21.000Z</time>
      </trkpt>
      <trkpt lat="44.32116" lon="4.75967">
        <ele>284.3</ele>
        <time>2025-04-30T08:31:24.000Z</time>
      </trkpt>
      <trkpt lat="44.32115" lon="4.75963">
        <ele>284.3</ele>
        <time>2025-04-30T08:31:26.000Z</time>
      </trkpt>
      <trkpt lat="44.32113" lon="4.75962">
        <ele>284.4</ele>
        <time>2025-04-30T08:31:28.000Z</time>
      </trkpt>
      <trkpt lat="44.32111" lon="4.75959">
        <ele>284.5</ele>
        <time>2025-04-30T08:31:31.000Z</time>
      </trkpt>
      <trkpt lat="44.32111" lon="4.75955">
        <ele>284.4</ele>
        <time>2025-04-30T08:31:34.000Z</time>
      </trkpt>
      <trkpt lat="44.32111" lon="4.75952">
        <ele>284.3</ele>
        <time>2025-04-30T08:31:37.000Z</time>
      </trkpt>
      <trkpt lat="44.3211" lon="4.75949">
        <ele>284.1</ele>
        <time>2025-04-30T08:31:39.000Z</time>
      </trkpt>
      <trkpt lat="44.32109" lon="4.75947">
        <ele>283.9</ele>
        <time>2025-04-30T08:31:41.000Z</time>
      </trkpt>
      <trkpt lat="44.32109" lon="4.75944">
        <ele>283.8</ele>
        <time>2025-04-30T08:31:44.000Z</time>
      </trkpt>
      <trkpt lat="44.32107" lon="4.75943">
        <ele>283.5</ele>
        <time>2025-04-30T08:31:47.000Z</time>
      </trkpt>
      <trkpt lat="44.32105" lon="4.75943">
        <ele>283.3</ele>
        <time>2025-04-30T08:31:49.000Z</time>
      </trkpt>
      <trkpt lat="44.32103" lon="4.75944">
        <ele>283.4</ele>
        <time>2025-04-30T08:31:51.000Z</time>
      </trkpt>
      <trkpt lat="44.32101" lon="4.75946">
        <ele>283.3</ele>
        <time>2025-04-30T08:31:54.000Z</time>
      </trkpt>
      <trkpt lat="44.32099" lon="4.75946">
        <ele>283.1</ele>
        <time>2025-04-30T08:31:56.000Z</time>
      </trkpt>
      <trkpt lat="44.32097" lon="4.75946">
        <ele>283</ele>
        <time>2025-04-30T08:31:58.000Z</time>
      </trkpt>
      <trkpt lat="44.32095" lon="4.75945">
        <ele>282.8</ele>
        <time>2025-04-30T08:32:00.000Z</time>
      </trkpt>
      <trkpt lat="44.32093" lon="4.75944">
        <ele>282.7</ele>
        <time>2025-04-30T08:32:02.000Z</time>
      </trkpt>
      <trkpt lat="44.3209" lon="4.75943">
        <ele>282.4</ele>
        <time>2025-04-30T08:32:04.000Z</time>
      </trkpt>
      <trkpt lat="44.3209" lon="4.75941">
        <ele>282.2</ele>
        <time>2025-04-30T08:32:08.000Z</time>
      </trkpt>
      <trkpt lat="44.32091" lon="4.75938">
        <ele>282.2</ele>
        <time>2025-04-30T08:32:11.000Z</time>
      </trkpt>
      <trkpt lat="44.32092" lon="4.75936">
        <ele>282</ele>
        <time>2025-04-30T08:32:13.000Z</time>
      </trkpt>
      <trkpt lat="44.32094" lon="4.75934">
        <ele>281.9</ele>
        <time>2025-04-30T08:32:16.000Z</time>
      </trkpt>
      <trkpt lat="44.32093" lon="4.75931">
        <ele>281.7</ele>
        <time>2025-04-30T08:32:19.000Z</time>
      </trkpt>
      <trkpt lat="44.32092" lon="4.75929">
        <ele>281.6</ele>
        <time>2025-04-30T08:32:21.000Z</time>
      </trkpt>
      <trkpt lat="44.3209" lon="4.75929">
        <ele>281.5</ele>
        <time>2025-04-30T08:32:23.000Z</time>
      </trkpt>
      <trkpt lat="44.32088" lon="4.75927">
        <ele>281.4</ele>
        <time>2025-04-30T08:32:25.000Z</time>
      </trkpt>
      <trkpt lat="44.32086" lon="4.75925">
        <ele>281.3</ele>
        <time>2025-04-30T08:32:26.000Z</time>
      </trkpt>
      <trkpt lat="44.32084" lon="4.75924">
        <ele>281.3</ele>
        <time>2025-04-30T08:32:28.000Z</time>
      </trkpt>
      <trkpt lat="44.32082" lon="4.75921">
        <ele>280.9</ele>
        <time>2025-04-30T08:32:32.000Z</time>
      </trkpt>
      <trkpt lat="44.32081" lon="4.75919">
        <ele>280.4</ele>
        <time>2025-04-30T08:32:36.000Z</time>
      </trkpt>
      <trkpt lat="44.32078" lon="4.75918">
        <ele>279.7</ele>
        <time>2025-04-30T08:32:38.000Z</time>
      </trkpt>
      <trkpt lat="44.32078" lon="4.75915">
        <ele>279.6</ele>
        <time>2025-04-30T08:32:44.000Z</time>
      </trkpt>
      <trkpt lat="44.3208" lon="4.75913">
        <ele>279.8</ele>
        <time>2025-04-30T08:32:50.000Z</time>
      </trkpt>
      <trkpt lat="44.32082" lon="4.75912">
        <ele>280.1</ele>
        <time>2025-04-30T08:32:53.000Z</time>
      </trkpt>
      <trkpt lat="44.32083" lon="4.75909">
        <ele>280.1</ele>
        <time>2025-04-30T08:32:57.000Z</time>
      </trkpt>
      <trkpt lat="44.32084" lon="4.75906">
        <ele>279.8</ele>
        <time>2025-04-30T08:33:32.000Z</time>
      </trkpt>
      <trkpt lat="44.32083" lon="4.75904">
        <ele>279.5</ele>
        <time>2025-04-30T08:41:19.000Z</time>
      </trkpt>
      <trkpt lat="44.32082" lon="4.75907">
        <ele>279.8</ele>
        <time>2025-04-30T08:41:34.000Z</time>
      </trkpt>
      <trkpt lat="44.32082" lon="4.75911">
        <ele>280.1</ele>
        <time>2025-04-30T08:41:37.000Z</time>
      </trkpt>
      <trkpt lat="44.32083" lon="4.75913">
        <ele>280.6</ele>
        <time>2025-04-30T08:41:39.000Z</time>
      </trkpt>
      <trkpt lat="44.32081" lon="4.75915">
        <ele>280.2</ele>
        <time>2025-04-30T08:41:48.000Z</time>
      </trkpt>
      <trkpt lat="44.32079" lon="4.75916">
        <ele>279.7</ele>
        <time>2025-04-30T08:41:52.000Z</time>
      </trkpt>
      <trkpt lat="44.32079" lon="4.7592">
        <ele>279.9</ele>
        <time>2025-04-30T08:41:56.000Z</time>
      </trkpt>
      <trkpt lat="44.3208" lon="4.75922">
        <ele>280.3</ele>
        <time>2025-04-30T08:42:00.000Z</time>
      </trkpt>
      <trkpt lat="44.32081" lon="4.75925">
        <ele>280.5</ele>
        <time>2025-04-30T08:42:02.000Z</time>
      </trkpt>
      <trkpt lat="44.32082" lon="4.75926">
        <ele>281.1</ele>
        <time>2025-04-30T08:42:05.000Z</time>
      </trkpt>
      <trkpt lat="44.32085" lon="4.75927">
        <ele>281.4</ele>
        <time>2025-04-30T08:42:08.000Z</time>
      </trkpt>
      <trkpt lat="44.32087" lon="4.75929">
        <ele>281.5</ele>
        <time>2025-04-30T08:42:10.000Z</time>
      </trkpt>
      <trkpt lat="44.32088" lon="4.75931">
        <ele>281.6</ele>
        <time>2025-04-30T08:42:12.000Z</time>
      </trkpt>
      <trkpt lat="44.3209" lon="4.75933">
        <ele>281.8</ele>
        <time>2025-04-30T08:42:14.000Z</time>
      </trkpt>
      <trkpt lat="44.3209" lon="4.75936">
        <ele>282</ele>
        <time>2025-04-30T08:42:16.000Z</time>
      </trkpt>
      <trkpt lat="44.32091" lon="4.75939">
        <ele>282.2</ele>
        <time>2025-04-30T08:42:18.000Z</time>
      </trkpt>
      <trkpt lat="44.32088" lon="4.75939">
        <ele>282</ele>
        <time>2025-04-30T08:42:22.000Z</time>
      </trkpt>
      <trkpt lat="44.32087" lon="4.75941">
        <ele>282.1</ele>
        <time>2025-04-30T08:42:26.000Z</time>
      </trkpt>
      <trkpt lat="44.32086" lon="4.75944">
        <ele>282.1</ele>
        <time>2025-04-30T08:42:29.000Z</time>
      </trkpt>
      <trkpt lat="44.32084" lon="4.75946">
        <ele>282</ele>
        <time>2025-04-30T08:42:31.000Z</time>
      </trkpt>
      <trkpt lat="44.32085" lon="4.75949">
        <ele>281.9</ele>
        <time>2025-04-30T08:42:33.000Z</time>
      </trkpt>
      <trkpt lat="44.32086" lon="4.75953">
        <ele>281.9</ele>
        <time>2025-04-30T08:42:36.000Z</time>
      </trkpt>
      <trkpt lat="44.32086" lon="4.75957">
        <ele>281.8</ele>
        <time>2025-04-30T08:42:38.000Z</time>
      </trkpt>
      <trkpt lat="44.32086" lon="4.7596">
        <ele>281.8</ele>
        <time>2025-04-30T08:42:40.000Z</time>
      </trkpt>
      <trkpt lat="44.32085" lon="4.75963">
        <ele>281.6</ele>
        <time>2025-04-30T08:42:42.000Z</time>
      </trkpt>
      <trkpt lat="44.32083" lon="4.75963">
        <ele>281.3</ele>
        <time>2025-04-30T08:42:44.000Z</time>
      </trkpt>
      <trkpt lat="44.32081" lon="4.75963">
        <ele>280.7</ele>
        <time>2025-04-30T08:42:50.000Z</time>
      </trkpt>
      <trkpt lat="44.32081" lon="4.75966">
        <ele>280.3</ele>
        <time>2025-04-30T08:42:57.000Z</time>
      </trkpt>
      <trkpt lat="44.32081" lon="4.75969">
        <ele>280.2</ele>
        <time>2025-04-30T08:43:00.000Z</time>
      </trkpt>
      <trkpt lat="44.32082" lon="4.75973">
        <ele>280.4</ele>
        <time>2025-04-30T08:43:04.000Z</time>
      </trkpt>
      <trkpt lat="44.32083" lon="4.75976">
        <ele>280.2</ele>
        <time>2025-04-30T08:43:06.000Z</time>
      </trkpt>
      <trkpt lat="44.32082" lon="4.75978">
        <ele>279.6</ele>
        <time>2025-04-30T08:43:08.000Z</time>
      </trkpt>
      <trkpt lat="44.32081" lon="4.75982">
        <ele>279</ele>
        <time>2025-04-30T08:43:11.000Z</time>
      </trkpt>
      <trkpt lat="44.32082" lon="4.75985">
        <ele>278.7</ele>
        <time>2025-04-30T08:43:14.000Z</time>
      </trkpt>
      <trkpt lat="44.32082" lon="4.75988">
        <ele>278.5</ele>
        <time>2025-04-30T08:43:17.000Z</time>
      </trkpt>
      <trkpt lat="44.32082" lon="4.75991">
        <ele>278</ele>
        <time>2025-04-30T08:43:21.000Z</time>
      </trkpt>
      <trkpt lat="44.32084" lon="4.75993">
        <ele>278.1</ele>
        <time>2025-04-30T08:43:26.000Z</time>
      </trkpt>
      <trkpt lat="44.32085" lon="4.75996">
        <ele>277.9</ele>
        <time>2025-04-30T08:43:28.000Z</time>
      </trkpt>
      <trkpt lat="44.32086" lon="4.75998">
        <ele>277.7</ele>
        <time>2025-04-30T08:43:30.000Z</time>
      </trkpt>
      <trkpt lat="44.32087" lon="4.76001">
        <ele>277.5</ele>
        <time>2025-04-30T08:43:33.000Z</time>
      </trkpt>
      <trkpt lat="44.32088" lon="4.76005">
        <ele>277</ele>
        <time>2025-04-30T08:43:36.000Z</time>
      </trkpt>
      <trkpt lat="44.32088" lon="4.76008">
        <ele>276.4</ele>
        <time>2025-04-30T08:43:39.000Z</time>
      </trkpt>
      <trkpt lat="44.32088" lon="4.76011">
        <ele>276</ele>
        <time>2025-04-30T08:43:41.000Z</time>
      </trkpt>
      <trkpt lat="44.32089" lon="4.76014">
        <ele>275.7</ele>
        <time>2025-04-30T08:43:44.000Z</time>
      </trkpt>
      <trkpt lat="44.3209" lon="4.76018">
        <ele>275.1</ele>
        <time>2025-04-30T08:43:47.000Z</time>
      </trkpt>
      <trkpt lat="44.32092" lon="4.76019">
        <ele>275.2</ele>
        <time>2025-04-30T08:43:50.000Z</time>
      </trkpt>
      <trkpt lat="44.32093" lon="4.76022">
        <ele>275.2</ele>
        <time>2025-04-30T08:43:52.000Z</time>
      </trkpt>
      <trkpt lat="44.32094" lon="4.76025">
        <ele>274.8</ele>
        <time>2025-04-30T08:43:55.000Z</time>
      </trkpt>
      <trkpt lat="44.32093" lon="4.76027">
        <ele>274.1</ele>
        <time>2025-04-30T08:43:57.000Z</time>
      </trkpt>
      <trkpt lat="44.32094" lon="4.7603">
        <ele>274.2</ele>
        <time>2025-04-30T08:43:59.000Z</time>
      </trkpt>
      <trkpt lat="44.32095" lon="4.76032">
        <ele>274.3</ele>
        <time>2025-04-30T08:44:03.000Z</time>
      </trkpt>
      <trkpt lat="44.32097" lon="4.76035">
        <ele>274.5</ele>
        <time>2025-04-30T08:44:11.000Z</time>
      </trkpt>
      <trkpt lat="44.32095" lon="4.76037">
        <ele>274.1</ele>
        <time>2025-04-30T08:44:13.000Z</time>
      </trkpt>
      <trkpt lat="44.32093" lon="4.76036">
        <ele>273.6</ele>
        <time>2025-04-30T08:44:45.000Z</time>
      </trkpt>
      <trkpt lat="44.32093" lon="4.76033">
        <ele>273.7</ele>
        <time>2025-04-30T08:44:48.000Z</time>
      </trkpt>
      <trkpt lat="44.3209" lon="4.76032">
        <ele>273.3</ele>
        <time>2025-04-30T08:44:51.000Z</time>
      </trkpt>
      <trkpt lat="44.32087" lon="4.76032">
        <ele>272.7</ele>
        <time>2025-04-30T08:44:54.000Z</time>
      </trkpt>
      <trkpt lat="44.32085" lon="4.76032">
        <ele>272.3</ele>
        <time>2025-04-30T08:44:56.000Z</time>
      </trkpt>
      <trkpt lat="44.32083" lon="4.76031">
        <ele>271.9</ele>
        <time>2025-04-30T08:44:58.000Z</time>
      </trkpt>
      <trkpt lat="44.32081" lon="4.7603">
        <ele>271.4</ele>
        <time>2025-04-30T08:45:01.000Z</time>
      </trkpt>
      <trkpt lat="44.32079" lon="4.76028">
        <ele>271</ele>
        <time>2025-04-30T08:45:03.000Z</time>
      </trkpt>
      <trkpt lat="44.32077" lon="4.76026">
        <ele>270.9</ele>
        <time>2025-04-30T08:45:06.000Z</time>
      </trkpt>
      <trkpt lat="44.32075" lon="4.76024">
        <ele>270.7</ele>
        <time>2025-04-30T08:45:09.000Z</time>
      </trkpt>
      <trkpt lat="44.32073" lon="4.76021">
        <ele>270.6</ele>
        <time>2025-04-30T08:45:13.000Z</time>
      </trkpt>
      <trkpt lat="44.32071" lon="4.76019">
        <ele>270.7</ele>
        <time>2025-04-30T08:45:15.000Z</time>
      </trkpt>
      <trkpt lat="44.32069" lon="4.76016">
        <ele>270.6</ele>
        <time>2025-04-30T08:45:17.000Z</time>
      </trkpt>
      <trkpt lat="44.32068" lon="4.76014">
        <ele>270.6</ele>
        <time>2025-04-30T08:45:19.000Z</time>
      </trkpt>
      <trkpt lat="44.32067" lon="4.76012">
        <ele>270.6</ele>
        <time>2025-04-30T08:45:22.000Z</time>
      </trkpt>
      <trkpt lat="44.32066" lon="4.7601">
        <ele>270.6</ele>
        <time>2025-04-30T08:45:25.000Z</time>
      </trkpt>
      <trkpt lat="44.32064" lon="4.76007">
        <ele>270.6</ele>
        <time>2025-04-30T08:45:28.000Z</time>
      </trkpt>
      <trkpt lat="44.32063" lon="4.76004">
        <ele>270.7</ele>
        <time>2025-04-30T08:45:30.000Z</time>
      </trkpt>
      <trkpt lat="44.32062" lon="4.76002">
        <ele>270.6</ele>
        <time>2025-04-30T08:45:33.000Z</time>
      </trkpt>
      <trkpt lat="44.3206" lon="4.76">
        <ele>270.2</ele>
        <time>2025-04-30T08:45:35.000Z</time>
      </trkpt>
      <trkpt lat="44.32058" lon="4.75997">
        <ele>270.1</ele>
        <time>2025-04-30T08:45:37.000Z</time>
      </trkpt>
      <trkpt lat="44.32057" lon="4.75995">
        <ele>270</ele>
        <time>2025-04-30T08:45:39.000Z</time>
      </trkpt>
      <trkpt lat="44.32056" lon="4.75992">
        <ele>269.9</ele>
        <time>2025-04-30T08:45:41.000Z</time>
      </trkpt>
      <trkpt lat="44.32055" lon="4.75989">
        <ele>269.9</ele>
        <time>2025-04-30T08:45:44.000Z</time>
      </trkpt>
      <trkpt lat="44.32054" lon="4.75986">
        <ele>270</ele>
        <time>2025-04-30T08:45:46.000Z</time>
      </trkpt>
      <trkpt lat="44.32054" lon="4.75984">
        <ele>270.1</ele>
        <time>2025-04-30T08:45:48.000Z</time>
      </trkpt>
      <trkpt lat="44.32053" lon="4.75981">
        <ele>270.3</ele>
        <time>2025-04-30T08:45:50.000Z</time>
      </trkpt>
      <trkpt lat="44.32052" lon="4.75979">
        <ele>270.3</ele>
        <time>2025-04-30T08:45:52.000Z</time>
      </trkpt>
      <trkpt lat="44.32051" lon="4.75976">
        <ele>270.2</ele>
        <time>2025-04-30T08:45:54.000Z</time>
      </trkpt>
      <trkpt lat="44.32051" lon="4.75974">
        <ele>270.3</ele>
        <time>2025-04-30T08:45:57.000Z</time>
      </trkpt>
      <trkpt lat="44.3205" lon="4.75971">
        <ele>270.1</ele>
        <time>2025-04-30T08:45:59.000Z</time>
      </trkpt>
      <trkpt lat="44.32049" lon="4.75969">
        <ele>269.9</ele>
        <time>2025-04-30T08:46:01.000Z</time>
      </trkpt>
      <trkpt lat="44.32049" lon="4.75966">
        <ele>270</ele>
        <time>2025-04-30T08:46:03.000Z</time>
      </trkpt>
      <trkpt lat="44.32049" lon="4.75963">
        <ele>270</ele>
        <time>2025-04-30T08:46:05.000Z</time>
      </trkpt>
      <trkpt lat="44.32048" lon="4.7596">
        <ele>269.9</ele>
        <time>2025-04-30T08:46:08.000Z</time>
      </trkpt>
      <trkpt lat="44.32047" lon="4.75957">
        <ele>269.7</ele>
        <time>2025-04-30T08:46:10.000Z</time>
      </trkpt>
      <trkpt lat="44.32047" lon="4.75954">
        <ele>269.6</ele>
        <time>2025-04-30T08:46:12.000Z</time>
      </trkpt>
      <trkpt lat="44.32046" lon="4.75951">
        <ele>269.3</ele>
        <time>2025-04-30T08:46:14.000Z</time>
      </trkpt>
      <trkpt lat="44.32045" lon="4.75948">
        <ele>269.1</ele>
        <time>2025-04-30T08:46:16.000Z</time>
      </trkpt>
      <trkpt lat="44.32045" lon="4.75945">
        <ele>269</ele>
        <time>2025-04-30T08:46:18.000Z</time>
      </trkpt>
      <trkpt lat="44.32044" lon="4.75942">
        <ele>268.9</ele>
        <time>2025-04-30T08:46:20.000Z</time>
      </trkpt>
      <trkpt lat="44.32044" lon="4.75939">
        <ele>268.9</ele>
        <time>2025-04-30T08:46:22.000Z</time>
      </trkpt>
      <trkpt lat="44.32044" lon="4.75936">
        <ele>269</ele>
        <time>2025-04-30T08:46:24.000Z</time>
      </trkpt>
      <trkpt lat="44.32043" lon="4.75933">
        <ele>268.9</ele>
        <time>2025-04-30T08:46:27.000Z</time>
      </trkpt>
      <trkpt lat="44.32042" lon="4.7593">
        <ele>268.6</ele>
        <time>2025-04-30T08:46:30.000Z</time>
      </trkpt>
      <trkpt lat="44.32043" lon="4.75928">
        <ele>268.9</ele>
        <time>2025-04-30T08:46:33.000Z</time>
      </trkpt>
      <trkpt lat="44.32042" lon="4.75925">
        <ele>268.6</ele>
        <time>2025-04-30T08:46:37.000Z</time>
      </trkpt>
      <trkpt lat="44.3204" lon="4.75921">
        <ele>268.3</ele>
        <time>2025-04-30T08:46:42.000Z</time>
      </trkpt>
      <trkpt lat="44.32039" lon="4.75917">
        <ele>268</ele>
        <time>2025-04-30T08:46:45.000Z</time>
      </trkpt>
      <trkpt lat="44.32038" lon="4.75915">
        <ele>267.8</ele>
        <time>2025-04-30T08:46:47.000Z</time>
      </trkpt>
      <trkpt lat="44.32037" lon="4.75912">
        <ele>267.4</ele>
        <time>2025-04-30T08:46:50.000Z</time>
      </trkpt>
      <trkpt lat="44.32036" lon="4.75909">
        <ele>267.2</ele>
        <time>2025-04-30T08:46:52.000Z</time>
      </trkpt>
      <trkpt lat="44.32036" lon="4.75907">
        <ele>267.1</ele>
        <time>2025-04-30T08:46:54.000Z</time>
      </trkpt>
      <trkpt lat="44.32034" lon="4.75904">
        <ele>266.7</ele>
        <time>2025-04-30T08:46:56.000Z</time>
      </trkpt>
      <trkpt lat="44.32035" lon="4.759">
        <ele>266.9</ele>
        <time>2025-04-30T08:46:58.000Z</time>
      </trkpt>
      <trkpt lat="44.32033" lon="4.75897">
        <ele>266.6</ele>
        <time>2025-04-30T08:46:59.000Z</time>
      </trkpt>
      <trkpt lat="44.32032" lon="4.75894">
        <ele>266.2</ele>
        <time>2025-04-30T08:47:02.000Z</time>
      </trkpt>
      <trkpt lat="44.32031" lon="4.75891">
        <ele>265.8</ele>
        <time>2025-04-30T08:47:07.000Z</time>
      </trkpt>
      <trkpt lat="44.3203" lon="4.75888">
        <ele>265.6</ele>
        <time>2025-04-30T08:47:11.000Z</time>
      </trkpt>
      <trkpt lat="44.32029" lon="4.75886">
        <ele>265.2</ele>
        <time>2025-04-30T08:47:13.000Z</time>
      </trkpt>
      <trkpt lat="44.32028" lon="4.75883">
        <ele>264.8</ele>
        <time>2025-04-30T08:47:15.000Z</time>
      </trkpt>
      <trkpt lat="44.32026" lon="4.75881">
        <ele>264.4</ele>
        <time>2025-04-30T08:47:17.000Z</time>
      </trkpt>
      <trkpt lat="44.32024" lon="4.7588">
        <ele>263.8</ele>
        <time>2025-04-30T08:47:19.000Z</time>
      </trkpt>
      <trkpt lat="44.32022" lon="4.75878">
        <ele>263.4</ele>
        <time>2025-04-30T08:47:21.000Z</time>
      </trkpt>
      <trkpt lat="44.32021" lon="4.75874">
        <ele>263.2</ele>
        <time>2025-04-30T08:47:23.000Z</time>
      </trkpt>
      <trkpt lat="44.32021" lon="4.75869">
        <ele>263</ele>
        <time>2025-04-30T08:47:26.000Z</time>
      </trkpt>
      <trkpt lat="44.3202" lon="4.75866">
        <ele>262.8</ele>
        <time>2025-04-30T08:47:28.000Z</time>
      </trkpt>
      <trkpt lat="44.32019" lon="4.75864">
        <ele>262.4</ele>
        <time>2025-04-30T08:47:30.000Z</time>
      </trkpt>
      <trkpt lat="44.32017" lon="4.75862">
        <ele>262</ele>
        <time>2025-04-30T08:47:33.000Z</time>
      </trkpt>
      <trkpt lat="44.32016" lon="4.75859">
        <ele>261.8</ele>
        <time>2025-04-30T08:47:35.000Z</time>
      </trkpt>
      <trkpt lat="44.32014" lon="4.75857">
        <ele>261.2</ele>
        <time>2025-04-30T08:47:38.000Z</time>
      </trkpt>
      <trkpt lat="44.32012" lon="4.75855">
        <ele>260.8</ele>
        <time>2025-04-30T08:47:40.000Z</time>
      </trkpt>
      <trkpt lat="44.32011" lon="4.75851">
        <ele>260.6</ele>
        <time>2025-04-30T08:47:42.000Z</time>
      </trkpt>
      <trkpt lat="44.32011" lon="4.75849">
        <ele>260.5</ele>
        <time>2025-04-30T08:47:45.000Z</time>
      </trkpt>
      <trkpt lat="44.3201" lon="4.75845">
        <ele>260.2</ele>
        <time>2025-04-30T08:47:48.000Z</time>
      </trkpt>
      <trkpt lat="44.32009" lon="4.75843">
        <ele>260</ele>
        <time>2025-04-30T08:47:50.000Z</time>
      </trkpt>
      <trkpt lat="44.32008" lon="4.7584">
        <ele>259.8</ele>
        <time>2025-04-30T08:47:52.000Z</time>
      </trkpt>
      <trkpt lat="44.32007" lon="4.75838">
        <ele>259.6</ele>
        <time>2025-04-30T08:47:54.000Z</time>
      </trkpt>
      <trkpt lat="44.32005" lon="4.75837">
        <ele>259.4</ele>
        <time>2025-04-30T08:47:56.000Z</time>
      </trkpt>
      <trkpt lat="44.32002" lon="4.75836">
        <ele>259.2</ele>
        <time>2025-04-30T08:47:59.000Z</time>
      </trkpt>
      <trkpt lat="44.32001" lon="4.75834">
        <ele>259.1</ele>
        <time>2025-04-30T08:48:01.000Z</time>
      </trkpt>
      <trkpt lat="44.31998" lon="4.75834">
        <ele>258.9</ele>
        <time>2025-04-30T08:48:03.000Z</time>
      </trkpt>
      <trkpt lat="44.31994" lon="4.75833">
        <ele>258.7</ele>
        <time>2025-04-30T08:48:06.000Z</time>
      </trkpt>
      <trkpt lat="44.31992" lon="4.75832">
        <ele>258.6</ele>
        <time>2025-04-30T08:48:08.000Z</time>
      </trkpt>
      <trkpt lat="44.31991" lon="4.75829">
        <ele>258.3</ele>
        <time>2025-04-30T08:48:11.000Z</time>
      </trkpt>
      <trkpt lat="44.31991" lon="4.75832">
        <ele>258.6</ele>
        <time>2025-04-30T08:48:12.000Z</time>
      </trkpt>
      <trkpt lat="44.31991" lon="4.75836">
        <ele>258.7</ele>
        <time>2025-04-30T08:49:10.000Z</time>
      </trkpt>
      <trkpt lat="44.31991" lon="4.75839">
        <ele>258.7</ele>
        <time>2025-04-30T08:49:16.000Z</time>
      </trkpt>
      <trkpt lat="44.31989" lon="4.75844">
        <ele>258.6</ele>
        <time>2025-04-30T08:49:23.000Z</time>
      </trkpt>
      <trkpt lat="44.31987" lon="4.75845">
        <ele>258.5</ele>
        <time>2025-04-30T08:49:26.000Z</time>
      </trkpt>
      <trkpt lat="44.31984" lon="4.75848">
        <ele>258.4</ele>
        <time>2025-04-30T08:49:28.000Z</time>
      </trkpt>
      <trkpt lat="44.31984" lon="4.75852">
        <ele>258.4</ele>
        <time>2025-04-30T08:49:30.000Z</time>
      </trkpt>
      <trkpt lat="44.31984" lon="4.75855">
        <ele>258.4</ele>
        <time>2025-04-30T08:49:32.000Z</time>
      </trkpt>
      <trkpt lat="44.31984" lon="4.75857">
        <ele>258.4</ele>
        <time>2025-04-30T08:49:34.000Z</time>
      </trkpt>
      <trkpt lat="44.31984" lon="4.7586">
        <ele>258.4</ele>
        <time>2025-04-30T08:49:36.000Z</time>
      </trkpt>
      <trkpt lat="44.31985" lon="4.75863">
        <ele>258.4</ele>
        <time>2025-04-30T08:49:38.000Z</time>
      </trkpt>
      <trkpt lat="44.31985" lon="4.75866">
        <ele>258.2</ele>
        <time>2025-04-30T08:49:40.000Z</time>
      </trkpt>
      <trkpt lat="44.31984" lon="4.7587">
        <ele>258.1</ele>
        <time>2025-04-30T08:49:43.000Z</time>
      </trkpt>
      <trkpt lat="44.31984" lon="4.75872">
        <ele>258</ele>
        <time>2025-04-30T08:49:45.000Z</time>
      </trkpt>
      <trkpt lat="44.31984" lon="4.75876">
        <ele>257.8</ele>
        <time>2025-04-30T08:49:47.000Z</time>
      </trkpt>
      <trkpt lat="44.31984" lon="4.75879">
        <ele>257.7</ele>
        <time>2025-04-30T08:49:50.000Z</time>
      </trkpt>
      <trkpt lat="44.31984" lon="4.75881">
        <ele>257.6</ele>
        <time>2025-04-30T08:49:52.000Z</time>
      </trkpt>
      <trkpt lat="44.31984" lon="4.75884">
        <ele>257.4</ele>
        <time>2025-04-30T08:49:55.000Z</time>
      </trkpt>
      <trkpt lat="44.31983" lon="4.75888">
        <ele>257.2</ele>
        <time>2025-04-30T08:49:59.000Z</time>
      </trkpt>
      <trkpt lat="44.31982" lon="4.7589">
        <ele>257</ele>
        <time>2025-04-30T08:50:01.000Z</time>
      </trkpt>
      <trkpt lat="44.3198" lon="4.75892">
        <ele>256.7</ele>
        <time>2025-04-30T08:50:05.000Z</time>
      </trkpt>
      <trkpt lat="44.31978" lon="4.75893">
        <ele>256.4</ele>
        <time>2025-04-30T08:50:08.000Z</time>
      </trkpt>
      <trkpt lat="44.31976" lon="4.75894">
        <ele>256.1</ele>
        <time>2025-04-30T08:50:10.000Z</time>
      </trkpt>
      <trkpt lat="44.31974" lon="4.75896">
        <ele>255.7</ele>
        <time>2025-04-30T08:50:12.000Z</time>
      </trkpt>
      <trkpt lat="44.31972" lon="4.75897">
        <ele>255.4</ele>
        <time>2025-04-30T08:50:14.000Z</time>
      </trkpt>
      <trkpt lat="44.31971" lon="4.759">
        <ele>255.1</ele>
        <time>2025-04-30T08:50:16.000Z</time>
      </trkpt>
      <trkpt lat="44.31971" lon="4.75904">
        <ele>254.7</ele>
        <time>2025-04-30T08:50:17.000Z</time>
      </trkpt>
      <trkpt lat="44.31969" lon="4.75905">
        <ele>254.4</ele>
        <time>2025-04-30T08:50:18.000Z</time>
      </trkpt>
      <trkpt lat="44.31968" lon="4.75908">
        <ele>254.1</ele>
        <time>2025-04-30T08:50:19.000Z</time>
      </trkpt>
      <trkpt lat="44.31969" lon="4.75912">
        <ele>253.8</ele>
        <time>2025-04-30T08:50:24.000Z</time>
      </trkpt>
      <trkpt lat="44.31968" lon="4.75915">
        <ele>253.5</ele>
        <time>2025-04-30T08:50:27.000Z</time>
      </trkpt>
      <trkpt lat="44.31969" lon="4.75917">
        <ele>253.4</ele>
        <time>2025-04-30T08:50:33.000Z</time>
      </trkpt>
      <trkpt lat="44.31967" lon="4.75919">
        <ele>253.1</ele>
        <time>2025-04-30T08:50:36.000Z</time>
      </trkpt>
      <trkpt lat="44.31966" lon="4.75921">
        <ele>252.8</ele>
        <time>2025-04-30T08:50:38.000Z</time>
      </trkpt>
      <trkpt lat="44.31965" lon="4.75924">
        <ele>252.4</ele>
        <time>2025-04-30T08:50:44.000Z</time>
      </trkpt>
      <trkpt lat="44.31965" lon="4.75928">
        <ele>252.1</ele>
        <time>2025-04-30T08:50:46.000Z</time>
      </trkpt>
      <trkpt lat="44.31964" lon="4.75932">
        <ele>251.7</ele>
        <time>2025-04-30T08:50:48.000Z</time>
      </trkpt>
      <trkpt lat="44.31963" lon="4.75934">
        <ele>251.4</ele>
        <time>2025-04-30T08:50:50.000Z</time>
      </trkpt>
      <trkpt lat="44.31962" lon="4.7594">
        <ele>250.9</ele>
        <time>2025-04-30T08:50:54.000Z</time>
      </trkpt>
      <trkpt lat="44.31963" lon="4.75942">
        <ele>250.8</ele>
        <time>2025-04-30T08:50:57.000Z</time>
      </trkpt>
      <trkpt lat="44.31963" lon="4.75946">
        <ele>250.6</ele>
        <time>2025-04-30T08:51:00.000Z</time>
      </trkpt>
      <trkpt lat="44.31964" lon="4.75948">
        <ele>250.7</ele>
        <time>2025-04-30T08:51:03.000Z</time>
      </trkpt>
      <trkpt lat="44.31963" lon="4.7595">
        <ele>250.5</ele>
        <time>2025-04-30T08:51:04.000Z</time>
      </trkpt>
      <trkpt lat="44.31962" lon="4.75953">
        <ele>250.1</ele>
        <time>2025-04-30T08:51:08.000Z</time>
      </trkpt>
      <trkpt lat="44.3196" lon="4.75956">
        <ele>249.9</ele>
        <time>2025-04-30T08:51:13.000Z</time>
      </trkpt>
      <trkpt lat="44.3196" lon="4.75961">
        <ele>249.7</ele>
        <time>2025-04-30T08:51:19.000Z</time>
      </trkpt>
      <trkpt lat="44.31959" lon="4.75964">
        <ele>249.4</ele>
        <time>2025-04-30T08:51:22.000Z</time>
      </trkpt>
      <trkpt lat="44.31957" lon="4.75965">
        <ele>249.1</ele>
        <time>2025-04-30T08:51:26.000Z</time>
      </trkpt>
      <trkpt lat="44.31955" lon="4.75965">
        <ele>248.8</ele>
        <time>2025-04-30T08:51:30.000Z</time>
      </trkpt>
      <trkpt lat="44.31953" lon="4.75965">
        <ele>248.5</ele>
        <time>2025-04-30T08:51:34.000Z</time>
      </trkpt>
      <trkpt lat="44.3195" lon="4.75966">
        <ele>248</ele>
        <time>2025-04-30T08:51:37.000Z</time>
      </trkpt>
      <trkpt lat="44.31948" lon="4.75966">
        <ele>247.8</ele>
        <time>2025-04-30T08:51:39.000Z</time>
      </trkpt>
      <trkpt lat="44.31945" lon="4.75966">
        <ele>247.3</ele>
        <time>2025-04-30T08:51:43.000Z</time>
      </trkpt>
      <trkpt lat="44.31943" lon="4.75965">
        <ele>247.1</ele>
        <time>2025-04-30T08:51:46.000Z</time>
      </trkpt>
      <trkpt lat="44.31942" lon="4.75966">
        <ele>246.8</ele>
        <time>2025-04-30T08:51:49.000Z</time>
      </trkpt>
      <trkpt lat="44.3194" lon="4.75967">
        <ele>246.5</ele>
        <time>2025-04-30T08:51:52.000Z</time>
      </trkpt>
      <trkpt lat="44.31939" lon="4.7597">
        <ele>246.3</ele>
        <time>2025-04-30T08:51:57.000Z</time>
      </trkpt>
      <trkpt lat="44.31937" lon="4.75973">
        <ele>245.9</ele>
        <time>2025-04-30T08:52:02.000Z</time>
      </trkpt>
      <trkpt lat="44.31935" lon="4.75975">
        <ele>245.7</ele>
        <time>2025-04-30T08:52:04.000Z</time>
      </trkpt>
      <trkpt lat="44.31931" lon="4.75976">
        <ele>245.2</ele>
        <time>2025-04-30T08:52:08.000Z</time>
      </trkpt>
      <trkpt lat="44.31929" lon="4.75976">
        <ele>244.9</ele>
        <time>2025-04-30T08:52:13.000Z</time>
      </trkpt>
      <trkpt lat="44.31928" lon="4.75974">
        <ele>244.7</ele>
        <time>2025-04-30T08:52:16.000Z</time>
      </trkpt>
      <trkpt lat="44.3193" lon="4.75976">
        <ele>245</ele>
        <time>2025-04-30T08:52:48.000Z</time>
      </trkpt>
      <trkpt lat="44.31928" lon="4.75977">
        <ele>244.8</ele>
        <time>2025-04-30T08:53:48.000Z</time>
      </trkpt>
      <trkpt lat="44.31926" lon="4.75978">
        <ele>244.6</ele>
        <time>2025-04-30T08:54:11.000Z</time>
      </trkpt>
      <trkpt lat="44.31927" lon="4.75981">
        <ele>244.8</ele>
        <time>2025-04-30T08:54:30.000Z</time>
      </trkpt>
      <trkpt lat="44.31926" lon="4.75984">
        <ele>244.9</ele>
        <time>2025-04-30T08:54:33.000Z</time>
      </trkpt>
      <trkpt lat="44.31924" lon="4.75987">
        <ele>244.8</ele>
        <time>2025-04-30T08:54:36.000Z</time>
      </trkpt>
      <trkpt lat="44.31921" lon="4.75987">
        <ele>244.5</ele>
        <time>2025-04-30T08:54:42.000Z</time>
      </trkpt>
      <trkpt lat="44.31919" lon="4.75987">
        <ele>244.3</ele>
        <time>2025-04-30T08:54:44.000Z</time>
      </trkpt>
      <trkpt lat="44.31917" lon="4.75988">
        <ele>244.1</ele>
        <time>2025-04-30T08:54:46.000Z</time>
      </trkpt>
      <trkpt lat="44.31915" lon="4.75988">
        <ele>244</ele>
        <time>2025-04-30T08:54:48.000Z</time>
      </trkpt>
      <trkpt lat="44.31913" lon="4.75988">
        <ele>243.8</ele>
        <time>2025-04-30T08:54:50.000Z</time>
      </trkpt>
      <trkpt lat="44.3191" lon="4.75987">
        <ele>243.4</ele>
        <time>2025-04-30T08:54:53.000Z</time>
      </trkpt>
      <trkpt lat="44.31908" lon="4.75987">
        <ele>243.2</ele>
        <time>2025-04-30T08:54:55.000Z</time>
      </trkpt>
      <trkpt lat="44.31906" lon="4.75985">
        <ele>243</ele>
        <time>2025-04-30T08:54:58.000Z</time>
      </trkpt>
      <trkpt lat="44.31904" lon="4.75986">
        <ele>242.9</ele>
        <time>2025-04-30T08:55:00.000Z</time>
      </trkpt>
      <trkpt lat="44.31902" lon="4.75988">
        <ele>242.8</ele>
        <time>2025-04-30T08:55:02.000Z</time>
      </trkpt>
      <trkpt lat="44.319" lon="4.75988">
        <ele>242.5</ele>
        <time>2025-04-30T08:55:04.000Z</time>
      </trkpt>
      <trkpt lat="44.31897" lon="4.75987">
        <ele>242.3</ele>
        <time>2025-04-30T08:55:06.000Z</time>
      </trkpt>
      <trkpt lat="44.31894" lon="4.75987">
        <ele>242</ele>
        <time>2025-04-30T08:55:09.000Z</time>
      </trkpt>
      <trkpt lat="44.31892" lon="4.75987">
        <ele>241.8</ele>
        <time>2025-04-30T08:55:12.000Z</time>
      </trkpt>
      <trkpt lat="44.3189" lon="4.75988">
        <ele>241.6</ele>
        <time>2025-04-30T08:55:14.000Z</time>
      </trkpt>
      <trkpt lat="44.31888" lon="4.7599">
        <ele>241.5</ele>
        <time>2025-04-30T08:55:17.000Z</time>
      </trkpt>
      <trkpt lat="44.31885" lon="4.75989">
        <ele>241.3</ele>
        <time>2025-04-30T08:55:19.000Z</time>
      </trkpt>
      <trkpt lat="44.31883" lon="4.75986">
        <ele>241</ele>
        <time>2025-04-30T08:55:21.000Z</time>
      </trkpt>
      <trkpt lat="44.31882" lon="4.75987">
        <ele>240.9</ele>
        <time>2025-04-30T08:55:24.000Z</time>
      </trkpt>
      <trkpt lat="44.3188" lon="4.75988">
        <ele>240.7</ele>
        <time>2025-04-30T08:55:25.000Z</time>
      </trkpt>
      <trkpt lat="44.31877" lon="4.75989">
        <ele>240.5</ele>
        <time>2025-04-30T08:55:27.000Z</time>
      </trkpt>
      <trkpt lat="44.31874" lon="4.75991">
        <ele>240.4</ele>
        <time>2025-04-30T08:55:29.000Z</time>
      </trkpt>
      <trkpt lat="44.31872" lon="4.75993">
        <ele>240.4</ele>
        <time>2025-04-30T08:55:31.000Z</time>
      </trkpt>
      <trkpt lat="44.31871" lon="4.75995">
        <ele>240.4</ele>
        <time>2025-04-30T08:55:33.000Z</time>
      </trkpt>
      <trkpt lat="44.31869" lon="4.75997">
        <ele>240.4</ele>
        <time>2025-04-30T08:55:35.000Z</time>
      </trkpt>
      <trkpt lat="44.31868" lon="4.75999">
        <ele>240.4</ele>
        <time>2025-04-30T08:55:38.000Z</time>
      </trkpt>
      <trkpt lat="44.31865" lon="4.76002">
        <ele>240.6</ele>
        <time>2025-04-30T08:55:43.000Z</time>
      </trkpt>
      <trkpt lat="44.31863" lon="4.76004">
        <ele>240.6</ele>
        <time>2025-04-30T08:55:48.000Z</time>
      </trkpt>
      <trkpt lat="44.31862" lon="4.76007">
        <ele>240.8</ele>
        <time>2025-04-30T08:55:51.000Z</time>
      </trkpt>
      <trkpt lat="44.3186" lon="4.76009">
        <ele>240.9</ele>
        <time>2025-04-30T08:55:53.000Z</time>
      </trkpt>
      <trkpt lat="44.31859" lon="4.76013">
        <ele>241.1</ele>
        <time>2025-04-30T08:55:56.000Z</time>
      </trkpt>
      <trkpt lat="44.31858" lon="4.76015">
        <ele>241.1</ele>
        <time>2025-04-30T08:56:02.000Z</time>
      </trkpt>
      <trkpt lat="44.31856" lon="4.76017">
        <ele>241</ele>
        <time>2025-04-30T08:56:04.000Z</time>
      </trkpt>
      <trkpt lat="44.31854" lon="4.76016">
        <ele>240.6</ele>
        <time>2025-04-30T08:56:06.000Z</time>
      </trkpt>
      <trkpt lat="44.31851" lon="4.76016">
        <ele>240.3</ele>
        <time>2025-04-30T08:56:08.000Z</time>
      </trkpt>
      <trkpt lat="44.31849" lon="4.76017">
        <ele>240</ele>
        <time>2025-04-30T08:56:11.000Z</time>
      </trkpt>
      <trkpt lat="44.31847" lon="4.76018">
        <ele>239.9</ele>
        <time>2025-04-30T08:56:14.000Z</time>
      </trkpt>
      <trkpt lat="44.31845" lon="4.7602">
        <ele>239.7</ele>
        <time>2025-04-30T08:56:18.000Z</time>
      </trkpt>
      <trkpt lat="44.31842" lon="4.76021">
        <ele>239.5</ele>
        <time>2025-04-30T08:56:20.000Z</time>
      </trkpt>
      <trkpt lat="44.3184" lon="4.76021">
        <ele>239.2</ele>
        <time>2025-04-30T08:56:30.000Z</time>
      </trkpt>
      <trkpt lat="44.31838" lon="4.76023">
        <ele>239.1</ele>
        <time>2025-04-30T08:56:33.000Z</time>
      </trkpt>
      <trkpt lat="44.31837" lon="4.76025">
        <ele>239.2</ele>
        <time>2025-04-30T08:56:36.000Z</time>
      </trkpt>
      <trkpt lat="44.31837" lon="4.76028">
        <ele>239.6</ele>
        <time>2025-04-30T08:56:38.000Z</time>
      </trkpt>
      <trkpt lat="44.31836" lon="4.76031">
        <ele>239.7</ele>
        <time>2025-04-30T08:56:41.000Z</time>
      </trkpt>
      <trkpt lat="44.31836" lon="4.76034">
        <ele>240.1</ele>
        <time>2025-04-30T08:56:44.000Z</time>
      </trkpt>
      <trkpt lat="44.31836" lon="4.76037">
        <ele>240.3</ele>
        <time>2025-04-30T08:56:46.000Z</time>
      </trkpt>
      <trkpt lat="44.31836" lon="4.76039">
        <ele>240.7</ele>
        <time>2025-04-30T08:56:49.000Z</time>
      </trkpt>
      <trkpt lat="44.31837" lon="4.76042">
        <ele>241</ele>
        <time>2025-04-30T08:56:52.000Z</time>
      </trkpt>
      <trkpt lat="44.31835" lon="4.76043">
        <ele>240.9</ele>
        <time>2025-04-30T08:56:55.000Z</time>
      </trkpt>
      <trkpt lat="44.31832" lon="4.76042">
        <ele>240.5</ele>
        <time>2025-04-30T08:56:58.000Z</time>
      </trkpt>
      <trkpt lat="44.3183" lon="4.76042">
        <ele>240.2</ele>
        <time>2025-04-30T08:57:00.000Z</time>
      </trkpt>
      <trkpt lat="44.31828" lon="4.76043">
        <ele>240.1</ele>
        <time>2025-04-30T08:57:04.000Z</time>
      </trkpt>
      <trkpt lat="44.31825" lon="4.76043">
        <ele>239.9</ele>
        <time>2025-04-30T08:57:07.000Z</time>
      </trkpt>
      <trkpt lat="44.31823" lon="4.76046">
        <ele>239.9</ele>
        <time>2025-04-30T08:57:12.000Z</time>
      </trkpt>
      <trkpt lat="44.31821" lon="4.76047">
        <ele>239.8</ele>
        <time>2025-04-30T08:57:13.000Z</time>
      </trkpt>
      <trkpt lat="44.31817" lon="4.76048">
        <ele>239.5</ele>
        <time>2025-04-30T08:57:20.000Z</time>
      </trkpt>
      <trkpt lat="44.31814" lon="4.76049">
        <ele>239.4</ele>
        <time>2025-04-30T08:57:23.000Z</time>
      </trkpt>
      <trkpt lat="44.31813" lon="4.76048">
        <ele>239.2</ele>
        <time>2025-04-30T08:57:26.000Z</time>
      </trkpt>
      <trkpt lat="44.31811" lon="4.76047">
        <ele>238.9</ele>
        <time>2025-04-30T08:57:28.000Z</time>
      </trkpt>
      <trkpt lat="44.31809" lon="4.76044">
        <ele>238.5</ele>
        <time>2025-04-30T08:57:33.000Z</time>
      </trkpt>
      <trkpt lat="44.31808" lon="4.76042">
        <ele>238.2</ele>
        <time>2025-04-30T08:57:36.000Z</time>
      </trkpt>
      <trkpt lat="44.31808" lon="4.76039">
        <ele>238.1</ele>
        <time>2025-04-30T08:57:39.000Z</time>
      </trkpt>
      <trkpt lat="44.31808" lon="4.76035">
        <ele>237.7</ele>
        <time>2025-04-30T08:57:44.000Z</time>
      </trkpt>
      <trkpt lat="44.31808" lon="4.76032">
        <ele>237.4</ele>
        <time>2025-04-30T08:57:47.000Z</time>
      </trkpt>
      <trkpt lat="44.31809" lon="4.76029">
        <ele>237.3</ele>
        <time>2025-04-30T08:57:51.000Z</time>
      </trkpt>
      <trkpt lat="44.31811" lon="4.76027">
        <ele>237.2</ele>
        <time>2025-04-30T08:57:53.000Z</time>
      </trkpt>
      <trkpt lat="44.31812" lon="4.76025">
        <ele>237</ele>
        <time>2025-04-30T08:57:56.000Z</time>
      </trkpt>
      <trkpt lat="44.31814" lon="4.76023">
        <ele>236.8</ele>
        <time>2025-04-30T08:57:59.000Z</time>
      </trkpt>
      <trkpt lat="44.31816" lon="4.76021">
        <ele>236.7</ele>
        <time>2025-04-30T08:58:12.000Z</time>
      </trkpt>
      <trkpt lat="44.31818" lon="4.76021">
        <ele>236.9</ele>
        <time>2025-04-30T08:59:12.000Z</time>
      </trkpt>
      <trkpt lat="44.31816" lon="4.76021">
        <ele>236.6</ele>
        <time>2025-04-30T09:03:09.000Z</time>
      </trkpt>
      <trkpt lat="44.31814" lon="4.76022">
        <ele>236.8</ele>
        <time>2025-04-30T09:03:12.000Z</time>
      </trkpt>
      <trkpt lat="44.31813" lon="4.76025">
        <ele>237.1</ele>
        <time>2025-04-30T09:03:20.000Z</time>
      </trkpt>
      <trkpt lat="44.31812" lon="4.76029">
        <ele>237.6</ele>
        <time>2025-04-30T09:03:26.000Z</time>
      </trkpt>
      <trkpt lat="44.31811" lon="4.76034">
        <ele>237.9</ele>
        <time>2025-04-30T09:03:32.000Z</time>
      </trkpt>
      <trkpt lat="44.3181" lon="4.76037">
        <ele>238</ele>
        <time>2025-04-30T09:03:34.000Z</time>
      </trkpt>
      <trkpt lat="44.31809" lon="4.7604">
        <ele>238.1</ele>
        <time>2025-04-30T09:03:37.000Z</time>
      </trkpt>
      <trkpt lat="44.31807" lon="4.76043">
        <ele>238.2</ele>
        <time>2025-04-30T09:03:40.000Z</time>
      </trkpt>
      <trkpt lat="44.31805" lon="4.76044">
        <ele>238.2</ele>
        <time>2025-04-30T09:03:43.000Z</time>
      </trkpt>
      <trkpt lat="44.31804" lon="4.76047">
        <ele>238.3</ele>
        <time>2025-04-30T09:03:46.000Z</time>
      </trkpt>
      <trkpt lat="44.31801" lon="4.76048">
        <ele>238.3</ele>
        <time>2025-04-30T09:03:48.000Z</time>
      </trkpt>
      <trkpt lat="44.31799" lon="4.76048">
        <ele>238.3</ele>
        <time>2025-04-30T09:03:52.000Z</time>
      </trkpt>
      <trkpt lat="44.31796" lon="4.76048">
        <ele>238.2</ele>
        <time>2025-04-30T09:03:55.000Z</time>
      </trkpt>
      <trkpt lat="44.31794" lon="4.76049">
        <ele>238.2</ele>
        <time>2025-04-30T09:03:58.000Z</time>
      </trkpt>
      <trkpt lat="44.31792" lon="4.76049">
        <ele>238.1</ele>
        <time>2025-04-30T09:04:00.000Z</time>
      </trkpt>
      <trkpt lat="44.3179" lon="4.76048">
        <ele>238.1</ele>
        <time>2025-04-30T09:04:02.000Z</time>
      </trkpt>
      <trkpt lat="44.31788" lon="4.76049">
        <ele>238</ele>
        <time>2025-04-30T09:04:05.000Z</time>
      </trkpt>
      <trkpt lat="44.31786" lon="4.76049">
        <ele>238</ele>
        <time>2025-04-30T09:04:09.000Z</time>
      </trkpt>
      <trkpt lat="44.31783" lon="4.76049">
        <ele>237.9</ele>
        <time>2025-04-30T09:04:12.000Z</time>
      </trkpt>
      <trkpt lat="44.31781" lon="4.76049">
        <ele>237.9</ele>
        <time>2025-04-30T09:04:14.000Z</time>
      </trkpt>
      <trkpt lat="44.31779" lon="4.7605">
        <ele>237.8</ele>
        <time>2025-04-30T09:04:19.000Z</time>
      </trkpt>
      <trkpt lat="44.31776" lon="4.7605">
        <ele>237.8</ele>
        <time>2025-04-30T09:04:21.000Z</time>
      </trkpt>
      <trkpt lat="44.31774" lon="4.76051">
        <ele>237.7</ele>
        <time>2025-04-30T09:04:23.000Z</time>
      </trkpt>
      <trkpt lat="44.31772" lon="4.76053">
        <ele>237.7</ele>
        <time>2025-04-30T09:04:25.000Z</time>
      </trkpt>
      <trkpt lat="44.3177" lon="4.76054">
        <ele>237.7</ele>
        <time>2025-04-30T09:04:29.000Z</time>
      </trkpt>
      <trkpt lat="44.31768" lon="4.76055">
        <ele>237.6</ele>
        <time>2025-04-30T09:04:34.000Z</time>
      </trkpt>
      <trkpt lat="44.31766" lon="4.76055">
        <ele>237.6</ele>
        <time>2025-04-30T09:04:37.000Z</time>
      </trkpt>
      <trkpt lat="44.31763" lon="4.76058">
        <ele>237.5</ele>
        <time>2025-04-30T09:04:41.000Z</time>
      </trkpt>
      <trkpt lat="44.31762" lon="4.7606">
        <ele>237.4</ele>
        <time>2025-04-30T09:04:43.000Z</time>
      </trkpt>
      <trkpt lat="44.3176" lon="4.76059">
        <ele>237.4</ele>
        <time>2025-04-30T09:04:45.000Z</time>
      </trkpt>
      <trkpt lat="44.31758" lon="4.76061">
        <ele>237.3</ele>
        <time>2025-04-30T09:04:47.000Z</time>
      </trkpt>
      <trkpt lat="44.31757" lon="4.76065">
        <ele>237.3</ele>
        <time>2025-04-30T09:04:49.000Z</time>
      </trkpt>
      <trkpt lat="44.31755" lon="4.76066">
        <ele>237.2</ele>
        <time>2025-04-30T09:04:54.000Z</time>
      </trkpt>
      <trkpt lat="44.31753" lon="4.76067">
        <ele>237.1</ele>
        <time>2025-04-30T09:04:58.000Z</time>
      </trkpt>
      <trkpt lat="44.31751" lon="4.76069">
        <ele>237</ele>
        <time>2025-04-30T09:05:01.000Z</time>
      </trkpt>
      <trkpt lat="44.31749" lon="4.76071">
        <ele>236.9</ele>
        <time>2025-04-30T09:05:04.000Z</time>
      </trkpt>
      <trkpt lat="44.31747" lon="4.76068">
        <ele>236.8</ele>
        <time>2025-04-30T09:05:10.000Z</time>
      </trkpt>
      <trkpt lat="44.31746" lon="4.76071">
        <ele>236.6</ele>
        <time>2025-04-30T09:05:14.000Z</time>
      </trkpt>
      <trkpt lat="44.31744" lon="4.76072">
        <ele>236.5</ele>
        <time>2025-04-30T09:05:16.000Z</time>
      </trkpt>
      <trkpt lat="44.31742" lon="4.76072">
        <ele>236.2</ele>
        <time>2025-04-30T09:05:18.000Z</time>
      </trkpt>
      <trkpt lat="44.3174" lon="4.76073">
        <ele>236.1</ele>
        <time>2025-04-30T09:05:20.000Z</time>
      </trkpt>
      <trkpt lat="44.31738" lon="4.76074">
        <ele>235.9</ele>
        <time>2025-04-30T09:05:24.000Z</time>
      </trkpt>
      <trkpt lat="44.31736" lon="4.76075">
        <ele>235.7</ele>
        <time>2025-04-30T09:05:26.000Z</time>
      </trkpt>
      <trkpt lat="44.31734" lon="4.76077">
        <ele>235.4</ele>
        <time>2025-04-30T09:05:28.000Z</time>
      </trkpt>
      <trkpt lat="44.31732" lon="4.76078">
        <ele>235.2</ele>
        <time>2025-04-30T09:05:30.000Z</time>
      </trkpt>
      <trkpt lat="44.3173" lon="4.76079">
        <ele>235</ele>
        <time>2025-04-30T09:05:32.000Z</time>
      </trkpt>
      <trkpt lat="44.31729" lon="4.76081">
        <ele>234.7</ele>
        <time>2025-04-30T09:05:34.000Z</time>
      </trkpt>
      <trkpt lat="44.31726" lon="4.7608">
        <ele>234.5</ele>
        <time>2025-04-30T09:05:38.000Z</time>
      </trkpt>
      <trkpt lat="44.31725" lon="4.76083">
        <ele>234.3</ele>
        <time>2025-04-30T09:05:40.000Z</time>
      </trkpt>
      <trkpt lat="44.31723" lon="4.76084">
        <ele>234.1</ele>
        <time>2025-04-30T09:05:43.000Z</time>
      </trkpt>
      <trkpt lat="44.31721" lon="4.76085">
        <ele>233.8</ele>
        <time>2025-04-30T09:05:47.000Z</time>
      </trkpt>
      <trkpt lat="44.31719" lon="4.76087">
        <ele>233.6</ele>
        <time>2025-04-30T09:05:49.000Z</time>
      </trkpt>
      <trkpt lat="44.31717" lon="4.76088">
        <ele>233.5</ele>
        <time>2025-04-30T09:05:51.000Z</time>
      </trkpt>
      <trkpt lat="44.31715" lon="4.76089">
        <ele>233.3</ele>
        <time>2025-04-30T09:05:53.000Z</time>
      </trkpt>
      <trkpt lat="44.31713" lon="4.7609">
        <ele>233.2</ele>
        <time>2025-04-30T09:05:55.000Z</time>
      </trkpt>
      <trkpt lat="44.31711" lon="4.76091">
        <ele>233</ele>
        <time>2025-04-30T09:05:58.000Z</time>
      </trkpt>
      <trkpt lat="44.31709" lon="4.76092">
        <ele>232.9</ele>
        <time>2025-04-30T09:06:02.000Z</time>
      </trkpt>
      <trkpt lat="44.31707" lon="4.76093">
        <ele>232.7</ele>
        <time>2025-04-30T09:06:04.000Z</time>
      </trkpt>
      <trkpt lat="44.31705" lon="4.76094">
        <ele>232.6</ele>
        <time>2025-04-30T09:06:07.000Z</time>
      </trkpt>
      <trkpt lat="44.31703" lon="4.76094">
        <ele>232.5</ele>
        <time>2025-04-30T09:06:10.000Z</time>
      </trkpt>
      <trkpt lat="44.317" lon="4.76095">
        <ele>232.3</ele>
        <time>2025-04-30T09:06:13.000Z</time>
      </trkpt>
      <trkpt lat="44.31698" lon="4.76096">
        <ele>232.2</ele>
        <time>2025-04-30T09:06:16.000Z</time>
      </trkpt>
      <trkpt lat="44.31696" lon="4.76098">
        <ele>232.1</ele>
        <time>2025-04-30T09:06:19.000Z</time>
      </trkpt>
      <trkpt lat="44.31694" lon="4.76098">
        <ele>231.9</ele>
        <time>2025-04-30T09:06:22.000Z</time>
      </trkpt>
      <trkpt lat="44.31691" lon="4.76098">
        <ele>231.7</ele>
        <time>2025-04-30T09:06:24.000Z</time>
      </trkpt>
      <trkpt lat="44.31689" lon="4.76099">
        <ele>231.5</ele>
        <time>2025-04-30T09:06:27.000Z</time>
      </trkpt>
      <trkpt lat="44.31686" lon="4.76099">
        <ele>231.2</ele>
        <time>2025-04-30T09:06:31.000Z</time>
      </trkpt>
      <trkpt lat="44.31684" lon="4.761">
        <ele>231</ele>
        <time>2025-04-30T09:06:33.000Z</time>
      </trkpt>
      <trkpt lat="44.31682" lon="4.76101">
        <ele>230.8</ele>
        <time>2025-04-30T09:06:35.000Z</time>
      </trkpt>
      <trkpt lat="44.3168" lon="4.76101">
        <ele>230.6</ele>
        <time>2025-04-30T09:06:37.000Z</time>
      </trkpt>
      <trkpt lat="44.31677" lon="4.76101">
        <ele>230.4</ele>
        <time>2025-04-30T09:06:40.000Z</time>
      </trkpt>
      <trkpt lat="44.31675" lon="4.76101">
        <ele>230.2</ele>
        <time>2025-04-30T09:06:42.000Z</time>
      </trkpt>
      <trkpt lat="44.31673" lon="4.76101">
        <ele>230</ele>
        <time>2025-04-30T09:06:47.000Z</time>
      </trkpt>
      <trkpt lat="44.31671" lon="4.76102">
        <ele>229.8</ele>
        <time>2025-04-30T09:06:49.000Z</time>
      </trkpt>
      <trkpt lat="44.31669" lon="4.76102">
        <ele>229.5</ele>
        <time>2025-04-30T09:06:53.000Z</time>
      </trkpt>
      <trkpt lat="44.31666" lon="4.761">
        <ele>229.4</ele>
        <time>2025-04-30T09:06:57.000Z</time>
      </trkpt>
      <trkpt lat="44.31665" lon="4.76099">
        <ele>229.2</ele>
        <time>2025-04-30T09:06:59.000Z</time>
      </trkpt>
      <trkpt lat="44.31661" lon="4.76099">
        <ele>229</ele>
        <time>2025-04-30T09:07:02.000Z</time>
      </trkpt>
      <trkpt lat="44.3166" lon="4.761">
        <ele>228.8</ele>
        <time>2025-04-30T09:07:04.000Z</time>
      </trkpt>
      <trkpt lat="44.31657" lon="4.761">
        <ele>228.6</ele>
        <time>2025-04-30T09:07:06.000Z</time>
      </trkpt>
      <trkpt lat="44.31655" lon="4.761">
        <ele>228.4</ele>
        <time>2025-04-30T09:07:08.000Z</time>
      </trkpt>
      <trkpt lat="44.31653" lon="4.761">
        <ele>228.2</ele>
        <time>2025-04-30T09:07:11.000Z</time>
      </trkpt>
      <trkpt lat="44.31651" lon="4.761">
        <ele>228</ele>
        <time>2025-04-30T09:07:13.000Z</time>
      </trkpt>
      <trkpt lat="44.31649" lon="4.76101">
        <ele>227.8</ele>
        <time>2025-04-30T09:07:15.000Z</time>
      </trkpt>
      <trkpt lat="44.31647" lon="4.76102">
        <ele>227.7</ele>
        <time>2025-04-30T09:07:17.000Z</time>
      </trkpt>
      <trkpt lat="44.31643" lon="4.76102">
        <ele>227.3</ele>
        <time>2025-04-30T09:07:21.000Z</time>
      </trkpt>
      <trkpt lat="44.31641" lon="4.76102">
        <ele>227.2</ele>
        <time>2025-04-30T09:07:23.000Z</time>
      </trkpt>
      <trkpt lat="44.31639" lon="4.76102">
        <ele>227</ele>
        <time>2025-04-30T09:07:25.000Z</time>
      </trkpt>
      <trkpt lat="44.31637" lon="4.761">
        <ele>226.9</ele>
        <time>2025-04-30T09:07:28.000Z</time>
      </trkpt>
      <trkpt lat="44.31636" lon="4.76098">
        <ele>226.7</ele>
        <time>2025-04-30T09:07:32.000Z</time>
      </trkpt>
      <trkpt lat="44.31634" lon="4.76096">
        <ele>226.6</ele>
        <time>2025-04-30T09:07:37.000Z</time>
      </trkpt>
      <trkpt lat="44.31633" lon="4.76093">
        <ele>226.4</ele>
        <time>2025-04-30T09:07:46.000Z</time>
      </trkpt>
      <trkpt lat="44.31632" lon="4.76091">
        <ele>226.3</ele>
        <time>2025-04-30T09:07:50.000Z</time>
      </trkpt>
      <trkpt lat="44.31632" lon="4.76088">
        <ele>226.3</ele>
        <time>2025-04-30T09:07:55.000Z</time>
      </trkpt>
      <trkpt lat="44.31632" lon="4.76085">
        <ele>226.2</ele>
        <time>2025-04-30T09:07:58.000Z</time>
      </trkpt>
      <trkpt lat="44.3163" lon="4.76083">
        <ele>226</ele>
        <time>2025-04-30T09:08:03.000Z</time>
      </trkpt>
      <trkpt lat="44.31628" lon="4.76082">
        <ele>225.4</ele>
        <time>2025-04-30T09:08:07.000Z</time>
      </trkpt>
      <trkpt lat="44.31626" lon="4.76081">
        <ele>225</ele>
        <time>2025-04-30T09:08:18.000Z</time>
      </trkpt>
      <trkpt lat="44.31625" lon="4.7608">
        <ele>224.6</ele>
        <time>2025-04-30T09:08:20.000Z</time>
      </trkpt>
      <trkpt lat="44.31622" lon="4.76078">
        <ele>223.8</ele>
        <time>2025-04-30T09:08:23.000Z</time>
      </trkpt>
      <trkpt lat="44.31624" lon="4.7608">
        <ele>224.5</ele>
        <time>2025-04-30T09:10:18.000Z</time>
      </trkpt>
      <trkpt lat="44.31625" lon="4.76082">
        <ele>225.2</ele>
        <time>2025-04-30T09:10:23.000Z</time>
      </trkpt>
      <trkpt lat="44.31626" lon="4.76084">
        <ele>225.6</ele>
        <time>2025-04-30T09:10:26.000Z</time>
      </trkpt>
      <trkpt lat="44.31627" lon="4.76088">
        <ele>225.7</ele>
        <time>2025-04-30T09:10:30.000Z</time>
      </trkpt>
      <trkpt lat="44.31627" lon="4.7609">
        <ele>225.9</ele>
        <time>2025-04-30T09:10:34.000Z</time>
      </trkpt>
      <trkpt lat="44.31625" lon="4.76089">
        <ele>225.6</ele>
        <time>2025-04-30T09:10:44.000Z</time>
      </trkpt>
      <trkpt lat="44.31624" lon="4.76087">
        <ele>225.4</ele>
        <time>2025-04-30T09:10:46.000Z</time>
      </trkpt>
      <trkpt lat="44.31623" lon="4.76085">
        <ele>225.3</ele>
        <time>2025-04-30T09:10:48.000Z</time>
      </trkpt>
      <trkpt lat="44.3162" lon="4.76083">
        <ele>225</ele>
        <time>2025-04-30T09:10:51.000Z</time>
      </trkpt>
      <trkpt lat="44.31619" lon="4.76082">
        <ele>224.4</ele>
        <time>2025-04-30T09:10:53.000Z</time>
      </trkpt>
      <trkpt lat="44.31616" lon="4.76081">
        <ele>224</ele>
        <time>2025-04-30T09:10:56.000Z</time>
      </trkpt>
      <trkpt lat="44.31615" lon="4.7608">
        <ele>223.4</ele>
        <time>2025-04-30T09:10:58.000Z</time>
      </trkpt>
      <trkpt lat="44.31613" lon="4.76078">
        <ele>222.6</ele>
        <time>2025-04-30T09:11:00.000Z</time>
      </trkpt>
      <trkpt lat="44.31611" lon="4.76077">
        <ele>222.2</ele>
        <time>2025-04-30T09:11:02.000Z</time>
      </trkpt>
      <trkpt lat="44.31609" lon="4.76076">
        <ele>221.9</ele>
        <time>2025-04-30T09:11:04.000Z</time>
      </trkpt>
      <trkpt lat="44.31606" lon="4.76076">
        <ele>221.9</ele>
        <time>2025-04-30T09:11:06.000Z</time>
      </trkpt>
      <trkpt lat="44.31604" lon="4.76074">
        <ele>221.6</ele>
        <time>2025-04-30T09:11:08.000Z</time>
      </trkpt>
      <trkpt lat="44.31602" lon="4.76072">
        <ele>221.4</ele>
        <time>2025-04-30T09:11:11.000Z</time>
      </trkpt>
      <trkpt lat="44.316" lon="4.76072">
        <ele>221.4</ele>
        <time>2025-04-30T09:11:15.000Z</time>
      </trkpt>
      <trkpt lat="44.31597" lon="4.76071">
        <ele>221.3</ele>
        <time>2025-04-30T09:11:18.000Z</time>
      </trkpt>
      <trkpt lat="44.31595" lon="4.7607">
        <ele>221.3</ele>
        <time>2025-04-30T09:11:20.000Z</time>
      </trkpt>
      <trkpt lat="44.31593" lon="4.7607">
        <ele>221.4</ele>
        <time>2025-04-30T09:11:22.000Z</time>
      </trkpt>
      <trkpt lat="44.3159" lon="4.76071">
        <ele>221.8</ele>
        <time>2025-04-30T09:11:24.000Z</time>
      </trkpt>
      <trkpt lat="44.31588" lon="4.76071">
        <ele>222</ele>
        <time>2025-04-30T09:11:26.000Z</time>
      </trkpt>
      <trkpt lat="44.31586" lon="4.76072">
        <ele>222.2</ele>
        <time>2025-04-30T09:11:28.000Z</time>
      </trkpt>
      <trkpt lat="44.31583" lon="4.76072">
        <ele>222.3</ele>
        <time>2025-04-30T09:11:30.000Z</time>
      </trkpt>
      <trkpt lat="44.31582" lon="4.76073">
        <ele>222.5</ele>
        <time>2025-04-30T09:11:32.000Z</time>
      </trkpt>
      <trkpt lat="44.3158" lon="4.76074">
        <ele>222.8</ele>
        <time>2025-04-30T09:11:34.000Z</time>
      </trkpt>
      <trkpt lat="44.31577" lon="4.76076">
        <ele>223.1</ele>
        <time>2025-04-30T09:11:37.000Z</time>
      </trkpt>
      <trkpt lat="44.31575" lon="4.76078">
        <ele>223.4</ele>
        <time>2025-04-30T09:11:39.000Z</time>
      </trkpt>
      <trkpt lat="44.31573" lon="4.7608">
        <ele>223.6</ele>
        <time>2025-04-30T09:11:41.000Z</time>
      </trkpt>
      <trkpt lat="44.31571" lon="4.76081">
        <ele>223.7</ele>
        <time>2025-04-30T09:11:43.000Z</time>
      </trkpt>
      <trkpt lat="44.31569" lon="4.76082">
        <ele>223.9</ele>
        <time>2025-04-30T09:11:45.000Z</time>
      </trkpt>
      <trkpt lat="44.31567" lon="4.76083">
        <ele>223.9</ele>
        <time>2025-04-30T09:11:47.000Z</time>
      </trkpt>
      <trkpt lat="44.31565" lon="4.76085">
        <ele>224</ele>
        <time>2025-04-30T09:11:53.000Z</time>
      </trkpt>
      <trkpt lat="44.31563" lon="4.76087">
        <ele>224</ele>
        <time>2025-04-30T09:11:55.000Z</time>
      </trkpt>
      <trkpt lat="44.31562" lon="4.76089">
        <ele>224</ele>
        <time>2025-04-30T09:11:57.000Z</time>
      </trkpt>
      <trkpt lat="44.3156" lon="4.76092">
        <ele>224</ele>
        <time>2025-04-30T09:11:59.000Z</time>
      </trkpt>
      <trkpt lat="44.3156" lon="4.76095">
        <ele>224.1</ele>
        <time>2025-04-30T09:12:01.000Z</time>
      </trkpt>
      <trkpt lat="44.31558" lon="4.76098">
        <ele>224</ele>
        <time>2025-04-30T09:12:04.000Z</time>
      </trkpt>
      <trkpt lat="44.31557" lon="4.761">
        <ele>224</ele>
        <time>2025-04-30T09:12:06.000Z</time>
      </trkpt>
      <trkpt lat="44.31555" lon="4.76101">
        <ele>224</ele>
        <time>2025-04-30T09:12:09.000Z</time>
      </trkpt>
      <trkpt lat="44.31554" lon="4.76104">
        <ele>223.9</ele>
        <time>2025-04-30T09:12:11.000Z</time>
      </trkpt>
      <trkpt lat="44.31553" lon="4.76106">
        <ele>223.8</ele>
        <time>2025-04-30T09:12:14.000Z</time>
      </trkpt>
      <trkpt lat="44.31551" lon="4.7611">
        <ele>223.7</ele>
        <time>2025-04-30T09:12:18.000Z</time>
      </trkpt>
      <trkpt lat="44.3155" lon="4.76112">
        <ele>223.5</ele>
        <time>2025-04-30T09:12:21.000Z</time>
      </trkpt>
      <trkpt lat="44.31547" lon="4.76113">
        <ele>223.3</ele>
        <time>2025-04-30T09:12:24.000Z</time>
      </trkpt>
      <trkpt lat="44.31546" lon="4.76114">
        <ele>223.1</ele>
        <time>2025-04-30T09:12:27.000Z</time>
      </trkpt>
      <trkpt lat="44.31544" lon="4.76115">
        <ele>222.9</ele>
        <time>2025-04-30T09:12:29.000Z</time>
      </trkpt>
      <trkpt lat="44.31542" lon="4.76117">
        <ele>222.7</ele>
        <time>2025-04-30T09:12:31.000Z</time>
      </trkpt>
      <trkpt lat="44.3154" lon="4.76118">
        <ele>222.5</ele>
        <time>2025-04-30T09:12:33.000Z</time>
      </trkpt>
      <trkpt lat="44.31538" lon="4.76119">
        <ele>222.3</ele>
        <time>2025-04-30T09:12:35.000Z</time>
      </trkpt>
      <trkpt lat="44.31536" lon="4.7612">
        <ele>222.1</ele>
        <time>2025-04-30T09:12:37.000Z</time>
      </trkpt>
      <trkpt lat="44.31534" lon="4.76121">
        <ele>221.8</ele>
        <time>2025-04-30T09:12:39.000Z</time>
      </trkpt>
      <trkpt lat="44.31531" lon="4.76122">
        <ele>221.5</ele>
        <time>2025-04-30T09:12:44.000Z</time>
      </trkpt>
      <trkpt lat="44.31529" lon="4.76124">
        <ele>221.2</ele>
        <time>2025-04-30T09:12:47.000Z</time>
      </trkpt>
      <trkpt lat="44.31527" lon="4.76124">
        <ele>221.1</ele>
        <time>2025-04-30T09:12:50.000Z</time>
      </trkpt>
      <trkpt lat="44.31525" lon="4.76125">
        <ele>220.9</ele>
        <time>2025-04-30T09:12:52.000Z</time>
      </trkpt>
      <trkpt lat="44.31523" lon="4.76125">
        <ele>220.8</ele>
        <time>2025-04-30T09:12:55.000Z</time>
      </trkpt>
      <trkpt lat="44.3152" lon="4.76126">
        <ele>220.6</ele>
        <time>2025-04-30T09:12:58.000Z</time>
      </trkpt>
      <trkpt lat="44.31517" lon="4.76126">
        <ele>220.5</ele>
        <time>2025-04-30T09:13:00.000Z</time>
      </trkpt>
      <trkpt lat="44.31515" lon="4.76127">
        <ele>220.3</ele>
        <time>2025-04-30T09:13:02.000Z</time>
      </trkpt>
      <trkpt lat="44.31513" lon="4.76128">
        <ele>220.1</ele>
        <time>2025-04-30T09:13:05.000Z</time>
      </trkpt>
      <trkpt lat="44.31509" lon="4.76129">
        <ele>219.8</ele>
        <time>2025-04-30T09:13:08.000Z</time>
      </trkpt>
      <trkpt lat="44.31507" lon="4.7613">
        <ele>219.6</ele>
        <time>2025-04-30T09:13:10.000Z</time>
      </trkpt>
      <trkpt lat="44.31505" lon="4.76131">
        <ele>219.4</ele>
        <time>2025-04-30T09:13:12.000Z</time>
      </trkpt>
      <trkpt lat="44.31503" lon="4.76131">
        <ele>219.3</ele>
        <time>2025-04-30T09:13:14.000Z</time>
      </trkpt>
      <trkpt lat="44.31501" lon="4.76132">
        <ele>219.1</ele>
        <time>2025-04-30T09:13:16.000Z</time>
      </trkpt>
      <trkpt lat="44.31499" lon="4.76132">
        <ele>219.2</ele>
        <time>2025-04-30T09:13:18.000Z</time>
      </trkpt>
      <trkpt lat="44.31496" lon="4.76133">
        <ele>219.4</ele>
        <time>2025-04-30T09:13:21.000Z</time>
      </trkpt>
      <trkpt lat="44.31494" lon="4.76133">
        <ele>219.7</ele>
        <time>2025-04-30T09:13:23.000Z</time>
      </trkpt>
      <trkpt lat="44.31491" lon="4.76134">
        <ele>219.8</ele>
        <time>2025-04-30T09:13:26.000Z</time>
      </trkpt>
      <trkpt lat="44.3149" lon="4.76136">
        <ele>219.9</ele>
        <time>2025-04-30T09:13:28.000Z</time>
      </trkpt>
      <trkpt lat="44.31487" lon="4.76137">
        <ele>220.1</ele>
        <time>2025-04-30T09:13:30.000Z</time>
      </trkpt>
      <trkpt lat="44.31485" lon="4.76138">
        <ele>220.2</ele>
        <time>2025-04-30T09:13:32.000Z</time>
      </trkpt>
      <trkpt lat="44.31484" lon="4.7614">
        <ele>220.1</ele>
        <time>2025-04-30T09:13:34.000Z</time>
      </trkpt>
      <trkpt lat="44.31482" lon="4.76142">
        <ele>219.9</ele>
        <time>2025-04-30T09:13:36.000Z</time>
      </trkpt>
      <trkpt lat="44.3148" lon="4.76144">
        <ele>219.8</ele>
        <time>2025-04-30T09:13:38.000Z</time>
      </trkpt>
      <trkpt lat="44.31479" lon="4.76145">
        <ele>219.8</ele>
        <time>2025-04-30T09:13:40.000Z</time>
      </trkpt>
      <trkpt lat="44.31477" lon="4.76148">
        <ele>219.7</ele>
        <time>2025-04-30T09:13:42.000Z</time>
      </trkpt>
      <trkpt lat="44.31475" lon="4.76151">
        <ele>219.4</ele>
        <time>2025-04-30T09:13:44.000Z</time>
      </trkpt>
      <trkpt lat="44.31474" lon="4.76154">
        <ele>219.1</ele>
        <time>2025-04-30T09:13:46.000Z</time>
      </trkpt>
      <trkpt lat="44.31472" lon="4.76156">
        <ele>219</ele>
        <time>2025-04-30T09:13:49.000Z</time>
      </trkpt>
      <trkpt lat="44.3147" lon="4.76158">
        <ele>218.8</ele>
        <time>2025-04-30T09:13:51.000Z</time>
      </trkpt>
      <trkpt lat="44.31468" lon="4.76161">
        <ele>218.3</ele>
        <time>2025-04-30T09:13:55.000Z</time>
      </trkpt>
      <trkpt lat="44.31467" lon="4.76164">
        <ele>217.8</ele>
        <time>2025-04-30T09:13:57.000Z</time>
      </trkpt>
      <trkpt lat="44.31466" lon="4.76167">
        <ele>217.5</ele>
        <time>2025-04-30T09:13:59.000Z</time>
      </trkpt>
      <trkpt lat="44.31463" lon="4.7617">
        <ele>216.9</ele>
        <time>2025-04-30T09:14:05.000Z</time>
      </trkpt>
      <trkpt lat="44.31462" lon="4.76173">
        <ele>216.4</ele>
        <time>2025-04-30T09:14:08.000Z</time>
      </trkpt>
      <trkpt lat="44.3146" lon="4.76174">
        <ele>216.1</ele>
        <time>2025-04-30T09:14:10.000Z</time>
      </trkpt>
      <trkpt lat="44.31459" lon="4.76176">
        <ele>215.9</ele>
        <time>2025-04-30T09:14:12.000Z</time>
      </trkpt>
      <trkpt lat="44.31457" lon="4.76178">
        <ele>215.8</ele>
        <time>2025-04-30T09:14:15.000Z</time>
      </trkpt>
      <trkpt lat="44.31455" lon="4.76179">
        <ele>215.9</ele>
        <time>2025-04-30T09:14:17.000Z</time>
      </trkpt>
      <trkpt lat="44.31453" lon="4.7618">
        <ele>216</ele>
        <time>2025-04-30T09:14:20.000Z</time>
      </trkpt>
      <trkpt lat="44.3145" lon="4.7618">
        <ele>216.3</ele>
        <time>2025-04-30T09:14:24.000Z</time>
      </trkpt>
      <trkpt lat="44.31448" lon="4.7618">
        <ele>216.5</ele>
        <time>2025-04-30T09:14:28.000Z</time>
      </trkpt>
      <trkpt lat="44.31446" lon="4.76179">
        <ele>217</ele>
        <time>2025-04-30T09:14:36.000Z</time>
      </trkpt>
      <trkpt lat="44.31444" lon="4.76178">
        <ele>217.3</ele>
        <time>2025-04-30T09:14:39.000Z</time>
      </trkpt>
      <trkpt lat="44.31442" lon="4.76178">
        <ele>217.1</ele>
        <time>2025-04-30T09:14:43.000Z</time>
      </trkpt>
      <trkpt lat="44.3144" lon="4.76176">
        <ele>217</ele>
        <time>2025-04-30T09:14:50.000Z</time>
      </trkpt>
      <trkpt lat="44.31438" lon="4.76175">
        <ele>216.9</ele>
        <time>2025-04-30T09:14:53.000Z</time>
      </trkpt>
      <trkpt lat="44.31437" lon="4.76173">
        <ele>217</ele>
        <time>2025-04-30T09:14:56.000Z</time>
      </trkpt>
      <trkpt lat="44.31435" lon="4.76173">
        <ele>216.7</ele>
        <time>2025-04-30T09:14:59.000Z</time>
      </trkpt>
      <trkpt lat="44.31433" lon="4.76173">
        <ele>216.5</ele>
        <time>2025-04-30T09:15:02.000Z</time>
      </trkpt>
      <trkpt lat="44.3143" lon="4.76173">
        <ele>216.2</ele>
        <time>2025-04-30T09:15:04.000Z</time>
      </trkpt>
      <trkpt lat="44.31429" lon="4.76172">
        <ele>216.1</ele>
        <time>2025-04-30T09:15:06.000Z</time>
      </trkpt>
      <trkpt lat="44.31426" lon="4.76171">
        <ele>215.8</ele>
        <time>2025-04-30T09:15:09.000Z</time>
      </trkpt>
      <trkpt lat="44.31425" lon="4.7617">
        <ele>215.8</ele>
        <time>2025-04-30T09:15:12.000Z</time>
      </trkpt>
      <trkpt lat="44.31423" lon="4.76168">
        <ele>215.8</ele>
        <time>2025-04-30T09:15:14.000Z</time>
      </trkpt>
      <trkpt lat="44.31421" lon="4.76167">
        <ele>215.6</ele>
        <time>2025-04-30T09:15:17.000Z</time>
      </trkpt>
      <trkpt lat="44.31419" lon="4.76165">
        <ele>215.6</ele>
        <time>2025-04-30T09:15:19.000Z</time>
      </trkpt>
      <trkpt lat="44.31417" lon="4.76164">
        <ele>215.5</ele>
        <time>2025-04-30T09:15:21.000Z</time>
      </trkpt>
      <trkpt lat="44.31415" lon="4.76163">
        <ele>215.2</ele>
        <time>2025-04-30T09:15:24.000Z</time>
      </trkpt>
      <trkpt lat="44.31413" lon="4.76163">
        <ele>214.7</ele>
        <time>2025-04-30T09:15:26.000Z</time>
      </trkpt>
      <trkpt lat="44.31411" lon="4.76161">
        <ele>214.5</ele>
        <time>2025-04-30T09:15:29.000Z</time>
      </trkpt>
      <trkpt lat="44.31409" lon="4.76159">
        <ele>214.5</ele>
        <time>2025-04-30T09:15:31.000Z</time>
      </trkpt>
      <trkpt lat="44.31407" lon="4.76156">
        <ele>214.4</ele>
        <time>2025-04-30T09:15:34.000Z</time>
      </trkpt>
      <trkpt lat="44.31405" lon="4.76155">
        <ele>214</ele>
        <time>2025-04-30T09:15:37.000Z</time>
      </trkpt>
      <trkpt lat="44.31403" lon="4.76152">
        <ele>213.9</ele>
        <time>2025-04-30T09:15:40.000Z</time>
      </trkpt>
      <trkpt lat="44.31402" lon="4.7615">
        <ele>213.9</ele>
        <time>2025-04-30T09:15:42.000Z</time>
      </trkpt>
      <trkpt lat="44.31401" lon="4.76147">
        <ele>214</ele>
        <time>2025-04-30T09:15:44.000Z</time>
      </trkpt>
      <trkpt lat="44.31399" lon="4.76146">
        <ele>213.8</ele>
        <time>2025-04-30T09:15:47.000Z</time>
      </trkpt>
      <trkpt lat="44.31397" lon="4.76144">
        <ele>213.5</ele>
        <time>2025-04-30T09:15:51.000Z</time>
      </trkpt>
      <trkpt lat="44.31396" lon="4.76142">
        <ele>213.4</ele>
        <time>2025-04-30T09:15:54.000Z</time>
      </trkpt>
      <trkpt lat="44.31394" lon="4.7614">
        <ele>213.2</ele>
        <time>2025-04-30T09:15:57.000Z</time>
      </trkpt>
      <trkpt lat="44.31391" lon="4.76138">
        <ele>212.7</ele>
        <time>2025-04-30T09:16:03.000Z</time>
      </trkpt>
      <trkpt lat="44.31389" lon="4.76137">
        <ele>212.4</ele>
        <time>2025-04-30T09:16:06.000Z</time>
      </trkpt>
      <trkpt lat="44.31387" lon="4.76136">
        <ele>212.3</ele>
        <time>2025-04-30T09:16:08.000Z</time>
      </trkpt>
      <trkpt lat="44.31385" lon="4.76135">
        <ele>212.2</ele>
        <time>2025-04-30T09:16:12.000Z</time>
      </trkpt>
      <trkpt lat="44.31383" lon="4.76134">
        <ele>212.2</ele>
        <time>2025-04-30T09:16:15.000Z</time>
      </trkpt>
      <trkpt lat="44.31381" lon="4.76132">
        <ele>212.2</ele>
        <time>2025-04-30T09:16:19.000Z</time>
      </trkpt>
      <trkpt lat="44.31379" lon="4.76131">
        <ele>212.2</ele>
        <time>2025-04-30T09:16:22.000Z</time>
      </trkpt>
      <trkpt lat="44.31376" lon="4.7613">
        <ele>212</ele>
        <time>2025-04-30T09:16:26.000Z</time>
      </trkpt>
      <trkpt lat="44.31375" lon="4.76128">
        <ele>212</ele>
        <time>2025-04-30T09:16:28.000Z</time>
      </trkpt>
      <trkpt lat="44.31372" lon="4.76127">
        <ele>211.8</ele>
        <time>2025-04-30T09:16:31.000Z</time>
      </trkpt>
      <trkpt lat="44.31369" lon="4.76127">
        <ele>211.4</ele>
        <time>2025-04-30T09:16:34.000Z</time>
      </trkpt>
      <trkpt lat="44.31367" lon="4.76127">
        <ele>211</ele>
        <time>2025-04-30T09:16:37.000Z</time>
      </trkpt>
      <trkpt lat="44.31364" lon="4.76128">
        <ele>210.6</ele>
        <time>2025-04-30T09:16:40.000Z</time>
      </trkpt>
      <trkpt lat="44.31362" lon="4.76128">
        <ele>210.3</ele>
        <time>2025-04-30T09:16:42.000Z</time>
      </trkpt>
      <trkpt lat="44.3136" lon="4.76129">
        <ele>210</ele>
        <time>2025-04-30T09:16:44.000Z</time>
      </trkpt>
      <trkpt lat="44.31358" lon="4.76127">
        <ele>209.9</ele>
        <time>2025-04-30T09:16:49.000Z</time>
      </trkpt>
      <trkpt lat="44.31356" lon="4.76128">
        <ele>209.6</ele>
        <time>2025-04-30T09:16:51.000Z</time>
      </trkpt>
      <trkpt lat="44.31354" lon="4.76128">
        <ele>209.4</ele>
        <time>2025-04-30T09:16:53.000Z</time>
      </trkpt>
      <trkpt lat="44.31352" lon="4.76128">
        <ele>209.1</ele>
        <time>2025-04-30T09:16:56.000Z</time>
      </trkpt>
      <trkpt lat="44.31349" lon="4.76128">
        <ele>208.8</ele>
        <time>2025-04-30T09:16:59.000Z</time>
      </trkpt>
      <trkpt lat="44.31347" lon="4.76128">
        <ele>208.6</ele>
        <time>2025-04-30T09:17:01.000Z</time>
      </trkpt>
      <trkpt lat="44.31345" lon="4.76128">
        <ele>208.3</ele>
        <time>2025-04-30T09:17:04.000Z</time>
      </trkpt>
      <trkpt lat="44.31342" lon="4.76127">
        <ele>208.1</ele>
        <time>2025-04-30T09:17:07.000Z</time>
      </trkpt>
      <trkpt lat="44.3134" lon="4.76127">
        <ele>207.8</ele>
        <time>2025-04-30T09:17:10.000Z</time>
      </trkpt>
      <trkpt lat="44.31338" lon="4.76126">
        <ele>207.6</ele>
        <time>2025-04-30T09:17:13.000Z</time>
      </trkpt>
      <trkpt lat="44.31336" lon="4.76125">
        <ele>207.3</ele>
        <time>2025-04-30T09:17:16.000Z</time>
      </trkpt>
      <trkpt lat="44.31334" lon="4.76124">
        <ele>207.1</ele>
        <time>2025-04-30T09:17:19.000Z</time>
      </trkpt>
      <trkpt lat="44.31332" lon="4.76123">
        <ele>206.9</ele>
        <time>2025-04-30T09:17:22.000Z</time>
      </trkpt>
      <trkpt lat="44.3133" lon="4.76122">
        <ele>206.8</ele>
        <time>2025-04-30T09:17:25.000Z</time>
      </trkpt>
      <trkpt lat="44.31329" lon="4.7612">
        <ele>206.7</ele>
        <time>2025-04-30T09:17:27.000Z</time>
      </trkpt>
      <trkpt lat="44.31326" lon="4.76119">
        <ele>206.5</ele>
        <time>2025-04-30T09:17:30.000Z</time>
      </trkpt>
      <trkpt lat="44.31324" lon="4.76117">
        <ele>206.3</ele>
        <time>2025-04-30T09:17:33.000Z</time>
      </trkpt>
      <trkpt lat="44.31323" lon="4.76115">
        <ele>206.2</ele>
        <time>2025-04-30T09:17:35.000Z</time>
      </trkpt>
      <trkpt lat="44.31321" lon="4.76113">
        <ele>206.1</ele>
        <time>2025-04-30T09:17:37.000Z</time>
      </trkpt>
      <trkpt lat="44.3132" lon="4.7611">
        <ele>206</ele>
        <time>2025-04-30T09:17:40.000Z</time>
      </trkpt>
      <trkpt lat="44.31319" lon="4.76108">
        <ele>205.9</ele>
        <time>2025-04-30T09:17:44.000Z</time>
      </trkpt>
      <trkpt lat="44.31318" lon="4.76105">
        <ele>205.7</ele>
        <time>2025-04-30T09:17:47.000Z</time>
      </trkpt>
      <trkpt lat="44.31316" lon="4.76103">
        <ele>205.6</ele>
        <time>2025-04-30T09:17:49.000Z</time>
      </trkpt>
      <trkpt lat="44.31315" lon="4.76102">
        <ele>205.4</ele>
        <time>2025-04-30T09:17:52.000Z</time>
      </trkpt>
      <trkpt lat="44.31314" lon="4.76099">
        <ele>205.3</ele>
        <time>2025-04-30T09:17:55.000Z</time>
      </trkpt>
      <trkpt lat="44.31312" lon="4.76098">
        <ele>205.1</ele>
        <time>2025-04-30T09:17:57.000Z</time>
      </trkpt>
      <trkpt lat="44.3131" lon="4.76097">
        <ele>204.9</ele>
        <time>2025-04-30T09:18:03.000Z</time>
      </trkpt>
      <trkpt lat="44.31308" lon="4.76095">
        <ele>204.7</ele>
        <time>2025-04-30T09:18:13.000Z</time>
      </trkpt>
      <trkpt lat="44.31307" lon="4.76094">
        <ele>204.5</ele>
        <time>2025-04-30T09:18:16.000Z</time>
      </trkpt>
      <trkpt lat="44.31306" lon="4.76091">
        <ele>204.3</ele>
        <time>2025-04-30T09:18:19.000Z</time>
      </trkpt>
      <trkpt lat="44.31307" lon="4.76089">
        <ele>204.4</ele>
        <time>2025-04-30T09:18:24.000Z</time>
      </trkpt>
      <trkpt lat="44.31306" lon="4.76086">
        <ele>204.2</ele>
        <time>2025-04-30T09:18:28.000Z</time>
      </trkpt>
      <trkpt lat="44.31305" lon="4.76083">
        <ele>204</ele>
        <time>2025-04-30T09:18:34.000Z</time>
      </trkpt>
      <trkpt lat="44.31306" lon="4.7608">
        <ele>203.8</ele>
        <time>2025-04-30T09:18:37.000Z</time>
      </trkpt>
      <trkpt lat="44.31306" lon="4.76077">
        <ele>203.6</ele>
        <time>2025-04-30T09:18:44.000Z</time>
      </trkpt>
      <trkpt lat="44.31307" lon="4.76075">
        <ele>203.6</ele>
        <time>2025-04-30T09:18:48.000Z</time>
      </trkpt>
      <trkpt lat="44.31309" lon="4.76072">
        <ele>203.7</ele>
        <time>2025-04-30T09:18:53.000Z</time>
      </trkpt>
      <trkpt lat="44.31308" lon="4.76069">
        <ele>203.3</ele>
        <time>2025-04-30T09:18:55.000Z</time>
      </trkpt>
      <trkpt lat="44.31309" lon="4.76066">
        <ele>203.3</ele>
        <time>2025-04-30T09:18:59.000Z</time>
      </trkpt>
      <trkpt lat="44.31309" lon="4.76063">
        <ele>203.2</ele>
        <time>2025-04-30T09:19:02.000Z</time>
      </trkpt>
      <trkpt lat="44.31309" lon="4.76059">
        <ele>203</ele>
        <time>2025-04-30T09:19:05.000Z</time>
      </trkpt>
      <trkpt lat="44.31309" lon="4.76056">
        <ele>202.8</ele>
        <time>2025-04-30T09:19:07.000Z</time>
      </trkpt>
      <trkpt lat="44.3131" lon="4.76053">
        <ele>202.7</ele>
        <time>2025-04-30T09:19:10.000Z</time>
      </trkpt>
      <trkpt lat="44.3131" lon="4.7605">
        <ele>202.6</ele>
        <time>2025-04-30T09:19:12.000Z</time>
      </trkpt>
      <trkpt lat="44.31309" lon="4.76046">
        <ele>202.1</ele>
        <time>2025-04-30T09:19:15.000Z</time>
      </trkpt>
      <trkpt lat="44.31307" lon="4.76044">
        <ele>201.6</ele>
        <time>2025-04-30T09:19:17.000Z</time>
      </trkpt>
      <trkpt lat="44.31307" lon="4.76041">
        <ele>201.3</ele>
        <time>2025-04-30T09:19:19.000Z</time>
      </trkpt>
      <trkpt lat="44.31305" lon="4.76038">
        <ele>200.7</ele>
        <time>2025-04-30T09:19:22.000Z</time>
      </trkpt>
      <trkpt lat="44.31303" lon="4.76038">
        <ele>200.4</ele>
        <time>2025-04-30T09:19:24.000Z</time>
      </trkpt>
      <trkpt lat="44.31303" lon="4.76035">
        <ele>200.1</ele>
        <time>2025-04-30T09:19:26.000Z</time>
      </trkpt>
      <trkpt lat="44.31302" lon="4.76033">
        <ele>199.7</ele>
        <time>2025-04-30T09:19:28.000Z</time>
      </trkpt>
      <trkpt lat="44.313" lon="4.7603">
        <ele>199.3</ele>
        <time>2025-04-30T09:19:31.000Z</time>
      </trkpt>
      <trkpt lat="44.31298" lon="4.76027">
        <ele>198.7</ele>
        <time>2025-04-30T09:19:39.000Z</time>
      </trkpt>
      <trkpt lat="44.31296" lon="4.76024">
        <ele>198.5</ele>
        <time>2025-04-30T09:19:42.000Z</time>
      </trkpt>
      <trkpt lat="44.31295" lon="4.76021">
        <ele>198.3</ele>
        <time>2025-04-30T09:19:46.000Z</time>
      </trkpt>
      <trkpt lat="44.31292" lon="4.76017">
        <ele>197.9</ele>
        <time>2025-04-30T09:19:52.000Z</time>
      </trkpt>
      <trkpt lat="44.31292" lon="4.76014">
        <ele>197.7</ele>
        <time>2025-04-30T09:19:54.000Z</time>
      </trkpt>
      <trkpt lat="44.31291" lon="4.76011">
        <ele>197.5</ele>
        <time>2025-04-30T09:19:58.000Z</time>
      </trkpt>
      <trkpt lat="44.31289" lon="4.76008">
        <ele>197.2</ele>
        <time>2025-04-30T09:20:01.000Z</time>
      </trkpt>
      <trkpt lat="44.31288" lon="4.76004">
        <ele>196.9</ele>
        <time>2025-04-30T09:20:05.000Z</time>
      </trkpt>
      <trkpt lat="44.31287" lon="4.76001">
        <ele>196.8</ele>
        <time>2025-04-30T09:20:07.000Z</time>
      </trkpt>
      <trkpt lat="44.31287" lon="4.75999">
        <ele>196.6</ele>
        <time>2025-04-30T09:20:09.000Z</time>
      </trkpt>
      <trkpt lat="44.31286" lon="4.75996">
        <ele>196.4</ele>
        <time>2025-04-30T09:20:11.000Z</time>
      </trkpt>
      <trkpt lat="44.31284" lon="4.75992">
        <ele>196.2</ele>
        <time>2025-04-30T09:20:13.000Z</time>
      </trkpt>
      <trkpt lat="44.31283" lon="4.7599">
        <ele>196</ele>
        <time>2025-04-30T09:20:15.000Z</time>
      </trkpt>
      <trkpt lat="44.31282" lon="4.75987">
        <ele>195.8</ele>
        <time>2025-04-30T09:20:17.000Z</time>
      </trkpt>
      <trkpt lat="44.31282" lon="4.75984">
        <ele>195.7</ele>
        <time>2025-04-30T09:20:19.000Z</time>
      </trkpt>
      <trkpt lat="44.3128" lon="4.75982">
        <ele>195.4</ele>
        <time>2025-04-30T09:20:22.000Z</time>
      </trkpt>
      <trkpt lat="44.31279" lon="4.75978">
        <ele>195.2</ele>
        <time>2025-04-30T09:20:25.000Z</time>
      </trkpt>
      <trkpt lat="44.31279" lon="4.75976">
        <ele>195.1</ele>
        <time>2025-04-30T09:20:27.000Z</time>
      </trkpt>
      <trkpt lat="44.31278" lon="4.75973">
        <ele>195.1</ele>
        <time>2025-04-30T09:20:29.000Z</time>
      </trkpt>
      <trkpt lat="44.31278" lon="4.75969">
        <ele>195.4</ele>
        <time>2025-04-30T09:20:32.000Z</time>
      </trkpt>
      <trkpt lat="44.31278" lon="4.75966">
        <ele>195.6</ele>
        <time>2025-04-30T09:20:35.000Z</time>
      </trkpt>
      <trkpt lat="44.31275" lon="4.75965">
        <ele>195.3</ele>
        <time>2025-04-30T09:20:38.000Z</time>
      </trkpt>
      <trkpt lat="44.31274" lon="4.75963">
        <ele>195.2</ele>
        <time>2025-04-30T09:20:40.000Z</time>
      </trkpt>
      <trkpt lat="44.31274" lon="4.7596">
        <ele>195.4</ele>
        <time>2025-04-30T09:20:44.000Z</time>
      </trkpt>
      <trkpt lat="44.31273" lon="4.75956">
        <ele>195.6</ele>
        <time>2025-04-30T09:20:48.000Z</time>
      </trkpt>
      <trkpt lat="44.31271" lon="4.75952">
        <ele>195.5</ele>
        <time>2025-04-30T09:20:55.000Z</time>
      </trkpt>
      <trkpt lat="44.3127" lon="4.7595">
        <ele>195.3</ele>
        <time>2025-04-30T09:20:58.000Z</time>
      </trkpt>
      <trkpt lat="44.31268" lon="4.75948">
        <ele>195.1</ele>
        <time>2025-04-30T09:21:01.000Z</time>
      </trkpt>
      <trkpt lat="44.31267" lon="4.75946">
        <ele>194.9</ele>
        <time>2025-04-30T09:21:03.000Z</time>
      </trkpt>
      <trkpt lat="44.31266" lon="4.75944">
        <ele>194.7</ele>
        <time>2025-04-30T09:21:05.000Z</time>
      </trkpt>
      <trkpt lat="44.31265" lon="4.75942">
        <ele>194.3</ele>
        <time>2025-04-30T09:21:08.000Z</time>
      </trkpt>
      <trkpt lat="44.31263" lon="4.7594">
        <ele>193.8</ele>
        <time>2025-04-30T09:21:11.000Z</time>
      </trkpt>
      <trkpt lat="44.31261" lon="4.75938">
        <ele>193.3</ele>
        <time>2025-04-30T09:21:13.000Z</time>
      </trkpt>
      <trkpt lat="44.3126" lon="4.75935">
        <ele>192.9</ele>
        <time>2025-04-30T09:21:16.000Z</time>
      </trkpt>
      <trkpt lat="44.31259" lon="4.75934">
        <ele>192.6</ele>
        <time>2025-04-30T09:21:18.000Z</time>
      </trkpt>
      <trkpt lat="44.31258" lon="4.75931">
        <ele>192.4</ele>
        <time>2025-04-30T09:21:21.000Z</time>
      </trkpt>
      <trkpt lat="44.31254" lon="4.75928">
        <ele>191.6</ele>
        <time>2025-04-30T09:21:26.000Z</time>
      </trkpt>
      <trkpt lat="44.31253" lon="4.75925">
        <ele>191.3</ele>
        <time>2025-04-30T09:21:29.000Z</time>
      </trkpt>
      <trkpt lat="44.31252" lon="4.75923">
        <ele>191.2</ele>
        <time>2025-04-30T09:21:31.000Z</time>
      </trkpt>
      <trkpt lat="44.3125" lon="4.75918">
        <ele>190.9</ele>
        <time>2025-04-30T09:21:39.000Z</time>
      </trkpt>
      <trkpt lat="44.31249" lon="4.75916">
        <ele>190.7</ele>
        <time>2025-04-30T09:21:43.000Z</time>
      </trkpt>
      <trkpt lat="44.31248" lon="4.75914">
        <ele>190.3</ele>
        <time>2025-04-30T09:21:46.000Z</time>
      </trkpt>
      <trkpt lat="44.31247" lon="4.75912">
        <ele>189.9</ele>
        <time>2025-04-30T09:21:49.000Z</time>
      </trkpt>
      <trkpt lat="44.31246" lon="4.75909">
        <ele>189.5</ele>
        <time>2025-04-30T09:21:55.000Z</time>
      </trkpt>
      <trkpt lat="44.31245" lon="4.75907">
        <ele>189.2</ele>
        <time>2025-04-30T09:21:57.000Z</time>
      </trkpt>
      <trkpt lat="44.31242" lon="4.75903">
        <ele>188.5</ele>
        <time>2025-04-30T09:22:03.000Z</time>
      </trkpt>
      <trkpt lat="44.31242" lon="4.75899">
        <ele>188.3</ele>
        <time>2025-04-30T09:22:07.000Z</time>
      </trkpt>
      <trkpt lat="44.31243" lon="4.75897">
        <ele>188.1</ele>
        <time>2025-04-30T09:22:13.000Z</time>
      </trkpt>
      <trkpt lat="44.31244" lon="4.75894">
        <ele>188</ele>
        <time>2025-04-30T09:22:24.000Z</time>
      </trkpt>
      <trkpt lat="44.31245" lon="4.75892">
        <ele>187.9</ele>
        <time>2025-04-30T09:23:59.000Z</time>
      </trkpt>
      <trkpt lat="44.31247" lon="4.7589">
        <ele>187.9</ele>
        <time>2025-04-30T09:24:01.000Z</time>
      </trkpt>
      <trkpt lat="44.31249" lon="4.75889">
        <ele>187.9</ele>
        <time>2025-04-30T09:24:04.000Z</time>
      </trkpt>
      <trkpt lat="44.31251" lon="4.75888">
        <ele>187.9</ele>
        <time>2025-04-30T09:24:07.000Z</time>
      </trkpt>
      <trkpt lat="44.31254" lon="4.75888">
        <ele>188.1</ele>
        <time>2025-04-30T09:24:10.000Z</time>
      </trkpt>
      <trkpt lat="44.31256" lon="4.75887">
        <ele>188.2</ele>
        <time>2025-04-30T09:24:13.000Z</time>
      </trkpt>
      <trkpt lat="44.31258" lon="4.75887">
        <ele>188.4</ele>
        <time>2025-04-30T09:24:15.000Z</time>
      </trkpt>
      <trkpt lat="44.3126" lon="4.75886">
        <ele>188.4</ele>
        <time>2025-04-30T09:24:18.000Z</time>
      </trkpt>
      <trkpt lat="44.31261" lon="4.75884">
        <ele>188.1</ele>
        <time>2025-04-30T09:24:20.000Z</time>
      </trkpt>
      <trkpt lat="44.31264" lon="4.75884">
        <ele>188.2</ele>
        <time>2025-04-30T09:24:23.000Z</time>
      </trkpt>
      <trkpt lat="44.31265" lon="4.75883">
        <ele>188</ele>
        <time>2025-04-30T09:24:25.000Z</time>
      </trkpt>
      <trkpt lat="44.31268" lon="4.75883">
        <ele>188.3</ele>
        <time>2025-04-30T09:24:29.000Z</time>
      </trkpt>
      <trkpt lat="44.3127" lon="4.75883">
        <ele>188.5</ele>
        <time>2025-04-30T09:24:32.000Z</time>
      </trkpt>
      <trkpt lat="44.31271" lon="4.75886">
        <ele>189.5</ele>
        <time>2025-04-30T09:24:34.000Z</time>
      </trkpt>
      <trkpt lat="44.31274" lon="4.75887">
        <ele>189.8</ele>
        <time>2025-04-30T09:24:37.000Z</time>
      </trkpt>
      <trkpt lat="44.31276" lon="4.75885">
        <ele>189.7</ele>
        <time>2025-04-30T09:24:38.000Z</time>
      </trkpt>
      <trkpt lat="44.31277" lon="4.75886">
        <ele>190</ele>
        <time>2025-04-30T09:24:39.000Z</time>
      </trkpt>
      <trkpt lat="44.31279" lon="4.75884">
        <ele>189.3</ele>
        <time>2025-04-30T09:24:43.000Z</time>
      </trkpt>
      <trkpt lat="44.31281" lon="4.75884">
        <ele>189.2</ele>
        <time>2025-04-30T09:24:45.000Z</time>
      </trkpt>
      <trkpt lat="44.31284" lon="4.75884">
        <ele>189</ele>
        <time>2025-04-30T09:24:48.000Z</time>
      </trkpt>
      <trkpt lat="44.31286" lon="4.75884">
        <ele>188.9</ele>
        <time>2025-04-30T09:24:50.000Z</time>
      </trkpt>
      <trkpt lat="44.31289" lon="4.75885">
        <ele>188.8</ele>
        <time>2025-04-30T09:24:52.000Z</time>
      </trkpt>
      <trkpt lat="44.31292" lon="4.75884">
        <ele>188.4</ele>
        <time>2025-04-30T09:24:54.000Z</time>
      </trkpt>
      <trkpt lat="44.31294" lon="4.75884">
        <ele>188.1</ele>
        <time>2025-04-30T09:24:56.000Z</time>
      </trkpt>
      <trkpt lat="44.31296" lon="4.75884">
        <ele>188</ele>
        <time>2025-04-30T09:24:59.000Z</time>
      </trkpt>
      <trkpt lat="44.31299" lon="4.75884">
        <ele>187.9</ele>
        <time>2025-04-30T09:25:02.000Z</time>
      </trkpt>
      <trkpt lat="44.31301" lon="4.75885">
        <ele>188.1</ele>
        <time>2025-04-30T09:25:05.000Z</time>
      </trkpt>
      <trkpt lat="44.31303" lon="4.75886">
        <ele>188.3</ele>
        <time>2025-04-30T09:25:07.000Z</time>
      </trkpt>
      <trkpt lat="44.31306" lon="4.75888">
        <ele>188.5</ele>
        <time>2025-04-30T09:25:09.000Z</time>
      </trkpt>
      <trkpt lat="44.31308" lon="4.7589">
        <ele>188.7</ele>
        <time>2025-04-30T09:25:12.000Z</time>
      </trkpt>
      <trkpt lat="44.3131" lon="4.75892">
        <ele>189</ele>
        <time>2025-04-30T09:25:14.000Z</time>
      </trkpt>
      <trkpt lat="44.31313" lon="4.75892">
        <ele>188.5</ele>
        <time>2025-04-30T09:25:17.000Z</time>
      </trkpt>
      <trkpt lat="44.31315" lon="4.75893">
        <ele>188.3</ele>
        <time>2025-04-30T09:25:20.000Z</time>
      </trkpt>
      <trkpt lat="44.31318" lon="4.75894">
        <ele>188.1</ele>
        <time>2025-04-30T09:25:23.000Z</time>
      </trkpt>
      <trkpt lat="44.3132" lon="4.75896">
        <ele>188.3</ele>
        <time>2025-04-30T09:25:26.000Z</time>
      </trkpt>
      <trkpt lat="44.31322" lon="4.75897">
        <ele>188.1</ele>
        <time>2025-04-30T09:25:28.000Z</time>
      </trkpt>
      <trkpt lat="44.31324" lon="4.75898">
        <ele>188</ele>
        <time>2025-04-30T09:25:31.000Z</time>
      </trkpt>
      <trkpt lat="44.31325" lon="4.759">
        <ele>188.4</ele>
        <time>2025-04-30T09:25:33.000Z</time>
      </trkpt>
      <trkpt lat="44.31327" lon="4.75901">
        <ele>188.4</ele>
        <time>2025-04-30T09:25:35.000Z</time>
      </trkpt>
      <trkpt lat="44.31328" lon="4.75902">
        <ele>188.3</ele>
        <time>2025-04-30T09:25:37.000Z</time>
      </trkpt>
      <trkpt lat="44.3133" lon="4.75905">
        <ele>188.7</ele>
        <time>2025-04-30T09:25:40.000Z</time>
      </trkpt>
      <trkpt lat="44.31332" lon="4.75906">
        <ele>188.6</ele>
        <time>2025-04-30T09:25:43.000Z</time>
      </trkpt>
      <trkpt lat="44.31333" lon="4.75908">
        <ele>188.9</ele>
        <time>2025-04-30T09:25:45.000Z</time>
      </trkpt>
      <trkpt lat="44.31335" lon="4.7591">
        <ele>188.9</ele>
        <time>2025-04-30T09:25:47.000Z</time>
      </trkpt>
      <trkpt lat="44.31337" lon="4.75911">
        <ele>188.7</ele>
        <time>2025-04-30T09:25:50.000Z</time>
      </trkpt>
      <trkpt lat="44.31339" lon="4.75912">
        <ele>188.7</ele>
        <time>2025-04-30T09:25:53.000Z</time>
      </trkpt>
      <trkpt lat="44.31341" lon="4.75915">
        <ele>188.8</ele>
        <time>2025-04-30T09:25:56.000Z</time>
      </trkpt>
      <trkpt lat="44.31343" lon="4.75917">
        <ele>188.9</ele>
        <time>2025-04-30T09:25:58.000Z</time>
      </trkpt>
      <trkpt lat="44.31345" lon="4.75919">
        <ele>189.1</ele>
        <time>2025-04-30T09:26:01.000Z</time>
      </trkpt>
      <trkpt lat="44.31346" lon="4.75922">
        <ele>189.4</ele>
        <time>2025-04-30T09:26:03.000Z</time>
      </trkpt>
      <trkpt lat="44.31348" lon="4.75924">
        <ele>189.3</ele>
        <time>2025-04-30T09:26:05.000Z</time>
      </trkpt>
      <trkpt lat="44.3135" lon="4.75926">
        <ele>189.3</ele>
        <time>2025-04-30T09:26:07.000Z</time>
      </trkpt>
      <trkpt lat="44.31352" lon="4.75928">
        <ele>189.3</ele>
        <time>2025-04-30T09:26:09.000Z</time>
      </trkpt>
      <trkpt lat="44.31355" lon="4.75929">
        <ele>189</ele>
        <time>2025-04-30T09:26:11.000Z</time>
      </trkpt>
      <trkpt lat="44.31357" lon="4.7593">
        <ele>188.7</ele>
        <time>2025-04-30T09:26:13.000Z</time>
      </trkpt>
      <trkpt lat="44.31359" lon="4.75931">
        <ele>188.5</ele>
        <time>2025-04-30T09:26:15.000Z</time>
      </trkpt>
      <trkpt lat="44.31363" lon="4.75932">
        <ele>188.2</ele>
        <time>2025-04-30T09:26:20.000Z</time>
      </trkpt>
      <trkpt lat="44.31366" lon="4.75932">
        <ele>188.2</ele>
        <time>2025-04-30T09:26:22.000Z</time>
      </trkpt>
      <trkpt lat="44.31369" lon="4.75933">
        <ele>188.3</ele>
        <time>2025-04-30T09:26:26.000Z</time>
      </trkpt>
      <trkpt lat="44.31372" lon="4.75933">
        <ele>188.2</ele>
        <time>2025-04-30T09:26:29.000Z</time>
      </trkpt>
      <trkpt lat="44.31374" lon="4.75934">
        <ele>188.2</ele>
        <time>2025-04-30T09:26:31.000Z</time>
      </trkpt>
      <trkpt lat="44.31376" lon="4.75934">
        <ele>188.3</ele>
        <time>2025-04-30T09:26:33.000Z</time>
      </trkpt>
      <trkpt lat="44.31378" lon="4.75935">
        <ele>188.3</ele>
        <time>2025-04-30T09:26:35.000Z</time>
      </trkpt>
      <trkpt lat="44.3138" lon="4.75935">
        <ele>188.2</ele>
        <time>2025-04-30T09:26:37.000Z</time>
      </trkpt>
      <trkpt lat="44.31383" lon="4.75934">
        <ele>187.9</ele>
        <time>2025-04-30T09:26:39.000Z</time>
      </trkpt>
      <trkpt lat="44.31386" lon="4.75932">
        <ele>187.5</ele>
        <time>2025-04-30T09:26:41.000Z</time>
      </trkpt>
      <trkpt lat="44.31388" lon="4.75932">
        <ele>187.2</ele>
        <time>2025-04-30T09:26:44.000Z</time>
      </trkpt>
      <trkpt lat="44.31391" lon="4.7593">
        <ele>187.3</ele>
        <time>2025-04-30T09:26:47.000Z</time>
      </trkpt>
      <trkpt lat="44.31393" lon="4.7593">
        <ele>187.5</ele>
        <time>2025-04-30T09:26:49.000Z</time>
      </trkpt>
      <trkpt lat="44.31395" lon="4.75928">
        <ele>187.4</ele>
        <time>2025-04-30T09:26:51.000Z</time>
      </trkpt>
      <trkpt lat="44.31397" lon="4.75928">
        <ele>187.6</ele>
        <time>2025-04-30T09:26:53.000Z</time>
      </trkpt>
      <trkpt lat="44.31399" lon="4.75928">
        <ele>187.9</ele>
        <time>2025-04-30T09:26:56.000Z</time>
      </trkpt>
      <trkpt lat="44.31401" lon="4.75928">
        <ele>188.2</ele>
        <time>2025-04-30T09:26:59.000Z</time>
      </trkpt>
      <trkpt lat="44.31403" lon="4.75927">
        <ele>188.4</ele>
        <time>2025-04-30T09:27:02.000Z</time>
      </trkpt>
      <trkpt lat="44.31406" lon="4.75926">
        <ele>188.6</ele>
        <time>2025-04-30T09:27:05.000Z</time>
      </trkpt>
      <trkpt lat="44.31408" lon="4.75926">
        <ele>188.8</ele>
        <time>2025-04-30T09:27:07.000Z</time>
      </trkpt>
      <trkpt lat="44.3141" lon="4.75925">
        <ele>189</ele>
        <time>2025-04-30T09:27:10.000Z</time>
      </trkpt>
      <trkpt lat="44.31412" lon="4.75924">
        <ele>189</ele>
        <time>2025-04-30T09:27:12.000Z</time>
      </trkpt>
      <trkpt lat="44.31414" lon="4.75922">
        <ele>189</ele>
        <time>2025-04-30T09:27:14.000Z</time>
      </trkpt>
      <trkpt lat="44.31416" lon="4.75921">
        <ele>188.8</ele>
        <time>2025-04-30T09:27:17.000Z</time>
      </trkpt>
      <trkpt lat="44.31418" lon="4.7592">
        <ele>188.8</ele>
        <time>2025-04-30T09:27:19.000Z</time>
      </trkpt>
      <trkpt lat="44.3142" lon="4.7592">
        <ele>188.9</ele>
        <time>2025-04-30T09:27:21.000Z</time>
      </trkpt>
      <trkpt lat="44.31423" lon="4.75919">
        <ele>188.9</ele>
        <time>2025-04-30T09:27:23.000Z</time>
      </trkpt>
      <trkpt lat="44.31424" lon="4.75919">
        <ele>188.9</ele>
        <time>2025-04-30T09:27:25.000Z</time>
      </trkpt>
      <trkpt lat="44.31426" lon="4.75919">
        <ele>188.9</ele>
        <time>2025-04-30T09:27:27.000Z</time>
      </trkpt>
      <trkpt lat="44.31429" lon="4.75919">
        <ele>188.9</ele>
        <time>2025-04-30T09:27:29.000Z</time>
      </trkpt>
      <trkpt lat="44.31431" lon="4.75917">
        <ele>188.6</ele>
        <time>2025-04-30T09:27:31.000Z</time>
      </trkpt>
      <trkpt lat="44.31433" lon="4.75917">
        <ele>188.7</ele>
        <time>2025-04-30T09:27:34.000Z</time>
      </trkpt>
      <trkpt lat="44.31435" lon="4.75917">
        <ele>188.7</ele>
        <time>2025-04-30T09:27:36.000Z</time>
      </trkpt>
      <trkpt lat="44.31437" lon="4.75917">
        <ele>188.8</ele>
        <time>2025-04-30T09:27:38.000Z</time>
      </trkpt>
      <trkpt lat="44.3144" lon="4.75916">
        <ele>188.7</ele>
        <time>2025-04-30T09:27:43.000Z</time>
      </trkpt>
      <trkpt lat="44.31442" lon="4.75916">
        <ele>188.8</ele>
        <time>2025-04-30T09:27:46.000Z</time>
      </trkpt>
      <trkpt lat="44.31443" lon="4.75917">
        <ele>189.1</ele>
        <time>2025-04-30T09:27:48.000Z</time>
      </trkpt>
      <trkpt lat="44.31446" lon="4.75917">
        <ele>188.8</ele>
        <time>2025-04-30T09:27:51.000Z</time>
      </trkpt>
      <trkpt lat="44.31448" lon="4.75917">
        <ele>188.7</ele>
        <time>2025-04-30T09:27:53.000Z</time>
      </trkpt>
      <trkpt lat="44.3145" lon="4.75917">
        <ele>188.6</ele>
        <time>2025-04-30T09:27:55.000Z</time>
      </trkpt>
      <trkpt lat="44.31452" lon="4.75919">
        <ele>189</ele>
        <time>2025-04-30T09:27:57.000Z</time>
      </trkpt>
      <trkpt lat="44.31454" lon="4.7592">
        <ele>188.9</ele>
        <time>2025-04-30T09:27:59.000Z</time>
      </trkpt>
      <trkpt lat="44.31456" lon="4.75918">
        <ele>188.3</ele>
        <time>2025-04-30T09:28:03.000Z</time>
      </trkpt>
      <trkpt lat="44.31459" lon="4.75919">
        <ele>188.3</ele>
        <time>2025-04-30T09:28:09.000Z</time>
      </trkpt>
      <trkpt lat="44.3146" lon="4.75922">
        <ele>188.9</ele>
        <time>2025-04-30T09:28:12.000Z</time>
      </trkpt>
      <trkpt lat="44.31462" lon="4.75922">
        <ele>188.8</ele>
        <time>2025-04-30T09:28:14.000Z</time>
      </trkpt>
      <trkpt lat="44.31464" lon="4.75922">
        <ele>188.6</ele>
        <time>2025-04-30T09:28:15.000Z</time>
      </trkpt>
      <trkpt lat="44.31467" lon="4.75922">
        <ele>188.4</ele>
        <time>2025-04-30T09:28:17.000Z</time>
      </trkpt>
      <trkpt lat="44.31469" lon="4.75922">
        <ele>188.4</ele>
        <time>2025-04-30T09:28:19.000Z</time>
      </trkpt>
      <trkpt lat="44.31471" lon="4.75922">
        <ele>188.1</ele>
        <time>2025-04-30T09:28:21.000Z</time>
      </trkpt>
      <trkpt lat="44.31473" lon="4.75923">
        <ele>188.2</ele>
        <time>2025-04-30T09:28:24.000Z</time>
      </trkpt>
      <trkpt lat="44.31475" lon="4.75923">
        <ele>188</ele>
        <time>2025-04-30T09:28:26.000Z</time>
      </trkpt>
      <trkpt lat="44.31477" lon="4.75923">
        <ele>187.9</ele>
        <time>2025-04-30T09:28:28.000Z</time>
      </trkpt>
      <trkpt lat="44.3148" lon="4.75923">
        <ele>187.6</ele>
        <time>2025-04-30T09:28:30.000Z</time>
      </trkpt>
      <trkpt lat="44.31482" lon="4.75924">
        <ele>187.4</ele>
        <time>2025-04-30T09:28:33.000Z</time>
      </trkpt>
      <trkpt lat="44.31484" lon="4.75924">
        <ele>187.5</ele>
        <time>2025-04-30T09:28:35.000Z</time>
      </trkpt>
      <trkpt lat="44.31486" lon="4.75925">
        <ele>187.6</ele>
        <time>2025-04-30T09:28:37.000Z</time>
      </trkpt>
      <trkpt lat="44.31489" lon="4.75927">
        <ele>187.9</ele>
        <time>2025-04-30T09:28:39.000Z</time>
      </trkpt>
      <trkpt lat="44.31492" lon="4.75928">
        <ele>188</ele>
        <time>2025-04-30T09:28:41.000Z</time>
      </trkpt>
      <trkpt lat="44.31494" lon="4.75929">
        <ele>188.1</ele>
        <time>2025-04-30T09:28:44.000Z</time>
      </trkpt>
      <trkpt lat="44.31496" lon="4.75931">
        <ele>188.6</ele>
        <time>2025-04-30T09:28:46.000Z</time>
      </trkpt>
      <trkpt lat="44.31497" lon="4.75932">
        <ele>188.6</ele>
        <time>2025-04-30T09:28:48.000Z</time>
      </trkpt>
      <trkpt lat="44.31499" lon="4.75932">
        <ele>188.7</ele>
        <time>2025-04-30T09:28:50.000Z</time>
      </trkpt>
      <trkpt lat="44.31501" lon="4.75934">
        <ele>189</ele>
        <time>2025-04-30T09:28:52.000Z</time>
      </trkpt>
      <trkpt lat="44.31503" lon="4.75935">
        <ele>189.1</ele>
        <time>2025-04-30T09:28:54.000Z</time>
      </trkpt>
      <trkpt lat="44.31505" lon="4.75936">
        <ele>189.3</ele>
        <time>2025-04-30T09:28:56.000Z</time>
      </trkpt>
      <trkpt lat="44.31507" lon="4.75937">
        <ele>189.3</ele>
        <time>2025-04-30T09:28:58.000Z</time>
      </trkpt>
      <trkpt lat="44.31509" lon="4.75938">
        <ele>189.2</ele>
        <time>2025-04-30T09:29:00.000Z</time>
      </trkpt>
      <trkpt lat="44.31511" lon="4.75938">
        <ele>188.8</ele>
        <time>2025-04-30T09:29:02.000Z</time>
      </trkpt>
      <trkpt lat="44.31514" lon="4.75938">
        <ele>188.5</ele>
        <time>2025-04-30T09:29:04.000Z</time>
      </trkpt>
      <trkpt lat="44.31516" lon="4.75938">
        <ele>188.1</ele>
        <time>2025-04-30T09:29:06.000Z</time>
      </trkpt>
      <trkpt lat="44.31519" lon="4.75939">
        <ele>188</ele>
        <time>2025-04-30T09:29:08.000Z</time>
      </trkpt>
      <trkpt lat="44.31521" lon="4.7594">
        <ele>187.8</ele>
        <time>2025-04-30T09:29:10.000Z</time>
      </trkpt>
      <trkpt lat="44.31523" lon="4.75941">
        <ele>187.8</ele>
        <time>2025-04-30T09:29:12.000Z</time>
      </trkpt>
      <trkpt lat="44.31526" lon="4.75942">
        <ele>187.6</ele>
        <time>2025-04-30T09:29:17.000Z</time>
      </trkpt>
      <trkpt lat="44.31528" lon="4.75943">
        <ele>187.4</ele>
        <time>2025-04-30T09:29:19.000Z</time>
      </trkpt>
      <trkpt lat="44.31531" lon="4.75944">
        <ele>187.4</ele>
        <time>2025-04-30T09:29:21.000Z</time>
      </trkpt>
      <trkpt lat="44.31533" lon="4.75945">
        <ele>187.4</ele>
        <time>2025-04-30T09:29:24.000Z</time>
      </trkpt>
      <trkpt lat="44.31536" lon="4.75946">
        <ele>187.4</ele>
        <time>2025-04-30T09:29:28.000Z</time>
      </trkpt>
      <trkpt lat="44.31538" lon="4.75947">
        <ele>187.4</ele>
        <time>2025-04-30T09:29:30.000Z</time>
      </trkpt>
      <trkpt lat="44.31541" lon="4.75948">
        <ele>187.5</ele>
        <time>2025-04-30T09:29:32.000Z</time>
      </trkpt>
      <trkpt lat="44.31542" lon="4.75949">
        <ele>187.6</ele>
        <time>2025-04-30T09:29:34.000Z</time>
      </trkpt>
      <trkpt lat="44.31544" lon="4.75952">
        <ele>188</ele>
        <time>2025-04-30T09:29:37.000Z</time>
      </trkpt>
      <trkpt lat="44.31546" lon="4.75952">
        <ele>187.8</ele>
        <time>2025-04-30T09:29:39.000Z</time>
      </trkpt>
      <trkpt lat="44.31548" lon="4.75953">
        <ele>187.7</ele>
        <time>2025-04-30T09:29:41.000Z</time>
      </trkpt>
      <trkpt lat="44.3155" lon="4.75954">
        <ele>187.7</ele>
        <time>2025-04-30T09:29:43.000Z</time>
      </trkpt>
      <trkpt lat="44.31552" lon="4.75955">
        <ele>187.6</ele>
        <time>2025-04-30T09:29:45.000Z</time>
      </trkpt>
      <trkpt lat="44.31555" lon="4.75955">
        <ele>187.2</ele>
        <time>2025-04-30T09:29:50.000Z</time>
      </trkpt>
      <trkpt lat="44.31557" lon="4.75955">
        <ele>187</ele>
        <time>2025-04-30T09:29:52.000Z</time>
      </trkpt>
      <trkpt lat="44.31559" lon="4.75956">
        <ele>187.1</ele>
        <time>2025-04-30T09:29:54.000Z</time>
      </trkpt>
      <trkpt lat="44.31561" lon="4.75958">
        <ele>187.4</ele>
        <time>2025-04-30T09:29:56.000Z</time>
      </trkpt>
      <trkpt lat="44.31563" lon="4.75959">
        <ele>187.6</ele>
        <time>2025-04-30T09:29:58.000Z</time>
      </trkpt>
      <trkpt lat="44.31565" lon="4.7596">
        <ele>187.9</ele>
        <time>2025-04-30T09:30:00.000Z</time>
      </trkpt>
      <trkpt lat="44.31566" lon="4.75962">
        <ele>188.2</ele>
        <time>2025-04-30T09:30:02.000Z</time>
      </trkpt>
      <trkpt lat="44.31569" lon="4.75963">
        <ele>188.3</ele>
        <time>2025-04-30T09:30:04.000Z</time>
      </trkpt>
      <trkpt lat="44.31571" lon="4.75965">
        <ele>188.4</ele>
        <time>2025-04-30T09:30:06.000Z</time>
      </trkpt>
      <trkpt lat="44.31574" lon="4.75965">
        <ele>188.3</ele>
        <time>2025-04-30T09:30:08.000Z</time>
      </trkpt>
      <trkpt lat="44.31577" lon="4.75966">
        <ele>188.2</ele>
        <time>2025-04-30T09:30:10.000Z</time>
      </trkpt>
      <trkpt lat="44.31579" lon="4.75966">
        <ele>188</ele>
        <time>2025-04-30T09:30:12.000Z</time>
      </trkpt>
      <trkpt lat="44.31582" lon="4.75966">
        <ele>187.7</ele>
        <time>2025-04-30T09:30:14.000Z</time>
      </trkpt>
      <trkpt lat="44.31584" lon="4.75965">
        <ele>187.5</ele>
        <time>2025-04-30T09:30:16.000Z</time>
      </trkpt>
      <trkpt lat="44.31588" lon="4.75966">
        <ele>187.5</ele>
        <time>2025-04-30T09:30:19.000Z</time>
      </trkpt>
      <trkpt lat="44.3159" lon="4.75966">
        <ele>187.4</ele>
        <time>2025-04-30T09:30:21.000Z</time>
      </trkpt>
      <trkpt lat="44.31592" lon="4.75966">
        <ele>187.3</ele>
        <time>2025-04-30T09:30:23.000Z</time>
      </trkpt>
      <trkpt lat="44.31594" lon="4.75966">
        <ele>187.1</ele>
        <time>2025-04-30T09:30:25.000Z</time>
      </trkpt>
      <trkpt lat="44.31597" lon="4.75966">
        <ele>187</ele>
        <time>2025-04-30T09:30:27.000Z</time>
      </trkpt>
      <trkpt lat="44.31599" lon="4.75966">
        <ele>187.1</ele>
        <time>2025-04-30T09:30:29.000Z</time>
      </trkpt>
      <trkpt lat="44.31601" lon="4.75967">
        <ele>187.1</ele>
        <time>2025-04-30T09:30:31.000Z</time>
      </trkpt>
      <trkpt lat="44.31603" lon="4.75968">
        <ele>187.2</ele>
        <time>2025-04-30T09:30:33.000Z</time>
      </trkpt>
      <trkpt lat="44.31605" lon="4.75969">
        <ele>187.4</ele>
        <time>2025-04-30T09:30:35.000Z</time>
      </trkpt>
      <trkpt lat="44.31607" lon="4.7597">
        <ele>187.7</ele>
        <time>2025-04-30T09:30:37.000Z</time>
      </trkpt>
      <trkpt lat="44.31609" lon="4.75972">
        <ele>188</ele>
        <time>2025-04-30T09:30:39.000Z</time>
      </trkpt>
      <trkpt lat="44.3161" lon="4.75973">
        <ele>188.4</ele>
        <time>2025-04-30T09:30:41.000Z</time>
      </trkpt>
      <trkpt lat="44.31612" lon="4.75975">
        <ele>188.8</ele>
        <time>2025-04-30T09:30:43.000Z</time>
      </trkpt>
      <trkpt lat="44.31614" lon="4.75977">
        <ele>189.4</ele>
        <time>2025-04-30T09:30:45.000Z</time>
      </trkpt>
      <trkpt lat="44.31616" lon="4.75978">
        <ele>189.8</ele>
        <time>2025-04-30T09:30:48.000Z</time>
      </trkpt>
      <trkpt lat="44.31619" lon="4.75978">
        <ele>189.9</ele>
        <time>2025-04-30T09:30:51.000Z</time>
      </trkpt>
      <trkpt lat="44.31621" lon="4.75978">
        <ele>190</ele>
        <time>2025-04-30T09:30:53.000Z</time>
      </trkpt>
      <trkpt lat="44.31623" lon="4.75978">
        <ele>190.2</ele>
        <time>2025-04-30T09:30:55.000Z</time>
      </trkpt>
      <trkpt lat="44.31626" lon="4.75978">
        <ele>190.4</ele>
        <time>2025-04-30T09:30:57.000Z</time>
      </trkpt>
      <trkpt lat="44.31628" lon="4.75978">
        <ele>190.5</ele>
        <time>2025-04-30T09:30:59.000Z</time>
      </trkpt>
      <trkpt lat="44.31631" lon="4.75979">
        <ele>190.7</ele>
        <time>2025-04-30T09:31:01.000Z</time>
      </trkpt>
      <trkpt lat="44.31633" lon="4.75979">
        <ele>190.8</ele>
        <time>2025-04-30T09:31:03.000Z</time>
      </trkpt>
      <trkpt lat="44.31634" lon="4.75979">
        <ele>191.1</ele>
        <time>2025-04-30T09:31:05.000Z</time>
      </trkpt>
      <trkpt lat="44.31636" lon="4.7598">
        <ele>191.4</ele>
        <time>2025-04-30T09:31:07.000Z</time>
      </trkpt>
      <trkpt lat="44.31639" lon="4.75979">
        <ele>191.3</ele>
        <time>2025-04-30T09:31:09.000Z</time>
      </trkpt>
      <trkpt lat="44.31641" lon="4.75979">
        <ele>191.5</ele>
        <time>2025-04-30T09:31:11.000Z</time>
      </trkpt>
      <trkpt lat="44.31643" lon="4.75979">
        <ele>191.6</ele>
        <time>2025-04-30T09:31:13.000Z</time>
      </trkpt>
      <trkpt lat="44.31645" lon="4.75979">
        <ele>191.7</ele>
        <time>2025-04-30T09:31:15.000Z</time>
      </trkpt>
      <trkpt lat="44.31647" lon="4.75979">
        <ele>192.1</ele>
        <time>2025-04-30T09:31:17.000Z</time>
      </trkpt>
      <trkpt lat="44.3165" lon="4.75979">
        <ele>192</ele>
        <time>2025-04-30T09:31:19.000Z</time>
      </trkpt>
      <trkpt lat="44.31652" lon="4.75979">
        <ele>192.4</ele>
        <time>2025-04-30T09:31:21.000Z</time>
      </trkpt>
      <trkpt lat="44.31654" lon="4.75978">
        <ele>192.3</ele>
        <time>2025-04-30T09:31:23.000Z</time>
      </trkpt>
      <trkpt lat="44.31656" lon="4.75978">
        <ele>192.4</ele>
        <time>2025-04-30T09:31:25.000Z</time>
      </trkpt>
      <trkpt lat="44.31658" lon="4.75978">
        <ele>192.5</ele>
        <time>2025-04-30T09:31:27.000Z</time>
      </trkpt>
      <trkpt lat="44.3166" lon="4.75978">
        <ele>192.7</ele>
        <time>2025-04-30T09:31:30.000Z</time>
      </trkpt>
      <trkpt lat="44.31663" lon="4.75978">
        <ele>192.8</ele>
        <time>2025-04-30T09:31:32.000Z</time>
      </trkpt>
      <trkpt lat="44.31665" lon="4.75978">
        <ele>193</ele>
        <time>2025-04-30T09:31:34.000Z</time>
      </trkpt>
      <trkpt lat="44.31668" lon="4.75977">
        <ele>193</ele>
        <time>2025-04-30T09:31:36.000Z</time>
      </trkpt>
      <trkpt lat="44.3167" lon="4.75977">
        <ele>193.4</ele>
        <time>2025-04-30T09:31:38.000Z</time>
      </trkpt>
      <trkpt lat="44.31672" lon="4.75977">
        <ele>193.8</ele>
        <time>2025-04-30T09:31:40.000Z</time>
      </trkpt>
      <trkpt lat="44.31675" lon="4.75978">
        <ele>194.5</ele>
        <time>2025-04-30T09:31:42.000Z</time>
      </trkpt>
      <trkpt lat="44.31677" lon="4.75976">
        <ele>194.3</ele>
        <time>2025-04-30T09:31:45.000Z</time>
      </trkpt>
      <trkpt lat="44.31679" lon="4.75975">
        <ele>194.2</ele>
        <time>2025-04-30T09:31:47.000Z</time>
      </trkpt>
      <trkpt lat="44.31681" lon="4.75974">
        <ele>194.2</ele>
        <time>2025-04-30T09:31:49.000Z</time>
      </trkpt>
      <trkpt lat="44.31683" lon="4.75973">
        <ele>194.3</ele>
        <time>2025-04-30T09:31:51.000Z</time>
      </trkpt>
      <trkpt lat="44.31685" lon="4.75973">
        <ele>194.6</ele>
        <time>2025-04-30T09:31:53.000Z</time>
      </trkpt>
      <trkpt lat="44.31687" lon="4.75972">
        <ele>194.6</ele>
        <time>2025-04-30T09:31:56.000Z</time>
      </trkpt>
      <trkpt lat="44.31689" lon="4.75971">
        <ele>194.5</ele>
        <time>2025-04-30T09:31:58.000Z</time>
      </trkpt>
      <trkpt lat="44.31691" lon="4.75969">
        <ele>194.4</ele>
        <time>2025-04-30T09:32:00.000Z</time>
      </trkpt>
      <trkpt lat="44.31693" lon="4.75969">
        <ele>194.7</ele>
        <time>2025-04-30T09:32:02.000Z</time>
      </trkpt>
      <trkpt lat="44.31695" lon="4.75969">
        <ele>195.2</ele>
        <time>2025-04-30T09:32:05.000Z</time>
      </trkpt>
      <trkpt lat="44.31697" lon="4.75968">
        <ele>195.8</ele>
        <time>2025-04-30T09:32:07.000Z</time>
      </trkpt>
      <trkpt lat="44.317" lon="4.75968">
        <ele>196.5</ele>
        <time>2025-04-30T09:32:10.000Z</time>
      </trkpt>
      <trkpt lat="44.31701" lon="4.75967">
        <ele>196.8</ele>
        <time>2025-04-30T09:32:12.000Z</time>
      </trkpt>
      <trkpt lat="44.31703" lon="4.75966">
        <ele>197.3</ele>
        <time>2025-04-30T09:32:14.000Z</time>
      </trkpt>
      <trkpt lat="44.31705" lon="4.75966">
        <ele>198.1</ele>
        <time>2025-04-30T09:32:16.000Z</time>
      </trkpt>
      <trkpt lat="44.31707" lon="4.75965">
        <ele>198.6</ele>
        <time>2025-04-30T09:32:18.000Z</time>
      </trkpt>
      <trkpt lat="44.3171" lon="4.75965">
        <ele>199.3</ele>
        <time>2025-04-30T09:32:20.000Z</time>
      </trkpt>
      <trkpt lat="44.31712" lon="4.75964">
        <ele>200</ele>
        <time>2025-04-30T09:32:22.000Z</time>
      </trkpt>
      <trkpt lat="44.31714" lon="4.75964">
        <ele>200.6</ele>
        <time>2025-04-30T09:32:24.000Z</time>
      </trkpt>
      <trkpt lat="44.31717" lon="4.75963">
        <ele>201</ele>
        <time>2025-04-30T09:32:27.000Z</time>
      </trkpt>
      <trkpt lat="44.31719" lon="4.75963">
        <ele>201.5</ele>
        <time>2025-04-30T09:32:29.000Z</time>
      </trkpt>
      <trkpt lat="44.31721" lon="4.75963">
        <ele>202.4</ele>
        <time>2025-04-30T09:32:31.000Z</time>
      </trkpt>
      <trkpt lat="44.31723" lon="4.75962">
        <ele>202.5</ele>
        <time>2025-04-30T09:32:33.000Z</time>
      </trkpt>
      <trkpt lat="44.31725" lon="4.75961">
        <ele>202.7</ele>
        <time>2025-04-30T09:32:35.000Z</time>
      </trkpt>
      <trkpt lat="44.31727" lon="4.75961">
        <ele>203.5</ele>
        <time>2025-04-30T09:32:37.000Z</time>
      </trkpt>
      <trkpt lat="44.31729" lon="4.75961">
        <ele>204.4</ele>
        <time>2025-04-30T09:32:39.000Z</time>
      </trkpt>
      <trkpt lat="44.31732" lon="4.75962">
        <ele>205.9</ele>
        <time>2025-04-30T09:32:41.000Z</time>
      </trkpt>
      <trkpt lat="44.31734" lon="4.75961">
        <ele>206.4</ele>
        <time>2025-04-30T09:32:44.000Z</time>
      </trkpt>
      <trkpt lat="44.31736" lon="4.7596">
        <ele>206.5</ele>
        <time>2025-04-30T09:32:47.000Z</time>
      </trkpt>
      <trkpt lat="44.31737" lon="4.75958">
        <ele>205.9</ele>
        <time>2025-04-30T09:33:06.000Z</time>
      </trkpt>
      <trkpt lat="44.31739" lon="4.75956">
        <ele>204.7</ele>
        <time>2025-04-30T09:33:21.000Z</time>
      </trkpt>
      <trkpt lat="44.31741" lon="4.75956">
        <ele>205.8</ele>
        <time>2025-04-30T09:33:25.000Z</time>
      </trkpt>
      <trkpt lat="44.31743" lon="4.75957">
        <ele>207.2</ele>
        <time>2025-04-30T09:33:31.000Z</time>
      </trkpt>
      <trkpt lat="44.31745" lon="4.75956">
        <ele>207.3</ele>
        <time>2025-04-30T09:33:37.000Z</time>
      </trkpt>
      <trkpt lat="44.31746" lon="4.75958">
        <ele>209.2</ele>
        <time>2025-04-30T09:33:51.000Z</time>
      </trkpt>
      <trkpt lat="44.31748" lon="4.75957">
        <ele>208.8</ele>
        <time>2025-04-30T09:33:55.000Z</time>
      </trkpt>
      <trkpt lat="44.3175" lon="4.75956">
        <ele>209.1</ele>
        <time>2025-04-30T09:33:58.000Z</time>
      </trkpt>
      <trkpt lat="44.31753" lon="4.75957">
        <ele>209.6</ele>
        <time>2025-04-30T09:34:01.000Z</time>
      </trkpt>
      <trkpt lat="44.31755" lon="4.75956">
        <ele>209.6</ele>
        <time>2025-04-30T09:34:03.000Z</time>
      </trkpt>
      <trkpt lat="44.31757" lon="4.75956">
        <ele>209.6</ele>
        <time>2025-04-30T09:34:06.000Z</time>
      </trkpt>
      <trkpt lat="44.31759" lon="4.75956">
        <ele>209.5</ele>
        <time>2025-04-30T09:34:09.000Z</time>
      </trkpt>
      <trkpt lat="44.31761" lon="4.75954">
        <ele>208.5</ele>
        <time>2025-04-30T09:34:16.000Z</time>
      </trkpt>
      <trkpt lat="44.31761" lon="4.75951">
        <ele>207</ele>
        <time>2025-04-30T09:34:19.000Z</time>
      </trkpt>
      <trkpt lat="44.31763" lon="4.75949">
        <ele>206.1</ele>
        <time>2025-04-30T09:34:52.000Z</time>
      </trkpt>
      <trkpt lat="44.31765" lon="4.75949">
        <ele>206.2</ele>
        <time>2025-04-30T09:34:57.000Z</time>
      </trkpt>
      <trkpt lat="44.31767" lon="4.75947">
        <ele>205.8</ele>
        <time>2025-04-30T09:35:03.000Z</time>
      </trkpt>
      <trkpt lat="44.31769" lon="4.75946">
        <ele>205.3</ele>
        <time>2025-04-30T09:35:07.000Z</time>
      </trkpt>
      <trkpt lat="44.31771" lon="4.75944">
        <ele>204.6</ele>
        <time>2025-04-30T09:35:10.000Z</time>
      </trkpt>
      <trkpt lat="44.31772" lon="4.75941">
        <ele>204.8</ele>
        <time>2025-04-30T09:35:13.000Z</time>
      </trkpt>
      <trkpt lat="44.31773" lon="4.75939">
        <ele>204.9</ele>
        <time>2025-04-30T09:35:15.000Z</time>
      </trkpt>
      <trkpt lat="44.31774" lon="4.75936">
        <ele>205</ele>
        <time>2025-04-30T09:35:18.000Z</time>
      </trkpt>
      <trkpt lat="44.31774" lon="4.75933">
        <ele>204.8</ele>
        <time>2025-04-30T09:35:21.000Z</time>
      </trkpt>
      <trkpt lat="44.31774" lon="4.7593">
        <ele>204.7</ele>
        <time>2025-04-30T09:35:23.000Z</time>
      </trkpt>
      <trkpt lat="44.31774" lon="4.75927">
        <ele>204.5</ele>
        <time>2025-04-30T09:35:25.000Z</time>
      </trkpt>
      <trkpt lat="44.31773" lon="4.75923">
        <ele>204</ele>
        <time>2025-04-30T09:35:37.000Z</time>
      </trkpt>
      <trkpt lat="44.31772" lon="4.75921">
        <ele>203.3</ele>
        <time>2025-04-30T09:35:40.000Z</time>
      </trkpt>
      <trkpt lat="44.31773" lon="4.75918">
        <ele>203.6</ele>
        <time>2025-04-30T09:35:42.000Z</time>
      </trkpt>
      <trkpt lat="44.31772" lon="4.75914">
        <ele>204.1</ele>
        <time>2025-04-30T09:35:45.000Z</time>
      </trkpt>
      <trkpt lat="44.31771" lon="4.75911">
        <ele>204.3</ele>
        <time>2025-04-30T09:35:47.000Z</time>
      </trkpt>
      <trkpt lat="44.3177" lon="4.75908">
        <ele>205.1</ele>
        <time>2025-04-30T09:35:49.000Z</time>
      </trkpt>
      <trkpt lat="44.3177" lon="4.75905">
        <ele>205.9</ele>
        <time>2025-04-30T09:35:52.000Z</time>
      </trkpt>
      <trkpt lat="44.31769" lon="4.75903">
        <ele>206.1</ele>
        <time>2025-04-30T09:35:55.000Z</time>
      </trkpt>
      <trkpt lat="44.31769" lon="4.759">
        <ele>206.8</ele>
        <time>2025-04-30T09:35:58.000Z</time>
      </trkpt>
      <trkpt lat="44.31768" lon="4.75897">
        <ele>207.1</ele>
        <time>2025-04-30T09:36:02.000Z</time>
      </trkpt>
      <trkpt lat="44.31767" lon="4.75894">
        <ele>207.8</ele>
        <time>2025-04-30T09:36:05.000Z</time>
      </trkpt>
      <trkpt lat="44.31767" lon="4.75891">
        <ele>208.2</ele>
        <time>2025-04-30T09:36:07.000Z</time>
      </trkpt>
      <trkpt lat="44.31766" lon="4.75888">
        <ele>208.7</ele>
        <time>2025-04-30T09:36:11.000Z</time>
      </trkpt>
      <trkpt lat="44.31765" lon="4.75884">
        <ele>209.6</ele>
        <time>2025-04-30T09:36:14.000Z</time>
      </trkpt>
      <trkpt lat="44.31764" lon="4.75882">
        <ele>209.7</ele>
        <time>2025-04-30T09:36:16.000Z</time>
      </trkpt>
      <trkpt lat="44.31763" lon="4.75879">
        <ele>210.4</ele>
        <time>2025-04-30T09:36:19.000Z</time>
      </trkpt>
      <trkpt lat="44.31762" lon="4.75876">
        <ele>210.4</ele>
        <time>2025-04-30T09:36:21.000Z</time>
      </trkpt>
      <trkpt lat="44.31761" lon="4.75874">
        <ele>210.6</ele>
        <time>2025-04-30T09:36:23.000Z</time>
      </trkpt>
      <trkpt lat="44.31761" lon="4.75871">
        <ele>211</ele>
        <time>2025-04-30T09:36:25.000Z</time>
      </trkpt>
      <trkpt lat="44.31761" lon="4.75869">
        <ele>211.8</ele>
        <time>2025-04-30T09:36:28.000Z</time>
      </trkpt>
      <trkpt lat="44.31759" lon="4.75867">
        <ele>211.4</ele>
        <time>2025-04-30T09:36:30.000Z</time>
      </trkpt>
      <trkpt lat="44.31758" lon="4.75863">
        <ele>211.4</ele>
        <time>2025-04-30T09:36:33.000Z</time>
      </trkpt>
      <trkpt lat="44.31757" lon="4.7586">
        <ele>211.7</ele>
        <time>2025-04-30T09:36:35.000Z</time>
      </trkpt>
      <trkpt lat="44.31756" lon="4.75858">
        <ele>211.8</ele>
        <time>2025-04-30T09:36:37.000Z</time>
      </trkpt>
      <trkpt lat="44.31756" lon="4.75855">
        <ele>212.8</ele>
        <time>2025-04-30T09:36:40.000Z</time>
      </trkpt>
      <trkpt lat="44.31754" lon="4.75853">
        <ele>211.6</ele>
        <time>2025-04-30T09:36:47.000Z</time>
      </trkpt>
      <trkpt lat="44.31753" lon="4.75849">
        <ele>212.2</ele>
        <time>2025-04-30T09:36:52.000Z</time>
      </trkpt>
      <trkpt lat="44.31752" lon="4.75846">
        <ele>212.3</ele>
        <time>2025-04-30T09:36:55.000Z</time>
      </trkpt>
      <trkpt lat="44.31751" lon="4.75844">
        <ele>212.5</ele>
        <time>2025-04-30T09:36:57.000Z</time>
      </trkpt>
      <trkpt lat="44.31749" lon="4.7584">
        <ele>212.9</ele>
        <time>2025-04-30T09:37:00.000Z</time>
      </trkpt>
      <trkpt lat="44.31748" lon="4.75838">
        <ele>213.3</ele>
        <time>2025-04-30T09:37:02.000Z</time>
      </trkpt>
      <trkpt lat="44.31747" lon="4.75834">
        <ele>213.9</ele>
        <time>2025-04-30T09:37:07.000Z</time>
      </trkpt>
      <trkpt lat="44.31746" lon="4.75832">
        <ele>213.9</ele>
        <time>2025-04-30T09:37:13.000Z</time>
      </trkpt>
      <trkpt lat="44.31748" lon="4.75833">
        <ele>215.2</ele>
        <time>2025-04-30T09:37:18.000Z</time>
      </trkpt>
      <trkpt lat="44.3175" lon="4.75832">
        <ele>216.7</ele>
        <time>2025-04-30T09:37:21.000Z</time>
      </trkpt>
      <trkpt lat="44.31752" lon="4.75831">
        <ele>218.4</ele>
        <time>2025-04-30T09:37:24.000Z</time>
      </trkpt>
      <trkpt lat="44.31755" lon="4.75833">
        <ele>220</ele>
        <time>2025-04-30T09:37:29.000Z</time>
      </trkpt>
      <trkpt lat="44.31758" lon="4.75831">
        <ele>223.3</ele>
        <time>2025-04-30T09:37:32.000Z</time>
      </trkpt>
      <trkpt lat="44.31758" lon="4.75828">
        <ele>224</ele>
        <time>2025-04-30T09:37:33.000Z</time>
      </trkpt>
      <trkpt lat="44.31758" lon="4.75824">
        <ele>224.9</ele>
        <time>2025-04-30T09:37:34.000Z</time>
      </trkpt>
      <trkpt lat="44.31757" lon="4.7582">
        <ele>225.5</ele>
        <time>2025-04-30T09:37:35.000Z</time>
      </trkpt>
      <trkpt lat="44.31757" lon="4.75814">
        <ele>227.3</ele>
        <time>2025-04-30T09:37:36.000Z</time>
      </trkpt>
      <trkpt lat="44.31759" lon="4.75809">
        <ele>230.3</ele>
        <time>2025-04-30T09:37:37.000Z</time>
      </trkpt>
      <trkpt lat="44.31761" lon="4.758">
        <ele>233.5</ele>
        <time>2025-04-30T09:37:38.000Z</time>
      </trkpt>
      <trkpt lat="44.31769" lon="4.75804">
        <ele>238</ele>
        <time>2025-04-30T09:37:39.000Z</time>
      </trkpt>
      <trkpt lat="44.3177" lon="4.75799">
        <ele>239.3</ele>
        <time>2025-04-30T09:37:41.000Z</time>
      </trkpt>
      <trkpt lat="44.31766" lon="4.75793">
        <ele>237.7</ele>
        <time>2025-04-30T09:37:42.000Z</time>
      </trkpt>
      <trkpt lat="44.3176" lon="4.75793">
        <ele>234.4</ele>
        <time>2025-04-30T09:37:43.000Z</time>
      </trkpt>
      <trkpt lat="44.31758" lon="4.75794">
        <ele>233</ele>
        <time>2025-04-30T09:37:45.000Z</time>
      </trkpt>
      <trkpt lat="44.31755" lon="4.75797">
        <ele>230.5</ele>
        <time>2025-04-30T09:37:46.000Z</time>
      </trkpt>
      <trkpt lat="44.31752" lon="4.75802">
        <ele>228.1</ele>
        <time>2025-04-30T09:37:47.000Z</time>
      </trkpt>
      <trkpt lat="44.31751" lon="4.75806">
        <ele>226.4</ele>
        <time>2025-04-30T09:37:48.000Z</time>
      </trkpt>
      <trkpt lat="44.3175" lon="4.75809">
        <ele>224.9</ele>
        <time>2025-04-30T09:37:49.000Z</time>
      </trkpt>
      <trkpt lat="44.3175" lon="4.75815">
        <ele>222.8</ele>
        <time>2025-04-30T09:37:51.000Z</time>
      </trkpt>
      <trkpt lat="44.3175" lon="4.75818">
        <ele>221.5</ele>
        <time>2025-04-30T09:37:53.000Z</time>
      </trkpt>
      <trkpt lat="44.31752" lon="4.75819">
        <ele>222.3</ele>
        <time>2025-04-30T09:37:57.000Z</time>
      </trkpt>
      <trkpt lat="44.31753" lon="4.75821">
        <ele>222.4</ele>
        <time>2025-04-30T09:38:00.000Z</time>
      </trkpt>
      <trkpt lat="44.31753" lon="4.75825">
        <ele>221.5</ele>
        <time>2025-04-30T09:38:02.000Z</time>
      </trkpt>
      <trkpt lat="44.31755" lon="4.75826">
        <ele>222.1</ele>
        <time>2025-04-30T09:38:04.000Z</time>
      </trkpt>
      <trkpt lat="44.31757" lon="4.75828">
        <ele>223.2</ele>
        <time>2025-04-30T09:38:09.000Z</time>
      </trkpt>
      <trkpt lat="44.31757" lon="4.75831">
        <ele>222.5</ele>
        <time>2025-04-30T09:38:14.000Z</time>
      </trkpt>
      <trkpt lat="44.31756" lon="4.75833">
        <ele>220.9</ele>
        <time>2025-04-30T09:38:16.000Z</time>
      </trkpt>
      <trkpt lat="44.31756" lon="4.75836">
        <ele>219.7</ele>
        <time>2025-04-30T09:38:25.000Z</time>
      </trkpt>
      <trkpt lat="44.31757" lon="4.75838">
        <ele>220.2</ele>
        <time>2025-04-30T09:38:27.000Z</time>
      </trkpt>
      <trkpt lat="44.3176" lon="4.75837">
        <ele>222.4</ele>
        <time>2025-04-30T09:38:29.000Z</time>
      </trkpt>
      <trkpt lat="44.31763" lon="4.75837">
        <ele>225.1</ele>
        <time>2025-04-30T09:38:31.000Z</time>
      </trkpt>
      <trkpt lat="44.31766" lon="4.75838">
        <ele>227.5</ele>
        <time>2025-04-30T09:38:33.000Z</time>
      </trkpt>
      <trkpt lat="44.31767" lon="4.75836">
        <ele>229.6</ele>
        <time>2025-04-30T09:38:35.000Z</time>
      </trkpt>
      <trkpt lat="44.31769" lon="4.75836">
        <ele>231.3</ele>
        <time>2025-04-30T09:38:36.000Z</time>
      </trkpt>
      <trkpt lat="44.31768" lon="4.75831">
        <ele>231.2</ele>
        <time>2025-04-30T09:38:37.000Z</time>
      </trkpt>
      <trkpt lat="44.31771" lon="4.75828">
        <ele>234.2</ele>
        <time>2025-04-30T09:38:38.000Z</time>
      </trkpt>
      <trkpt lat="44.31773" lon="4.75824">
        <ele>236.9</ele>
        <time>2025-04-30T09:38:39.000Z</time>
      </trkpt>
      <trkpt lat="44.31774" lon="4.75819">
        <ele>238.4</ele>
        <time>2025-04-30T09:38:40.000Z</time>
      </trkpt>
      <trkpt lat="44.3177" lon="4.75814">
        <ele>236.6</ele>
        <time>2025-04-30T09:38:43.000Z</time>
      </trkpt>
      <trkpt lat="44.31764" lon="4.75808">
        <ele>234</ele>
        <time>2025-04-30T09:38:45.000Z</time>
      </trkpt>
      <trkpt lat="44.31765" lon="4.75813">
        <ele>233.6</ele>
        <time>2025-04-30T09:38:46.000Z</time>
      </trkpt>
      <trkpt lat="44.31765" lon="4.75816">
        <ele>232.8</ele>
        <time>2025-04-30T09:38:47.000Z</time>
      </trkpt>
      <trkpt lat="44.31764" lon="4.75824">
        <ele>229.9</ele>
        <time>2025-04-30T09:38:48.000Z</time>
      </trkpt>
      <trkpt lat="44.31998" lon="4.76126">
        <ele>275.4</ele>
        <time>2025-04-30T09:39:18.000Z</time>
      </trkpt>
      <trkpt lat="44.31999" lon="4.76122">
        <ele>274.6</ele>
        <time>2025-04-30T09:39:20.000Z</time>
      </trkpt>
      <trkpt lat="44.32001" lon="4.76119">
        <ele>274</ele>
        <time>2025-04-30T09:39:21.000Z</time>
      </trkpt>
      <trkpt lat="44.32002" lon="4.76116">
        <ele>273.5</ele>
        <time>2025-04-30T09:39:23.000Z</time>
      </trkpt>
      <trkpt lat="44.32001" lon="4.76111">
        <ele>272.9</ele>
        <time>2025-04-30T09:39:26.000Z</time>
      </trkpt>
      <trkpt lat="44.31999" lon="4.76109">
        <ele>272.7</ele>
        <time>2025-04-30T09:39:28.000Z</time>
      </trkpt>
      <trkpt lat="44.31997" lon="4.76104">
        <ele>272</ele>
        <time>2025-04-30T09:39:30.000Z</time>
      </trkpt>
      <trkpt lat="44.31995" lon="4.76102">
        <ele>271.6</ele>
        <time>2025-04-30T09:39:31.000Z</time>
      </trkpt>
      <trkpt lat="44.31994" lon="4.76097">
        <ele>270.8</ele>
        <time>2025-04-30T09:39:33.000Z</time>
      </trkpt>
      <trkpt lat="44.31993" lon="4.76095">
        <ele>270.6</ele>
        <time>2025-04-30T09:39:34.000Z</time>
      </trkpt>
      <trkpt lat="44.31991" lon="4.76092">
        <ele>270.2</ele>
        <time>2025-04-30T09:39:39.000Z</time>
      </trkpt>
      <trkpt lat="44.31987" lon="4.76088">
        <ele>269.9</ele>
        <time>2025-04-30T09:39:45.000Z</time>
      </trkpt>
      <trkpt lat="44.31985" lon="4.76085">
        <ele>269.5</ele>
        <time>2025-04-30T09:39:54.000Z</time>
      </trkpt>
      <trkpt lat="44.31983" lon="4.76086">
        <ele>270</ele>
        <time>2025-04-30T09:39:58.000Z</time>
      </trkpt>
      <trkpt lat="44.31981" lon="4.76083">
        <ele>269.7</ele>
        <time>2025-04-30T09:40:00.000Z</time>
      </trkpt>
      <trkpt lat="44.3198" lon="4.76081">
        <ele>269.1</ele>
        <time>2025-04-30T09:40:03.000Z</time>
      </trkpt>
      <trkpt lat="44.31975" lon="4.76077">
        <ele>268.8</ele>
        <time>2025-04-30T09:40:05.000Z</time>
      </trkpt>
      <trkpt lat="44.31972" lon="4.76073">
        <ele>268</ele>
        <time>2025-04-30T09:40:07.000Z</time>
      </trkpt>
      <trkpt lat="44.31967" lon="4.76067">
        <ele>266.4</ele>
        <time>2025-04-30T09:40:13.000Z</time>
      </trkpt>
      <trkpt lat="44.3196" lon="4.7606">
        <ele>264.4</ele>
        <time>2025-04-30T09:40:14.000Z</time>
      </trkpt>
      <trkpt lat="44.31952" lon="4.76052">
        <ele>261.9</ele>
        <time>2025-04-30T09:40:15.000Z</time>
      </trkpt>
      <trkpt lat="44.31944" lon="4.76045">
        <ele>259</ele>
        <time>2025-04-30T09:40:16.000Z</time>
      </trkpt>
      <trkpt lat="44.31934" lon="4.76035">
        <ele>254.2</ele>
        <time>2025-04-30T09:40:17.000Z</time>
      </trkpt>
      <trkpt lat="44.31924" lon="4.76025">
        <ele>250.2</ele>
        <time>2025-04-30T09:40:18.000Z</time>
      </trkpt>
      <trkpt lat="44.31915" lon="4.76014">
        <ele>247.2</ele>
        <time>2025-04-30T09:40:19.000Z</time>
      </trkpt>
      <trkpt lat="44.31909" lon="4.76008">
        <ele>245.5</ele>
        <time>2025-04-30T09:40:20.000Z</time>
      </trkpt>
      <trkpt lat="44.31904" lon="4.76002">
        <ele>243.9</ele>
        <time>2025-04-30T09:40:21.000Z</time>
      </trkpt>
      <trkpt lat="44.31897" lon="4.7598">
        <ele>242</ele>
        <time>2025-04-30T09:40:22.000Z</time>
      </trkpt>
      <trkpt lat="44.31892" lon="4.7597">
        <ele>241.3</ele>
        <time>2025-04-30T09:40:23.000Z</time>
      </trkpt>
      <trkpt lat="44.31888" lon="4.75962">
        <ele>241.2</ele>
        <time>2025-04-30T09:40:24.000Z</time>
      </trkpt>
      <trkpt lat="44.31884" lon="4.75958">
        <ele>241</ele>
        <time>2025-04-30T09:40:28.000Z</time>
      </trkpt>
      <trkpt lat="44.31879" lon="4.75949">
        <ele>240.7</ele>
        <time>2025-04-30T09:40:29.000Z</time>
      </trkpt>
      <trkpt lat="44.3187" lon="4.75939">
        <ele>240.7</ele>
        <time>2025-04-30T09:40:30.000Z</time>
      </trkpt>
      <trkpt lat="44.31859" lon="4.75928">
        <ele>240.8</ele>
        <time>2025-04-30T09:40:31.000Z</time>
      </trkpt>
      <trkpt lat="44.31851" lon="4.75923">
        <ele>240.4</ele>
        <time>2025-04-30T09:40:33.000Z</time>
      </trkpt>
      <trkpt lat="44.31848" lon="4.75922">
        <ele>240.1</ele>
        <time>2025-04-30T09:40:34.000Z</time>
      </trkpt>
      <trkpt lat="44.31842" lon="4.75916">
        <ele>240.3</ele>
        <time>2025-04-30T09:40:35.000Z</time>
      </trkpt>
      <trkpt lat="44.31825" lon="4.75903">
        <ele>238.9</ele>
        <time>2025-04-30T09:40:37.000Z</time>
      </trkpt>
      <trkpt lat="44.31811" lon="4.7589">
        <ele>238.8</ele>
        <time>2025-04-30T09:40:38.000Z</time>
      </trkpt>
      <trkpt lat="44.31799" lon="4.7588">
        <ele>235.4</ele>
        <time>2025-04-30T09:40:40.000Z</time>
      </trkpt>
      <trkpt lat="44.31786" lon="4.75865">
        <ele>232.7</ele>
        <time>2025-04-30T09:40:41.000Z</time>
      </trkpt>
      <trkpt lat="44.31777" lon="4.75854">
        <ele>231.4</ele>
        <time>2025-04-30T09:40:42.000Z</time>
      </trkpt>
      <trkpt lat="44.31771" lon="4.7585">
        <ele>227.3</ele>
        <time>2025-04-30T09:40:43.000Z</time>
      </trkpt>
      <trkpt lat="44.31768" lon="4.75851">
        <ele>225.2</ele>
        <time>2025-04-30T09:40:44.000Z</time>
      </trkpt>
      <trkpt lat="44.31765" lon="4.75849">
        <ele>223</ele>
        <time>2025-04-30T09:40:46.000Z</time>
      </trkpt>
      <trkpt lat="44.31764" lon="4.75847">
        <ele>222.4</ele>
        <time>2025-04-30T09:40:47.000Z</time>
      </trkpt>
      <trkpt lat="44.3176" lon="4.75844">
        <ele>220.1</ele>
        <time>2025-04-30T09:40:49.000Z</time>
      </trkpt>
      <trkpt lat="44.31756" lon="4.75841">
        <ele>218.2</ele>
        <time>2025-04-30T09:40:50.000Z</time>
      </trkpt>
      <trkpt lat="44.31752" lon="4.7584">
        <ele>214.9</ele>
        <time>2025-04-30T09:40:51.000Z</time>
      </trkpt>
      <trkpt lat="44.3175" lon="4.75837">
        <ele>214.9</ele>
        <time>2025-04-30T09:40:53.000Z</time>
      </trkpt>
      <trkpt lat="44.31746" lon="4.75834">
        <ele>213.5</ele>
        <time>2025-04-30T09:41:05.000Z</time>
      </trkpt>
      <trkpt lat="44.31745" lon="4.75833">
        <ele>213.1</ele>
        <time>2025-04-30T09:41:07.000Z</time>
      </trkpt>
      <trkpt lat="44.31742" lon="4.7583">
        <ele>212.3</ele>
        <time>2025-04-30T09:41:11.000Z</time>
      </trkpt>
      <trkpt lat="44.3174" lon="4.75827">
        <ele>212</ele>
        <time>2025-04-30T09:41:19.000Z</time>
      </trkpt>
      <trkpt lat="44.31741" lon="4.75824">
        <ele>213.1</ele>
        <time>2025-04-30T09:41:49.000Z</time>
      </trkpt>
      <trkpt lat="44.31739" lon="4.75822">
        <ele>212.6</ele>
        <time>2025-04-30T09:41:55.000Z</time>
      </trkpt>
      <trkpt lat="44.31738" lon="4.75821">
        <ele>211.9</ele>
        <time>2025-04-30T09:43:01.000Z</time>
      </trkpt>
      <trkpt lat="44.31735" lon="4.75817">
        <ele>211.2</ele>
        <time>2025-04-30T09:43:27.000Z</time>
      </trkpt>
      <trkpt lat="44.31734" lon="4.75814">
        <ele>211.4</ele>
        <time>2025-04-30T09:43:30.000Z</time>
      </trkpt>
      <trkpt lat="44.31733" lon="4.75811">
        <ele>211.4</ele>
        <time>2025-04-30T09:43:35.000Z</time>
      </trkpt>
      <trkpt lat="44.31733" lon="4.75808">
        <ele>211.8</ele>
        <time>2025-04-30T09:43:38.000Z</time>
      </trkpt>
      <trkpt lat="44.31732" lon="4.75805">
        <ele>211.5</ele>
        <time>2025-04-30T09:43:46.000Z</time>
      </trkpt>
      <trkpt lat="44.31731" lon="4.75802">
        <ele>211.4</ele>
        <time>2025-04-30T09:44:30.000Z</time>
      </trkpt>
      <trkpt lat="44.3173" lon="4.75799">
        <ele>211.2</ele>
        <time>2025-04-30T09:45:03.000Z</time>
      </trkpt>
      <trkpt lat="44.31728" lon="4.75798">
        <ele>210.1</ele>
        <time>2025-04-30T09:45:09.000Z</time>
      </trkpt>
      <trkpt lat="44.31726" lon="4.75795">
        <ele>208.5</ele>
        <time>2025-04-30T09:45:16.000Z</time>
      </trkpt>
      <trkpt lat="44.31723" lon="4.75794">
        <ele>206.9</ele>
        <time>2025-04-30T09:46:01.000Z</time>
      </trkpt>
      <trkpt lat="44.31724" lon="4.75792">
        <ele>207.7</ele>
        <time>2025-04-30T09:48:56.000Z</time>
      </trkpt>
      <trkpt lat="44.31724" lon="4.75789">
        <ele>208.6</ele>
        <time>2025-04-30T09:49:36.000Z</time>
      </trkpt>
      <trkpt lat="44.31723" lon="4.75787">
        <ele>208.3</ele>
        <time>2025-04-30T09:49:47.000Z</time>
      </trkpt>
      <trkpt lat="44.31723" lon="4.75785">
        <ele>208.2</ele>
        <time>2025-04-30T09:49:51.000Z</time>
      </trkpt>
      <trkpt lat="44.31722" lon="4.75782">
        <ele>208.3</ele>
        <time>2025-04-30T09:49:54.000Z</time>
      </trkpt>
      <trkpt lat="44.31722" lon="4.75778">
        <ele>208.8</ele>
        <time>2025-04-30T09:49:56.000Z</time>
      </trkpt>
      <trkpt lat="44.31721" lon="4.75776">
        <ele>209</ele>
        <time>2025-04-30T09:49:58.000Z</time>
      </trkpt>
      <trkpt lat="44.3172" lon="4.75773">
        <ele>209.2</ele>
        <time>2025-04-30T09:50:01.000Z</time>
      </trkpt>
      <trkpt lat="44.31718" lon="4.75771">
        <ele>208.9</ele>
        <time>2025-04-30T09:50:04.000Z</time>
      </trkpt>
      <trkpt lat="44.31717" lon="4.75768">
        <ele>209.1</ele>
        <time>2025-04-30T09:50:07.000Z</time>
      </trkpt>
      <trkpt lat="44.31715" lon="4.75766">
        <ele>209</ele>
        <time>2025-04-30T09:50:09.000Z</time>
      </trkpt>
      <trkpt lat="44.31714" lon="4.75763">
        <ele>209.2</ele>
        <time>2025-04-30T09:50:11.000Z</time>
      </trkpt>
      <trkpt lat="44.31713" lon="4.7576">
        <ele>209.3</ele>
        <time>2025-04-30T09:50:14.000Z</time>
      </trkpt>
      <trkpt lat="44.31712" lon="4.75757">
        <ele>209.4</ele>
        <time>2025-04-30T09:50:17.000Z</time>
      </trkpt>
      <trkpt lat="44.31711" lon="4.75755">
        <ele>209.4</ele>
        <time>2025-04-30T09:50:20.000Z</time>
      </trkpt>
      <trkpt lat="44.31709" lon="4.75753">
        <ele>209.3</ele>
        <time>2025-04-30T09:50:23.000Z</time>
      </trkpt>
      <trkpt lat="44.31708" lon="4.7575">
        <ele>209.2</ele>
        <time>2025-04-30T09:50:26.000Z</time>
      </trkpt>
      <trkpt lat="44.31706" lon="4.75749">
        <ele>209</ele>
        <time>2025-04-30T09:50:32.000Z</time>
      </trkpt>
      <trkpt lat="44.31705" lon="4.75745">
        <ele>209.4</ele>
        <time>2025-04-30T09:50:35.000Z</time>
      </trkpt>
      <trkpt lat="44.31703" lon="4.75743">
        <ele>209.4</ele>
        <time>2025-04-30T09:50:37.000Z</time>
      </trkpt>
      <trkpt lat="44.31703" lon="4.75741">
        <ele>209.9</ele>
        <time>2025-04-30T09:50:40.000Z</time>
      </trkpt>
      <trkpt lat="44.31702" lon="4.75738">
        <ele>210.5</ele>
        <time>2025-04-30T09:50:44.000Z</time>
      </trkpt>
      <trkpt lat="44.31702" lon="4.75735">
        <ele>211.3</ele>
        <time>2025-04-30T09:50:49.000Z</time>
      </trkpt>
      <trkpt lat="44.31703" lon="4.75732">
        <ele>212.5</ele>
        <time>2025-04-30T09:50:53.000Z</time>
      </trkpt>
      <trkpt lat="44.31705" lon="4.75732">
        <ele>213.3</ele>
        <time>2025-04-30T09:50:56.000Z</time>
      </trkpt>
      <trkpt lat="44.31708" lon="4.7573">
        <ele>214.9</ele>
        <time>2025-04-30T09:51:00.000Z</time>
      </trkpt>
      <trkpt lat="44.3171" lon="4.7573">
        <ele>216</ele>
        <time>2025-04-30T09:51:03.000Z</time>
      </trkpt>
      <trkpt lat="44.31712" lon="4.75731">
        <ele>216.5</ele>
        <time>2025-04-30T09:51:10.000Z</time>
      </trkpt>
      <trkpt lat="44.31713" lon="4.75733">
        <ele>216.2</ele>
        <time>2025-04-30T09:51:13.000Z</time>
      </trkpt>
      <trkpt lat="44.31714" lon="4.75735">
        <ele>216.1</ele>
        <time>2025-04-30T09:51:17.000Z</time>
      </trkpt>
      <trkpt lat="44.31716" lon="4.75734">
        <ele>217.2</ele>
        <time>2025-04-30T09:51:22.000Z</time>
      </trkpt>
      <trkpt lat="44.31716" lon="4.75731">
        <ele>218</ele>
        <time>2025-04-30T09:51:27.000Z</time>
      </trkpt>
      <trkpt lat="44.31717" lon="4.75728">
        <ele>219.1</ele>
        <time>2025-04-30T09:51:32.000Z</time>
      </trkpt>
      <trkpt lat="44.31717" lon="4.75725">
        <ele>220.1</ele>
        <time>2025-04-30T09:51:40.000Z</time>
      </trkpt>
      <trkpt lat="44.31717" lon="4.75721">
        <ele>221.2</ele>
        <time>2025-04-30T09:51:46.000Z</time>
      </trkpt>
      <trkpt lat="44.31716" lon="4.75718">
        <ele>222.1</ele>
        <time>2025-04-30T09:51:49.000Z</time>
      </trkpt>
      <trkpt lat="44.31715" lon="4.75715">
        <ele>222.8</ele>
        <time>2025-04-30T09:51:55.000Z</time>
      </trkpt>
      <trkpt lat="44.31713" lon="4.75714">
        <ele>222.4</ele>
        <time>2025-04-30T09:51:57.000Z</time>
      </trkpt>
      <trkpt lat="44.31712" lon="4.75712">
        <ele>223</ele>
        <time>2025-04-30T09:51:59.000Z</time>
      </trkpt>
      <trkpt lat="44.3171" lon="4.75709">
        <ele>223.5</ele>
        <time>2025-04-30T09:52:01.000Z</time>
      </trkpt>
      <trkpt lat="44.31711" lon="4.75707">
        <ele>224.8</ele>
        <time>2025-04-30T09:52:04.000Z</time>
      </trkpt>
      <trkpt lat="44.3171" lon="4.75705">
        <ele>224.9</ele>
        <time>2025-04-30T09:52:07.000Z</time>
      </trkpt>
      <trkpt lat="44.31705" lon="4.75703">
        <ele>224.5</ele>
        <time>2025-04-30T09:52:10.000Z</time>
      </trkpt>
      <trkpt lat="44.317" lon="4.75702">
        <ele>223.3</ele>
        <time>2025-04-30T09:52:11.000Z</time>
      </trkpt>
      <trkpt lat="44.31696" lon="4.757">
        <ele>222.9</ele>
        <time>2025-04-30T09:52:12.000Z</time>
      </trkpt>
      <trkpt lat="44.31693" lon="4.75698">
        <ele>222.6</ele>
        <time>2025-04-30T09:52:13.000Z</time>
      </trkpt>
      <trkpt lat="44.31691" lon="4.75698">
        <ele>222.1</ele>
        <time>2025-04-30T09:52:14.000Z</time>
      </trkpt>
      <trkpt lat="44.31689" lon="4.75696">
        <ele>221.6</ele>
        <time>2025-04-30T09:52:15.000Z</time>
      </trkpt>
      <trkpt lat="44.31686" lon="4.75694">
        <ele>221.5</ele>
        <time>2025-04-30T09:52:16.000Z</time>
      </trkpt>
      <trkpt lat="44.31684" lon="4.75692">
        <ele>220.9</ele>
        <time>2025-04-30T09:52:17.000Z</time>
      </trkpt>
      <trkpt lat="44.31681" lon="4.75694">
        <ele>219.2</ele>
        <time>2025-04-30T09:52:18.000Z</time>
      </trkpt>
      <trkpt lat="44.31679" lon="4.75696">
        <ele>217.1</ele>
        <time>2025-04-30T09:52:19.000Z</time>
      </trkpt>
      <trkpt lat="44.31677" lon="4.757">
        <ele>214.9</ele>
        <time>2025-04-30T09:52:20.000Z</time>
      </trkpt>
      <trkpt lat="44.31674" lon="4.75705">
        <ele>211.7</ele>
        <time>2025-04-30T09:52:21.000Z</time>
      </trkpt>
      <trkpt lat="44.31671" lon="4.75715">
        <ele>207.4</ele>
        <time>2025-04-30T09:52:22.000Z</time>
      </trkpt>
      <trkpt lat="44.31669" lon="4.75723">
        <ele>204.5</ele>
        <time>2025-04-30T09:52:23.000Z</time>
      </trkpt>
      <trkpt lat="44.31668" lon="4.75733">
        <ele>201.8</ele>
        <time>2025-04-30T09:52:24.000Z</time>
      </trkpt>
      <trkpt lat="44.31665" lon="4.75744">
        <ele>199</ele>
        <time>2025-04-30T09:52:25.000Z</time>
      </trkpt>
      <trkpt lat="44.31667" lon="4.7575">
        <ele>198</ele>
        <time>2025-04-30T09:52:26.000Z</time>
      </trkpt>
      <trkpt lat="44.31671" lon="4.75754">
        <ele>198.2</ele>
        <time>2025-04-30T09:52:27.000Z</time>
      </trkpt>
      <trkpt lat="44.31677" lon="4.75756">
        <ele>199.1</ele>
        <time>2025-04-30T09:52:28.000Z</time>
      </trkpt>
      <trkpt lat="44.31684" lon="4.75757">
        <ele>200.6</ele>
        <time>2025-04-30T09:52:29.000Z</time>
      </trkpt>
      <trkpt lat="44.31692" lon="4.75757">
        <ele>202.2</ele>
        <time>2025-04-30T09:52:30.000Z</time>
      </trkpt>
      <trkpt lat="44.31753" lon="4.7574">
        <ele>236.8</ele>
        <time>2025-04-30T09:52:52.000Z</time>
      </trkpt>
      <trkpt lat="44.31751" lon="4.7574">
        <ele>235.9</ele>
        <time>2025-04-30T09:52:58.000Z</time>
      </trkpt>
      <trkpt lat="44.31749" lon="4.75739">
        <ele>234.7</ele>
        <time>2025-04-30T09:52:59.000Z</time>
      </trkpt>
      <trkpt lat="44.31745" lon="4.75737">
        <ele>232.7</ele>
        <time>2025-04-30T09:53:01.000Z</time>
      </trkpt>
      <trkpt lat="44.31743" lon="4.75737">
        <ele>231.7</ele>
        <time>2025-04-30T09:53:02.000Z</time>
      </trkpt>
      <trkpt lat="44.31746" lon="4.75733">
        <ele>233.7</ele>
        <time>2025-04-30T09:53:04.000Z</time>
      </trkpt>
      <trkpt lat="44.31745" lon="4.75728">
        <ele>234.1</ele>
        <time>2025-04-30T09:53:05.000Z</time>
      </trkpt>
      <trkpt lat="44.31741" lon="4.7573">
        <ele>231.8</ele>
        <time>2025-04-30T09:53:06.000Z</time>
      </trkpt>
      <trkpt lat="44.3173" lon="4.75725">
        <ele>226.8</ele>
        <time>2025-04-30T09:53:07.000Z</time>
      </trkpt>
      <trkpt lat="44.31726" lon="4.7572">
        <ele>225.8</ele>
        <time>2025-04-30T09:53:08.000Z</time>
      </trkpt>
      <trkpt lat="44.3172" lon="4.75715">
        <ele>224.9</ele>
        <time>2025-04-30T09:53:09.000Z</time>
      </trkpt>
      <trkpt lat="44.31719" lon="4.75713">
        <ele>225.2</ele>
        <time>2025-04-30T09:53:10.000Z</time>
      </trkpt>
      <trkpt lat="44.31716" lon="4.75707">
        <ele>226.3</ele>
        <time>2025-04-30T09:53:12.000Z</time>
      </trkpt>
      <trkpt lat="44.31714" lon="4.75707">
        <ele>225.5</ele>
        <time>2025-04-30T09:53:17.000Z</time>
      </trkpt>
      <trkpt lat="44.3171" lon="4.75711">
        <ele>222.9</ele>
        <time>2025-04-30T09:53:20.000Z</time>
      </trkpt>
      <trkpt lat="44.31709" lon="4.75713">
        <ele>221.6</ele>
        <time>2025-04-30T09:53:22.000Z</time>
      </trkpt>
      <trkpt lat="44.31707" lon="4.75714">
        <ele>220.7</ele>
        <time>2025-04-30T09:53:41.000Z</time>
      </trkpt>
      <trkpt lat="44.31705" lon="4.75714">
        <ele>219.7</ele>
        <time>2025-04-30T09:54:06.000Z</time>
      </trkpt>
      <trkpt lat="44.31706" lon="4.75711">
        <ele>221.2</ele>
        <time>2025-04-30T09:54:09.000Z</time>
      </trkpt>
      <trkpt lat="44.31707" lon="4.75709">
        <ele>222.6</ele>
        <time>2025-04-30T09:54:10.000Z</time>
      </trkpt>
      <trkpt lat="44.31709" lon="4.7571">
        <ele>222.8</ele>
        <time>2025-04-30T09:57:15.000Z</time>
      </trkpt>
      <trkpt lat="44.31711" lon="4.75711">
        <ele>223.3</ele>
        <time>2025-04-30T09:57:17.000Z</time>
      </trkpt>
      <trkpt lat="44.31713" lon="4.75712">
        <ele>223.3</ele>
        <time>2025-04-30T09:57:55.000Z</time>
      </trkpt>
      <trkpt lat="44.31714" lon="4.75715">
        <ele>222.5</ele>
        <time>2025-04-30T09:57:58.000Z</time>
      </trkpt>
      <trkpt lat="44.31715" lon="4.75717">
        <ele>222.2</ele>
        <time>2025-04-30T09:58:00.000Z</time>
      </trkpt>
      <trkpt lat="44.31717" lon="4.75721">
        <ele>221.5</ele>
        <time>2025-04-30T09:58:06.000Z</time>
      </trkpt>
      <trkpt lat="44.31717" lon="4.75723">
        <ele>220.8</ele>
        <time>2025-04-30T09:58:08.000Z</time>
      </trkpt>
      <trkpt lat="44.3172" lon="4.75725">
        <ele>221.2</ele>
        <time>2025-04-30T09:58:12.000Z</time>
      </trkpt>
      <trkpt lat="44.3172" lon="4.75727">
        <ele>220.7</ele>
        <time>2025-04-30T09:58:15.000Z</time>
      </trkpt>
      <trkpt lat="44.31722" lon="4.75728">
        <ele>221.3</ele>
        <time>2025-04-30T09:58:18.000Z</time>
      </trkpt>
      <trkpt lat="44.31723" lon="4.7573">
        <ele>221.5</ele>
        <time>2025-04-30T09:58:20.000Z</time>
      </trkpt>
      <trkpt lat="44.31725" lon="4.75732">
        <ele>221.4</ele>
        <time>2025-04-30T09:58:29.000Z</time>
      </trkpt>
      <trkpt lat="44.31726" lon="4.75734">
        <ele>222</ele>
        <time>2025-04-30T09:58:31.000Z</time>
      </trkpt>
      <trkpt lat="44.31728" lon="4.75736">
        <ele>222.4</ele>
        <time>2025-04-30T09:58:33.000Z</time>
      </trkpt>
      <trkpt lat="44.31729" lon="4.75738">
        <ele>222.8</ele>
        <time>2025-04-30T09:58:37.000Z</time>
      </trkpt>
      <trkpt lat="44.3173" lon="4.75741">
        <ele>222.5</ele>
        <time>2025-04-30T09:58:39.000Z</time>
      </trkpt>
      <trkpt lat="44.31731" lon="4.75746">
        <ele>222.2</ele>
        <time>2025-04-30T09:58:43.000Z</time>
      </trkpt>
      <trkpt lat="44.31731" lon="4.75749">
        <ele>221.4</ele>
        <time>2025-04-30T09:58:45.000Z</time>
      </trkpt>
      <trkpt lat="44.31732" lon="4.75752">
        <ele>221.6</ele>
        <time>2025-04-30T09:58:49.000Z</time>
      </trkpt>
      <trkpt lat="44.31733" lon="4.75755">
        <ele>221.8</ele>
        <time>2025-04-30T09:58:51.000Z</time>
      </trkpt>
      <trkpt lat="44.31736" lon="4.75755">
        <ele>223.8</ele>
        <time>2025-04-30T09:59:02.000Z</time>
      </trkpt>
      <trkpt lat="44.31739" lon="4.75755">
        <ele>225.7</ele>
        <time>2025-04-30T09:59:21.000Z</time>
      </trkpt>
      <trkpt lat="44.31741" lon="4.75755">
        <ele>227.5</ele>
        <time>2025-04-30T09:59:29.000Z</time>
      </trkpt>
      <trkpt lat="44.31742" lon="4.7575">
        <ele>228.1</ele>
        <time>2025-04-30T09:59:39.000Z</time>
      </trkpt>
      <trkpt lat="44.31743" lon="4.75749">
        <ele>229.5</ele>
        <time>2025-04-30T09:59:44.000Z</time>
      </trkpt>
      <trkpt lat="44.31745" lon="4.75748">
        <ele>230.9</ele>
        <time>2025-04-30T09:59:55.000Z</time>
      </trkpt>
      <trkpt lat="44.31746" lon="4.7575">
        <ele>231.2</ele>
        <time>2025-04-30T10:00:04.000Z</time>
      </trkpt>
      <trkpt lat="44.31746" lon="4.75753">
        <ele>230.7</ele>
        <time>2025-04-30T10:00:08.000Z</time>
      </trkpt>
      <trkpt lat="44.31746" lon="4.75756">
        <ele>230.5</ele>
        <time>2025-04-30T10:00:16.000Z</time>
      </trkpt>
      <trkpt lat="44.31746" lon="4.7576">
        <ele>230</ele>
        <time>2025-04-30T10:00:19.000Z</time>
      </trkpt>
      <trkpt lat="44.31747" lon="4.75762">
        <ele>231</ele>
        <time>2025-04-30T10:00:29.000Z</time>
      </trkpt>
      <trkpt lat="44.31748" lon="4.75765">
        <ele>231.7</ele>
        <time>2025-04-30T10:00:55.000Z</time>
      </trkpt>
      <trkpt lat="44.31749" lon="4.75762">
        <ele>232.1</ele>
        <time>2025-04-30T10:02:34.000Z</time>
      </trkpt>
      <trkpt lat="44.31749" lon="4.75758">
        <ele>232.4</ele>
        <time>2025-04-30T10:02:37.000Z</time>
      </trkpt>
      <trkpt lat="44.31748" lon="4.75755">
        <ele>232.3</ele>
        <time>2025-04-30T10:02:39.000Z</time>
      </trkpt>
      <trkpt lat="44.31748" lon="4.75752">
        <ele>232.4</ele>
        <time>2025-04-30T10:02:42.000Z</time>
      </trkpt>
      <trkpt lat="44.31748" lon="4.75748">
        <ele>232.7</ele>
        <time>2025-04-30T10:02:44.000Z</time>
      </trkpt>
      <trkpt lat="44.31748" lon="4.75745">
        <ele>233.2</ele>
        <time>2025-04-30T10:02:47.000Z</time>
      </trkpt>
      <trkpt lat="44.31748" lon="4.75742">
        <ele>233.6</ele>
        <time>2025-04-30T10:02:50.000Z</time>
      </trkpt>
      <trkpt lat="44.31748" lon="4.75739">
        <ele>234.3</ele>
        <time>2025-04-30T10:02:53.000Z</time>
      </trkpt>
      <trkpt lat="44.31748" lon="4.75735">
        <ele>234.9</ele>
        <time>2025-04-30T10:02:57.000Z</time>
      </trkpt>
      <trkpt lat="44.31749" lon="4.75732">
        <ele>235.7</ele>
        <time>2025-04-30T10:03:01.000Z</time>
      </trkpt>
      <trkpt lat="44.31749" lon="4.75729">
        <ele>236.2</ele>
        <time>2025-04-30T10:03:08.000Z</time>
      </trkpt>
      <trkpt lat="44.31749" lon="4.75726">
        <ele>236.6</ele>
        <time>2025-04-30T10:03:11.000Z</time>
      </trkpt>
      <trkpt lat="44.31748" lon="4.75723">
        <ele>236.8</ele>
        <time>2025-04-30T10:03:14.000Z</time>
      </trkpt>
      <trkpt lat="44.31747" lon="4.75721">
        <ele>236.6</ele>
        <time>2025-04-30T10:03:20.000Z</time>
      </trkpt>
      <trkpt lat="44.31746" lon="4.75718">
        <ele>236.6</ele>
        <time>2025-04-30T10:03:24.000Z</time>
      </trkpt>
      <trkpt lat="44.31747" lon="4.75715">
        <ele>237.2</ele>
        <time>2025-04-30T10:03:27.000Z</time>
      </trkpt>
      <trkpt lat="44.31748" lon="4.75711">
        <ele>238.2</ele>
        <time>2025-04-30T10:03:32.000Z</time>
      </trkpt>
      <trkpt lat="44.31748" lon="4.75707">
        <ele>238.8</ele>
        <time>2025-04-30T10:03:35.000Z</time>
      </trkpt>
      <trkpt lat="44.31747" lon="4.75705">
        <ele>238.6</ele>
        <time>2025-04-30T10:03:38.000Z</time>
      </trkpt>
      <trkpt lat="44.31746" lon="4.75703">
        <ele>238.5</ele>
        <time>2025-04-30T10:03:40.000Z</time>
      </trkpt>
      <trkpt lat="44.31744" lon="4.75701">
        <ele>238.3</ele>
        <time>2025-04-30T10:03:42.000Z</time>
      </trkpt>
      <trkpt lat="44.31742" lon="4.75698">
        <ele>238.1</ele>
        <time>2025-04-30T10:03:46.000Z</time>
      </trkpt>
      <trkpt lat="44.31741" lon="4.75696">
        <ele>238</ele>
        <time>2025-04-30T10:03:49.000Z</time>
      </trkpt>
      <trkpt lat="44.31739" lon="4.75696">
        <ele>237.6</ele>
        <time>2025-04-30T10:03:52.000Z</time>
      </trkpt>
      <trkpt lat="44.31737" lon="4.75695">
        <ele>237.2</ele>
        <time>2025-04-30T10:03:54.000Z</time>
      </trkpt>
      <trkpt lat="44.31735" lon="4.75693">
        <ele>236.9</ele>
        <time>2025-04-30T10:03:57.000Z</time>
      </trkpt>
      <trkpt lat="44.31734" lon="4.75691">
        <ele>236.9</ele>
        <time>2025-04-30T10:04:00.000Z</time>
      </trkpt>
      <trkpt lat="44.31732" lon="4.75687">
        <ele>237</ele>
        <time>2025-04-30T10:04:27.000Z</time>
      </trkpt>
      <trkpt lat="44.31731" lon="4.75684">
        <ele>237.3</ele>
        <time>2025-04-30T10:04:33.000Z</time>
      </trkpt>
      <trkpt lat="44.3173" lon="4.75682">
        <ele>237.4</ele>
        <time>2025-04-30T10:04:37.000Z</time>
      </trkpt>
      <trkpt lat="44.31728" lon="4.75681">
        <ele>237.1</ele>
        <time>2025-04-30T10:04:39.000Z</time>
      </trkpt>
      <trkpt lat="44.31726" lon="4.7568">
        <ele>236.9</ele>
        <time>2025-04-30T10:04:42.000Z</time>
      </trkpt>
      <trkpt lat="44.31724" lon="4.75679">
        <ele>236.7</ele>
        <time>2025-04-30T10:04:46.000Z</time>
      </trkpt>
      <trkpt lat="44.31722" lon="4.75678">
        <ele>236.5</ele>
        <time>2025-04-30T10:05:46.000Z</time>
      </trkpt>
      <trkpt lat="44.3172" lon="4.75678">
        <ele>236.1</ele>
        <time>2025-04-30T10:05:51.000Z</time>
      </trkpt>
      <trkpt lat="44.31718" lon="4.75679">
        <ele>235.6</ele>
        <time>2025-04-30T10:05:57.000Z</time>
      </trkpt>
      <trkpt lat="44.31716" lon="4.75678">
        <ele>235.5</ele>
        <time>2025-04-30T10:06:14.000Z</time>
      </trkpt>
      <trkpt lat="44.31715" lon="4.75678">
        <ele>235.1</ele>
        <time>2025-04-30T10:06:16.000Z</time>
      </trkpt>
      <trkpt lat="44.31713" lon="4.75676">
        <ele>235</ele>
        <time>2025-04-30T10:06:18.000Z</time>
      </trkpt>
      <trkpt lat="44.3171" lon="4.75677">
        <ele>234.5</ele>
        <time>2025-04-30T10:06:21.000Z</time>
      </trkpt>
      <trkpt lat="44.31708" lon="4.75677">
        <ele>234</ele>
        <time>2025-04-30T10:06:23.000Z</time>
      </trkpt>
      <trkpt lat="44.31706" lon="4.75677">
        <ele>233.7</ele>
        <time>2025-04-30T10:06:25.000Z</time>
      </trkpt>
      <trkpt lat="44.31704" lon="4.75676">
        <ele>233.4</ele>
        <time>2025-04-30T10:06:27.000Z</time>
      </trkpt>
      <trkpt lat="44.31702" lon="4.75675">
        <ele>233.2</ele>
        <time>2025-04-30T10:06:30.000Z</time>
      </trkpt>
      <trkpt lat="44.317" lon="4.75674">
        <ele>233.3</ele>
        <time>2025-04-30T10:06:33.000Z</time>
      </trkpt>
      <trkpt lat="44.31698" lon="4.75673">
        <ele>233.5</ele>
        <time>2025-04-30T10:06:36.000Z</time>
      </trkpt>
      <trkpt lat="44.31696" lon="4.75672">
        <ele>233.2</ele>
        <time>2025-04-30T10:06:39.000Z</time>
      </trkpt>
      <trkpt lat="44.31694" lon="4.75671">
        <ele>233.3</ele>
        <time>2025-04-30T10:06:41.000Z</time>
      </trkpt>
      <trkpt lat="44.31691" lon="4.7567">
        <ele>232.8</ele>
        <time>2025-04-30T10:06:44.000Z</time>
      </trkpt>
      <trkpt lat="44.3169" lon="4.75669">
        <ele>232.7</ele>
        <time>2025-04-30T10:06:46.000Z</time>
      </trkpt>
      <trkpt lat="44.31687" lon="4.75667">
        <ele>232.3</ele>
        <time>2025-04-30T10:06:49.000Z</time>
      </trkpt>
      <trkpt lat="44.31685" lon="4.75665">
        <ele>232.2</ele>
        <time>2025-04-30T10:06:53.000Z</time>
      </trkpt>
      <trkpt lat="44.31683" lon="4.75665">
        <ele>231.5</ele>
        <time>2025-04-30T10:06:57.000Z</time>
      </trkpt>
      <trkpt lat="44.31681" lon="4.75664">
        <ele>231.1</ele>
        <time>2025-04-30T10:06:59.000Z</time>
      </trkpt>
      <trkpt lat="44.3168" lon="4.75662">
        <ele>231</ele>
        <time>2025-04-30T10:07:01.000Z</time>
      </trkpt>
      <trkpt lat="44.31678" lon="4.7566">
        <ele>230.8</ele>
        <time>2025-04-30T10:07:04.000Z</time>
      </trkpt>
      <trkpt lat="44.31675" lon="4.75658">
        <ele>230.4</ele>
        <time>2025-04-30T10:07:09.000Z</time>
      </trkpt>
      <trkpt lat="44.31674" lon="4.75656">
        <ele>230.6</ele>
        <time>2025-04-30T10:07:12.000Z</time>
      </trkpt>
      <trkpt lat="44.31674" lon="4.75652">
        <ele>231</ele>
        <time>2025-04-30T10:07:17.000Z</time>
      </trkpt>
      <trkpt lat="44.31673" lon="4.75648">
        <ele>231.7</ele>
        <time>2025-04-30T10:07:23.000Z</time>
      </trkpt>
      <trkpt lat="44.31674" lon="4.75645">
        <ele>232.4</ele>
        <time>2025-04-30T10:07:26.000Z</time>
      </trkpt>
      <trkpt lat="44.31674" lon="4.75642">
        <ele>232.9</ele>
        <time>2025-04-30T10:07:30.000Z</time>
      </trkpt>
      <trkpt lat="44.31674" lon="4.7564">
        <ele>233.4</ele>
        <time>2025-04-30T10:07:33.000Z</time>
      </trkpt>
      <trkpt lat="44.31674" lon="4.75637">
        <ele>233.6</ele>
        <time>2025-04-30T10:07:40.000Z</time>
      </trkpt>
      <trkpt lat="44.31674" lon="4.75634">
        <ele>233.7</ele>
        <time>2025-04-30T10:07:43.000Z</time>
      </trkpt>
      <trkpt lat="44.31675" lon="4.75631">
        <ele>233.8</ele>
        <time>2025-04-30T10:07:46.000Z</time>
      </trkpt>
      <trkpt lat="44.31676" lon="4.75628">
        <ele>233.9</ele>
        <time>2025-04-30T10:07:49.000Z</time>
      </trkpt>
      <trkpt lat="44.31676" lon="4.75624">
        <ele>234.1</ele>
        <time>2025-04-30T10:07:52.000Z</time>
      </trkpt>
      <trkpt lat="44.31677" lon="4.75622">
        <ele>234.2</ele>
        <time>2025-04-30T10:07:55.000Z</time>
      </trkpt>
      <trkpt lat="44.31677" lon="4.75619">
        <ele>234.3</ele>
        <time>2025-04-30T10:07:58.000Z</time>
      </trkpt>
      <trkpt lat="44.31677" lon="4.75616">
        <ele>234.1</ele>
        <time>2025-04-30T10:08:00.000Z</time>
      </trkpt>
      <trkpt lat="44.31677" lon="4.75613">
        <ele>234.2</ele>
        <time>2025-04-30T10:08:03.000Z</time>
      </trkpt>
      <trkpt lat="44.31677" lon="4.75609">
        <ele>234.2</ele>
        <time>2025-04-30T10:08:06.000Z</time>
      </trkpt>
      <trkpt lat="44.31679" lon="4.75606">
        <ele>234.3</ele>
        <time>2025-04-30T10:08:09.000Z</time>
      </trkpt>
      <trkpt lat="44.31678" lon="4.75603">
        <ele>234.1</ele>
        <time>2025-04-30T10:08:12.000Z</time>
      </trkpt>
      <trkpt lat="44.31678" lon="4.756">
        <ele>233.9</ele>
        <time>2025-04-30T10:08:15.000Z</time>
      </trkpt>
      <trkpt lat="44.31678" lon="4.75597">
        <ele>233.7</ele>
        <time>2025-04-30T10:08:17.000Z</time>
      </trkpt>
      <trkpt lat="44.31678" lon="4.75594">
        <ele>233.6</ele>
        <time>2025-04-30T10:08:20.000Z</time>
      </trkpt>
      <trkpt lat="44.31679" lon="4.7559">
        <ele>233.6</ele>
        <time>2025-04-30T10:08:25.000Z</time>
      </trkpt>
      <trkpt lat="44.31681" lon="4.75588">
        <ele>233.8</ele>
        <time>2025-04-30T10:08:31.000Z</time>
      </trkpt>
      <trkpt lat="44.3168" lon="4.75586">
        <ele>233.5</ele>
        <time>2025-04-30T10:08:35.000Z</time>
      </trkpt>
      <trkpt lat="44.31678" lon="4.75584">
        <ele>233.1</ele>
        <time>2025-04-30T10:08:40.000Z</time>
      </trkpt>
      <trkpt lat="44.31676" lon="4.75583">
        <ele>232.6</ele>
        <time>2025-04-30T10:08:44.000Z</time>
      </trkpt>
      <trkpt lat="44.31675" lon="4.7558">
        <ele>231.8</ele>
        <time>2025-04-30T10:08:49.000Z</time>
      </trkpt>
      <trkpt lat="44.31676" lon="4.75577">
        <ele>231.3</ele>
        <time>2025-04-30T10:08:54.000Z</time>
      </trkpt>
      <trkpt lat="44.31676" lon="4.75574">
        <ele>230.7</ele>
        <time>2025-04-30T10:08:57.000Z</time>
      </trkpt>
      <trkpt lat="44.31675" lon="4.75571">
        <ele>230</ele>
        <time>2025-04-30T10:09:00.000Z</time>
      </trkpt>
      <trkpt lat="44.31675" lon="4.75568">
        <ele>229.4</ele>
        <time>2025-04-30T10:09:08.000Z</time>
      </trkpt>
      <trkpt lat="44.31676" lon="4.75565">
        <ele>229</ele>
        <time>2025-04-30T10:09:12.000Z</time>
      </trkpt>
      <trkpt lat="44.31674" lon="4.75561">
        <ele>227.9</ele>
        <time>2025-04-30T10:09:24.000Z</time>
      </trkpt>
      <trkpt lat="44.31675" lon="4.75559">
        <ele>227.5</ele>
        <time>2025-04-30T10:09:27.000Z</time>
      </trkpt>
      <trkpt lat="44.31673" lon="4.75557">
        <ele>226.9</ele>
        <time>2025-04-30T10:09:42.000Z</time>
      </trkpt>
      <trkpt lat="44.31671" lon="4.75557">
        <ele>226.6</ele>
        <time>2025-04-30T10:09:59.000Z</time>
      </trkpt>
      <trkpt lat="44.31671" lon="4.75554">
        <ele>225.8</ele>
        <time>2025-04-30T10:10:07.000Z</time>
      </trkpt>
      <trkpt lat="44.31672" lon="4.75551">
        <ele>224.8</ele>
        <time>2025-04-30T10:10:27.000Z</time>
      </trkpt>
      <trkpt lat="44.3167" lon="4.7555">
        <ele>224.1</ele>
        <time>2025-04-30T10:10:57.000Z</time>
      </trkpt>
      <trkpt lat="44.31672" lon="4.75548">
        <ele>223.3</ele>
        <time>2025-04-30T10:13:07.000Z</time>
      </trkpt>
      <trkpt lat="44.31673" lon="4.75545">
        <ele>222.4</ele>
        <time>2025-04-30T10:14:46.000Z</time>
      </trkpt>
      <trkpt lat="44.31675" lon="4.75547">
        <ele>223.4</ele>
        <time>2025-04-30T10:14:48.000Z</time>
      </trkpt>
      <trkpt lat="44.31676" lon="4.75549">
        <ele>224.3</ele>
        <time>2025-04-30T10:15:20.000Z</time>
      </trkpt>
      <trkpt lat="44.31676" lon="4.75553">
        <ele>225.9</ele>
        <time>2025-04-30T10:16:15.000Z</time>
      </trkpt>
      <trkpt lat="44.31677" lon="4.75556">
        <ele>227.2</ele>
        <time>2025-04-30T10:16:24.000Z</time>
      </trkpt>
      <trkpt lat="44.31677" lon="4.75559">
        <ele>227.8</ele>
        <time>2025-04-30T10:16:33.000Z</time>
      </trkpt>
      <trkpt lat="44.31677" lon="4.75562">
        <ele>228.4</ele>
        <time>2025-04-30T10:16:36.000Z</time>
      </trkpt>
      <trkpt lat="44.31676" lon="4.75565">
        <ele>229</ele>
        <time>2025-04-30T10:16:39.000Z</time>
      </trkpt>
      <trkpt lat="44.31676" lon="4.75568">
        <ele>229.6</ele>
        <time>2025-04-30T10:16:42.000Z</time>
      </trkpt>
      <trkpt lat="44.31675" lon="4.75571">
        <ele>229.9</ele>
        <time>2025-04-30T10:16:45.000Z</time>
      </trkpt>
      <trkpt lat="44.31674" lon="4.75574">
        <ele>230.4</ele>
        <time>2025-04-30T10:16:49.000Z</time>
      </trkpt>
      <trkpt lat="44.31674" lon="4.75576">
        <ele>231</ele>
        <time>2025-04-30T10:16:52.000Z</time>
      </trkpt>
      <trkpt lat="44.31674" lon="4.75581">
        <ele>231.9</ele>
        <time>2025-04-30T10:16:58.000Z</time>
      </trkpt>
      <trkpt lat="44.31675" lon="4.75583">
        <ele>232.5</ele>
        <time>2025-04-30T10:17:01.000Z</time>
      </trkpt>
      <trkpt lat="44.31677" lon="4.75585">
        <ele>232.9</ele>
        <time>2025-04-30T10:17:07.000Z</time>
      </trkpt>
      <trkpt lat="44.31677" lon="4.75588">
        <ele>233.1</ele>
        <time>2025-04-30T10:17:12.000Z</time>
      </trkpt>
      <trkpt lat="44.31677" lon="4.75591">
        <ele>233.2</ele>
        <time>2025-04-30T10:17:15.000Z</time>
      </trkpt>
      <trkpt lat="44.31676" lon="4.75594">
        <ele>233.2</ele>
        <time>2025-04-30T10:17:18.000Z</time>
      </trkpt>
      <trkpt lat="44.31676" lon="4.75597">
        <ele>233.3</ele>
        <time>2025-04-30T10:17:21.000Z</time>
      </trkpt>
      <trkpt lat="44.31676" lon="4.756">
        <ele>233.4</ele>
        <time>2025-04-30T10:17:24.000Z</time>
      </trkpt>
      <trkpt lat="44.31676" lon="4.75604">
        <ele>233.6</ele>
        <time>2025-04-30T10:17:27.000Z</time>
      </trkpt>
      <trkpt lat="44.31676" lon="4.75607">
        <ele>233.8</ele>
        <time>2025-04-30T10:17:29.000Z</time>
      </trkpt>
      <trkpt lat="44.31676" lon="4.7561">
        <ele>234</ele>
        <time>2025-04-30T10:17:31.000Z</time>
      </trkpt>
      <trkpt lat="44.31677" lon="4.75613">
        <ele>234.2</ele>
        <time>2025-04-30T10:17:34.000Z</time>
      </trkpt>
      <trkpt lat="44.31677" lon="4.75617">
        <ele>234.3</ele>
        <time>2025-04-30T10:17:37.000Z</time>
      </trkpt>
      <trkpt lat="44.31676" lon="4.75621">
        <ele>234</ele>
        <time>2025-04-30T10:17:44.000Z</time>
      </trkpt>
      <trkpt lat="44.31675" lon="4.75624">
        <ele>233.8</ele>
        <time>2025-04-30T10:17:47.000Z</time>
      </trkpt>
      <trkpt lat="44.31674" lon="4.75626">
        <ele>233.6</ele>
        <time>2025-04-30T10:17:50.000Z</time>
      </trkpt>
      <trkpt lat="44.31674" lon="4.75629">
        <ele>233.6</ele>
        <time>2025-04-30T10:17:53.000Z</time>
      </trkpt>
      <trkpt lat="44.31673" lon="4.75632">
        <ele>233.5</ele>
        <time>2025-04-30T10:17:56.000Z</time>
      </trkpt>
      <trkpt lat="44.31674" lon="4.75636">
        <ele>233.5</ele>
        <time>2025-04-30T10:18:02.000Z</time>
      </trkpt>
      <trkpt lat="44.31673" lon="4.75639">
        <ele>233.4</ele>
        <time>2025-04-30T10:18:09.000Z</time>
      </trkpt>
      <trkpt lat="44.31674" lon="4.75644">
        <ele>232.7</ele>
        <time>2025-04-30T10:18:27.000Z</time>
      </trkpt>
      <trkpt lat="44.31674" lon="4.75647">
        <ele>232.2</ele>
        <time>2025-04-30T10:18:31.000Z</time>
      </trkpt>
      <trkpt lat="44.31674" lon="4.75649">
        <ele>231.7</ele>
        <time>2025-04-30T10:18:33.000Z</time>
      </trkpt>
      <trkpt lat="44.31674" lon="4.75652">
        <ele>231.2</ele>
        <time>2025-04-30T10:18:35.000Z</time>
      </trkpt>
      <trkpt lat="44.31675" lon="4.75655">
        <ele>230.9</ele>
        <time>2025-04-30T10:18:39.000Z</time>
      </trkpt>
      <trkpt lat="44.31675" lon="4.75658">
        <ele>230.3</ele>
        <time>2025-04-30T10:18:44.000Z</time>
      </trkpt>
      <trkpt lat="44.31676" lon="4.7566">
        <ele>230.3</ele>
        <time>2025-04-30T10:18:49.000Z</time>
      </trkpt>
      <trkpt lat="44.31678" lon="4.75661">
        <ele>230.7</ele>
        <time>2025-04-30T10:18:52.000Z</time>
      </trkpt>
      <trkpt lat="44.31679" lon="4.75663">
        <ele>230.5</ele>
        <time>2025-04-30T10:18:56.000Z</time>
      </trkpt>
      <trkpt lat="44.3168" lon="4.75667">
        <ele>230.1</ele>
        <time>2025-04-30T10:19:01.000Z</time>
      </trkpt>
      <trkpt lat="44.31682" lon="4.75669">
        <ele>229.9</ele>
        <time>2025-04-30T10:19:04.000Z</time>
      </trkpt>
      <trkpt lat="44.31684" lon="4.75671">
        <ele>229.9</ele>
        <time>2025-04-30T10:19:06.000Z</time>
      </trkpt>
      <trkpt lat="44.31685" lon="4.75672">
        <ele>229.8</ele>
        <time>2025-04-30T10:19:09.000Z</time>
      </trkpt>
      <trkpt lat="44.31687" lon="4.75675">
        <ele>229.5</ele>
        <time>2025-04-30T10:19:12.000Z</time>
      </trkpt>
      <trkpt lat="44.31689" lon="4.75676">
        <ele>229.6</ele>
        <time>2025-04-30T10:19:14.000Z</time>
      </trkpt>
      <trkpt lat="44.31692" lon="4.75677">
        <ele>230.2</ele>
        <time>2025-04-30T10:19:17.000Z</time>
      </trkpt>
      <trkpt lat="44.31694" lon="4.75678">
        <ele>231</ele>
        <time>2025-04-30T10:19:19.000Z</time>
      </trkpt>
      <trkpt lat="44.31697" lon="4.75678">
        <ele>231.4</ele>
        <time>2025-04-30T10:19:22.000Z</time>
      </trkpt>
      <trkpt lat="44.31699" lon="4.75679">
        <ele>231.4</ele>
        <time>2025-04-30T10:19:25.000Z</time>
      </trkpt>
      <trkpt lat="44.31701" lon="4.7568">
        <ele>231.8</ele>
        <time>2025-04-30T10:19:27.000Z</time>
      </trkpt>
      <trkpt lat="44.31703" lon="4.75679">
        <ele>232.3</ele>
        <time>2025-04-30T10:19:29.000Z</time>
      </trkpt>
      <trkpt lat="44.31706" lon="4.75679">
        <ele>232.9</ele>
        <time>2025-04-30T10:19:31.000Z</time>
      </trkpt>
      <trkpt lat="44.31708" lon="4.75679">
        <ele>233.4</ele>
        <time>2025-04-30T10:19:33.000Z</time>
      </trkpt>
      <trkpt lat="44.31709" lon="4.75678">
        <ele>233.8</ele>
        <time>2025-04-30T10:19:35.000Z</time>
      </trkpt>
      <trkpt lat="44.31712" lon="4.75679">
        <ele>234.2</ele>
        <time>2025-04-30T10:19:37.000Z</time>
      </trkpt>
      <trkpt lat="44.31713" lon="4.75681">
        <ele>234</ele>
        <time>2025-04-30T10:19:39.000Z</time>
      </trkpt>
      <trkpt lat="44.31716" lon="4.75681">
        <ele>234.4</ele>
        <time>2025-04-30T10:19:41.000Z</time>
      </trkpt>
      <trkpt lat="44.31717" lon="4.75683">
        <ele>234.4</ele>
        <time>2025-04-30T10:19:43.000Z</time>
      </trkpt>
      <trkpt lat="44.31719" lon="4.75684">
        <ele>234.5</ele>
        <time>2025-04-30T10:19:45.000Z</time>
      </trkpt>
      <trkpt lat="44.31721" lon="4.75685">
        <ele>234.8</ele>
        <time>2025-04-30T10:19:47.000Z</time>
      </trkpt>
      <trkpt lat="44.31723" lon="4.75687">
        <ele>234.8</ele>
        <time>2025-04-30T10:19:49.000Z</time>
      </trkpt>
      <trkpt lat="44.31725" lon="4.75687">
        <ele>235.2</ele>
        <time>2025-04-30T10:19:52.000Z</time>
      </trkpt>
      <trkpt lat="44.31727" lon="4.75688">
        <ele>235.7</ele>
        <time>2025-04-30T10:19:55.000Z</time>
      </trkpt>
      <trkpt lat="44.31729" lon="4.75689">
        <ele>235.8</ele>
        <time>2025-04-30T10:19:59.000Z</time>
      </trkpt>
      <trkpt lat="44.3173" lon="4.75691">
        <ele>235.9</ele>
        <time>2025-04-30T10:20:01.000Z</time>
      </trkpt>
      <trkpt lat="44.31732" lon="4.75692">
        <ele>236.1</ele>
        <time>2025-04-30T10:20:03.000Z</time>
      </trkpt>
      <trkpt lat="44.31733" lon="4.75695">
        <ele>236</ele>
        <time>2025-04-30T10:20:06.000Z</time>
      </trkpt>
      <trkpt lat="44.31735" lon="4.75697">
        <ele>236.2</ele>
        <time>2025-04-30T10:20:08.000Z</time>
      </trkpt>
      <trkpt lat="44.31737" lon="4.75698">
        <ele>236.5</ele>
        <time>2025-04-30T10:20:11.000Z</time>
      </trkpt>
      <trkpt lat="44.31739" lon="4.75699">
        <ele>236.9</ele>
        <time>2025-04-30T10:20:14.000Z</time>
      </trkpt>
      <trkpt lat="44.31741" lon="4.75702">
        <ele>237.2</ele>
        <time>2025-04-30T10:20:18.000Z</time>
      </trkpt>
      <trkpt lat="44.31743" lon="4.75704">
        <ele>237.3</ele>
        <time>2025-04-30T10:20:26.000Z</time>
      </trkpt>
      <trkpt lat="44.31744" lon="4.75707">
        <ele>237.1</ele>
        <time>2025-04-30T10:20:29.000Z</time>
      </trkpt>
      <trkpt lat="44.31745" lon="4.7571">
        <ele>237.3</ele>
        <time>2025-04-30T10:20:31.000Z</time>
      </trkpt>
      <trkpt lat="44.31747" lon="4.75713">
        <ele>237.6</ele>
        <time>2025-04-30T10:20:34.000Z</time>
      </trkpt>
      <trkpt lat="44.31749" lon="4.75715">
        <ele>238.3</ele>
        <time>2025-04-30T10:20:37.000Z</time>
      </trkpt>
      <trkpt lat="44.31751" lon="4.75717">
        <ele>238.9</ele>
        <time>2025-04-30T10:20:41.000Z</time>
      </trkpt>
      <trkpt lat="44.31753" lon="4.75718">
        <ele>239.4</ele>
        <time>2025-04-30T10:20:44.000Z</time>
      </trkpt>
      <trkpt lat="44.31754" lon="4.75721">
        <ele>239.7</ele>
        <time>2025-04-30T10:20:47.000Z</time>
      </trkpt>
      <trkpt lat="44.31756" lon="4.75723">
        <ele>240.2</ele>
        <time>2025-04-30T10:20:52.000Z</time>
      </trkpt>
      <trkpt lat="44.31757" lon="4.75726">
        <ele>240.3</ele>
        <time>2025-04-30T10:20:55.000Z</time>
      </trkpt>
      <trkpt lat="44.31758" lon="4.75728">
        <ele>240.4</ele>
        <time>2025-04-30T10:20:57.000Z</time>
      </trkpt>
      <trkpt lat="44.31758" lon="4.75731">
        <ele>240.1</ele>
        <time>2025-04-30T10:21:01.000Z</time>
      </trkpt>
      <trkpt lat="44.3176" lon="4.75734">
        <ele>240.5</ele>
        <time>2025-04-30T10:21:05.000Z</time>
      </trkpt>
      <trkpt lat="44.31761" lon="4.75737">
        <ele>241</ele>
        <time>2025-04-30T10:21:08.000Z</time>
      </trkpt>
      <trkpt lat="44.31763" lon="4.75739">
        <ele>241.6</ele>
        <time>2025-04-30T10:21:10.000Z</time>
      </trkpt>
      <trkpt lat="44.31764" lon="4.75742">
        <ele>241.9</ele>
        <time>2025-04-30T10:21:13.000Z</time>
      </trkpt>
      <trkpt lat="44.31766" lon="4.75745">
        <ele>242.3</ele>
        <time>2025-04-30T10:21:16.000Z</time>
      </trkpt>
      <trkpt lat="44.31766" lon="4.75749">
        <ele>241.9</ele>
        <time>2025-04-30T10:21:19.000Z</time>
      </trkpt>
      <trkpt lat="44.31767" lon="4.75752">
        <ele>242.5</ele>
        <time>2025-04-30T10:21:22.000Z</time>
      </trkpt>
      <trkpt lat="44.31768" lon="4.75755">
        <ele>242.8</ele>
        <time>2025-04-30T10:21:25.000Z</time>
      </trkpt>
      <trkpt lat="44.31769" lon="4.75759">
        <ele>243</ele>
        <time>2025-04-30T10:21:31.000Z</time>
      </trkpt>
      <trkpt lat="44.31771" lon="4.75761">
        <ele>243.6</ele>
        <time>2025-04-30T10:21:33.000Z</time>
      </trkpt>
      <trkpt lat="44.31772" lon="4.75763">
        <ele>244.1</ele>
        <time>2025-04-30T10:21:36.000Z</time>
      </trkpt>
      <trkpt lat="44.31772" lon="4.75765">
        <ele>244.1</ele>
        <time>2025-04-30T10:21:39.000Z</time>
      </trkpt>
      <trkpt lat="44.31773" lon="4.75768">
        <ele>244.4</ele>
        <time>2025-04-30T10:21:42.000Z</time>
      </trkpt>
      <trkpt lat="44.31774" lon="4.7577">
        <ele>244.9</ele>
        <time>2025-04-30T10:21:46.000Z</time>
      </trkpt>
      <trkpt lat="44.31776" lon="4.75771">
        <ele>245.4</ele>
        <time>2025-04-30T10:21:48.000Z</time>
      </trkpt>
      <trkpt lat="44.31778" lon="4.75771">
        <ele>246.5</ele>
        <time>2025-04-30T10:21:50.000Z</time>
      </trkpt>
      <trkpt lat="44.31779" lon="4.75774">
        <ele>246.6</ele>
        <time>2025-04-30T10:21:52.000Z</time>
      </trkpt>
      <trkpt lat="44.31781" lon="4.75775">
        <ele>247.2</ele>
        <time>2025-04-30T10:21:55.000Z</time>
      </trkpt>
      <trkpt lat="44.31782" lon="4.75776">
        <ele>247.7</ele>
        <time>2025-04-30T10:21:57.000Z</time>
      </trkpt>
      <trkpt lat="44.31784" lon="4.75777">
        <ele>248.1</ele>
        <time>2025-04-30T10:22:00.000Z</time>
      </trkpt>
      <trkpt lat="44.31786" lon="4.75779">
        <ele>248.4</ele>
        <time>2025-04-30T10:22:02.000Z</time>
      </trkpt>
      <trkpt lat="44.31788" lon="4.75779">
        <ele>249.1</ele>
        <time>2025-04-30T10:22:05.000Z</time>
      </trkpt>
      <trkpt lat="44.3179" lon="4.75778">
        <ele>249.8</ele>
        <time>2025-04-30T10:22:08.000Z</time>
      </trkpt>
      <trkpt lat="44.31792" lon="4.7578">
        <ele>250.2</ele>
        <time>2025-04-30T10:22:10.000Z</time>
      </trkpt>
      <trkpt lat="44.31793" lon="4.75781">
        <ele>250.6</ele>
        <time>2025-04-30T10:22:12.000Z</time>
      </trkpt>
      <trkpt lat="44.31795" lon="4.75783">
        <ele>251.1</ele>
        <time>2025-04-30T10:22:15.000Z</time>
      </trkpt>
      <trkpt lat="44.31797" lon="4.75784">
        <ele>251.5</ele>
        <time>2025-04-30T10:22:18.000Z</time>
      </trkpt>
      <trkpt lat="44.318" lon="4.75786">
        <ele>252</ele>
        <time>2025-04-30T10:22:23.000Z</time>
      </trkpt>
      <trkpt lat="44.31801" lon="4.75788">
        <ele>252.2</ele>
        <time>2025-04-30T10:22:25.000Z</time>
      </trkpt>
      <trkpt lat="44.31804" lon="4.75789">
        <ele>252.8</ele>
        <time>2025-04-30T10:22:28.000Z</time>
      </trkpt>
      <trkpt lat="44.31805" lon="4.75791">
        <ele>253</ele>
        <time>2025-04-30T10:22:30.000Z</time>
      </trkpt>
      <trkpt lat="44.31807" lon="4.75793">
        <ele>253.3</ele>
        <time>2025-04-30T10:22:33.000Z</time>
      </trkpt>
      <trkpt lat="44.31809" lon="4.75795">
        <ele>253.8</ele>
        <time>2025-04-30T10:22:36.000Z</time>
      </trkpt>
      <trkpt lat="44.31811" lon="4.75795">
        <ele>254.3</ele>
        <time>2025-04-30T10:22:40.000Z</time>
      </trkpt>
      <trkpt lat="44.31812" lon="4.75798">
        <ele>254.4</ele>
        <time>2025-04-30T10:22:43.000Z</time>
      </trkpt>
      <trkpt lat="44.31814" lon="4.75799">
        <ele>254.7</ele>
        <time>2025-04-30T10:22:45.000Z</time>
      </trkpt>
      <trkpt lat="44.31816" lon="4.75801">
        <ele>255.1</ele>
        <time>2025-04-30T10:22:49.000Z</time>
      </trkpt>
      <trkpt lat="44.31817" lon="4.75803">
        <ele>255.2</ele>
        <time>2025-04-30T10:22:53.000Z</time>
      </trkpt>
      <trkpt lat="44.3182" lon="4.75803">
        <ele>255.9</ele>
        <time>2025-04-30T10:22:56.000Z</time>
      </trkpt>
      <trkpt lat="44.31821" lon="4.75805">
        <ele>256</ele>
        <time>2025-04-30T10:23:01.000Z</time>
      </trkpt>
      <trkpt lat="44.31822" lon="4.75808">
        <ele>255.9</ele>
        <time>2025-04-30T10:23:05.000Z</time>
      </trkpt>
      <trkpt lat="44.31823" lon="4.7581">
        <ele>255.9</ele>
        <time>2025-04-30T10:23:07.000Z</time>
      </trkpt>
      <trkpt lat="44.31825" lon="4.75812">
        <ele>256.1</ele>
        <time>2025-04-30T10:23:09.000Z</time>
      </trkpt>
      <trkpt lat="44.31826" lon="4.75814">
        <ele>256.1</ele>
        <time>2025-04-30T10:23:11.000Z</time>
      </trkpt>
      <trkpt lat="44.31829" lon="4.75816">
        <ele>256.4</ele>
        <time>2025-04-30T10:23:18.000Z</time>
      </trkpt>
      <trkpt lat="44.31831" lon="4.75817">
        <ele>256.7</ele>
        <time>2025-04-30T10:23:22.000Z</time>
      </trkpt>
      <trkpt lat="44.31833" lon="4.75818">
        <ele>257.2</ele>
        <time>2025-04-30T10:23:24.000Z</time>
      </trkpt>
      <trkpt lat="44.31835" lon="4.75819">
        <ele>257.4</ele>
        <time>2025-04-30T10:23:26.000Z</time>
      </trkpt>
      <trkpt lat="44.31837" lon="4.75821">
        <ele>257.5</ele>
        <time>2025-04-30T10:23:30.000Z</time>
      </trkpt>
      <trkpt lat="44.31839" lon="4.75824">
        <ele>257.4</ele>
        <time>2025-04-30T10:23:33.000Z</time>
      </trkpt>
      <trkpt lat="44.31841" lon="4.75826">
        <ele>257.3</ele>
        <time>2025-04-30T10:23:36.000Z</time>
      </trkpt>
      <trkpt lat="44.31843" lon="4.75827">
        <ele>257.5</ele>
        <time>2025-04-30T10:23:38.000Z</time>
      </trkpt>
      <trkpt lat="44.31845" lon="4.75828">
        <ele>257.7</ele>
        <time>2025-04-30T10:23:40.000Z</time>
      </trkpt>
      <trkpt lat="44.31847" lon="4.75829">
        <ele>258</ele>
        <time>2025-04-30T10:23:42.000Z</time>
      </trkpt>
      <trkpt lat="44.3185" lon="4.7583">
        <ele>258.5</ele>
        <time>2025-04-30T10:23:46.000Z</time>
      </trkpt>
      <trkpt lat="44.31852" lon="4.75829">
        <ele>259</ele>
        <time>2025-04-30T10:23:49.000Z</time>
      </trkpt>
      <trkpt lat="44.31854" lon="4.75829">
        <ele>259.5</ele>
        <time>2025-04-30T10:23:51.000Z</time>
      </trkpt>
      <trkpt lat="44.31856" lon="4.75829">
        <ele>260</ele>
        <time>2025-04-30T10:23:53.000Z</time>
      </trkpt>
      <trkpt lat="44.31859" lon="4.75831">
        <ele>260.1</ele>
        <time>2025-04-30T10:23:58.000Z</time>
      </trkpt>
      <trkpt lat="44.31862" lon="4.75831">
        <ele>260.6</ele>
        <time>2025-04-30T10:24:00.000Z</time>
      </trkpt>
      <trkpt lat="44.31865" lon="4.75831">
        <ele>261</ele>
        <time>2025-04-30T10:24:03.000Z</time>
      </trkpt>
      <trkpt lat="44.31867" lon="4.75832">
        <ele>261</ele>
        <time>2025-04-30T10:24:06.000Z</time>
      </trkpt>
      <trkpt lat="44.31869" lon="4.75831">
        <ele>261.4</ele>
        <time>2025-04-30T10:24:09.000Z</time>
      </trkpt>
      <trkpt lat="44.31871" lon="4.75832">
        <ele>261.5</ele>
        <time>2025-04-30T10:24:13.000Z</time>
      </trkpt>
      <trkpt lat="44.31873" lon="4.75832">
        <ele>261.6</ele>
        <time>2025-04-30T10:24:16.000Z</time>
      </trkpt>
      <trkpt lat="44.31875" lon="4.75832">
        <ele>261.9</ele>
        <time>2025-04-30T10:24:18.000Z</time>
      </trkpt>
      <trkpt lat="44.31877" lon="4.75831">
        <ele>262.2</ele>
        <time>2025-04-30T10:24:20.000Z</time>
      </trkpt>
      <trkpt lat="44.31879" lon="4.75832">
        <ele>262.2</ele>
        <time>2025-04-30T10:24:23.000Z</time>
      </trkpt>
      <trkpt lat="44.31882" lon="4.75833">
        <ele>262.3</ele>
        <time>2025-04-30T10:24:26.000Z</time>
      </trkpt>
      <trkpt lat="44.31885" lon="4.75831">
        <ele>263.1</ele>
        <time>2025-04-30T10:24:33.000Z</time>
      </trkpt>
      <trkpt lat="44.31887" lon="4.75831">
        <ele>263.5</ele>
        <time>2025-04-30T10:24:36.000Z</time>
      </trkpt>
      <trkpt lat="44.3189" lon="4.75832">
        <ele>263.3</ele>
        <time>2025-04-30T10:24:43.000Z</time>
      </trkpt>
      <trkpt lat="44.31892" lon="4.75832">
        <ele>263.2</ele>
        <time>2025-04-30T10:24:45.000Z</time>
      </trkpt>
      <trkpt lat="44.31894" lon="4.7583">
        <ele>263.5</ele>
        <time>2025-04-30T10:24:49.000Z</time>
      </trkpt>
      <trkpt lat="44.31897" lon="4.7583">
        <ele>263.6</ele>
        <time>2025-04-30T10:24:52.000Z</time>
      </trkpt>
      <trkpt lat="44.31899" lon="4.75829">
        <ele>263.5</ele>
        <time>2025-04-30T10:24:54.000Z</time>
      </trkpt>
      <trkpt lat="44.31902" lon="4.75829">
        <ele>263.3</ele>
        <time>2025-04-30T10:24:56.000Z</time>
      </trkpt>
      <trkpt lat="44.31904" lon="4.75831">
        <ele>262.9</ele>
        <time>2025-04-30T10:24:58.000Z</time>
      </trkpt>
      <trkpt lat="44.31906" lon="4.75831">
        <ele>262.8</ele>
        <time>2025-04-30T10:25:01.000Z</time>
      </trkpt>
      <trkpt lat="44.31908" lon="4.75832">
        <ele>262.6</ele>
        <time>2025-04-30T10:25:04.000Z</time>
      </trkpt>
      <trkpt lat="44.31911" lon="4.75832">
        <ele>262.4</ele>
        <time>2025-04-30T10:25:07.000Z</time>
      </trkpt>
      <trkpt lat="44.31914" lon="4.75833">
        <ele>262.2</ele>
        <time>2025-04-30T10:25:09.000Z</time>
      </trkpt>
      <trkpt lat="44.31916" lon="4.75832">
        <ele>262.3</ele>
        <time>2025-04-30T10:25:11.000Z</time>
      </trkpt>
      <trkpt lat="44.31918" lon="4.75833">
        <ele>262</ele>
        <time>2025-04-30T10:25:14.000Z</time>
      </trkpt>
      <trkpt lat="44.31921" lon="4.75833">
        <ele>261.7</ele>
        <time>2025-04-30T10:25:16.000Z</time>
      </trkpt>
      <trkpt lat="44.31923" lon="4.75833">
        <ele>261.6</ele>
        <time>2025-04-30T10:25:18.000Z</time>
      </trkpt>
      <trkpt lat="44.31925" lon="4.75833">
        <ele>261.4</ele>
        <time>2025-04-30T10:25:21.000Z</time>
      </trkpt>
      <trkpt lat="44.31928" lon="4.75834">
        <ele>261.1</ele>
        <time>2025-04-30T10:25:25.000Z</time>
      </trkpt>
      <trkpt lat="44.3193" lon="4.75834">
        <ele>260.9</ele>
        <time>2025-04-30T10:25:27.000Z</time>
      </trkpt>
      <trkpt lat="44.31933" lon="4.75834">
        <ele>260.8</ele>
        <time>2025-04-30T10:25:29.000Z</time>
      </trkpt>
      <trkpt lat="44.31935" lon="4.75833">
        <ele>260.7</ele>
        <time>2025-04-30T10:25:31.000Z</time>
      </trkpt>
      <trkpt lat="44.31937" lon="4.75832">
        <ele>260.6</ele>
        <time>2025-04-30T10:25:33.000Z</time>
      </trkpt>
      <trkpt lat="44.31939" lon="4.75832">
        <ele>260.4</ele>
        <time>2025-04-30T10:25:35.000Z</time>
      </trkpt>
      <trkpt lat="44.31941" lon="4.75832">
        <ele>260.3</ele>
        <time>2025-04-30T10:25:37.000Z</time>
      </trkpt>
      <trkpt lat="44.31943" lon="4.75832">
        <ele>260.1</ele>
        <time>2025-04-30T10:25:39.000Z</time>
      </trkpt>
      <trkpt lat="44.31946" lon="4.75831">
        <ele>260</ele>
        <time>2025-04-30T10:25:44.000Z</time>
      </trkpt>
      <trkpt lat="44.31948" lon="4.75829">
        <ele>259.8</ele>
        <time>2025-04-30T10:25:47.000Z</time>
      </trkpt>
      <trkpt lat="44.31951" lon="4.75829">
        <ele>259.7</ele>
        <time>2025-04-30T10:25:50.000Z</time>
      </trkpt>
      <trkpt lat="44.31952" lon="4.75828">
        <ele>259.5</ele>
        <time>2025-04-30T10:25:53.000Z</time>
      </trkpt>
      <trkpt lat="44.31954" lon="4.75829">
        <ele>259.3</ele>
        <time>2025-04-30T10:25:57.000Z</time>
      </trkpt>
      <trkpt lat="44.31956" lon="4.75829">
        <ele>259.2</ele>
        <time>2025-04-30T10:25:59.000Z</time>
      </trkpt>
      <trkpt lat="44.31959" lon="4.75828">
        <ele>258.9</ele>
        <time>2025-04-30T10:26:11.000Z</time>
      </trkpt>
      <trkpt lat="44.31959" lon="4.75824">
        <ele>258.9</ele>
        <time>2025-04-30T10:26:17.000Z</time>
      </trkpt>
      <trkpt lat="44.3196" lon="4.75821">
        <ele>258.8</ele>
        <time>2025-04-30T10:26:20.000Z</time>
      </trkpt>
      <trkpt lat="44.31961" lon="4.75818">
        <ele>258.7</ele>
        <time>2025-04-30T10:26:25.000Z</time>
      </trkpt>
      <trkpt lat="44.31962" lon="4.75815">
        <ele>258.6</ele>
        <time>2025-04-30T10:26:31.000Z</time>
      </trkpt>
      <trkpt lat="44.31963" lon="4.75809">
        <ele>258.4</ele>
        <time>2025-04-30T10:26:45.000Z</time>
      </trkpt>
      <trkpt lat="44.31962" lon="4.75806">
        <ele>258.5</ele>
        <time>2025-04-30T10:26:48.000Z</time>
      </trkpt>
      <trkpt lat="44.31962" lon="4.75802">
        <ele>258.3</ele>
        <time>2025-04-30T10:26:53.000Z</time>
      </trkpt>
      <trkpt lat="44.31961" lon="4.75804">
        <ele>258.6</ele>
        <time>2025-04-30T10:27:43.000Z</time>
      </trkpt>
      <trkpt lat="44.31963" lon="4.75799">
        <ele>258</ele>
        <time>2025-04-30T10:28:26.000Z</time>
      </trkpt>
      <trkpt lat="44.31965" lon="4.75801">
        <ele>257.7</ele>
        <time>2025-04-30T10:28:41.000Z</time>
      </trkpt>
      <trkpt lat="44.31964" lon="4.75797">
        <ele>257.6</ele>
        <time>2025-04-30T10:28:47.000Z</time>
      </trkpt>
      <trkpt lat="44.31963" lon="4.75796">
        <ele>257.8</ele>
        <time>2025-04-30T10:28:54.000Z</time>
      </trkpt>
      <trkpt lat="44.31963" lon="4.75799">
        <ele>257.9</ele>
        <time>2025-04-30T10:28:57.000Z</time>
      </trkpt>
      <trkpt lat="44.31962" lon="4.75801">
        <ele>258.2</ele>
        <time>2025-04-30T10:30:43.000Z</time>
      </trkpt>
      <trkpt lat="44.3196" lon="4.75803">
        <ele>258.6</ele>
        <time>2025-04-30T10:31:23.000Z</time>
      </trkpt>
      <trkpt lat="44.31961" lon="4.75806">
        <ele>258.6</ele>
        <time>2025-04-30T10:31:57.000Z</time>
      </trkpt>
      <trkpt lat="44.31962" lon="4.75809">
        <ele>258.5</ele>
        <time>2025-04-30T10:32:05.000Z</time>
      </trkpt>
      <trkpt lat="44.3196" lon="4.7581">
        <ele>258.8</ele>
        <time>2025-04-30T10:32:07.000Z</time>
      </trkpt>
      <trkpt lat="44.31961" lon="4.75806">
        <ele>258.7</ele>
        <time>2025-04-30T10:32:09.000Z</time>
      </trkpt>
      <trkpt lat="44.31963" lon="4.75803">
        <ele>258.2</ele>
        <time>2025-04-30T10:32:50.000Z</time>
      </trkpt>
      <trkpt lat="44.31961" lon="4.75799">
        <ele>258.2</ele>
        <time>2025-04-30T10:32:59.000Z</time>
      </trkpt>
      <trkpt lat="44.3196" lon="4.75802">
        <ele>258.5</ele>
        <time>2025-04-30T10:33:00.000Z</time>
      </trkpt>
      <trkpt lat="44.31958" lon="4.75814">
        <ele>259</ele>
        <time>2025-04-30T10:33:02.000Z</time>
      </trkpt>
      <trkpt lat="44.31956" lon="4.75823">
        <ele>259.2</ele>
        <time>2025-04-30T10:33:03.000Z</time>
      </trkpt>
      <trkpt lat="44.31955" lon="4.7583">
        <ele>259.3</ele>
        <time>2025-04-30T10:33:04.000Z</time>
      </trkpt>
      <trkpt lat="44.31956" lon="4.75828">
        <ele>259.2</ele>
        <time>2025-04-30T10:33:08.000Z</time>
      </trkpt>
      <trkpt lat="44.31954" lon="4.75826">
        <ele>259.4</ele>
        <time>2025-04-30T10:33:09.000Z</time>
      </trkpt>
      <trkpt lat="44.31955" lon="4.75822">
        <ele>259.3</ele>
        <time>2025-04-30T10:33:10.000Z</time>
      </trkpt>
      <trkpt lat="44.31956" lon="4.75813">
        <ele>259.3</ele>
        <time>2025-04-30T10:33:11.000Z</time>
      </trkpt>
      <trkpt lat="44.31955" lon="4.75808">
        <ele>259.4</ele>
        <time>2025-04-30T10:33:23.000Z</time>
      </trkpt>
      <trkpt lat="44.31958" lon="4.75806">
        <ele>259</ele>
        <time>2025-04-30T10:33:39.000Z</time>
      </trkpt>
      <trkpt lat="44.3196" lon="4.75803">
        <ele>258.6</ele>
        <time>2025-04-30T10:33:41.000Z</time>
      </trkpt>
      <trkpt lat="44.31962" lon="4.75801">
        <ele>258.3</ele>
        <time>2025-04-30T10:33:42.000Z</time>
      </trkpt>
      <trkpt lat="44.31962" lon="4.75804">
        <ele>258.3</ele>
        <time>2025-04-30T10:33:51.000Z</time>
      </trkpt>
      <trkpt lat="44.31962" lon="4.75801">
        <ele>258.2</ele>
        <time>2025-04-30T10:34:18.000Z</time>
      </trkpt>
      <trkpt lat="44.31965" lon="4.75799">
        <ele>257.6</ele>
        <time>2025-04-30T10:35:07.000Z</time>
      </trkpt>
      <trkpt lat="44.31964" lon="4.75796">
        <ele>257.6</ele>
        <time>2025-04-30T10:35:10.000Z</time>
      </trkpt>
      <trkpt lat="44.31967" lon="4.75796">
        <ele>257.2</ele>
        <time>2025-04-30T10:35:17.000Z</time>
      </trkpt>
      <trkpt lat="44.31969" lon="4.75796">
        <ele>256.8</ele>
        <time>2025-04-30T10:35:20.000Z</time>
      </trkpt>
      <trkpt lat="44.31971" lon="4.75796">
        <ele>256.5</ele>
        <time>2025-04-30T10:35:25.000Z</time>
      </trkpt>
      <trkpt lat="44.31973" lon="4.75794">
        <ele>256.2</ele>
        <time>2025-04-30T10:35:35.000Z</time>
      </trkpt>
      <trkpt lat="44.31972" lon="4.75791">
        <ele>255.9</ele>
        <time>2025-04-30T10:35:38.000Z</time>
      </trkpt>
      <trkpt lat="44.31971" lon="4.75791">
        <ele>256.2</ele>
        <time>2025-04-30T10:35:41.000Z</time>
      </trkpt>
      <trkpt lat="44.31969" lon="4.75788">
        <ele>256.3</ele>
        <time>2025-04-30T10:36:04.000Z</time>
      </trkpt>
      <trkpt lat="44.31968" lon="4.75792">
        <ele>256.7</ele>
        <time>2025-04-30T10:36:37.000Z</time>
      </trkpt>
      <trkpt lat="44.31966" lon="4.75794">
        <ele>257.2</ele>
        <time>2025-04-30T10:36:38.000Z</time>
      </trkpt>
      <trkpt lat="44.31963" lon="4.75794">
        <ele>257.6</ele>
        <time>2025-04-30T10:36:40.000Z</time>
      </trkpt>
      <trkpt lat="44.31961" lon="4.75793">
        <ele>257.9</ele>
        <time>2025-04-30T10:36:48.000Z</time>
      </trkpt>
      <trkpt lat="44.31962" lon="4.75795">
        <ele>257.8</ele>
        <time>2025-04-30T10:36:53.000Z</time>
      </trkpt>
      <trkpt lat="44.31961" lon="4.75796">
        <ele>258.2</ele>
        <time>2025-04-30T10:37:52.000Z</time>
      </trkpt>
      <trkpt lat="44.31962" lon="4.75799">
        <ele>258.1</ele>
        <time>2025-04-30T10:39:13.000Z</time>
      </trkpt>
      <trkpt lat="44.31963" lon="4.75796">
        <ele>257.8</ele>
        <time>2025-04-30T10:40:17.000Z</time>
      </trkpt>
      <trkpt lat="44.31964" lon="4.75798">
        <ele>257.8</ele>
        <time>2025-04-30T10:41:04.000Z</time>
      </trkpt>
      <trkpt lat="44.31964" lon="4.75802">
        <ele>258</ele>
        <time>2025-04-30T10:41:06.000Z</time>
      </trkpt>
      <trkpt lat="44.31965" lon="4.75807">
        <ele>258.1</ele>
        <time>2025-04-30T10:41:08.000Z</time>
      </trkpt>
      <trkpt lat="44.31965" lon="4.7581">
        <ele>258.1</ele>
        <time>2025-04-30T10:41:09.000Z</time>
      </trkpt>
      <trkpt lat="44.31965" lon="4.75813">
        <ele>258.2</ele>
        <time>2025-04-30T10:41:11.000Z</time>
      </trkpt>
      <trkpt lat="44.31965" lon="4.75816">
        <ele>258.3</ele>
        <time>2025-04-30T10:41:14.000Z</time>
      </trkpt>
      <trkpt lat="44.31967" lon="4.75818">
        <ele>258</ele>
        <time>2025-04-30T10:41:43.000Z</time>
      </trkpt>
      <trkpt lat="44.31966" lon="4.75815">
        <ele>258</ele>
        <time>2025-04-30T10:42:01.000Z</time>
      </trkpt>
      <trkpt lat="44.31967" lon="4.75811">
        <ele>257.9</ele>
        <time>2025-04-30T10:42:19.000Z</time>
      </trkpt>
      <trkpt lat="44.31965" lon="4.75808">
        <ele>258</ele>
        <time>2025-04-30T10:42:21.000Z</time>
      </trkpt>
      <trkpt lat="44.31966" lon="4.75811">
        <ele>258</ele>
        <time>2025-04-30T10:42:23.000Z</time>
      </trkpt>
      <trkpt lat="44.31965" lon="4.75808">
        <ele>258.1</ele>
        <time>2025-04-30T10:42:43.000Z</time>
      </trkpt>
      <trkpt lat="44.31967" lon="4.75811">
        <ele>257.9</ele>
        <time>2025-04-30T10:43:03.000Z</time>
      </trkpt>
      <trkpt lat="44.31971" lon="4.75812">
        <ele>257.4</ele>
        <time>2025-04-30T10:43:05.000Z</time>
      </trkpt>
      <trkpt lat="44.31973" lon="4.75811">
        <ele>257.2</ele>
        <time>2025-04-30T10:43:06.000Z</time>
      </trkpt>
      <trkpt lat="44.31975" lon="4.7581">
        <ele>257.1</ele>
        <time>2025-04-30T10:43:08.000Z</time>
      </trkpt>
      <trkpt lat="44.31973" lon="4.75808">
        <ele>257.1</ele>
        <time>2025-04-30T10:43:10.000Z</time>
      </trkpt>
      <trkpt lat="44.31972" lon="4.75806">
        <ele>257.1</ele>
        <time>2025-04-30T10:43:14.000Z</time>
      </trkpt>
      <trkpt lat="44.31972" lon="4.75802">
        <ele>256.8</ele>
        <time>2025-04-30T10:43:16.000Z</time>
      </trkpt>
      <trkpt lat="44.3197" lon="4.75799">
        <ele>256.8</ele>
        <time>2025-04-30T10:44:15.000Z</time>
      </trkpt>
      <trkpt lat="44.31967" lon="4.75797">
        <ele>257.2</ele>
        <time>2025-04-30T10:45:50.000Z</time>
      </trkpt>
      <trkpt lat="44.31966" lon="4.75795">
        <ele>257.3</ele>
        <time>2025-04-30T10:47:27.000Z</time>
      </trkpt>
      <trkpt lat="44.31968" lon="4.75793">
        <ele>256.8</ele>
        <time>2025-04-30T10:49:03.000Z</time>
      </trkpt>
      <trkpt lat="44.31966" lon="4.75793">
        <ele>257.2</ele>
        <time>2025-04-30T10:49:19.000Z</time>
      </trkpt>
      <trkpt lat="44.31964" lon="4.75794">
        <ele>257.5</ele>
        <time>2025-04-30T10:49:26.000Z</time>
      </trkpt>
      <trkpt lat="44.31963" lon="4.75796">
        <ele>257.9</ele>
        <time>2025-04-30T10:49:36.000Z</time>
      </trkpt>
      <trkpt lat="44.31962" lon="4.75799">
        <ele>258.1</ele>
        <time>2025-04-30T10:49:38.000Z</time>
      </trkpt>
      <trkpt lat="44.31961" lon="4.75801">
        <ele>258.4</ele>
        <time>2025-04-30T10:50:08.000Z</time>
      </trkpt>
      <trkpt lat="44.31959" lon="4.75799">
        <ele>258.5</ele>
        <time>2025-04-30T10:50:18.000Z</time>
      </trkpt>
      <trkpt lat="44.31957" lon="4.758">
        <ele>258.9</ele>
        <time>2025-04-30T10:50:19.000Z</time>
      </trkpt>
      <trkpt lat="44.31957" lon="4.75802">
        <ele>259.1</ele>
        <time>2025-04-30T10:50:27.000Z</time>
      </trkpt>
      <trkpt lat="44.31955" lon="4.758">
        <ele>259.2</ele>
        <time>2025-04-30T10:50:46.000Z</time>
      </trkpt>
      <trkpt lat="44.31954" lon="4.75798">
        <ele>259.2</ele>
        <time>2025-04-30T10:50:53.000Z</time>
      </trkpt>
      <trkpt lat="44.31957" lon="4.75797">
        <ele>258.7</ele>
        <time>2025-04-30T10:51:08.000Z</time>
      </trkpt>
      <trkpt lat="44.31959" lon="4.75798">
        <ele>258.5</ele>
        <time>2025-04-30T10:51:11.000Z</time>
      </trkpt>
      <trkpt lat="44.31959" lon="4.758">
        <ele>258.7</ele>
        <time>2025-04-30T10:51:32.000Z</time>
      </trkpt>
      <trkpt lat="44.31956" lon="4.758">
        <ele>259</ele>
        <time>2025-04-30T10:51:41.000Z</time>
      </trkpt>
      <trkpt lat="44.31958" lon="4.75799">
        <ele>258.7</ele>
        <time>2025-04-30T10:51:59.000Z</time>
      </trkpt>
      <trkpt lat="44.3196" lon="4.75798">
        <ele>258.4</ele>
        <time>2025-04-30T10:53:27.000Z</time>
      </trkpt>
      <trkpt lat="44.31962" lon="4.75799">
        <ele>258.1</ele>
        <time>2025-04-30T10:54:49.000Z</time>
      </trkpt>
      <trkpt lat="44.31964" lon="4.75799">
        <ele>257.8</ele>
        <time>2025-04-30T10:55:17.000Z</time>
      </trkpt>
      <trkpt lat="44.31965" lon="4.75796">
        <ele>257.4</ele>
        <time>2025-04-30T10:55:57.000Z</time>
      </trkpt>
      <trkpt lat="44.31967" lon="4.75794">
        <ele>257</ele>
        <time>2025-04-30T10:56:59.000Z</time>
      </trkpt>
      <trkpt lat="44.31965" lon="4.75793">
        <ele>257.3</ele>
        <time>2025-04-30T10:57:30.000Z</time>
      </trkpt>
      <trkpt lat="44.31963" lon="4.75795">
        <ele>257.7</ele>
        <time>2025-04-30T10:58:54.000Z</time>
      </trkpt>
      <trkpt lat="44.31965" lon="4.75796">
        <ele>257.5</ele>
        <time>2025-04-30T10:59:53.000Z</time>
      </trkpt>
      <trkpt lat="44.31965" lon="4.75799">
        <ele>257.7</ele>
        <time>2025-04-30T10:59:55.000Z</time>
      </trkpt>
      <trkpt lat="44.31965" lon="4.75806">
        <ele>258</ele>
        <time>2025-04-30T10:59:57.000Z</time>
      </trkpt>
      <trkpt lat="44.31966" lon="4.75811">
        <ele>258</ele>
        <time>2025-04-30T10:59:58.000Z</time>
      </trkpt>
      <trkpt lat="44.31966" lon="4.75808">
        <ele>258</ele>
        <time>2025-04-30T11:00:03.000Z</time>
      </trkpt>
      <trkpt lat="44.31966" lon="4.75806">
        <ele>257.9</ele>
        <time>2025-04-30T11:00:05.000Z</time>
      </trkpt>
      <trkpt lat="44.31965" lon="4.75803">
        <ele>257.8</ele>
        <time>2025-04-30T11:00:43.000Z</time>
      </trkpt>
      <trkpt lat="44.31964" lon="4.75799">
        <ele>257.7</ele>
        <time>2025-04-30T11:00:45.000Z</time>
      </trkpt>
      <trkpt lat="44.31964" lon="4.75796">
        <ele>257.7</ele>
        <time>2025-04-30T11:01:09.000Z</time>
      </trkpt>
      <trkpt lat="44.31962" lon="4.75796">
        <ele>258</ele>
        <time>2025-04-30T11:01:47.000Z</time>
      </trkpt>
      <trkpt lat="44.31962" lon="4.75793">
        <ele>257.8</ele>
        <time>2025-04-30T11:01:49.000Z</time>
      </trkpt>
      <trkpt lat="44.31965" lon="4.75792">
        <ele>257.1</ele>
        <time>2025-04-30T11:01:51.000Z</time>
      </trkpt>
      <trkpt lat="44.31967" lon="4.75793">
        <ele>256.9</ele>
        <time>2025-04-30T11:01:53.000Z</time>
      </trkpt>
      <trkpt lat="44.31969" lon="4.75795">
        <ele>256.8</ele>
        <time>2025-04-30T11:01:56.000Z</time>
      </trkpt>
      <trkpt lat="44.31967" lon="4.75797">
        <ele>257.2</ele>
        <time>2025-04-30T11:01:59.000Z</time>
      </trkpt>
      <trkpt lat="44.31966" lon="4.75799">
        <ele>257.5</ele>
        <time>2025-04-30T11:04:22.000Z</time>
      </trkpt>
      <trkpt lat="44.31963" lon="4.75799">
        <ele>258</ele>
        <time>2025-04-30T11:04:26.000Z</time>
      </trkpt>
      <trkpt lat="44.31965" lon="4.75798">
        <ele>257.6</ele>
        <time>2025-04-30T11:04:51.000Z</time>
      </trkpt>
      <trkpt lat="44.31963" lon="4.75796">
        <ele>257.8</ele>
        <time>2025-04-30T11:04:56.000Z</time>
      </trkpt>
      <trkpt lat="44.31963" lon="4.75801">
        <ele>258.1</ele>
        <time>2025-04-30T11:05:11.000Z</time>
      </trkpt>
      <trkpt lat="44.31964" lon="4.75798">
        <ele>257.7</ele>
        <time>2025-04-30T11:07:16.000Z</time>
      </trkpt>
      <trkpt lat="44.31963" lon="4.758">
        <ele>258</ele>
        <time>2025-04-30T11:07:20.000Z</time>
      </trkpt>
      <trkpt lat="44.31961" lon="4.75799">
        <ele>258.3</ele>
        <time>2025-04-30T11:08:06.000Z</time>
      </trkpt>
      <trkpt lat="44.31961" lon="4.75796">
        <ele>258.1</ele>
        <time>2025-04-30T11:08:08.000Z</time>
      </trkpt>
      <trkpt lat="44.3196" lon="4.75799">
        <ele>258.5</ele>
        <time>2025-04-30T11:08:14.000Z</time>
      </trkpt>
      <trkpt lat="44.31958" lon="4.75805">
        <ele>259</ele>
        <time>2025-04-30T11:08:15.000Z</time>
      </trkpt>
      <trkpt lat="44.31956" lon="4.75802">
        <ele>259.1</ele>
        <time>2025-04-30T11:08:16.000Z</time>
      </trkpt>
      <trkpt lat="44.31954" lon="4.758">
        <ele>259.4</ele>
        <time>2025-04-30T11:08:17.000Z</time>
      </trkpt>
      <trkpt lat="44.31956" lon="4.75799">
        <ele>259</ele>
        <time>2025-04-30T11:11:18.000Z</time>
      </trkpt>
      <trkpt lat="44.31955" lon="4.75803">
        <ele>259.3</ele>
        <time>2025-04-30T11:11:42.000Z</time>
      </trkpt>
      <trkpt lat="44.31957" lon="4.75804">
        <ele>259.1</ele>
        <time>2025-04-30T11:12:44.000Z</time>
      </trkpt>
      <trkpt lat="44.31959" lon="4.75804">
        <ele>258.8</ele>
        <time>2025-04-30T11:13:11.000Z</time>
      </trkpt>
      <trkpt lat="44.3196" lon="4.75802">
        <ele>258.6</ele>
        <time>2025-04-30T11:14:56.000Z</time>
      </trkpt>
      <trkpt lat="44.31962" lon="4.75803">
        <ele>258.4</ele>
        <time>2025-04-30T11:16:42.000Z</time>
      </trkpt>
      <trkpt lat="44.31963" lon="4.75806">
        <ele>258.4</ele>
        <time>2025-04-30T11:16:49.000Z</time>
      </trkpt>
      <trkpt lat="44.31961" lon="4.75807">
        <ele>258.6</ele>
        <time>2025-04-30T11:17:20.000Z</time>
      </trkpt>
      <trkpt lat="44.31961" lon="4.75811">
        <ele>258.7</ele>
        <time>2025-04-30T11:17:22.000Z</time>
      </trkpt>
      <trkpt lat="44.3196" lon="4.75814">
        <ele>258.7</ele>
        <time>2025-04-30T11:17:25.000Z</time>
      </trkpt>
      <trkpt lat="44.31961" lon="4.75817">
        <ele>258.7</ele>
        <time>2025-04-30T11:17:27.000Z</time>
      </trkpt>
      <trkpt lat="44.3196" lon="4.75819">
        <ele>258.8</ele>
        <time>2025-04-30T11:17:30.000Z</time>
      </trkpt>
      <trkpt lat="44.31962" lon="4.75822">
        <ele>258.6</ele>
        <time>2025-04-30T11:17:35.000Z</time>
      </trkpt>
      <trkpt lat="44.31965" lon="4.75823">
        <ele>258.3</ele>
        <time>2025-04-30T11:17:55.000Z</time>
      </trkpt>
      <trkpt lat="44.31969" lon="4.75824">
        <ele>257.9</ele>
        <time>2025-04-30T11:17:57.000Z</time>
      </trkpt>
      <trkpt lat="44.31972" lon="4.75825">
        <ele>257.7</ele>
        <time>2025-04-30T11:17:58.000Z</time>
      </trkpt>
      <trkpt lat="44.31974" lon="4.75825">
        <ele>257.7</ele>
        <time>2025-04-30T11:17:59.000Z</time>
      </trkpt>
      <trkpt lat="44.31976" lon="4.75826">
        <ele>257.8</ele>
        <time>2025-04-30T11:18:00.000Z</time>
      </trkpt>
      <trkpt lat="44.31978" lon="4.75827">
        <ele>257.9</ele>
        <time>2025-04-30T11:18:03.000Z</time>
      </trkpt>
      <trkpt lat="44.31981" lon="4.75827">
        <ele>258</ele>
        <time>2025-04-30T11:18:05.000Z</time>
      </trkpt>
      <trkpt lat="44.31985" lon="4.75828">
        <ele>258.1</ele>
        <time>2025-04-30T11:18:09.000Z</time>
      </trkpt>
      <trkpt lat="44.31987" lon="4.75828">
        <ele>258.1</ele>
        <time>2025-04-30T11:18:10.000Z</time>
      </trkpt>
      <trkpt lat="44.3199" lon="4.75829">
        <ele>258.3</ele>
        <time>2025-04-30T11:18:12.000Z</time>
      </trkpt>
      <trkpt lat="44.31992" lon="4.7583">
        <ele>258.4</ele>
        <time>2025-04-30T11:18:13.000Z</time>
      </trkpt>
      <trkpt lat="44.31994" lon="4.75831">
        <ele>258.5</ele>
        <time>2025-04-30T11:18:14.000Z</time>
      </trkpt>
      <trkpt lat="44.31997" lon="4.75831">
        <ele>258.6</ele>
        <time>2025-04-30T11:18:16.000Z</time>
      </trkpt>
      <trkpt lat="44.32" lon="4.75832">
        <ele>258.8</ele>
        <time>2025-04-30T11:18:18.000Z</time>
      </trkpt>
      <trkpt lat="44.32002" lon="4.75831">
        <ele>258.9</ele>
        <time>2025-04-30T11:18:21.000Z</time>
      </trkpt>
      <trkpt lat="44.32004" lon="4.75833">
        <ele>259.2</ele>
        <time>2025-04-30T11:18:23.000Z</time>
      </trkpt>
      <trkpt lat="44.32012" lon="4.75833">
        <ele>259.8</ele>
        <time>2025-04-30T11:18:39.000Z</time>
      </trkpt>
      <trkpt lat="44.32017" lon="4.75832">
        <ele>260</ele>
        <time>2025-04-30T11:18:42.000Z</time>
      </trkpt>
      <trkpt lat="44.32021" lon="4.75831">
        <ele>260.2</ele>
        <time>2025-04-30T11:18:45.000Z</time>
      </trkpt>
      <trkpt lat="44.32024" lon="4.7583">
        <ele>260.3</ele>
        <time>2025-04-30T11:18:47.000Z</time>
      </trkpt>
      <trkpt lat="44.3203" lon="4.75832">
        <ele>261</ele>
        <time>2025-04-30T11:18:51.000Z</time>
      </trkpt>
      <trkpt lat="44.32033" lon="4.75831">
        <ele>261.2</ele>
        <time>2025-04-30T11:18:53.000Z</time>
      </trkpt>
      <trkpt lat="44.32038" lon="4.75831">
        <ele>261.6</ele>
        <time>2025-04-30T11:18:57.000Z</time>
      </trkpt>
      <trkpt lat="44.3204" lon="4.75831">
        <ele>261.8</ele>
        <time>2025-04-30T11:18:59.000Z</time>
      </trkpt>
      <trkpt lat="44.32044" lon="4.75831">
        <ele>262.3</ele>
        <time>2025-04-30T11:19:03.000Z</time>
      </trkpt>
      <trkpt lat="44.32046" lon="4.75832">
        <ele>262.6</ele>
        <time>2025-04-30T11:19:05.000Z</time>
      </trkpt>
      <trkpt lat="44.3205" lon="4.75833">
        <ele>263.4</ele>
        <time>2025-04-30T11:19:09.000Z</time>
      </trkpt>
      <trkpt lat="44.32053" lon="4.75835">
        <ele>264</ele>
        <time>2025-04-30T11:19:11.000Z</time>
      </trkpt>
      <trkpt lat="44.32057" lon="4.75835">
        <ele>264.3</ele>
        <time>2025-04-30T11:19:15.000Z</time>
      </trkpt>
      <trkpt lat="44.32059" lon="4.75835">
        <ele>264</ele>
        <time>2025-04-30T11:19:18.000Z</time>
      </trkpt>
      <trkpt lat="44.32062" lon="4.75836">
        <ele>264</ele>
        <time>2025-04-30T11:19:21.000Z</time>
      </trkpt>
      <trkpt lat="44.32064" lon="4.75837">
        <ele>264</ele>
        <time>2025-04-30T11:19:24.000Z</time>
      </trkpt>
      <trkpt lat="44.32067" lon="4.75837">
        <ele>263.7</ele>
        <time>2025-04-30T11:19:27.000Z</time>
      </trkpt>
      <trkpt lat="44.3207" lon="4.75837">
        <ele>263.5</ele>
        <time>2025-04-30T11:19:29.000Z</time>
      </trkpt>
      <trkpt lat="44.32074" lon="4.75838">
        <ele>263.4</ele>
        <time>2025-04-30T11:19:33.000Z</time>
      </trkpt>
      <trkpt lat="44.32076" lon="4.75839">
        <ele>263.7</ele>
        <time>2025-04-30T11:19:35.000Z</time>
      </trkpt>
      <trkpt lat="44.32078" lon="4.75843">
        <ele>264.4</ele>
        <time>2025-04-30T11:19:39.000Z</time>
      </trkpt>
      <trkpt lat="44.3208" lon="4.75844">
        <ele>264.5</ele>
        <time>2025-04-30T11:19:42.000Z</time>
      </trkpt>
      <trkpt lat="44.32083" lon="4.75844">
        <ele>264.6</ele>
        <time>2025-04-30T11:19:45.000Z</time>
      </trkpt>
      <trkpt lat="44.32085" lon="4.75846">
        <ele>264.9</ele>
        <time>2025-04-30T11:19:47.000Z</time>
      </trkpt>
      <trkpt lat="44.32088" lon="4.75849">
        <ele>265</ele>
        <time>2025-04-30T11:19:51.000Z</time>
      </trkpt>
      <trkpt lat="44.3209" lon="4.75851">
        <ele>265.2</ele>
        <time>2025-04-30T11:19:54.000Z</time>
      </trkpt>
      <trkpt lat="44.32093" lon="4.75853">
        <ele>265.3</ele>
        <time>2025-04-30T11:19:57.000Z</time>
      </trkpt>
      <trkpt lat="44.32095" lon="4.75855">
        <ele>265.6</ele>
        <time>2025-04-30T11:19:59.000Z</time>
      </trkpt>
      <trkpt lat="44.32099" lon="4.75858">
        <ele>265.8</ele>
        <time>2025-04-30T11:20:04.000Z</time>
      </trkpt>
      <trkpt lat="44.32101" lon="4.7586">
        <ele>265.9</ele>
        <time>2025-04-30T11:20:06.000Z</time>
      </trkpt>
      <trkpt lat="44.32104" lon="4.75862">
        <ele>265.9</ele>
        <time>2025-04-30T11:20:09.000Z</time>
      </trkpt>
      <trkpt lat="44.32106" lon="4.75863">
        <ele>265.8</ele>
        <time>2025-04-30T11:20:11.000Z</time>
      </trkpt>
      <trkpt lat="44.3211" lon="4.75865">
        <ele>265.5</ele>
        <time>2025-04-30T11:20:15.000Z</time>
      </trkpt>
      <trkpt lat="44.32112" lon="4.75867">
        <ele>265.7</ele>
        <time>2025-04-30T11:20:17.000Z</time>
      </trkpt>
      <trkpt lat="44.32115" lon="4.7587">
        <ele>266</ele>
        <time>2025-04-30T11:20:21.000Z</time>
      </trkpt>
      <trkpt lat="44.32117" lon="4.75871">
        <ele>265.8</ele>
        <time>2025-04-30T11:20:23.000Z</time>
      </trkpt>
      <trkpt lat="44.3212" lon="4.75873">
        <ele>265.8</ele>
        <time>2025-04-30T11:20:27.000Z</time>
      </trkpt>
      <trkpt lat="44.32122" lon="4.75875">
        <ele>265.9</ele>
        <time>2025-04-30T11:20:29.000Z</time>
      </trkpt>
      <trkpt lat="44.32125" lon="4.75878">
        <ele>266.1</ele>
        <time>2025-04-30T11:20:33.000Z</time>
      </trkpt>
      <trkpt lat="44.32128" lon="4.7588">
        <ele>266</ele>
        <time>2025-04-30T11:20:35.000Z</time>
      </trkpt>
      <trkpt lat="44.32129" lon="4.75881">
        <ele>266</ele>
        <time>2025-04-30T11:20:37.000Z</time>
      </trkpt>
      <trkpt lat="44.32133" lon="4.75883">
        <ele>265.9</ele>
        <time>2025-04-30T11:20:41.000Z</time>
      </trkpt>
      <trkpt lat="44.32135" lon="4.75884">
        <ele>265.6</ele>
        <time>2025-04-30T11:20:43.000Z</time>
      </trkpt>
      <trkpt lat="44.32139" lon="4.75887">
        <ele>265.3</ele>
        <time>2025-04-30T11:20:46.000Z</time>
      </trkpt>
      <trkpt lat="44.32141" lon="4.75889">
        <ele>265.5</ele>
        <time>2025-04-30T11:20:48.000Z</time>
      </trkpt>
      <trkpt lat="44.32143" lon="4.75891">
        <ele>265.7</ele>
        <time>2025-04-30T11:20:50.000Z</time>
      </trkpt>
      <trkpt lat="44.32145" lon="4.75894">
        <ele>266.1</ele>
        <time>2025-04-30T11:20:52.000Z</time>
      </trkpt>
      <trkpt lat="44.32146" lon="4.75895">
        <ele>266.2</ele>
        <time>2025-04-30T11:20:54.000Z</time>
      </trkpt>
      <trkpt lat="44.32149" lon="4.75897">
        <ele>266.1</ele>
        <time>2025-04-30T11:20:58.000Z</time>
      </trkpt>
      <trkpt lat="44.32151" lon="4.75898">
        <ele>265.8</ele>
        <time>2025-04-30T11:21:00.000Z</time>
      </trkpt>
      <trkpt lat="44.32154" lon="4.75901">
        <ele>265.8</ele>
        <time>2025-04-30T11:21:03.000Z</time>
      </trkpt>
      <trkpt lat="44.32157" lon="4.75902">
        <ele>265.6</ele>
        <time>2025-04-30T11:21:05.000Z</time>
      </trkpt>
      <trkpt lat="44.32159" lon="4.75904">
        <ele>265.5</ele>
        <time>2025-04-30T11:21:07.000Z</time>
      </trkpt>
      <trkpt lat="44.32161" lon="4.75905">
        <ele>265.3</ele>
        <time>2025-04-30T11:21:09.000Z</time>
      </trkpt>
      <trkpt lat="44.32164" lon="4.75907">
        <ele>265.2</ele>
        <time>2025-04-30T11:21:12.000Z</time>
      </trkpt>
      <trkpt lat="44.32166" lon="4.75908">
        <ele>265.1</ele>
        <time>2025-04-30T11:21:14.000Z</time>
      </trkpt>
      <trkpt lat="44.3217" lon="4.75911">
        <ele>264.9</ele>
        <time>2025-04-30T11:21:18.000Z</time>
      </trkpt>
      <trkpt lat="44.32172" lon="4.75912">
        <ele>264.7</ele>
        <time>2025-04-30T11:21:20.000Z</time>
      </trkpt>
      <trkpt lat="44.32175" lon="4.75913">
        <ele>264.3</ele>
        <time>2025-04-30T11:21:24.000Z</time>
      </trkpt>
      <trkpt lat="44.32177" lon="4.75914">
        <ele>264.3</ele>
        <time>2025-04-30T11:21:26.000Z</time>
      </trkpt>
      <trkpt lat="44.32179" lon="4.75916">
        <ele>264.3</ele>
        <time>2025-04-30T11:21:28.000Z</time>
      </trkpt>
      <trkpt lat="44.3218" lon="4.75918">
        <ele>264.4</ele>
        <time>2025-04-30T11:21:30.000Z</time>
      </trkpt>
      <trkpt lat="44.32183" lon="4.7592">
        <ele>264.4</ele>
        <time>2025-04-30T11:21:33.000Z</time>
      </trkpt>
      <trkpt lat="44.32185" lon="4.75923">
        <ele>264.6</ele>
        <time>2025-04-30T11:21:35.000Z</time>
      </trkpt>
      <trkpt lat="44.32189" lon="4.75927">
        <ele>264.7</ele>
        <time>2025-04-30T11:21:39.000Z</time>
      </trkpt>
      <trkpt lat="44.32192" lon="4.75928">
        <ele>264.6</ele>
        <time>2025-04-30T11:21:41.000Z</time>
      </trkpt>
      <trkpt lat="44.32194" lon="4.75932">
        <ele>265</ele>
        <time>2025-04-30T11:21:45.000Z</time>
      </trkpt>
      <trkpt lat="44.32195" lon="4.75935">
        <ele>265.3</ele>
        <time>2025-04-30T11:21:47.000Z</time>
      </trkpt>
      <trkpt lat="44.32197" lon="4.75939">
        <ele>265.8</ele>
        <time>2025-04-30T11:21:51.000Z</time>
      </trkpt>
      <trkpt lat="44.32198" lon="4.75941">
        <ele>266</ele>
        <time>2025-04-30T11:21:53.000Z</time>
      </trkpt>
      <trkpt lat="44.32201" lon="4.75944">
        <ele>265.7</ele>
        <time>2025-04-30T11:21:57.000Z</time>
      </trkpt>
      <trkpt lat="44.32203" lon="4.75946">
        <ele>265.8</ele>
        <time>2025-04-30T11:22:00.000Z</time>
      </trkpt>
      <trkpt lat="44.32205" lon="4.75947">
        <ele>265.4</ele>
        <time>2025-04-30T11:22:02.000Z</time>
      </trkpt>
      <trkpt lat="44.32206" lon="4.75949">
        <ele>265.2</ele>
        <time>2025-04-30T11:22:04.000Z</time>
      </trkpt>
      <trkpt lat="44.32209" lon="4.75952">
        <ele>265.1</ele>
        <time>2025-04-30T11:22:07.000Z</time>
      </trkpt>
      <trkpt lat="44.3221" lon="4.75955">
        <ele>265.4</ele>
        <time>2025-04-30T11:22:09.000Z</time>
      </trkpt>
      <trkpt lat="44.32212" lon="4.75959">
        <ele>265.9</ele>
        <time>2025-04-30T11:22:13.000Z</time>
      </trkpt>
      <trkpt lat="44.32213" lon="4.75962">
        <ele>266.5</ele>
        <time>2025-04-30T11:22:15.000Z</time>
      </trkpt>
      <trkpt lat="44.32216" lon="4.75967">
        <ele>266.6</ele>
        <time>2025-04-30T11:22:20.000Z</time>
      </trkpt>
      <trkpt lat="44.32217" lon="4.75969">
        <ele>266.8</ele>
        <time>2025-04-30T11:22:22.000Z</time>
      </trkpt>
      <trkpt lat="44.32219" lon="4.75971">
        <ele>266.8</ele>
        <time>2025-04-30T11:22:24.000Z</time>
      </trkpt>
      <trkpt lat="44.3222" lon="4.75974">
        <ele>267.1</ele>
        <time>2025-04-30T11:22:27.000Z</time>
      </trkpt>
      <trkpt lat="44.32221" lon="4.75976">
        <ele>267.5</ele>
        <time>2025-04-30T11:22:29.000Z</time>
      </trkpt>
      <trkpt lat="44.32224" lon="4.75983">
        <ele>268.3</ele>
        <time>2025-04-30T11:22:35.000Z</time>
      </trkpt>
      <trkpt lat="44.32225" lon="4.75985">
        <ele>268.8</ele>
        <time>2025-04-30T11:22:38.000Z</time>
      </trkpt>
      <trkpt lat="44.32226" lon="4.75988">
        <ele>269.1</ele>
        <time>2025-04-30T11:22:40.000Z</time>
      </trkpt>
      <trkpt lat="44.32227" lon="4.75989">
        <ele>269</ele>
        <time>2025-04-30T11:22:42.000Z</time>
      </trkpt>
      <trkpt lat="44.3223" lon="4.7599">
        <ele>268.4</ele>
        <time>2025-04-30T11:22:44.000Z</time>
      </trkpt>
      <trkpt lat="44.32232" lon="4.75992">
        <ele>268.2</ele>
        <time>2025-04-30T11:22:46.000Z</time>
      </trkpt>
      <trkpt lat="44.32234" lon="4.75994">
        <ele>268.1</ele>
        <time>2025-04-30T11:22:48.000Z</time>
      </trkpt>
      <trkpt lat="44.32235" lon="4.75996">
        <ele>268.2</ele>
        <time>2025-04-30T11:22:50.000Z</time>
      </trkpt>
      <trkpt lat="44.32237" lon="4.75999">
        <ele>268.3</ele>
        <time>2025-04-30T11:22:53.000Z</time>
      </trkpt>
      <trkpt lat="44.32239" lon="4.76001">
        <ele>268.3</ele>
        <time>2025-04-30T11:22:56.000Z</time>
      </trkpt>
      <trkpt lat="44.3224" lon="4.76004">
        <ele>268.8</ele>
        <time>2025-04-30T11:22:58.000Z</time>
      </trkpt>
      <trkpt lat="44.32242" lon="4.76006">
        <ele>268.8</ele>
        <time>2025-04-30T11:23:00.000Z</time>
      </trkpt>
      <trkpt lat="44.32243" lon="4.76008">
        <ele>268.7</ele>
        <time>2025-04-30T11:23:02.000Z</time>
      </trkpt>
      <trkpt lat="44.32245" lon="4.76009">
        <ele>268.6</ele>
        <time>2025-04-30T11:23:04.000Z</time>
      </trkpt>
      <trkpt lat="44.32247" lon="4.76011">
        <ele>268.7</ele>
        <time>2025-04-30T11:23:06.000Z</time>
      </trkpt>
      <trkpt lat="44.32249" lon="4.76014">
        <ele>268.8</ele>
        <time>2025-04-30T11:23:10.000Z</time>
      </trkpt>
      <trkpt lat="44.32251" lon="4.76015">
        <ele>268.7</ele>
        <time>2025-04-30T11:23:12.000Z</time>
      </trkpt>
      <trkpt lat="44.32253" lon="4.76018">
        <ele>269.2</ele>
        <time>2025-04-30T11:23:14.000Z</time>
      </trkpt>
      <trkpt lat="44.32255" lon="4.7602">
        <ele>269.3</ele>
        <time>2025-04-30T11:23:16.000Z</time>
      </trkpt>
      <trkpt lat="44.32256" lon="4.76022">
        <ele>269.5</ele>
        <time>2025-04-30T11:23:18.000Z</time>
      </trkpt>
      <trkpt lat="44.32258" lon="4.76024">
        <ele>269.6</ele>
        <time>2025-04-30T11:23:20.000Z</time>
      </trkpt>
      <trkpt lat="44.3226" lon="4.76026">
        <ele>269.8</ele>
        <time>2025-04-30T11:23:23.000Z</time>
      </trkpt>
      <trkpt lat="44.32262" lon="4.76026">
        <ele>269.4</ele>
        <time>2025-04-30T11:23:25.000Z</time>
      </trkpt>
      <trkpt lat="44.32264" lon="4.76028">
        <ele>269.5</ele>
        <time>2025-04-30T11:23:28.000Z</time>
      </trkpt>
      <trkpt lat="44.32267" lon="4.76029">
        <ele>269.3</ele>
        <time>2025-04-30T11:23:31.000Z</time>
      </trkpt>
      <trkpt lat="44.32269" lon="4.76031">
        <ele>269.5</ele>
        <time>2025-04-30T11:23:33.000Z</time>
      </trkpt>
      <trkpt lat="44.32271" lon="4.76032">
        <ele>269.3</ele>
        <time>2025-04-30T11:23:35.000Z</time>
      </trkpt>
      <trkpt lat="44.32274" lon="4.76034">
        <ele>269.1</ele>
        <time>2025-04-30T11:23:37.000Z</time>
      </trkpt>
      <trkpt lat="44.32277" lon="4.76035">
        <ele>268.8</ele>
        <time>2025-04-30T11:23:39.000Z</time>
      </trkpt>
      <trkpt lat="44.32279" lon="4.76036">
        <ele>268.8</ele>
        <time>2025-04-30T11:23:42.000Z</time>
      </trkpt>
      <trkpt lat="44.32281" lon="4.76036">
        <ele>268.7</ele>
        <time>2025-04-30T11:23:44.000Z</time>
      </trkpt>
      <trkpt lat="44.32282" lon="4.76036">
        <ele>268.6</ele>
        <time>2025-04-30T11:23:46.000Z</time>
      </trkpt>
      <trkpt lat="44.32285" lon="4.76037">
        <ele>268.5</ele>
        <time>2025-04-30T11:23:48.000Z</time>
      </trkpt>
      <trkpt lat="44.32287" lon="4.76037">
        <ele>268.4</ele>
        <time>2025-04-30T11:23:50.000Z</time>
      </trkpt>
      <trkpt lat="44.32289" lon="4.76037">
        <ele>268.1</ele>
        <time>2025-04-30T11:23:52.000Z</time>
      </trkpt>
      <trkpt lat="44.32291" lon="4.76038">
        <ele>268.1</ele>
        <time>2025-04-30T11:23:54.000Z</time>
      </trkpt>
      <trkpt lat="44.32293" lon="4.76038">
        <ele>267.9</ele>
        <time>2025-04-30T11:23:56.000Z</time>
      </trkpt>
      <trkpt lat="44.32295" lon="4.76038">
        <ele>268</ele>
        <time>2025-04-30T11:23:58.000Z</time>
      </trkpt>
      <trkpt lat="44.32297" lon="4.7604">
        <ele>268.3</ele>
        <time>2025-04-30T11:24:03.000Z</time>
      </trkpt>
      <trkpt lat="44.323" lon="4.7604">
        <ele>268.1</ele>
        <time>2025-04-30T11:24:06.000Z</time>
      </trkpt>
      <trkpt lat="44.32302" lon="4.7604">
        <ele>267.8</ele>
        <time>2025-04-30T11:24:08.000Z</time>
      </trkpt>
      <trkpt lat="44.32305" lon="4.76041">
        <ele>267.8</ele>
        <time>2025-04-30T11:24:10.000Z</time>
      </trkpt>
      <trkpt lat="44.32307" lon="4.76042">
        <ele>268</ele>
        <time>2025-04-30T11:24:12.000Z</time>
      </trkpt>
      <trkpt lat="44.32309" lon="4.76043">
        <ele>268.4</ele>
        <time>2025-04-30T11:24:14.000Z</time>
      </trkpt>
      <trkpt lat="44.32312" lon="4.76045">
        <ele>268.8</ele>
        <time>2025-04-30T11:24:17.000Z</time>
      </trkpt>
      <trkpt lat="44.32314" lon="4.76046">
        <ele>269</ele>
        <time>2025-04-30T11:24:19.000Z</time>
      </trkpt>
      <trkpt lat="44.32317" lon="4.76048">
        <ele>269.6</ele>
        <time>2025-04-30T11:24:22.000Z</time>
      </trkpt>
      <trkpt lat="44.3232" lon="4.76049">
        <ele>269.8</ele>
        <time>2025-04-30T11:24:25.000Z</time>
      </trkpt>
      <trkpt lat="44.32322" lon="4.7605">
        <ele>270</ele>
        <time>2025-04-30T11:24:27.000Z</time>
      </trkpt>
      <trkpt lat="44.32325" lon="4.76051">
        <ele>270.1</ele>
        <time>2025-04-30T11:24:29.000Z</time>
      </trkpt>
      <trkpt lat="44.32327" lon="4.76052">
        <ele>270.2</ele>
        <time>2025-04-30T11:24:31.000Z</time>
      </trkpt>
      <trkpt lat="44.32329" lon="4.76053">
        <ele>270.3</ele>
        <time>2025-04-30T11:24:33.000Z</time>
      </trkpt>
      <trkpt lat="44.32331" lon="4.76054">
        <ele>270.6</ele>
        <time>2025-04-30T11:24:35.000Z</time>
      </trkpt>
      <trkpt lat="44.32333" lon="4.76054">
        <ele>270.5</ele>
        <time>2025-04-30T11:24:37.000Z</time>
      </trkpt>
      <trkpt lat="44.32336" lon="4.76054">
        <ele>270.5</ele>
        <time>2025-04-30T11:24:40.000Z</time>
      </trkpt>
      <trkpt lat="44.32338" lon="4.76053">
        <ele>270.5</ele>
        <time>2025-04-30T11:24:49.000Z</time>
      </trkpt>
      <trkpt lat="44.3234" lon="4.76054">
        <ele>270.7</ele>
        <time>2025-04-30T11:24:52.000Z</time>
      </trkpt>
      <trkpt lat="44.32342" lon="4.76053">
        <ele>270.6</ele>
        <time>2025-04-30T11:24:54.000Z</time>
      </trkpt>
      <trkpt lat="44.32344" lon="4.76052">
        <ele>270.3</ele>
        <time>2025-04-30T11:24:56.000Z</time>
      </trkpt>
      <trkpt lat="44.32346" lon="4.76052">
        <ele>270.3</ele>
        <time>2025-04-30T11:24:58.000Z</time>
      </trkpt>
      <trkpt lat="44.32349" lon="4.76052">
        <ele>270.4</ele>
        <time>2025-04-30T11:25:00.000Z</time>
      </trkpt>
      <trkpt lat="44.32351" lon="4.76053">
        <ele>270.7</ele>
        <time>2025-04-30T11:25:06.000Z</time>
      </trkpt>
      <trkpt lat="44.32353" lon="4.76052">
        <ele>270.6</ele>
        <time>2025-04-30T11:25:08.000Z</time>
      </trkpt>
      <trkpt lat="44.32355" lon="4.76052">
        <ele>270.7</ele>
        <time>2025-04-30T11:25:10.000Z</time>
      </trkpt>
      <trkpt lat="44.32357" lon="4.76054">
        <ele>271.3</ele>
        <time>2025-04-30T11:25:13.000Z</time>
      </trkpt>
      <trkpt lat="44.32359" lon="4.76057">
        <ele>272.4</ele>
        <time>2025-04-30T11:25:16.000Z</time>
      </trkpt>
      <trkpt lat="44.32362" lon="4.76059">
        <ele>272.8</ele>
        <time>2025-04-30T11:25:19.000Z</time>
      </trkpt>
      <trkpt lat="44.32364" lon="4.76058">
        <ele>272.9</ele>
        <time>2025-04-30T11:25:21.000Z</time>
      </trkpt>
      <trkpt lat="44.32366" lon="4.76057">
        <ele>272.6</ele>
        <time>2025-04-30T11:25:23.000Z</time>
      </trkpt>
      <trkpt lat="44.32369" lon="4.76055">
        <ele>272.4</ele>
        <time>2025-04-30T11:25:26.000Z</time>
      </trkpt>
      <trkpt lat="44.32371" lon="4.76053">
        <ele>272</ele>
        <time>2025-04-30T11:25:28.000Z</time>
      </trkpt>
      <trkpt lat="44.32372" lon="4.76052">
        <ele>271.8</ele>
        <time>2025-04-30T11:25:30.000Z</time>
      </trkpt>
      <trkpt lat="44.32375" lon="4.76051">
        <ele>271.4</ele>
        <time>2025-04-30T11:25:32.000Z</time>
      </trkpt>
      <trkpt lat="44.32377" lon="4.76051">
        <ele>271.7</ele>
        <time>2025-04-30T11:25:35.000Z</time>
      </trkpt>
      <trkpt lat="44.3238" lon="4.76051">
        <ele>271.8</ele>
        <time>2025-04-30T11:25:37.000Z</time>
      </trkpt>
      <trkpt lat="44.32381" lon="4.76052">
        <ele>272.3</ele>
        <time>2025-04-30T11:25:40.000Z</time>
      </trkpt>
      <trkpt lat="44.32383" lon="4.76054">
        <ele>273.2</ele>
        <time>2025-04-30T11:25:45.000Z</time>
      </trkpt>
      <trkpt lat="44.32386" lon="4.76054">
        <ele>273.3</ele>
        <time>2025-04-30T11:25:51.000Z</time>
      </trkpt>
      <trkpt lat="44.32388" lon="4.76054">
        <ele>273.4</ele>
        <time>2025-04-30T11:25:53.000Z</time>
      </trkpt>
      <trkpt lat="44.32391" lon="4.76054">
        <ele>273.6</ele>
        <time>2025-04-30T11:25:55.000Z</time>
      </trkpt>
      <trkpt lat="44.32393" lon="4.76053">
        <ele>273.5</ele>
        <time>2025-04-30T11:25:57.000Z</time>
      </trkpt>
      <trkpt lat="44.32396" lon="4.76052">
        <ele>273.7</ele>
        <time>2025-04-30T11:25:59.000Z</time>
      </trkpt>
      <trkpt lat="44.32398" lon="4.76053">
        <ele>274.2</ele>
        <time>2025-04-30T11:26:01.000Z</time>
      </trkpt>
      <trkpt lat="44.32401" lon="4.76053">
        <ele>274.5</ele>
        <time>2025-04-30T11:26:03.000Z</time>
      </trkpt>
      <trkpt lat="44.32403" lon="4.76054">
        <ele>275</ele>
        <time>2025-04-30T11:26:05.000Z</time>
      </trkpt>
      <trkpt lat="44.32405" lon="4.76054">
        <ele>275.2</ele>
        <time>2025-04-30T11:26:07.000Z</time>
      </trkpt>
      <trkpt lat="44.32408" lon="4.76053">
        <ele>275.2</ele>
        <time>2025-04-30T11:26:09.000Z</time>
      </trkpt>
      <trkpt lat="44.3241" lon="4.76053">
        <ele>275.5</ele>
        <time>2025-04-30T11:26:11.000Z</time>
      </trkpt>
      <trkpt lat="44.32412" lon="4.76054">
        <ele>276</ele>
        <time>2025-04-30T11:26:13.000Z</time>
      </trkpt>
      <trkpt lat="44.32415" lon="4.76054">
        <ele>276.4</ele>
        <time>2025-04-30T11:26:15.000Z</time>
      </trkpt>
      <trkpt lat="44.32417" lon="4.76054">
        <ele>276.6</ele>
        <time>2025-04-30T11:26:17.000Z</time>
      </trkpt>
      <trkpt lat="44.32419" lon="4.76054">
        <ele>276.7</ele>
        <time>2025-04-30T11:26:19.000Z</time>
      </trkpt>
      <trkpt lat="44.32421" lon="4.76054">
        <ele>276.8</ele>
        <time>2025-04-30T11:26:21.000Z</time>
      </trkpt>
      <trkpt lat="44.32423" lon="4.76053">
        <ele>276.6</ele>
        <time>2025-04-30T11:26:23.000Z</time>
      </trkpt>
      <trkpt lat="44.32426" lon="4.76052">
        <ele>276.5</ele>
        <time>2025-04-30T11:26:25.000Z</time>
      </trkpt>
      <trkpt lat="44.32428" lon="4.76051">
        <ele>276.6</ele>
        <time>2025-04-30T11:26:27.000Z</time>
      </trkpt>
      <trkpt lat="44.32431" lon="4.76051">
        <ele>276.6</ele>
        <time>2025-04-30T11:26:29.000Z</time>
      </trkpt>
      <trkpt lat="44.32433" lon="4.7605">
        <ele>276.6</ele>
        <time>2025-04-30T11:26:31.000Z</time>
      </trkpt>
      <trkpt lat="44.32435" lon="4.7605">
        <ele>276.7</ele>
        <time>2025-04-30T11:26:33.000Z</time>
      </trkpt>
      <trkpt lat="44.32437" lon="4.76049">
        <ele>276.7</ele>
        <time>2025-04-30T11:26:35.000Z</time>
      </trkpt>
      <trkpt lat="44.3244" lon="4.76048">
        <ele>276.7</ele>
        <time>2025-04-30T11:26:37.000Z</time>
      </trkpt>
      <trkpt lat="44.32442" lon="4.76048">
        <ele>276.9</ele>
        <time>2025-04-30T11:26:39.000Z</time>
      </trkpt>
      <trkpt lat="44.32444" lon="4.76048">
        <ele>277</ele>
        <time>2025-04-30T11:26:41.000Z</time>
      </trkpt>
      <trkpt lat="44.32446" lon="4.76047">
        <ele>276.9</ele>
        <time>2025-04-30T11:26:43.000Z</time>
      </trkpt>
      <trkpt lat="44.32448" lon="4.76047">
        <ele>277</ele>
        <time>2025-04-30T11:26:45.000Z</time>
      </trkpt>
      <trkpt lat="44.3245" lon="4.76047">
        <ele>277</ele>
        <time>2025-04-30T11:26:47.000Z</time>
      </trkpt>
      <trkpt lat="44.32453" lon="4.76046">
        <ele>276.9</ele>
        <time>2025-04-30T11:26:50.000Z</time>
      </trkpt>
      <trkpt lat="44.32455" lon="4.76045">
        <ele>276.8</ele>
        <time>2025-04-30T11:26:52.000Z</time>
      </trkpt>
      <trkpt lat="44.32457" lon="4.76044">
        <ele>276.8</ele>
        <time>2025-04-30T11:26:54.000Z</time>
      </trkpt>
      <trkpt lat="44.3246" lon="4.76044">
        <ele>276.8</ele>
        <time>2025-04-30T11:26:56.000Z</time>
      </trkpt>
      <trkpt lat="44.32462" lon="4.76043">
        <ele>276.8</ele>
        <time>2025-04-30T11:26:58.000Z</time>
      </trkpt>
      <trkpt lat="44.32464" lon="4.76043">
        <ele>276.9</ele>
        <time>2025-04-30T11:27:01.000Z</time>
      </trkpt>
      <trkpt lat="44.32464" lon="4.76039">
        <ele>276</ele>
        <time>2025-04-30T11:27:04.000Z</time>
      </trkpt>
      <trkpt lat="44.32466" lon="4.7604">
        <ele>276.4</ele>
        <time>2025-04-30T11:27:09.000Z</time>
      </trkpt>
      <trkpt lat="44.32467" lon="4.76038">
        <ele>275.9</ele>
        <time>2025-04-30T11:27:17.000Z</time>
      </trkpt>
      <trkpt lat="44.3247" lon="4.76037">
        <ele>275.7</ele>
        <time>2025-04-30T11:28:03.000Z</time>
      </trkpt>
      <trkpt lat="44.32472" lon="4.76037">
        <ele>275.9</ele>
        <time>2025-04-30T11:28:08.000Z</time>
      </trkpt>
      <trkpt lat="44.32474" lon="4.76036">
        <ele>275.7</ele>
        <time>2025-04-30T11:28:14.000Z</time>
      </trkpt>
      <trkpt lat="44.32475" lon="4.76037">
        <ele>275.8</ele>
        <time>2025-04-30T11:28:16.000Z</time>
      </trkpt>
      <trkpt lat="44.32477" lon="4.76037">
        <ele>275.7</ele>
        <time>2025-04-30T11:28:18.000Z</time>
      </trkpt>
      <trkpt lat="44.32479" lon="4.76037">
        <ele>275.8</ele>
        <time>2025-04-30T11:28:20.000Z</time>
      </trkpt>
      <trkpt lat="44.32482" lon="4.76037">
        <ele>275.7</ele>
        <time>2025-04-30T11:28:22.000Z</time>
      </trkpt>
      <trkpt lat="44.32484" lon="4.76038">
        <ele>275.8</ele>
        <time>2025-04-30T11:28:25.000Z</time>
      </trkpt>
      <trkpt lat="44.32486" lon="4.76036">
        <ele>275.4</ele>
        <time>2025-04-30T11:28:28.000Z</time>
      </trkpt>
      <trkpt lat="44.32488" lon="4.76037">
        <ele>275.4</ele>
        <time>2025-04-30T11:28:30.000Z</time>
      </trkpt>
      <trkpt lat="44.3249" lon="4.76037">
        <ele>275.3</ele>
        <time>2025-04-30T11:28:32.000Z</time>
      </trkpt>
      <trkpt lat="44.32493" lon="4.76036">
        <ele>275.1</ele>
        <time>2025-04-30T11:28:34.000Z</time>
      </trkpt>
      <trkpt lat="44.32495" lon="4.76036">
        <ele>275</ele>
        <time>2025-04-30T11:28:36.000Z</time>
      </trkpt>
      <trkpt lat="44.32497" lon="4.76035">
        <ele>274.7</ele>
        <time>2025-04-30T11:28:39.000Z</time>
      </trkpt>
      <trkpt lat="44.32499" lon="4.76036">
        <ele>274.7</ele>
        <time>2025-04-30T11:28:41.000Z</time>
      </trkpt>
      <trkpt lat="44.32502" lon="4.76036">
        <ele>274.4</ele>
        <time>2025-04-30T11:28:45.000Z</time>
      </trkpt>
      <trkpt lat="44.32504" lon="4.76036">
        <ele>274.1</ele>
        <time>2025-04-30T11:28:47.000Z</time>
      </trkpt>
      <trkpt lat="44.32507" lon="4.76037">
        <ele>273.8</ele>
        <time>2025-04-30T11:28:50.000Z</time>
      </trkpt>
      <trkpt lat="44.32509" lon="4.76038">
        <ele>273.6</ele>
        <time>2025-04-30T11:28:52.000Z</time>
      </trkpt>
      <trkpt lat="44.32511" lon="4.76039">
        <ele>273.4</ele>
        <time>2025-04-30T11:28:54.000Z</time>
      </trkpt>
      <trkpt lat="44.32513" lon="4.7604">
        <ele>273.3</ele>
        <time>2025-04-30T11:28:58.000Z</time>
      </trkpt>
      <trkpt lat="44.32515" lon="4.76041">
        <ele>273.2</ele>
        <time>2025-04-30T11:29:00.000Z</time>
      </trkpt>
      <trkpt lat="44.32517" lon="4.76042">
        <ele>273.1</ele>
        <time>2025-04-30T11:29:03.000Z</time>
      </trkpt>
      <trkpt lat="44.32518" lon="4.76045">
        <ele>273.2</ele>
        <time>2025-04-30T11:29:05.000Z</time>
      </trkpt>
      <trkpt lat="44.32519" lon="4.76047">
        <ele>273.3</ele>
        <time>2025-04-30T11:29:07.000Z</time>
      </trkpt>
      <trkpt lat="44.32521" lon="4.76049">
        <ele>273.5</ele>
        <time>2025-04-30T11:29:10.000Z</time>
      </trkpt>
      <trkpt lat="44.32523" lon="4.7605">
        <ele>273.1</ele>
        <time>2025-04-30T11:29:13.000Z</time>
      </trkpt>
      <trkpt lat="44.32525" lon="4.76051">
        <ele>272.9</ele>
        <time>2025-04-30T11:29:15.000Z</time>
      </trkpt>
      <trkpt lat="44.32528" lon="4.76053">
        <ele>272.6</ele>
        <time>2025-04-30T11:29:17.000Z</time>
      </trkpt>
      <trkpt lat="44.32529" lon="4.76055">
        <ele>272.4</ele>
        <time>2025-04-30T11:29:20.000Z</time>
      </trkpt>
      <trkpt lat="44.32531" lon="4.76056">
        <ele>272.3</ele>
        <time>2025-04-30T11:29:22.000Z</time>
      </trkpt>
      <trkpt lat="44.32533" lon="4.76057">
        <ele>271.8</ele>
        <time>2025-04-30T11:29:24.000Z</time>
      </trkpt>
      <trkpt lat="44.32536" lon="4.76058">
        <ele>271.2</ele>
        <time>2025-04-30T11:29:28.000Z</time>
      </trkpt>
      <trkpt lat="44.32538" lon="4.76058">
        <ele>270.8</ele>
        <time>2025-04-30T11:29:30.000Z</time>
      </trkpt>
      <trkpt lat="44.32539" lon="4.76059">
        <ele>270.4</ele>
        <time>2025-04-30T11:29:32.000Z</time>
      </trkpt>
      <trkpt lat="44.32541" lon="4.76061">
        <ele>270.1</ele>
        <time>2025-04-30T11:29:34.000Z</time>
      </trkpt>
      <trkpt lat="44.32543" lon="4.76062">
        <ele>269.7</ele>
        <time>2025-04-30T11:29:36.000Z</time>
      </trkpt>
      <trkpt lat="44.32545" lon="4.76064">
        <ele>269.6</ele>
        <time>2025-04-30T11:29:38.000Z</time>
      </trkpt>
      <trkpt lat="44.32546" lon="4.76067">
        <ele>269.6</ele>
        <time>2025-04-30T11:29:40.000Z</time>
      </trkpt>
      <trkpt lat="44.32547" lon="4.7607">
        <ele>269.6</ele>
        <time>2025-04-30T11:29:43.000Z</time>
      </trkpt>
      <trkpt lat="44.32548" lon="4.76072">
        <ele>269.4</ele>
        <time>2025-04-30T11:29:47.000Z</time>
      </trkpt>
      <trkpt lat="44.32548" lon="4.76075">
        <ele>269.9</ele>
        <time>2025-04-30T11:29:51.000Z</time>
      </trkpt>
      <trkpt lat="44.32547" lon="4.76079">
        <ele>270.4</ele>
        <time>2025-04-30T11:30:02.000Z</time>
      </trkpt>
      <trkpt lat="44.32547" lon="4.76082">
        <ele>270.8</ele>
        <time>2025-04-30T11:30:04.000Z</time>
      </trkpt>
      <trkpt lat="44.32547" lon="4.76086">
        <ele>271.2</ele>
        <time>2025-04-30T11:30:06.000Z</time>
      </trkpt>
      <trkpt lat="44.32548" lon="4.76088">
        <ele>271.4</ele>
        <time>2025-04-30T11:30:08.000Z</time>
      </trkpt>
      <trkpt lat="44.32549" lon="4.76091">
        <ele>271.7</ele>
        <time>2025-04-30T11:30:11.000Z</time>
      </trkpt>
      <trkpt lat="44.32547" lon="4.76096">
        <ele>272.5</ele>
        <time>2025-04-30T11:30:14.000Z</time>
      </trkpt>
      <trkpt lat="44.32547" lon="4.76099">
        <ele>273</ele>
        <time>2025-04-30T11:30:16.000Z</time>
      </trkpt>
      <trkpt lat="44.32546" lon="4.76102">
        <ele>273.5</ele>
        <time>2025-04-30T11:30:18.000Z</time>
      </trkpt>
      <trkpt lat="44.32544" lon="4.76104">
        <ele>274</ele>
        <time>2025-04-30T11:30:20.000Z</time>
      </trkpt>
      <trkpt lat="44.32542" lon="4.76106">
        <ele>274.4</ele>
        <time>2025-04-30T11:30:22.000Z</time>
      </trkpt>
      <trkpt lat="44.32541" lon="4.76109">
        <ele>274.8</ele>
        <time>2025-04-30T11:30:24.000Z</time>
      </trkpt>
      <trkpt lat="44.3254" lon="4.76112">
        <ele>275.2</ele>
        <time>2025-04-30T11:30:27.000Z</time>
      </trkpt>
      <trkpt lat="44.32539" lon="4.76114">
        <ele>275.5</ele>
        <time>2025-04-30T11:30:30.000Z</time>
      </trkpt>
      <trkpt lat="44.32537" lon="4.76116">
        <ele>275.7</ele>
        <time>2025-04-30T11:30:33.000Z</time>
      </trkpt>
      <trkpt lat="44.32536" lon="4.76117">
        <ele>275.9</ele>
        <time>2025-04-30T11:30:35.000Z</time>
      </trkpt>
      <trkpt lat="44.32533" lon="4.76119">
        <ele>276.2</ele>
        <time>2025-04-30T11:30:38.000Z</time>
      </trkpt>
      <trkpt lat="44.32532" lon="4.76121">
        <ele>276.5</ele>
        <time>2025-04-30T11:30:40.000Z</time>
      </trkpt>
      <trkpt lat="44.3253" lon="4.76124">
        <ele>276.8</ele>
        <time>2025-04-30T11:30:43.000Z</time>
      </trkpt>
      <trkpt lat="44.32529" lon="4.76126">
        <ele>277</ele>
        <time>2025-04-30T11:30:45.000Z</time>
      </trkpt>
      <trkpt lat="44.32527" lon="4.76128">
        <ele>277.3</ele>
        <time>2025-04-30T11:30:48.000Z</time>
      </trkpt>
      <trkpt lat="44.32525" lon="4.7613">
        <ele>277.5</ele>
        <time>2025-04-30T11:30:51.000Z</time>
      </trkpt>
      <trkpt lat="44.32524" lon="4.76133">
        <ele>277.7</ele>
        <time>2025-04-30T11:30:55.000Z</time>
      </trkpt>
      <trkpt lat="44.32524" lon="4.76135">
        <ele>277.8</ele>
        <time>2025-04-30T11:30:58.000Z</time>
      </trkpt>
      <trkpt lat="44.32523" lon="4.76137">
        <ele>277.9</ele>
        <time>2025-04-30T11:31:12.000Z</time>
      </trkpt>
      <trkpt lat="44.32521" lon="4.7614">
        <ele>278</ele>
        <time>2025-04-30T11:31:52.000Z</time>
      </trkpt>
      <trkpt lat="44.32519" lon="4.76143">
        <ele>278</ele>
        <time>2025-04-30T11:31:55.000Z</time>
      </trkpt>
      <trkpt lat="44.32517" lon="4.76142">
        <ele>278</ele>
        <time>2025-04-30T11:31:58.000Z</time>
      </trkpt>
      <trkpt lat="44.32516" lon="4.76144">
        <ele>278</ele>
        <time>2025-04-30T11:32:04.000Z</time>
      </trkpt>
      <trkpt lat="44.32516" lon="4.76147">
        <ele>278</ele>
        <time>2025-04-30T11:32:26.000Z</time>
      </trkpt>
      <trkpt lat="44.32517" lon="4.7615">
        <ele>278</ele>
        <time>2025-04-30T11:32:58.000Z</time>
      </trkpt>
      <trkpt lat="44.32517" lon="4.76153">
        <ele>278</ele>
        <time>2025-04-30T11:33:01.000Z</time>
      </trkpt>
      <trkpt lat="44.32517" lon="4.76155">
        <ele>278</ele>
        <time>2025-04-30T11:33:04.000Z</time>
      </trkpt>
      <trkpt lat="44.32517" lon="4.76159">
        <ele>278</ele>
        <time>2025-04-30T11:33:07.000Z</time>
      </trkpt>
      <trkpt lat="44.32517" lon="4.76162">
        <ele>278</ele>
        <time>2025-04-30T11:33:10.000Z</time>
      </trkpt>
      <trkpt lat="44.32518" lon="4.76165">
        <ele>278</ele>
        <time>2025-04-30T11:33:13.000Z</time>
      </trkpt>
      <trkpt lat="44.32519" lon="4.76168">
        <ele>278.1</ele>
        <time>2025-04-30T11:33:16.000Z</time>
      </trkpt>
      <trkpt lat="44.3252" lon="4.76171">
        <ele>278.2</ele>
        <time>2025-04-30T11:33:20.000Z</time>
      </trkpt>
      <trkpt lat="44.32519" lon="4.76174">
        <ele>278.4</ele>
        <time>2025-04-30T11:33:23.000Z</time>
      </trkpt>
      <trkpt lat="44.32518" lon="4.76176">
        <ele>278.6</ele>
        <time>2025-04-30T11:33:25.000Z</time>
      </trkpt>
      <trkpt lat="44.32517" lon="4.76179">
        <ele>278.8</ele>
        <time>2025-04-30T11:33:28.000Z</time>
      </trkpt>
      <trkpt lat="44.32517" lon="4.76182">
        <ele>279</ele>
        <time>2025-04-30T11:33:30.000Z</time>
      </trkpt>
      <trkpt lat="44.32515" lon="4.76183">
        <ele>279.2</ele>
        <time>2025-04-30T11:33:34.000Z</time>
      </trkpt>
      <trkpt lat="44.32515" lon="4.76187">
        <ele>279.4</ele>
        <time>2025-04-30T11:33:37.000Z</time>
      </trkpt>
      <trkpt lat="44.32513" lon="4.76189">
        <ele>279.6</ele>
        <time>2025-04-30T11:33:40.000Z</time>
      </trkpt>
      <trkpt lat="44.32511" lon="4.7619">
        <ele>279.9</ele>
        <time>2025-04-30T11:33:44.000Z</time>
      </trkpt>
      <trkpt lat="44.32509" lon="4.76193">
        <ele>280.2</ele>
        <time>2025-04-30T11:33:52.000Z</time>
      </trkpt>
      <trkpt lat="44.32511" lon="4.76192">
        <ele>280</ele>
        <time>2025-04-30T11:33:57.000Z</time>
      </trkpt>
      <trkpt lat="44.32511" lon="4.7619">
        <ele>279.9</ele>
        <time>2025-04-30T11:33:59.000Z</time>
      </trkpt>
      <trkpt lat="44.32511" lon="4.76186">
        <ele>279.5</ele>
        <time>2025-04-30T11:34:01.000Z</time>
      </trkpt>
      <trkpt lat="44.32509" lon="4.76183">
        <ele>279.3</ele>
        <time>2025-04-30T11:34:04.000Z</time>
      </trkpt>
      <trkpt lat="44.32508" lon="4.76181">
        <ele>279.2</ele>
        <time>2025-04-30T11:34:09.000Z</time>
      </trkpt>
      <trkpt lat="44.32506" lon="4.76181">
        <ele>279.3</ele>
        <time>2025-04-30T11:34:16.000Z</time>
      </trkpt>
      <trkpt lat="44.32504" lon="4.76177">
        <ele>279</ele>
        <time>2025-04-30T11:34:26.000Z</time>
      </trkpt>
      <trkpt lat="44.32503" lon="4.76175">
        <ele>278.8</ele>
        <time>2025-04-30T11:34:28.000Z</time>
      </trkpt>
      <trkpt lat="44.32503" lon="4.76171">
        <ele>278.4</ele>
        <time>2025-04-30T11:34:35.000Z</time>
      </trkpt>
      <trkpt lat="44.32503" lon="4.76167">
        <ele>278.1</ele>
        <time>2025-04-30T11:34:37.000Z</time>
      </trkpt>
      <trkpt lat="44.32501" lon="4.76165">
        <ele>278</ele>
        <time>2025-04-30T11:34:39.000Z</time>
      </trkpt>
      <trkpt lat="44.32502" lon="4.76171">
        <ele>278.4</ele>
        <time>2025-04-30T11:34:43.000Z</time>
      </trkpt>
      <trkpt lat="44.32503" lon="4.76174">
        <ele>278.8</ele>
        <time>2025-04-30T11:34:44.000Z</time>
      </trkpt>
      <trkpt lat="44.32504" lon="4.76178">
        <ele>279.1</ele>
        <time>2025-04-30T11:34:46.000Z</time>
      </trkpt>
      <trkpt lat="44.32503" lon="4.76181">
        <ele>279.4</ele>
        <time>2025-04-30T11:34:48.000Z</time>
      </trkpt>
      <trkpt lat="44.32502" lon="4.76185">
        <ele>279.9</ele>
        <time>2025-04-30T11:34:49.000Z</time>
      </trkpt>
      <trkpt lat="44.325" lon="4.76187">
        <ele>280.2</ele>
        <time>2025-04-30T11:34:51.000Z</time>
      </trkpt>
      <trkpt lat="44.325" lon="4.7619">
        <ele>280.5</ele>
        <time>2025-04-30T11:34:57.000Z</time>
      </trkpt>
      <trkpt lat="44.32501" lon="4.76192">
        <ele>280.7</ele>
        <time>2025-04-30T11:34:59.000Z</time>
      </trkpt>
      <trkpt lat="44.32503" lon="4.76189">
        <ele>280.2</ele>
        <time>2025-04-30T11:35:01.000Z</time>
      </trkpt>
      <trkpt lat="44.32506" lon="4.76192">
        <ele>280.4</ele>
        <time>2025-04-30T11:35:03.000Z</time>
      </trkpt>
      <trkpt lat="44.32506" lon="4.76195">
        <ele>280.6</ele>
        <time>2025-04-30T11:35:05.000Z</time>
      </trkpt>
      <trkpt lat="44.32506" lon="4.76198">
        <ele>280.9</ele>
        <time>2025-04-30T11:35:14.000Z</time>
      </trkpt>
      <trkpt lat="44.32507" lon="4.76195">
        <ele>280.6</ele>
        <time>2025-04-30T11:35:18.000Z</time>
      </trkpt>
      <trkpt lat="44.32506" lon="4.76193">
        <ele>280.4</ele>
        <time>2025-04-30T11:35:20.000Z</time>
      </trkpt>
      <trkpt lat="44.32508" lon="4.76191">
        <ele>280.1</ele>
        <time>2025-04-30T11:35:24.000Z</time>
      </trkpt>
      <trkpt lat="44.3251" lon="4.76189">
        <ele>279.9</ele>
        <time>2025-04-30T11:35:26.000Z</time>
      </trkpt>
      <trkpt lat="44.32512" lon="4.76188">
        <ele>279.6</ele>
        <time>2025-04-30T11:35:31.000Z</time>
      </trkpt>
      <trkpt lat="44.32515" lon="4.76187">
        <ele>279.4</ele>
        <time>2025-04-30T11:35:34.000Z</time>
      </trkpt>
      <trkpt lat="44.32516" lon="4.76186">
        <ele>279.3</ele>
        <time>2025-04-30T11:35:37.000Z</time>
      </trkpt>
      <trkpt lat="44.3252" lon="4.76185">
        <ele>279</ele>
        <time>2025-04-30T11:35:41.000Z</time>
      </trkpt>
      <trkpt lat="44.32522" lon="4.76183">
        <ele>278.9</ele>
        <time>2025-04-30T11:35:43.000Z</time>
      </trkpt>
      <trkpt lat="44.32524" lon="4.76183">
        <ele>278.8</ele>
        <time>2025-04-30T11:35:45.000Z</time>
      </trkpt>
      <trkpt lat="44.32526" lon="4.76183">
        <ele>278.7</ele>
        <time>2025-04-30T11:35:48.000Z</time>
      </trkpt>
      <trkpt lat="44.32528" lon="4.76184">
        <ele>278.6</ele>
        <time>2025-04-30T11:35:51.000Z</time>
      </trkpt>
      <trkpt lat="44.3253" lon="4.76185">
        <ele>278.5</ele>
        <time>2025-04-30T11:35:54.000Z</time>
      </trkpt>
      <trkpt lat="44.32533" lon="4.76185">
        <ele>278.4</ele>
        <time>2025-04-30T11:35:57.000Z</time>
      </trkpt>
      <trkpt lat="44.32535" lon="4.76185">
        <ele>278.3</ele>
        <time>2025-04-30T11:36:00.000Z</time>
      </trkpt>
      <trkpt lat="44.32537" lon="4.76186">
        <ele>278.2</ele>
        <time>2025-04-30T11:36:03.000Z</time>
      </trkpt>
      <trkpt lat="44.32539" lon="4.76187">
        <ele>278.1</ele>
        <time>2025-04-30T11:36:06.000Z</time>
      </trkpt>
      <trkpt lat="44.32541" lon="4.76188">
        <ele>278</ele>
        <time>2025-04-30T11:36:10.000Z</time>
      </trkpt>
      <trkpt lat="44.32543" lon="4.7619">
        <ele>277.9</ele>
        <time>2025-04-30T11:37:24.000Z</time>
      </trkpt>
      <trkpt lat="44.32545" lon="4.76191">
        <ele>277.8</ele>
        <time>2025-04-30T11:37:37.000Z</time>
      </trkpt>
      <trkpt lat="44.32546" lon="4.76194">
        <ele>277.7</ele>
        <time>2025-04-30T11:38:01.000Z</time>
      </trkpt>
      <trkpt lat="44.32548" lon="4.76193">
        <ele>277.6</ele>
        <time>2025-04-30T11:38:16.000Z</time>
      </trkpt>
      <trkpt lat="44.3255" lon="4.76193">
        <ele>277.4</ele>
        <time>2025-04-30T11:38:19.000Z</time>
      </trkpt>
      <trkpt lat="44.32553" lon="4.76193">
        <ele>277.2</ele>
        <time>2025-04-30T11:38:23.000Z</time>
      </trkpt>
      <trkpt lat="44.32556" lon="4.76193">
        <ele>277</ele>
        <time>2025-04-30T11:38:26.000Z</time>
      </trkpt>
      <trkpt lat="44.32559" lon="4.76194">
        <ele>276.3</ele>
        <time>2025-04-30T11:38:29.000Z</time>
      </trkpt>
      <trkpt lat="44.32561" lon="4.76195">
        <ele>275.7</ele>
        <time>2025-04-30T11:38:32.000Z</time>
      </trkpt>
      <trkpt lat="44.32563" lon="4.76195">
        <ele>275.2</ele>
        <time>2025-04-30T11:38:36.000Z</time>
      </trkpt>
      <trkpt lat="44.32564" lon="4.76198">
        <ele>275.1</ele>
        <time>2025-04-30T11:38:41.000Z</time>
      </trkpt>
      <trkpt lat="44.32565" lon="4.762">
        <ele>275</ele>
        <time>2025-04-30T11:38:44.000Z</time>
      </trkpt>
      <trkpt lat="44.32567" lon="4.76202">
        <ele>274.7</ele>
        <time>2025-04-30T11:38:47.000Z</time>
      </trkpt>
      <trkpt lat="44.32568" lon="4.76204">
        <ele>274.7</ele>
        <time>2025-04-30T11:38:49.000Z</time>
      </trkpt>
      <trkpt lat="44.32569" lon="4.76208">
        <ele>274.8</ele>
        <time>2025-04-30T11:38:53.000Z</time>
      </trkpt>
      <trkpt lat="44.3257" lon="4.7621">
        <ele>274.8</ele>
        <time>2025-04-30T11:38:55.000Z</time>
      </trkpt>
      <trkpt lat="44.3257" lon="4.76213">
        <ele>275</ele>
        <time>2025-04-30T11:38:57.000Z</time>
      </trkpt>
      <trkpt lat="44.3257" lon="4.76216">
        <ele>275.3</ele>
        <time>2025-04-30T11:39:00.000Z</time>
      </trkpt>
      <trkpt lat="44.32571" lon="4.76219">
        <ele>275.3</ele>
        <time>2025-04-30T11:39:02.000Z</time>
      </trkpt>
      <trkpt lat="44.32572" lon="4.76222">
        <ele>275.4</ele>
        <time>2025-04-30T11:39:05.000Z</time>
      </trkpt>
      <trkpt lat="44.32573" lon="4.76224">
        <ele>275.5</ele>
        <time>2025-04-30T11:39:07.000Z</time>
      </trkpt>
      <trkpt lat="44.32574" lon="4.76227">
        <ele>275.5</ele>
        <time>2025-04-30T11:39:10.000Z</time>
      </trkpt>
      <trkpt lat="44.32575" lon="4.7623">
        <ele>275.6</ele>
        <time>2025-04-30T11:39:12.000Z</time>
      </trkpt>
      <trkpt lat="44.32575" lon="4.76232">
        <ele>275.7</ele>
        <time>2025-04-30T11:39:14.000Z</time>
      </trkpt>
      <trkpt lat="44.32577" lon="4.76235">
        <ele>275.7</ele>
        <time>2025-04-30T11:39:17.000Z</time>
      </trkpt>
      <trkpt lat="44.32578" lon="4.76238">
        <ele>275.9</ele>
        <time>2025-04-30T11:39:19.000Z</time>
      </trkpt>
      <trkpt lat="44.32579" lon="4.76241">
        <ele>275.9</ele>
        <time>2025-04-30T11:39:21.000Z</time>
      </trkpt>
      <trkpt lat="44.3258" lon="4.76244">
        <ele>276</ele>
        <time>2025-04-30T11:39:24.000Z</time>
      </trkpt>
      <trkpt lat="44.32581" lon="4.76247">
        <ele>276.1</ele>
        <time>2025-04-30T11:39:27.000Z</time>
      </trkpt>
      <trkpt lat="44.32582" lon="4.7625">
        <ele>276.2</ele>
        <time>2025-04-30T11:39:30.000Z</time>
      </trkpt>
      <trkpt lat="44.32583" lon="4.76254">
        <ele>276.3</ele>
        <time>2025-04-30T11:39:34.000Z</time>
      </trkpt>
      <trkpt lat="44.32585" lon="4.76257">
        <ele>276.1</ele>
        <time>2025-04-30T11:39:37.000Z</time>
      </trkpt>
      <trkpt lat="44.32585" lon="4.7626">
        <ele>276.2</ele>
        <time>2025-04-30T11:39:39.000Z</time>
      </trkpt>
      <trkpt lat="44.32585" lon="4.76264">
        <ele>276.5</ele>
        <time>2025-04-30T11:39:42.000Z</time>
      </trkpt>
      <trkpt lat="44.32587" lon="4.76267">
        <ele>276.4</ele>
        <time>2025-04-30T11:39:45.000Z</time>
      </trkpt>
      <trkpt lat="44.32588" lon="4.7627">
        <ele>276.3</ele>
        <time>2025-04-30T11:39:48.000Z</time>
      </trkpt>
      <trkpt lat="44.32589" lon="4.76273">
        <ele>276.4</ele>
        <time>2025-04-30T11:39:50.000Z</time>
      </trkpt>
      <trkpt lat="44.3259" lon="4.76275">
        <ele>276.3</ele>
        <time>2025-04-30T11:39:52.000Z</time>
      </trkpt>
      <trkpt lat="44.32591" lon="4.76278">
        <ele>276.4</ele>
        <time>2025-04-30T11:39:55.000Z</time>
      </trkpt>
      <trkpt lat="44.32592" lon="4.76281">
        <ele>276.5</ele>
        <time>2025-04-30T11:39:57.000Z</time>
      </trkpt>
      <trkpt lat="44.32592" lon="4.76284">
        <ele>276.6</ele>
        <time>2025-04-30T11:40:00.000Z</time>
      </trkpt>
      <trkpt lat="44.32593" lon="4.76286">
        <ele>276.7</ele>
        <time>2025-04-30T11:40:03.000Z</time>
      </trkpt>
      <trkpt lat="44.32595" lon="4.76289">
        <ele>276.7</ele>
        <time>2025-04-30T11:40:05.000Z</time>
      </trkpt>
      <trkpt lat="44.32595" lon="4.76291">
        <ele>276.8</ele>
        <time>2025-04-30T11:40:07.000Z</time>
      </trkpt>
      <trkpt lat="44.32596" lon="4.76294">
        <ele>276.9</ele>
        <time>2025-04-30T11:40:10.000Z</time>
      </trkpt>
      <trkpt lat="44.32597" lon="4.76297">
        <ele>277.1</ele>
        <time>2025-04-30T11:40:13.000Z</time>
      </trkpt>
      <trkpt lat="44.32598" lon="4.76299">
        <ele>277.1</ele>
        <time>2025-04-30T11:40:15.000Z</time>
      </trkpt>
      <trkpt lat="44.326" lon="4.76301">
        <ele>277.1</ele>
        <time>2025-04-30T11:40:17.000Z</time>
      </trkpt>
      <trkpt lat="44.32601" lon="4.76304">
        <ele>277.2</ele>
        <time>2025-04-30T11:40:19.000Z</time>
      </trkpt>
      <trkpt lat="44.32603" lon="4.76306">
        <ele>277.3</ele>
        <time>2025-04-30T11:40:21.000Z</time>
      </trkpt>
      <trkpt lat="44.32604" lon="4.76308">
        <ele>277.3</ele>
        <time>2025-04-30T11:40:23.000Z</time>
      </trkpt>
      <trkpt lat="44.32605" lon="4.7631">
        <ele>277.3</ele>
        <time>2025-04-30T11:40:25.000Z</time>
      </trkpt>
      <trkpt lat="44.32607" lon="4.76312">
        <ele>277.3</ele>
        <time>2025-04-30T11:40:27.000Z</time>
      </trkpt>
      <trkpt lat="44.32608" lon="4.76316">
        <ele>277.4</ele>
        <time>2025-04-30T11:40:30.000Z</time>
      </trkpt>
      <trkpt lat="44.3261" lon="4.76319">
        <ele>277.6</ele>
        <time>2025-04-30T11:40:33.000Z</time>
      </trkpt>
      <trkpt lat="44.32612" lon="4.76322">
        <ele>277.7</ele>
        <time>2025-04-30T11:40:36.000Z</time>
      </trkpt>
      <trkpt lat="44.32616" lon="4.76321">
        <ele>277.2</ele>
        <time>2025-04-30T11:40:51.000Z</time>
      </trkpt>
      <trkpt lat="44.32618" lon="4.7632">
        <ele>276.8</ele>
        <time>2025-04-30T11:40:54.000Z</time>
      </trkpt>
      <trkpt lat="44.3262" lon="4.76319">
        <ele>276.5</ele>
        <time>2025-04-30T11:40:56.000Z</time>
      </trkpt>
      <trkpt lat="44.32622" lon="4.76317">
        <ele>276.1</ele>
        <time>2025-04-30T11:40:58.000Z</time>
      </trkpt>
      <trkpt lat="44.32625" lon="4.76318">
        <ele>275.8</ele>
        <time>2025-04-30T11:41:01.000Z</time>
      </trkpt>
      <trkpt lat="44.32627" lon="4.76319">
        <ele>275.8</ele>
        <time>2025-04-30T11:41:03.000Z</time>
      </trkpt>
      <trkpt lat="44.32629" lon="4.76322">
        <ele>275.8</ele>
        <time>2025-04-30T11:41:06.000Z</time>
      </trkpt>
      <trkpt lat="44.3263" lon="4.76323">
        <ele>275.8</ele>
        <time>2025-04-30T11:41:08.000Z</time>
      </trkpt>
      <trkpt lat="44.32632" lon="4.76324">
        <ele>275.7</ele>
        <time>2025-04-30T11:41:11.000Z</time>
      </trkpt>
      <trkpt lat="44.32634" lon="4.76325">
        <ele>275.7</ele>
        <time>2025-04-30T11:41:13.000Z</time>
      </trkpt>
      <trkpt lat="44.32636" lon="4.76327">
        <ele>275.6</ele>
        <time>2025-04-30T11:41:15.000Z</time>
      </trkpt>
      <trkpt lat="44.32637" lon="4.76328">
        <ele>275.6</ele>
        <time>2025-04-30T11:41:17.000Z</time>
      </trkpt>
      <trkpt lat="44.3264" lon="4.76329">
        <ele>275.5</ele>
        <time>2025-04-30T11:41:21.000Z</time>
      </trkpt>
      <trkpt lat="44.32641" lon="4.76332">
        <ele>275.6</ele>
        <time>2025-04-30T11:41:24.000Z</time>
      </trkpt>
      <trkpt lat="44.32643" lon="4.76334">
        <ele>275.8</ele>
        <time>2025-04-30T11:41:26.000Z</time>
      </trkpt>
      <trkpt lat="44.32644" lon="4.76336">
        <ele>275.9</ele>
        <time>2025-04-30T11:41:29.000Z</time>
      </trkpt>
      <trkpt lat="44.32646" lon="4.76338">
        <ele>276</ele>
        <time>2025-04-30T11:41:32.000Z</time>
      </trkpt>
      <trkpt lat="44.32647" lon="4.7634">
        <ele>276.1</ele>
        <time>2025-04-30T11:41:34.000Z</time>
      </trkpt>
      <trkpt lat="44.3265" lon="4.76341">
        <ele>276.1</ele>
        <time>2025-04-30T11:41:37.000Z</time>
      </trkpt>
      <trkpt lat="44.32653" lon="4.76343">
        <ele>276.2</ele>
        <time>2025-04-30T11:41:39.000Z</time>
      </trkpt>
      <trkpt lat="44.32655" lon="4.76343">
        <ele>276</ele>
        <time>2025-04-30T11:41:41.000Z</time>
      </trkpt>
      <trkpt lat="44.32657" lon="4.76343">
        <ele>276</ele>
        <time>2025-04-30T11:41:43.000Z</time>
      </trkpt>
      <trkpt lat="44.32659" lon="4.76344">
        <ele>275.9</ele>
        <time>2025-04-30T11:41:45.000Z</time>
      </trkpt>
      <trkpt lat="44.32661" lon="4.76344">
        <ele>275.8</ele>
        <time>2025-04-30T11:41:47.000Z</time>
      </trkpt>
      <trkpt lat="44.32664" lon="4.76344">
        <ele>275.7</ele>
        <time>2025-04-30T11:41:50.000Z</time>
      </trkpt>
      <trkpt lat="44.32666" lon="4.76346">
        <ele>275.8</ele>
        <time>2025-04-30T11:41:52.000Z</time>
      </trkpt>
      <trkpt lat="44.32669" lon="4.76347">
        <ele>275.8</ele>
        <time>2025-04-30T11:41:54.000Z</time>
      </trkpt>
      <trkpt lat="44.32671" lon="4.76347">
        <ele>275.8</ele>
        <time>2025-04-30T11:41:56.000Z</time>
      </trkpt>
      <trkpt lat="44.32673" lon="4.76347">
        <ele>275.7</ele>
        <time>2025-04-30T11:41:58.000Z</time>
      </trkpt>
      <trkpt lat="44.32675" lon="4.76347">
        <ele>275.7</ele>
        <time>2025-04-30T11:42:00.000Z</time>
      </trkpt>
      <trkpt lat="44.32678" lon="4.76349">
        <ele>275.8</ele>
        <time>2025-04-30T11:42:03.000Z</time>
      </trkpt>
      <trkpt lat="44.32681" lon="4.76348">
        <ele>275.7</ele>
        <time>2025-04-30T11:42:06.000Z</time>
      </trkpt>
      <trkpt lat="44.32683" lon="4.76349">
        <ele>275.6</ele>
        <time>2025-04-30T11:42:08.000Z</time>
      </trkpt>
      <trkpt lat="44.32685" lon="4.76349">
        <ele>275.5</ele>
        <time>2025-04-30T11:42:10.000Z</time>
      </trkpt>
      <trkpt lat="44.32688" lon="4.7635">
        <ele>275.6</ele>
        <time>2025-04-30T11:42:12.000Z</time>
      </trkpt>
      <trkpt lat="44.3269" lon="4.7635">
        <ele>275.6</ele>
        <time>2025-04-30T11:42:13.000Z</time>
      </trkpt>
      <trkpt lat="44.32693" lon="4.76351">
        <ele>275.6</ele>
        <time>2025-04-30T11:42:15.000Z</time>
      </trkpt>
      <trkpt lat="44.32695" lon="4.76352">
        <ele>275.7</ele>
        <time>2025-04-30T11:42:17.000Z</time>
      </trkpt>
      <trkpt lat="44.32698" lon="4.76351">
        <ele>275.5</ele>
        <time>2025-04-30T11:42:19.000Z</time>
      </trkpt>
      <trkpt lat="44.32701" lon="4.76351">
        <ele>275.5</ele>
        <time>2025-04-30T11:42:21.000Z</time>
      </trkpt>
      <trkpt lat="44.32704" lon="4.76352">
        <ele>275.5</ele>
        <time>2025-04-30T11:42:23.000Z</time>
      </trkpt>
      <trkpt lat="44.32706" lon="4.76352">
        <ele>275.5</ele>
        <time>2025-04-30T11:42:25.000Z</time>
      </trkpt>
      <trkpt lat="44.32708" lon="4.76353">
        <ele>275.7</ele>
        <time>2025-04-30T11:42:27.000Z</time>
      </trkpt>
      <trkpt lat="44.3271" lon="4.76353">
        <ele>275.7</ele>
        <time>2025-04-30T11:42:29.000Z</time>
      </trkpt>
      <trkpt lat="44.32713" lon="4.76353">
        <ele>275.6</ele>
        <time>2025-04-30T11:42:31.000Z</time>
      </trkpt>
      <trkpt lat="44.32715" lon="4.76353">
        <ele>275.6</ele>
        <time>2025-04-30T11:42:33.000Z</time>
      </trkpt>
      <trkpt lat="44.32718" lon="4.76354">
        <ele>275.8</ele>
        <time>2025-04-30T11:42:35.000Z</time>
      </trkpt>
      <trkpt lat="44.3272" lon="4.76355">
        <ele>276</ele>
        <time>2025-04-30T11:42:37.000Z</time>
      </trkpt>
      <trkpt lat="44.32722" lon="4.76356">
        <ele>276</ele>
        <time>2025-04-30T11:42:39.000Z</time>
      </trkpt>
      <trkpt lat="44.32725" lon="4.76357">
        <ele>276.1</ele>
        <time>2025-04-30T11:42:41.000Z</time>
      </trkpt>
      <trkpt lat="44.32727" lon="4.76357">
        <ele>276</ele>
        <time>2025-04-30T11:42:42.000Z</time>
      </trkpt>
      <trkpt lat="44.3273" lon="4.76357">
        <ele>276</ele>
        <time>2025-04-30T11:42:44.000Z</time>
      </trkpt>
      <trkpt lat="44.32733" lon="4.76357">
        <ele>276</ele>
        <time>2025-04-30T11:42:48.000Z</time>
      </trkpt>
      <trkpt lat="44.32736" lon="4.76358">
        <ele>276</ele>
        <time>2025-04-30T11:42:50.000Z</time>
      </trkpt>
      <trkpt lat="44.32738" lon="4.76359">
        <ele>276</ele>
        <time>2025-04-30T11:42:52.000Z</time>
      </trkpt>
      <trkpt lat="44.32741" lon="4.76359">
        <ele>276</ele>
        <time>2025-04-30T11:42:54.000Z</time>
      </trkpt>
      <trkpt lat="44.32744" lon="4.7636">
        <ele>276</ele>
        <time>2025-04-30T11:42:56.000Z</time>
      </trkpt>
      <trkpt lat="44.32746" lon="4.76361">
        <ele>276.1</ele>
        <time>2025-04-30T11:42:58.000Z</time>
      </trkpt>
      <trkpt lat="44.32748" lon="4.7636">
        <ele>275.9</ele>
        <time>2025-04-30T11:43:00.000Z</time>
      </trkpt>
      <trkpt lat="44.3275" lon="4.76358">
        <ele>275.5</ele>
        <time>2025-04-30T11:43:02.000Z</time>
      </trkpt>
      <trkpt lat="44.32752" lon="4.76356">
        <ele>275.3</ele>
        <time>2025-04-30T11:43:04.000Z</time>
      </trkpt>
      <trkpt lat="44.32753" lon="4.76354">
        <ele>275.1</ele>
        <time>2025-04-30T11:43:06.000Z</time>
      </trkpt>
      <trkpt lat="44.32756" lon="4.76355">
        <ele>275.1</ele>
        <time>2025-04-30T11:43:08.000Z</time>
      </trkpt>
      <trkpt lat="44.32759" lon="4.76356">
        <ele>275.3</ele>
        <time>2025-04-30T11:43:10.000Z</time>
      </trkpt>
      <trkpt lat="44.32761" lon="4.76356">
        <ele>275.4</ele>
        <time>2025-04-30T11:43:12.000Z</time>
      </trkpt>
      <trkpt lat="44.32763" lon="4.76358">
        <ele>275.6</ele>
        <time>2025-04-30T11:43:14.000Z</time>
      </trkpt>
      <trkpt lat="44.32765" lon="4.76358">
        <ele>275.6</ele>
        <time>2025-04-30T11:43:16.000Z</time>
      </trkpt>
      <trkpt lat="44.32768" lon="4.76357">
        <ele>275.5</ele>
        <time>2025-04-30T11:43:18.000Z</time>
      </trkpt>
      <trkpt lat="44.32771" lon="4.76357">
        <ele>275.5</ele>
        <time>2025-04-30T11:43:20.000Z</time>
      </trkpt>
      <trkpt lat="44.32773" lon="4.76356">
        <ele>275.4</ele>
        <time>2025-04-30T11:43:22.000Z</time>
      </trkpt>
      <trkpt lat="44.32775" lon="4.76356">
        <ele>275.4</ele>
        <time>2025-04-30T11:43:24.000Z</time>
      </trkpt>
      <trkpt lat="44.32777" lon="4.76356">
        <ele>275.4</ele>
        <time>2025-04-30T11:43:26.000Z</time>
      </trkpt>
      <trkpt lat="44.3278" lon="4.76356">
        <ele>275.5</ele>
        <time>2025-04-30T11:43:28.000Z</time>
      </trkpt>
      <trkpt lat="44.32782" lon="4.76357">
        <ele>275.5</ele>
        <time>2025-04-30T11:43:30.000Z</time>
      </trkpt>
      <trkpt lat="44.32785" lon="4.76357">
        <ele>275.5</ele>
        <time>2025-04-30T11:43:32.000Z</time>
      </trkpt>
      <trkpt lat="44.32787" lon="4.76357">
        <ele>275.5</ele>
        <time>2025-04-30T11:43:34.000Z</time>
      </trkpt>
      <trkpt lat="44.32789" lon="4.76357">
        <ele>275.4</ele>
        <time>2025-04-30T11:43:36.000Z</time>
      </trkpt>
      <trkpt lat="44.32793" lon="4.76357">
        <ele>275.5</ele>
        <time>2025-04-30T11:43:39.000Z</time>
      </trkpt>
      <trkpt lat="44.32795" lon="4.76358">
        <ele>275.5</ele>
        <time>2025-04-30T11:43:42.000Z</time>
      </trkpt>
      <trkpt lat="44.32797" lon="4.76358">
        <ele>275.6</ele>
        <time>2025-04-30T11:43:44.000Z</time>
      </trkpt>
      <trkpt lat="44.32799" lon="4.76359">
        <ele>275.7</ele>
        <time>2025-04-30T11:43:46.000Z</time>
      </trkpt>
      <trkpt lat="44.32801" lon="4.7636">
        <ele>275.8</ele>
        <time>2025-04-30T11:43:48.000Z</time>
      </trkpt>
      <trkpt lat="44.32803" lon="4.76361">
        <ele>275.9</ele>
        <time>2025-04-30T11:43:51.000Z</time>
      </trkpt>
      <trkpt lat="44.32805" lon="4.76362">
        <ele>276.1</ele>
        <time>2025-04-30T11:43:56.000Z</time>
      </trkpt>
      <trkpt lat="44.32807" lon="4.76364">
        <ele>276</ele>
        <time>2025-04-30T11:43:58.000Z</time>
      </trkpt>
      <trkpt lat="44.32809" lon="4.76366">
        <ele>275.8</ele>
        <time>2025-04-30T11:44:01.000Z</time>
      </trkpt>
      <trkpt lat="44.32811" lon="4.76367">
        <ele>275.7</ele>
        <time>2025-04-30T11:44:03.000Z</time>
      </trkpt>
      <trkpt lat="44.32813" lon="4.76369">
        <ele>275.5</ele>
        <time>2025-04-30T11:44:06.000Z</time>
      </trkpt>
      <trkpt lat="44.32815" lon="4.76371">
        <ele>275.4</ele>
        <time>2025-04-30T11:44:09.000Z</time>
      </trkpt>
      <trkpt lat="44.32817" lon="4.76372">
        <ele>275.3</ele>
        <time>2025-04-30T11:44:12.000Z</time>
      </trkpt>
      <trkpt lat="44.3282" lon="4.76374">
        <ele>275.1</ele>
        <time>2025-04-30T11:44:16.000Z</time>
      </trkpt>
      <trkpt lat="44.32822" lon="4.76375">
        <ele>275</ele>
        <time>2025-04-30T11:44:18.000Z</time>
      </trkpt>
      <trkpt lat="44.32825" lon="4.76378">
        <ele>274.9</ele>
        <time>2025-04-30T11:44:22.000Z</time>
      </trkpt>
      <trkpt lat="44.32826" lon="4.7638">
        <ele>274.8</ele>
        <time>2025-04-30T11:44:24.000Z</time>
      </trkpt>
      <trkpt lat="44.32828" lon="4.76382">
        <ele>274.8</ele>
        <time>2025-04-30T11:44:26.000Z</time>
      </trkpt>
      <trkpt lat="44.32831" lon="4.76384">
        <ele>274.8</ele>
        <time>2025-04-30T11:44:29.000Z</time>
      </trkpt>
      <trkpt lat="44.32832" lon="4.76386">
        <ele>274.8</ele>
        <time>2025-04-30T11:44:31.000Z</time>
      </trkpt>
      <trkpt lat="44.32834" lon="4.76387">
        <ele>274.7</ele>
        <time>2025-04-30T11:44:33.000Z</time>
      </trkpt>
      <trkpt lat="44.32836" lon="4.76389">
        <ele>274.6</ele>
        <time>2025-04-30T11:44:36.000Z</time>
      </trkpt>
      <trkpt lat="44.32839" lon="4.76392">
        <ele>274.3</ele>
        <time>2025-04-30T11:44:41.000Z</time>
      </trkpt>
      <trkpt lat="44.3284" lon="4.76393">
        <ele>274.1</ele>
        <time>2025-04-30T11:44:43.000Z</time>
      </trkpt>
      <trkpt lat="44.32841" lon="4.76396">
        <ele>274.1</ele>
        <time>2025-04-30T11:44:45.000Z</time>
      </trkpt>
      <trkpt lat="44.32843" lon="4.76399">
        <ele>274</ele>
        <time>2025-04-30T11:44:48.000Z</time>
      </trkpt>
      <trkpt lat="44.32846" lon="4.764">
        <ele>273.8</ele>
        <time>2025-04-30T11:44:50.000Z</time>
      </trkpt>
      <trkpt lat="44.32848" lon="4.76401">
        <ele>273.6</ele>
        <time>2025-04-30T11:44:52.000Z</time>
      </trkpt>
      <trkpt lat="44.3285" lon="4.76402">
        <ele>273.3</ele>
        <time>2025-04-30T11:44:56.000Z</time>
      </trkpt>
      <trkpt lat="44.32852" lon="4.76403">
        <ele>273</ele>
        <time>2025-04-30T11:44:58.000Z</time>
      </trkpt>
      <trkpt lat="44.32854" lon="4.76404">
        <ele>272.8</ele>
        <time>2025-04-30T11:45:01.000Z</time>
      </trkpt>
      <trkpt lat="44.32856" lon="4.76406">
        <ele>272.6</ele>
        <time>2025-04-30T11:45:03.000Z</time>
      </trkpt>
      <trkpt lat="44.32858" lon="4.76408">
        <ele>272.6</ele>
        <time>2025-04-30T11:45:05.000Z</time>
      </trkpt>
      <trkpt lat="44.32859" lon="4.76409">
        <ele>272.5</ele>
        <time>2025-04-30T11:45:07.000Z</time>
      </trkpt>
      <trkpt lat="44.32862" lon="4.7641">
        <ele>272.2</ele>
        <time>2025-04-30T11:45:19.000Z</time>
      </trkpt>
      <trkpt lat="44.32864" lon="4.76411">
        <ele>272.1</ele>
        <time>2025-04-30T11:45:26.000Z</time>
      </trkpt>
      <trkpt lat="44.32867" lon="4.76412">
        <ele>271.8</ele>
        <time>2025-04-30T11:45:29.000Z</time>
      </trkpt>
      <trkpt lat="44.32869" lon="4.76413">
        <ele>271.8</ele>
        <time>2025-04-30T11:45:32.000Z</time>
      </trkpt>
      <trkpt lat="44.32871" lon="4.76414">
        <ele>271.6</ele>
        <time>2025-04-30T11:45:34.000Z</time>
      </trkpt>
      <trkpt lat="44.32873" lon="4.76414">
        <ele>271.5</ele>
        <time>2025-04-30T11:45:36.000Z</time>
      </trkpt>
      <trkpt lat="44.32875" lon="4.76415">
        <ele>271.3</ele>
        <time>2025-04-30T11:45:38.000Z</time>
      </trkpt>
      <trkpt lat="44.32877" lon="4.76416">
        <ele>271.2</ele>
        <time>2025-04-30T11:45:40.000Z</time>
      </trkpt>
      <trkpt lat="44.32879" lon="4.76418">
        <ele>271</ele>
        <time>2025-04-30T11:45:43.000Z</time>
      </trkpt>
      <trkpt lat="44.32881" lon="4.76421">
        <ele>270.8</ele>
        <time>2025-04-30T11:45:46.000Z</time>
      </trkpt>
      <trkpt lat="44.32883" lon="4.76422">
        <ele>270.5</ele>
        <time>2025-04-30T11:45:49.000Z</time>
      </trkpt>
      <trkpt lat="44.32885" lon="4.76423">
        <ele>270.3</ele>
        <time>2025-04-30T11:45:51.000Z</time>
      </trkpt>
      <trkpt lat="44.32887" lon="4.76422">
        <ele>270</ele>
        <time>2025-04-30T11:45:53.000Z</time>
      </trkpt>
      <trkpt lat="44.3289" lon="4.76422">
        <ele>269.8</ele>
        <time>2025-04-30T11:45:55.000Z</time>
      </trkpt>
      <trkpt lat="44.32893" lon="4.76421">
        <ele>269.7</ele>
        <time>2025-04-30T11:45:57.000Z</time>
      </trkpt>
      <trkpt lat="44.32895" lon="4.76422">
        <ele>269.6</ele>
        <time>2025-04-30T11:45:59.000Z</time>
      </trkpt>
      <trkpt lat="44.32898" lon="4.76422">
        <ele>269.4</ele>
        <time>2025-04-30T11:46:01.000Z</time>
      </trkpt>
      <trkpt lat="44.32901" lon="4.76424">
        <ele>269.2</ele>
        <time>2025-04-30T11:46:03.000Z</time>
      </trkpt>
      <trkpt lat="44.32904" lon="4.76424">
        <ele>269.1</ele>
        <time>2025-04-30T11:46:06.000Z</time>
      </trkpt>
      <trkpt lat="44.32906" lon="4.76425">
        <ele>268.9</ele>
        <time>2025-04-30T11:46:08.000Z</time>
      </trkpt>
      <trkpt lat="44.32908" lon="4.76425">
        <ele>268.8</ele>
        <time>2025-04-30T11:46:11.000Z</time>
      </trkpt>
      <trkpt lat="44.3291" lon="4.76425">
        <ele>268.7</ele>
        <time>2025-04-30T11:46:13.000Z</time>
      </trkpt>
      <trkpt lat="44.32912" lon="4.76425">
        <ele>268.6</ele>
        <time>2025-04-30T11:46:17.000Z</time>
      </trkpt>
      <trkpt lat="44.32916" lon="4.76426">
        <ele>268.3</ele>
        <time>2025-04-30T11:46:22.000Z</time>
      </trkpt>
      <trkpt lat="44.32918" lon="4.76427">
        <ele>268.2</ele>
        <time>2025-04-30T11:46:25.000Z</time>
      </trkpt>
      <trkpt lat="44.32921" lon="4.76428">
        <ele>268</ele>
        <time>2025-04-30T11:46:28.000Z</time>
      </trkpt>
      <trkpt lat="44.32923" lon="4.76428">
        <ele>267.9</ele>
        <time>2025-04-30T11:46:30.000Z</time>
      </trkpt>
      <trkpt lat="44.32925" lon="4.76429">
        <ele>267.7</ele>
        <time>2025-04-30T11:46:32.000Z</time>
      </trkpt>
      <trkpt lat="44.32928" lon="4.7643">
        <ele>267.6</ele>
        <time>2025-04-30T11:46:34.000Z</time>
      </trkpt>
      <trkpt lat="44.3293" lon="4.76431">
        <ele>267.5</ele>
        <time>2025-04-30T11:46:36.000Z</time>
      </trkpt>
      <trkpt lat="44.32933" lon="4.76432">
        <ele>267.4</ele>
        <time>2025-04-30T11:46:38.000Z</time>
      </trkpt>
      <trkpt lat="44.32935" lon="4.76433">
        <ele>267.4</ele>
        <time>2025-04-30T11:46:40.000Z</time>
      </trkpt>
      <trkpt lat="44.32938" lon="4.76434">
        <ele>267.4</ele>
        <time>2025-04-30T11:46:42.000Z</time>
      </trkpt>
      <trkpt lat="44.3294" lon="4.76436">
        <ele>267.4</ele>
        <time>2025-04-30T11:46:44.000Z</time>
      </trkpt>
      <trkpt lat="44.32939" lon="4.76439">
        <ele>267.6</ele>
        <time>2025-04-30T11:46:47.000Z</time>
      </trkpt>
      <trkpt lat="44.32941" lon="4.76442">
        <ele>267.8</ele>
        <time>2025-04-30T11:47:09.000Z</time>
      </trkpt>
      <trkpt lat="44.32942" lon="4.76445">
        <ele>268</ele>
        <time>2025-04-30T11:47:11.000Z</time>
      </trkpt>
      <trkpt lat="44.32941" lon="4.76449">
        <ele>268.2</ele>
        <time>2025-04-30T11:47:13.000Z</time>
      </trkpt>
      <trkpt lat="44.32942" lon="4.76452">
        <ele>268.4</ele>
        <time>2025-04-30T11:47:17.000Z</time>
      </trkpt>
      <trkpt lat="44.32941" lon="4.76455">
        <ele>268.6</ele>
        <time>2025-04-30T11:47:20.000Z</time>
      </trkpt>
      <trkpt lat="44.32941" lon="4.76458">
        <ele>268.8</ele>
        <time>2025-04-30T11:47:22.000Z</time>
      </trkpt>
      <trkpt lat="44.3294" lon="4.76461">
        <ele>269</ele>
        <time>2025-04-30T11:47:25.000Z</time>
      </trkpt>
      <trkpt lat="44.3294" lon="4.76464">
        <ele>269.1</ele>
        <time>2025-04-30T11:47:27.000Z</time>
      </trkpt>
      <trkpt lat="44.32939" lon="4.76466">
        <ele>269.2</ele>
        <time>2025-04-30T11:47:29.000Z</time>
      </trkpt>
      <trkpt lat="44.32938" lon="4.76469">
        <ele>269.3</ele>
        <time>2025-04-30T11:47:31.000Z</time>
      </trkpt>
      <trkpt lat="44.32938" lon="4.76474">
        <ele>269.6</ele>
        <time>2025-04-30T11:47:36.000Z</time>
      </trkpt>
      <trkpt lat="44.32937" lon="4.76477">
        <ele>269.7</ele>
        <time>2025-04-30T11:47:39.000Z</time>
      </trkpt>
      <trkpt lat="44.32936" lon="4.7648">
        <ele>269.8</ele>
        <time>2025-04-30T11:47:42.000Z</time>
      </trkpt>
      <trkpt lat="44.32937" lon="4.76483">
        <ele>269.9</ele>
        <time>2025-04-30T11:47:45.000Z</time>
      </trkpt>
      <trkpt lat="44.32936" lon="4.76487">
        <ele>270</ele>
        <time>2025-04-30T11:47:48.000Z</time>
      </trkpt>
      <trkpt lat="44.32934" lon="4.76491">
        <ele>270.1</ele>
        <time>2025-04-30T11:47:50.000Z</time>
      </trkpt>
      <trkpt lat="44.32935" lon="4.76493">
        <ele>270.3</ele>
        <time>2025-04-30T11:47:52.000Z</time>
      </trkpt>
      <trkpt lat="44.32937" lon="4.76496">
        <ele>270.5</ele>
        <time>2025-04-30T11:47:54.000Z</time>
      </trkpt>
      <trkpt lat="44.32939" lon="4.76497">
        <ele>270.7</ele>
        <time>2025-04-30T11:47:56.000Z</time>
      </trkpt>
      <trkpt lat="44.32942" lon="4.76498">
        <ele>270.8</ele>
        <time>2025-04-30T11:47:58.000Z</time>
      </trkpt>
      <trkpt lat="44.32944" lon="4.76499">
        <ele>270.9</ele>
        <time>2025-04-30T11:48:00.000Z</time>
      </trkpt>
      <trkpt lat="44.32946" lon="4.76501">
        <ele>271</ele>
        <time>2025-04-30T11:48:02.000Z</time>
      </trkpt>
      <trkpt lat="44.32947" lon="4.76503">
        <ele>271</ele>
        <time>2025-04-30T11:48:04.000Z</time>
      </trkpt>
      <trkpt lat="44.3295" lon="4.76503">
        <ele>271</ele>
        <time>2025-04-30T11:48:06.000Z</time>
      </trkpt>
      <trkpt lat="44.32952" lon="4.76505">
        <ele>270.9</ele>
        <time>2025-04-30T11:48:08.000Z</time>
      </trkpt>
      <trkpt lat="44.32954" lon="4.76507">
        <ele>270.9</ele>
        <time>2025-04-30T11:48:10.000Z</time>
      </trkpt>
      <trkpt lat="44.32956" lon="4.76507">
        <ele>270.9</ele>
        <time>2025-04-30T11:48:14.000Z</time>
      </trkpt>
      <trkpt lat="44.32959" lon="4.76507">
        <ele>270.9</ele>
        <time>2025-04-30T11:48:17.000Z</time>
      </trkpt>
      <trkpt lat="44.32962" lon="4.76506">
        <ele>270.9</ele>
        <time>2025-04-30T11:48:20.000Z</time>
      </trkpt>
      <trkpt lat="44.32963" lon="4.76505">
        <ele>270.9</ele>
        <time>2025-04-30T11:48:22.000Z</time>
      </trkpt>
      <trkpt lat="44.32965" lon="4.76505">
        <ele>270.9</ele>
        <time>2025-04-30T11:48:26.000Z</time>
      </trkpt>
      <trkpt lat="44.32968" lon="4.76503">
        <ele>270.9</ele>
        <time>2025-04-30T11:48:32.000Z</time>
      </trkpt>
      <trkpt lat="44.32968" lon="4.76505">
        <ele>270.8</ele>
        <time>2025-04-30T11:48:36.000Z</time>
      </trkpt>
      <trkpt lat="44.3297" lon="4.76505">
        <ele>270.8</ele>
        <time>2025-04-30T11:48:38.000Z</time>
      </trkpt>
      <trkpt lat="44.32974" lon="4.76506">
        <ele>270.8</ele>
        <time>2025-04-30T11:48:44.000Z</time>
      </trkpt>
      <trkpt lat="44.32976" lon="4.76506">
        <ele>270.9</ele>
        <time>2025-04-30T11:48:47.000Z</time>
      </trkpt>
      <trkpt lat="44.32979" lon="4.76507">
        <ele>270.9</ele>
        <time>2025-04-30T11:48:50.000Z</time>
      </trkpt>
      <trkpt lat="44.32981" lon="4.76508">
        <ele>271</ele>
        <time>2025-04-30T11:48:52.000Z</time>
      </trkpt>
      <trkpt lat="44.32983" lon="4.76509">
        <ele>271</ele>
        <time>2025-04-30T11:48:54.000Z</time>
      </trkpt>
      <trkpt lat="44.32985" lon="4.7651">
        <ele>271.1</ele>
        <time>2025-04-30T11:48:56.000Z</time>
      </trkpt>
      <trkpt lat="44.32987" lon="4.76509">
        <ele>271.2</ele>
        <time>2025-04-30T11:48:58.000Z</time>
      </trkpt>
      <trkpt lat="44.32989" lon="4.7651">
        <ele>271.3</ele>
        <time>2025-04-30T11:49:00.000Z</time>
      </trkpt>
      <trkpt lat="44.32991" lon="4.7651">
        <ele>271.4</ele>
        <time>2025-04-30T11:49:03.000Z</time>
      </trkpt>
      <trkpt lat="44.32994" lon="4.76512">
        <ele>271.6</ele>
        <time>2025-04-30T11:49:05.000Z</time>
      </trkpt>
      <trkpt lat="44.32995" lon="4.76515">
        <ele>271.8</ele>
        <time>2025-04-30T11:49:06.000Z</time>
      </trkpt>
      <trkpt lat="44.32998" lon="4.76518">
        <ele>272.1</ele>
        <time>2025-04-30T11:49:07.000Z</time>
      </trkpt>
      <trkpt lat="44.33" lon="4.76519">
        <ele>272.4</ele>
        <time>2025-04-30T11:49:08.000Z</time>
      </trkpt>
      <trkpt lat="44.33002" lon="4.76521">
        <ele>272.7</ele>
        <time>2025-04-30T11:49:10.000Z</time>
      </trkpt>
      <trkpt lat="44.33004" lon="4.76523">
        <ele>273</ele>
        <time>2025-04-30T11:49:12.000Z</time>
      </trkpt>
      <trkpt lat="44.33003" lon="4.76526">
        <ele>273.2</ele>
        <time>2025-04-30T11:49:16.000Z</time>
      </trkpt>
      <trkpt lat="44.33004" lon="4.76529">
        <ele>273.5</ele>
        <time>2025-04-30T11:49:20.000Z</time>
      </trkpt>
      <trkpt lat="44.33004" lon="4.76532">
        <ele>273.7</ele>
        <time>2025-04-30T11:49:28.000Z</time>
      </trkpt>
      <trkpt lat="44.33005" lon="4.76534">
        <ele>274</ele>
        <time>2025-04-30T11:49:30.000Z</time>
      </trkpt>
      <trkpt lat="44.33005" lon="4.76537">
        <ele>274.2</ele>
        <time>2025-04-30T11:49:34.000Z</time>
      </trkpt>
      <trkpt lat="44.33003" lon="4.76539">
        <ele>274.1</ele>
        <time>2025-04-30T11:49:36.000Z</time>
      </trkpt>
      <trkpt lat="44.33003" lon="4.76546">
        <ele>274.5</ele>
        <time>2025-04-30T11:49:39.000Z</time>
      </trkpt>
      <trkpt lat="44.33003" lon="4.76549">
        <ele>274.8</ele>
        <time>2025-04-30T11:49:41.000Z</time>
      </trkpt>
      <trkpt lat="44.33005" lon="4.76548">
        <ele>274.8</ele>
        <time>2025-04-30T11:49:49.000Z</time>
      </trkpt>
      <trkpt lat="44.33006" lon="4.76551">
        <ele>275.1</ele>
        <time>2025-04-30T11:49:51.000Z</time>
      </trkpt>
      <trkpt lat="44.33006" lon="4.76554">
        <ele>275.3</ele>
        <time>2025-04-30T11:49:53.000Z</time>
      </trkpt>
      <trkpt lat="44.33006" lon="4.76556">
        <ele>275.5</ele>
        <time>2025-04-30T11:49:55.000Z</time>
      </trkpt>
      <trkpt lat="44.33008" lon="4.76557">
        <ele>275.6</ele>
        <time>2025-04-30T11:49:56.000Z</time>
      </trkpt>
      <trkpt lat="44.33011" lon="4.76556">
        <ele>275.8</ele>
        <time>2025-04-30T11:50:00.000Z</time>
      </trkpt>
      <trkpt lat="44.33012" lon="4.76553">
        <ele>275.7</ele>
        <time>2025-04-30T11:50:02.000Z</time>
      </trkpt>
      <trkpt lat="44.33011" lon="4.7655">
        <ele>275.5</ele>
        <time>2025-04-30T11:50:05.000Z</time>
      </trkpt>
      <trkpt lat="44.33009" lon="4.76547">
        <ele>275.2</ele>
        <time>2025-04-30T11:50:07.000Z</time>
      </trkpt>
      <trkpt lat="44.33008" lon="4.76543">
        <ele>274.8</ele>
        <time>2025-04-30T11:50:09.000Z</time>
      </trkpt>
      <trkpt lat="44.33007" lon="4.76541">
        <ele>274.6</ele>
        <time>2025-04-30T11:50:11.000Z</time>
      </trkpt>
      <trkpt lat="44.33009" lon="4.76542">
        <ele>274.9</ele>
        <time>2025-04-30T11:50:14.000Z</time>
      </trkpt>
      <trkpt lat="44.33011" lon="4.76545">
        <ele>275.2</ele>
        <time>2025-04-30T11:50:17.000Z</time>
      </trkpt>
      <trkpt lat="44.3301" lon="4.76548">
        <ele>275.3</ele>
        <time>2025-04-30T11:50:19.000Z</time>
      </trkpt>
      <trkpt lat="44.3301" lon="4.7655">
        <ele>275.4</ele>
        <time>2025-04-30T11:50:20.000Z</time>
      </trkpt>
      <trkpt lat="44.33011" lon="4.76553">
        <ele>275.6</ele>
        <time>2025-04-30T11:50:27.000Z</time>
      </trkpt>
      <trkpt lat="44.33013" lon="4.76555">
        <ele>275.9</ele>
        <time>2025-04-30T11:50:33.000Z</time>
      </trkpt>
      <trkpt lat="44.33014" lon="4.76557">
        <ele>276.1</ele>
        <time>2025-04-30T11:50:38.000Z</time>
      </trkpt>
      <trkpt lat="44.33016" lon="4.76553">
        <ele>276</ele>
        <time>2025-04-30T11:50:41.000Z</time>
      </trkpt>
      <trkpt lat="44.33015" lon="4.76549">
        <ele>275.8</ele>
        <time>2025-04-30T11:50:43.000Z</time>
      </trkpt>
      <trkpt lat="44.33016" lon="4.76547">
        <ele>275.7</ele>
        <time>2025-04-30T11:50:49.000Z</time>
      </trkpt>
      <trkpt lat="44.33015" lon="4.7655">
        <ele>275.8</ele>
        <time>2025-04-30T11:50:53.000Z</time>
      </trkpt>
      <trkpt lat="44.33017" lon="4.76553">
        <ele>276.1</ele>
        <time>2025-04-30T11:50:55.000Z</time>
      </trkpt>
      <trkpt lat="44.33017" lon="4.76556">
        <ele>276.2</ele>
        <time>2025-04-30T11:50:56.000Z</time>
      </trkpt>
      <trkpt lat="44.33017" lon="4.76561">
        <ele>276.3</ele>
        <time>2025-04-30T11:50:58.000Z</time>
      </trkpt>
      <trkpt lat="44.33017" lon="4.76564">
        <ele>276.3</ele>
        <time>2025-04-30T11:50:59.000Z</time>
      </trkpt>
      <trkpt lat="44.33016" lon="4.76566">
        <ele>276.3</ele>
        <time>2025-04-30T11:51:00.000Z</time>
      </trkpt>
      <trkpt lat="44.33015" lon="4.76564">
        <ele>276.2</ele>
        <time>2025-04-30T11:51:02.000Z</time>
      </trkpt>
      <trkpt lat="44.33012" lon="4.76565">
        <ele>276</ele>
        <time>2025-04-30T11:51:09.000Z</time>
      </trkpt>
      <trkpt lat="44.33011" lon="4.76568">
        <ele>276.1</ele>
        <time>2025-04-30T11:51:12.000Z</time>
      </trkpt>
      <trkpt lat="44.3301" lon="4.76569">
        <ele>276</ele>
        <time>2025-04-30T11:51:15.000Z</time>
      </trkpt>
      <trkpt lat="44.33009" lon="4.76572">
        <ele>276.1</ele>
        <time>2025-04-30T11:51:17.000Z</time>
      </trkpt>
      <trkpt lat="44.3301" lon="4.76576">
        <ele>276.2</ele>
        <time>2025-04-30T11:51:19.000Z</time>
      </trkpt>
      <trkpt lat="44.3301" lon="4.7658">
        <ele>276.3</ele>
        <time>2025-04-30T11:51:21.000Z</time>
      </trkpt>
      <trkpt lat="44.3301" lon="4.76584">
        <ele>276.4</ele>
        <time>2025-04-30T11:51:22.000Z</time>
      </trkpt>
      <trkpt lat="44.33011" lon="4.76586">
        <ele>276.4</ele>
        <time>2025-04-30T11:51:23.000Z</time>
      </trkpt>
      <trkpt lat="44.33012" lon="4.76591">
        <ele>276.5</ele>
        <time>2025-04-30T11:51:24.000Z</time>
      </trkpt>
      <trkpt lat="44.33015" lon="4.76595">
        <ele>276.5</ele>
        <time>2025-04-30T11:51:26.000Z</time>
      </trkpt>
      <trkpt lat="44.33018" lon="4.76598">
        <ele>276.5</ele>
        <time>2025-04-30T11:51:28.000Z</time>
      </trkpt>
      <trkpt lat="44.33021" lon="4.766">
        <ele>276.4</ele>
        <time>2025-04-30T11:51:29.000Z</time>
      </trkpt>
      <trkpt lat="44.33022" lon="4.76602">
        <ele>276.4</ele>
        <time>2025-04-30T11:51:30.000Z</time>
      </trkpt>
      <trkpt lat="44.33023" lon="4.766">
        <ele>276.4</ele>
        <time>2025-04-30T11:51:32.000Z</time>
      </trkpt>
      <trkpt lat="44.33024" lon="4.76594">
        <ele>276.6</ele>
        <time>2025-04-30T11:51:34.000Z</time>
      </trkpt>
      <trkpt lat="44.33023" lon="4.76591">
        <ele>276.7</ele>
        <time>2025-04-30T11:51:36.000Z</time>
      </trkpt>
      <trkpt lat="44.33022" lon="4.76589">
        <ele>276.7</ele>
        <time>2025-04-30T11:51:37.000Z</time>
      </trkpt>
      <trkpt lat="44.33022" lon="4.76585">
        <ele>276.8</ele>
        <time>2025-04-30T11:51:40.000Z</time>
      </trkpt>
      <trkpt lat="44.33023" lon="4.76581">
        <ele>276.8</ele>
        <time>2025-04-30T11:51:45.000Z</time>
      </trkpt>
      <trkpt lat="44.33021" lon="4.7658">
        <ele>276.7</ele>
        <time>2025-04-30T11:51:49.000Z</time>
      </trkpt>
      <trkpt lat="44.33017" lon="4.7658">
        <ele>276.5</ele>
        <time>2025-04-30T11:51:51.000Z</time>
      </trkpt>
      <trkpt lat="44.33015" lon="4.76579">
        <ele>276.5</ele>
        <time>2025-04-30T11:51:52.000Z</time>
      </trkpt>
      <trkpt lat="44.33013" lon="4.76578">
        <ele>276.3</ele>
        <time>2025-04-30T11:51:53.000Z</time>
      </trkpt>
      <trkpt lat="44.3301" lon="4.76575">
        <ele>276.2</ele>
        <time>2025-04-30T11:51:54.000Z</time>
      </trkpt>
      <trkpt lat="44.33008" lon="4.76574">
        <ele>276</ele>
        <time>2025-04-30T11:51:55.000Z</time>
      </trkpt>
      <trkpt lat="44.33006" lon="4.76572">
        <ele>275.9</ele>
        <time>2025-04-30T11:51:56.000Z</time>
      </trkpt>
      <trkpt lat="44.33001" lon="4.76565">
        <ele>275.4</ele>
        <time>2025-04-30T11:51:59.000Z</time>
      </trkpt>
      <trkpt lat="44.33003" lon="4.76561">
        <ele>275.4</ele>
        <time>2025-04-30T11:52:01.000Z</time>
      </trkpt>
      <trkpt lat="44.33005" lon="4.76576">
        <ele>276</ele>
        <time>2025-04-30T11:52:03.000Z</time>
      </trkpt>
      <trkpt lat="44.33022" lon="4.76594">
        <ele>276.6</ele>
        <time>2025-04-30T11:52:04.000Z</time>
      </trkpt>
      <trkpt lat="44.33031" lon="4.76611">
        <ele>275.9</ele>
        <time>2025-04-30T11:52:05.000Z</time>
      </trkpt>
      <trkpt lat="44.33043" lon="4.76626">
        <ele>274.8</ele>
        <time>2025-04-30T11:52:06.000Z</time>
      </trkpt>
      <trkpt lat="44.33053" lon="4.76639">
        <ele>273.3</ele>
        <time>2025-04-30T11:52:07.000Z</time>
      </trkpt>
      <trkpt lat="44.33153" lon="4.76552">
        <ele>272.7</ele>
        <time>2025-04-30T11:54:50.000Z</time>
      </trkpt>
      <trkpt lat="44.33147" lon="4.76552">
        <ele>272.9</ele>
        <time>2025-04-30T11:54:51.000Z</time>
      </trkpt>
      <trkpt lat="44.33147" lon="4.76547">
        <ele>273.4</ele>
        <time>2025-04-30T11:54:52.000Z</time>
      </trkpt>
      <trkpt lat="44.33144" lon="4.76543">
        <ele>273.9</ele>
        <time>2025-04-30T11:54:53.000Z</time>
      </trkpt>
      <trkpt lat="44.33146" lon="4.76543">
        <ele>273.7</ele>
        <time>2025-04-30T11:54:55.000Z</time>
      </trkpt>
      <trkpt lat="44.33144" lon="4.76545">
        <ele>273.8</ele>
        <time>2025-04-30T11:54:57.000Z</time>
      </trkpt>
      <trkpt lat="44.33142" lon="4.76542">
        <ele>274.2</ele>
        <time>2025-04-30T11:54:58.000Z</time>
      </trkpt>
      <trkpt lat="44.33141" lon="4.76538">
        <ele>274.7</ele>
        <time>2025-04-30T11:54:59.000Z</time>
      </trkpt>
      <trkpt lat="44.33139" lon="4.76535">
        <ele>275.2</ele>
        <time>2025-04-30T11:55:00.000Z</time>
      </trkpt>
      <trkpt lat="44.33138" lon="4.76531">
        <ele>275.7</ele>
        <time>2025-04-30T11:55:01.000Z</time>
      </trkpt>
      <trkpt lat="44.33137" lon="4.76528">
        <ele>276.1</ele>
        <time>2025-04-30T11:55:02.000Z</time>
      </trkpt>
      <trkpt lat="44.33135" lon="4.76526">
        <ele>276.4</ele>
        <time>2025-04-30T11:55:04.000Z</time>
      </trkpt>
      <trkpt lat="44.33135" lon="4.76532">
        <ele>275.8</ele>
        <time>2025-04-30T11:55:06.000Z</time>
      </trkpt>
      <trkpt lat="44.33132" lon="4.76535">
        <ele>275.6</ele>
        <time>2025-04-30T11:55:07.000Z</time>
      </trkpt>
      <trkpt lat="44.33127" lon="4.76546">
        <ele>274.6</ele>
        <time>2025-04-30T11:55:08.000Z</time>
      </trkpt>
      <trkpt lat="44.3312" lon="4.76552">
        <ele>274.2</ele>
        <time>2025-04-30T11:55:09.000Z</time>
      </trkpt>
      <trkpt lat="44.33114" lon="4.76559">
        <ele>273.5</ele>
        <time>2025-04-30T11:55:10.000Z</time>
      </trkpt>
      <trkpt lat="44.33108" lon="4.76564">
        <ele>273.3</ele>
        <time>2025-04-30T11:55:11.000Z</time>
      </trkpt>
      <trkpt lat="44.33099" lon="4.76575">
        <ele>273.1</ele>
        <time>2025-04-30T11:55:12.000Z</time>
      </trkpt>
      <trkpt lat="44.33089" lon="4.76587">
        <ele>273.5</ele>
        <time>2025-04-30T11:55:13.000Z</time>
      </trkpt>
      <trkpt lat="44.33078" lon="4.76599">
        <ele>273.7</ele>
        <time>2025-04-30T11:55:14.000Z</time>
      </trkpt>
      <trkpt lat="44.33066" lon="4.76617">
        <ele>273.4</ele>
        <time>2025-04-30T11:55:15.000Z</time>
      </trkpt>
      <trkpt lat="44.33054" lon="4.76633">
        <ele>273.6</ele>
        <time>2025-04-30T11:55:16.000Z</time>
      </trkpt>
      <trkpt lat="44.33043" lon="4.76649">
        <ele>273.8</ele>
        <time>2025-04-30T11:55:17.000Z</time>
      </trkpt>
      <trkpt lat="44.33031" lon="4.76669">
        <ele>274.6</ele>
        <time>2025-04-30T11:55:18.000Z</time>
      </trkpt>
      <trkpt lat="44.33017" lon="4.76687">
        <ele>275.5</ele>
        <time>2025-04-30T11:55:19.000Z</time>
      </trkpt>
      <trkpt lat="44.33002" lon="4.76706">
        <ele>275.5</ele>
        <time>2025-04-30T11:55:20.000Z</time>
      </trkpt>
      <trkpt lat="44.32988" lon="4.76726">
        <ele>274.9</ele>
        <time>2025-04-30T11:55:21.000Z</time>
      </trkpt>
      <trkpt lat="44.32974" lon="4.76747">
        <ele>274.2</ele>
        <time>2025-04-30T11:55:22.000Z</time>
      </trkpt>
      <trkpt lat="44.3294" lon="4.76791">
        <ele>272.1</ele>
        <time>2025-04-30T11:55:24.000Z</time>
      </trkpt>
      <trkpt lat="44.3293" lon="4.76806">
        <ele>272</ele>
        <time>2025-04-30T11:55:25.000Z</time>
      </trkpt>
      <trkpt lat="44.32898" lon="4.76835">
        <ele>272</ele>
        <time>2025-04-30T11:55:27.000Z</time>
      </trkpt>
      <trkpt lat="44.32876" lon="4.76853">
        <ele>272.5</ele>
        <time>2025-04-30T11:55:28.000Z</time>
      </trkpt>
      <trkpt lat="44.32852" lon="4.76868">
        <ele>273.3</ele>
        <time>2025-04-30T11:55:29.000Z</time>
      </trkpt>
      <trkpt lat="44.32828" lon="4.7689">
        <ele>274</ele>
        <time>2025-04-30T11:55:30.000Z</time>
      </trkpt>
      <trkpt lat="44.32804" lon="4.76911">
        <ele>274.8</ele>
        <time>2025-04-30T11:55:31.000Z</time>
      </trkpt>
      <trkpt lat="44.32776" lon="4.76934">
        <ele>276.7</ele>
        <time>2025-04-30T11:55:32.000Z</time>
      </trkpt>
      <trkpt lat="44.32755" lon="4.7695">
        <ele>279.4</ele>
        <time>2025-04-30T11:55:33.000Z</time>
      </trkpt>
      <trkpt lat="44.32731" lon="4.76973">
        <ele>284.4</ele>
        <time>2025-04-30T11:55:34.000Z</time>
      </trkpt>
      <trkpt lat="44.32762" lon="4.76894">
        <ele>275.7</ele>
        <time>2025-04-30T11:55:40.000Z</time>
      </trkpt>
      <trkpt lat="44.32769" lon="4.76883">
        <ele>275.1</ele>
        <time>2025-04-30T11:55:41.000Z</time>
      </trkpt>
      <trkpt lat="44.32774" lon="4.76875">
        <ele>274.6</ele>
        <time>2025-04-30T11:55:42.000Z</time>
      </trkpt>
      <trkpt lat="44.32781" lon="4.76863">
        <ele>273.9</ele>
        <time>2025-04-30T11:55:43.000Z</time>
      </trkpt>
      <trkpt lat="44.32807" lon="4.76825">
        <ele>271.4</ele>
        <time>2025-04-30T11:55:45.000Z</time>
      </trkpt>
      <trkpt lat="44.32819" lon="4.76803">
        <ele>270.4</ele>
        <time>2025-04-30T11:55:46.000Z</time>
      </trkpt>
      <trkpt lat="44.32832" lon="4.76782">
        <ele>270.9</ele>
        <time>2025-04-30T11:55:47.000Z</time>
      </trkpt>
      <trkpt lat="44.32842" lon="4.76762">
        <ele>272</ele>
        <time>2025-04-30T11:55:48.000Z</time>
      </trkpt>
      <trkpt lat="44.32851" lon="4.76744">
        <ele>273.1</ele>
        <time>2025-04-30T11:55:49.000Z</time>
      </trkpt>
      <trkpt lat="44.32861" lon="4.76728">
        <ele>274.6</ele>
        <time>2025-04-30T11:55:50.000Z</time>
      </trkpt>
      <trkpt lat="44.3287" lon="4.76712">
        <ele>275.7</ele>
        <time>2025-04-30T11:55:51.000Z</time>
      </trkpt>
      <trkpt lat="44.32877" lon="4.767">
        <ele>276.6</ele>
        <time>2025-04-30T11:55:52.000Z</time>
      </trkpt>
      <trkpt lat="44.32883" lon="4.76692">
        <ele>277</ele>
        <time>2025-04-30T11:55:53.000Z</time>
      </trkpt>
      <trkpt lat="44.32886" lon="4.76689">
        <ele>277</ele>
        <time>2025-04-30T11:55:54.000Z</time>
      </trkpt>
      <trkpt lat="44.32887" lon="4.76684">
        <ele>277</ele>
        <time>2025-04-30T11:55:55.000Z</time>
      </trkpt>
      <trkpt lat="44.32887" lon="4.76678">
        <ele>277</ele>
        <time>2025-04-30T11:55:56.000Z</time>
      </trkpt>
      <trkpt lat="44.32887" lon="4.76675">
        <ele>277.1</ele>
        <time>2025-04-30T11:55:57.000Z</time>
      </trkpt>
      <trkpt lat="44.3289" lon="4.76672">
        <ele>277</ele>
        <time>2025-04-30T11:55:58.000Z</time>
      </trkpt>
      <trkpt lat="44.32893" lon="4.76672">
        <ele>277</ele>
        <time>2025-04-30T11:56:00.000Z</time>
      </trkpt>
      <trkpt lat="44.32897" lon="4.76674">
        <ele>277</ele>
        <time>2025-04-30T11:56:01.000Z</time>
      </trkpt>
      <trkpt lat="44.32902" lon="4.76673">
        <ele>277</ele>
        <time>2025-04-30T11:56:02.000Z</time>
      </trkpt>
      <trkpt lat="44.32906" lon="4.76672">
        <ele>277</ele>
        <time>2025-04-30T11:56:03.000Z</time>
      </trkpt>
      <trkpt lat="44.32913" lon="4.76674">
        <ele>277</ele>
        <time>2025-04-30T11:56:04.000Z</time>
      </trkpt>
      <trkpt lat="44.32931" lon="4.76678">
        <ele>276.8</ele>
        <time>2025-04-30T11:56:06.000Z</time>
      </trkpt>
      <trkpt lat="44.32941" lon="4.76685">
        <ele>276.4</ele>
        <time>2025-04-30T11:56:07.000Z</time>
      </trkpt>
      <trkpt lat="44.3295" lon="4.76687">
        <ele>276.3</ele>
        <time>2025-04-30T11:56:08.000Z</time>
      </trkpt>
      <trkpt lat="44.32957" lon="4.76687">
        <ele>276.3</ele>
        <time>2025-04-30T11:56:09.000Z</time>
      </trkpt>
      <trkpt lat="44.32963" lon="4.76682">
        <ele>276.4</ele>
        <time>2025-04-30T11:56:10.000Z</time>
      </trkpt>
      <trkpt lat="44.32965" lon="4.76684">
        <ele>276.4</ele>
        <time>2025-04-30T11:56:11.000Z</time>
      </trkpt>
      <trkpt lat="44.32968" lon="4.76685">
        <ele>276.4</ele>
        <time>2025-04-30T11:56:12.000Z</time>
      </trkpt>
      <trkpt lat="44.32971" lon="4.76685">
        <ele>276.3</ele>
        <time>2025-04-30T11:56:13.000Z</time>
      </trkpt>
      <trkpt lat="44.32973" lon="4.76683">
        <ele>276.4</ele>
        <time>2025-04-30T11:56:14.000Z</time>
      </trkpt>
      <trkpt lat="44.32973" lon="4.76679">
        <ele>276.5</ele>
        <time>2025-04-30T11:56:15.000Z</time>
      </trkpt>
      <trkpt lat="44.32973" lon="4.76676">
        <ele>276.7</ele>
        <time>2025-04-30T11:56:16.000Z</time>
      </trkpt>
      <trkpt lat="44.32971" lon="4.76673">
        <ele>276.8</ele>
        <time>2025-04-30T11:56:18.000Z</time>
      </trkpt>
      <trkpt lat="44.32968" lon="4.76673">
        <ele>276.8</ele>
        <time>2025-04-30T11:56:19.000Z</time>
      </trkpt>
      <trkpt lat="44.32965" lon="4.76669">
        <ele>276.9</ele>
        <time>2025-04-30T11:56:20.000Z</time>
      </trkpt>
      <trkpt lat="44.32962" lon="4.76666">
        <ele>277</ele>
        <time>2025-04-30T11:56:21.000Z</time>
      </trkpt>
      <trkpt lat="44.3296" lon="4.76663">
        <ele>276.9</ele>
        <time>2025-04-30T11:56:22.000Z</time>
      </trkpt>
      <trkpt lat="44.32959" lon="4.7666">
        <ele>276.9</ele>
        <time>2025-04-30T11:56:23.000Z</time>
      </trkpt>
      <trkpt lat="44.32958" lon="4.76658">
        <ele>276.9</ele>
        <time>2025-04-30T11:56:24.000Z</time>
      </trkpt>
      <trkpt lat="44.32961" lon="4.76658">
        <ele>276.8</ele>
        <time>2025-04-30T11:56:28.000Z</time>
      </trkpt>
      <trkpt lat="44.32963" lon="4.76657">
        <ele>276.8</ele>
        <time>2025-04-30T11:56:29.000Z</time>
      </trkpt>
      <trkpt lat="44.32966" lon="4.76656">
        <ele>276.7</ele>
        <time>2025-04-30T11:56:30.000Z</time>
      </trkpt>
      <trkpt lat="44.32968" lon="4.76655">
        <ele>276.6</ele>
        <time>2025-04-30T11:56:31.000Z</time>
      </trkpt>
      <trkpt lat="44.32972" lon="4.76655">
        <ele>276.6</ele>
        <time>2025-04-30T11:56:32.000Z</time>
      </trkpt>
      <trkpt lat="44.32976" lon="4.76655">
        <ele>276.6</ele>
        <time>2025-04-30T11:56:33.000Z</time>
      </trkpt>
      <trkpt lat="44.32981" lon="4.76656">
        <ele>276.7</ele>
        <time>2025-04-30T11:56:34.000Z</time>
      </trkpt>
      <trkpt lat="44.32983" lon="4.76654">
        <ele>276.7</ele>
        <time>2025-04-30T11:56:35.000Z</time>
      </trkpt>
      <trkpt lat="44.32986" lon="4.76654">
        <ele>276.8</ele>
        <time>2025-04-30T11:56:36.000Z</time>
      </trkpt>
      <trkpt lat="44.32992" lon="4.76655">
        <ele>276.9</ele>
        <time>2025-04-30T11:56:37.000Z</time>
      </trkpt>
      <trkpt lat="44.32994" lon="4.76655">
        <ele>276.9</ele>
        <time>2025-04-30T11:56:38.000Z</time>
      </trkpt>
      <trkpt lat="44.32997" lon="4.76655">
        <ele>277</ele>
        <time>2025-04-30T11:56:39.000Z</time>
      </trkpt>
      <trkpt lat="44.33" lon="4.76657">
        <ele>277</ele>
        <time>2025-04-30T11:56:41.000Z</time>
      </trkpt>
      <trkpt lat="44.33" lon="4.7666">
        <ele>277</ele>
        <time>2025-04-30T11:56:42.000Z</time>
      </trkpt>
      <trkpt lat="44.32995" lon="4.76661">
        <ele>277</ele>
        <time>2025-04-30T11:56:43.000Z</time>
      </trkpt>
      <trkpt lat="44.32996" lon="4.76671">
        <ele>276.8</ele>
        <time>2025-04-30T11:56:44.000Z</time>
      </trkpt>
      <trkpt lat="44.32992" lon="4.76675">
        <ele>276.7</ele>
        <time>2025-04-30T11:56:45.000Z</time>
      </trkpt>
      <trkpt lat="44.32988" lon="4.76679">
        <ele>276.5</ele>
        <time>2025-04-30T11:56:46.000Z</time>
      </trkpt>
      <trkpt lat="44.32982" lon="4.76683">
        <ele>276.4</ele>
        <time>2025-04-30T11:56:47.000Z</time>
      </trkpt>
      <trkpt lat="44.32969" lon="4.76688">
        <ele>276.2</ele>
        <time>2025-04-30T11:56:48.000Z</time>
      </trkpt>
      <trkpt lat="44.32959" lon="4.76693">
        <ele>276.1</ele>
        <time>2025-04-30T11:56:49.000Z</time>
      </trkpt>
      <trkpt lat="44.3295" lon="4.76698">
        <ele>275.9</ele>
        <time>2025-04-30T11:56:50.000Z</time>
      </trkpt>
      <trkpt lat="44.32937" lon="4.76705">
        <ele>275.8</ele>
        <time>2025-04-30T11:56:51.000Z</time>
      </trkpt>
      <trkpt lat="44.32924" lon="4.76713">
        <ele>275.6</ele>
        <time>2025-04-30T11:56:52.000Z</time>
      </trkpt>
      <trkpt lat="44.32911" lon="4.7672">
        <ele>275.1</ele>
        <time>2025-04-30T11:56:53.000Z</time>
      </trkpt>
      <trkpt lat="44.329" lon="4.76726">
        <ele>274.8</ele>
        <time>2025-04-30T11:56:54.000Z</time>
      </trkpt>
      <trkpt lat="44.32895" lon="4.76729">
        <ele>274.8</ele>
        <time>2025-04-30T11:56:55.000Z</time>
      </trkpt>
      <trkpt lat="44.32893" lon="4.76726">
        <ele>274.8</ele>
        <time>2025-04-30T11:56:56.000Z</time>
      </trkpt>
      <trkpt lat="44.3289" lon="4.76724">
        <ele>274.9</ele>
        <time>2025-04-30T11:56:57.000Z</time>
      </trkpt>
      <trkpt lat="44.32888" lon="4.76715">
        <ele>275.5</ele>
        <time>2025-04-30T11:56:59.000Z</time>
      </trkpt>
      <trkpt lat="44.32889" lon="4.76707">
        <ele>276.1</ele>
        <time>2025-04-30T11:57:00.000Z</time>
      </trkpt>
      <trkpt lat="44.32889" lon="4.76701">
        <ele>276.5</ele>
        <time>2025-04-30T11:57:01.000Z</time>
      </trkpt>
      <trkpt lat="44.3289" lon="4.76697">
        <ele>276.9</ele>
        <time>2025-04-30T11:57:02.000Z</time>
      </trkpt>
      <trkpt lat="44.32891" lon="4.76693">
        <ele>277</ele>
        <time>2025-04-30T11:57:03.000Z</time>
      </trkpt>
      <trkpt lat="44.32891" lon="4.76688">
        <ele>277</ele>
        <time>2025-04-30T11:57:04.000Z</time>
      </trkpt>
      <trkpt lat="44.32893" lon="4.76682">
        <ele>277</ele>
        <time>2025-04-30T11:57:05.000Z</time>
      </trkpt>
      <trkpt lat="44.32894" lon="4.76674">
        <ele>277</ele>
        <time>2025-04-30T11:57:06.000Z</time>
      </trkpt>
      <trkpt lat="44.32896" lon="4.76663">
        <ele>277</ele>
        <time>2025-04-30T11:57:07.000Z</time>
      </trkpt>
      <trkpt lat="44.32929" lon="4.76578">
        <ele>271.2</ele>
        <time>2025-04-30T11:57:15.000Z</time>
      </trkpt>
      <trkpt lat="44.32934" lon="4.76571">
        <ele>270.9</ele>
        <time>2025-04-30T11:57:16.000Z</time>
      </trkpt>
      <trkpt lat="44.32938" lon="4.76565">
        <ele>270.6</ele>
        <time>2025-04-30T11:57:17.000Z</time>
      </trkpt>
      <trkpt lat="44.32942" lon="4.76553">
        <ele>270.1</ele>
        <time>2025-04-30T11:57:18.000Z</time>
      </trkpt>
      <trkpt lat="44.32947" lon="4.76545">
        <ele>270.4</ele>
        <time>2025-04-30T11:57:19.000Z</time>
      </trkpt>
      <trkpt lat="44.32956" lon="4.7654">
        <ele>270.5</ele>
        <time>2025-04-30T11:57:21.000Z</time>
      </trkpt>
      <trkpt lat="44.33194" lon="4.76509">
        <ele>266.2</ele>
        <time>2025-04-30T11:58:37.000Z</time>
      </trkpt>
      <trkpt lat="44.33194" lon="4.76514">
        <ele>265.6</ele>
        <time>2025-04-30T11:58:39.000Z</time>
      </trkpt>
      <trkpt lat="44.33197" lon="4.76511">
        <ele>265.4</ele>
        <time>2025-04-30T11:58:41.000Z</time>
      </trkpt>
      <trkpt lat="44.33194" lon="4.76515">
        <ele>265.4</ele>
        <time>2025-04-30T11:58:43.000Z</time>
      </trkpt>
      <trkpt lat="44.33194" lon="4.76517">
        <ele>265.2</ele>
        <time>2025-04-30T11:58:49.000Z</time>
      </trkpt>
      <trkpt lat="44.33192" lon="4.76516">
        <ele>265.9</ele>
        <time>2025-04-30T11:59:33.000Z</time>
      </trkpt>
      <trkpt lat="44.33195" lon="4.76519">
        <ele>264.9</ele>
        <time>2025-04-30T12:00:34.000Z</time>
      </trkpt>
      <trkpt lat="44.33197" lon="4.76519">
        <ele>264.5</ele>
        <time>2025-04-30T12:00:36.000Z</time>
      </trkpt>
      <trkpt lat="44.33201" lon="4.76521">
        <ele>263.7</ele>
        <time>2025-04-30T12:00:40.000Z</time>
      </trkpt>
      <trkpt lat="44.33203" lon="4.76523">
        <ele>263.3</ele>
        <time>2025-04-30T12:00:43.000Z</time>
      </trkpt>
      <trkpt lat="44.33205" lon="4.76524">
        <ele>262.8</ele>
        <time>2025-04-30T12:00:46.000Z</time>
      </trkpt>
      <trkpt lat="44.33207" lon="4.76526">
        <ele>262.4</ele>
        <time>2025-04-30T12:00:49.000Z</time>
      </trkpt>
      <trkpt lat="44.3321" lon="4.76528">
        <ele>261.8</ele>
        <time>2025-04-30T12:00:52.000Z</time>
      </trkpt>
      <trkpt lat="44.33212" lon="4.7653">
        <ele>261.4</ele>
        <time>2025-04-30T12:00:55.000Z</time>
      </trkpt>
      <trkpt lat="44.33214" lon="4.76531">
        <ele>261.2</ele>
        <time>2025-04-30T12:00:58.000Z</time>
      </trkpt>
      <trkpt lat="44.33217" lon="4.76533">
        <ele>260.9</ele>
        <time>2025-04-30T12:01:05.000Z</time>
      </trkpt>
      <trkpt lat="44.33218" lon="4.76537">
        <ele>260.7</ele>
        <time>2025-04-30T12:01:15.000Z</time>
      </trkpt>
      <trkpt lat="44.3322" lon="4.76536">
        <ele>260.4</ele>
        <time>2025-04-30T12:02:00.000Z</time>
      </trkpt>
      <trkpt lat="44.33222" lon="4.76536">
        <ele>260.1</ele>
        <time>2025-04-30T12:02:04.000Z</time>
      </trkpt>
      <trkpt lat="44.33226" lon="4.76537">
        <ele>259.9</ele>
        <time>2025-04-30T12:02:09.000Z</time>
      </trkpt>
      <trkpt lat="44.33227" lon="4.76538">
        <ele>259.8</ele>
        <time>2025-04-30T12:02:12.000Z</time>
      </trkpt>
      <trkpt lat="44.33228" lon="4.76541">
        <ele>259.8</ele>
        <time>2025-04-30T12:02:15.000Z</time>
      </trkpt>
      <trkpt lat="44.33227" lon="4.76544">
        <ele>259.8</ele>
        <time>2025-04-30T12:04:26.000Z</time>
      </trkpt>
      <trkpt lat="44.33228" lon="4.7654">
        <ele>259.8</ele>
        <time>2025-04-30T12:04:38.000Z</time>
      </trkpt>
      <trkpt lat="44.33229" lon="4.76542">
        <ele>259.8</ele>
        <time>2025-04-30T12:04:41.000Z</time>
      </trkpt>
      <trkpt lat="44.3323" lon="4.76545">
        <ele>259.7</ele>
        <time>2025-04-30T12:04:48.000Z</time>
      </trkpt>
      <trkpt lat="44.3323" lon="4.76547">
        <ele>259.7</ele>
        <time>2025-04-30T12:04:54.000Z</time>
      </trkpt>
      <trkpt lat="44.33231" lon="4.7655">
        <ele>259.7</ele>
        <time>2025-04-30T12:04:56.000Z</time>
      </trkpt>
      <trkpt lat="44.33232" lon="4.76561">
        <ele>259.7</ele>
        <time>2025-04-30T12:05:38.000Z</time>
      </trkpt>
      <trkpt lat="44.33231" lon="4.76566">
        <ele>259.8</ele>
        <time>2025-04-30T12:05:40.000Z</time>
      </trkpt>
      <trkpt lat="44.33232" lon="4.76572">
        <ele>259.9</ele>
        <time>2025-04-30T12:05:43.000Z</time>
      </trkpt>
      <trkpt lat="44.33233" lon="4.76574">
        <ele>259.9</ele>
        <time>2025-04-30T12:05:44.000Z</time>
      </trkpt>
      <trkpt lat="44.33234" lon="4.76577">
        <ele>259.9</ele>
        <time>2025-04-30T12:05:45.000Z</time>
      </trkpt>
      <trkpt lat="44.33238" lon="4.76587">
        <ele>260.1</ele>
        <time>2025-04-30T12:05:51.000Z</time>
      </trkpt>
      <trkpt lat="44.33239" lon="4.7659">
        <ele>260.1</ele>
        <time>2025-04-30T12:05:52.000Z</time>
      </trkpt>
      <trkpt lat="44.3324" lon="4.76595">
        <ele>260.3</ele>
        <time>2025-04-30T12:05:54.000Z</time>
      </trkpt>
      <trkpt lat="44.33242" lon="4.766">
        <ele>260.4</ele>
        <time>2025-04-30T12:05:57.000Z</time>
      </trkpt>
      <trkpt lat="44.33243" lon="4.76602">
        <ele>260.5</ele>
        <time>2025-04-30T12:05:59.000Z</time>
      </trkpt>
      <trkpt lat="44.33246" lon="4.76608">
        <ele>260.8</ele>
        <time>2025-04-30T12:06:04.000Z</time>
      </trkpt>
      <trkpt lat="44.33248" lon="4.76611">
        <ele>260.9</ele>
        <time>2025-04-30T12:06:06.000Z</time>
      </trkpt>
      <trkpt lat="44.33251" lon="4.76614">
        <ele>261.2</ele>
        <time>2025-04-30T12:06:09.000Z</time>
      </trkpt>
      <trkpt lat="44.33251" lon="4.76617">
        <ele>261.4</ele>
        <time>2025-04-30T12:06:11.000Z</time>
      </trkpt>
      <trkpt lat="44.33254" lon="4.76621">
        <ele>262.1</ele>
        <time>2025-04-30T12:06:15.000Z</time>
      </trkpt>
      <trkpt lat="44.33256" lon="4.76623">
        <ele>262.4</ele>
        <time>2025-04-30T12:06:17.000Z</time>
      </trkpt>
      <trkpt lat="44.33258" lon="4.76626">
        <ele>263</ele>
        <time>2025-04-30T12:06:21.000Z</time>
      </trkpt>
      <trkpt lat="44.3326" lon="4.76627">
        <ele>263.3</ele>
        <time>2025-04-30T12:06:23.000Z</time>
      </trkpt>
      <trkpt lat="44.33263" lon="4.76628">
        <ele>263.9</ele>
        <time>2025-04-30T12:06:27.000Z</time>
      </trkpt>
      <trkpt lat="44.33265" lon="4.76628">
        <ele>264.2</ele>
        <time>2025-04-30T12:06:29.000Z</time>
      </trkpt>
      <trkpt lat="44.33269" lon="4.7663">
        <ele>265</ele>
        <time>2025-04-30T12:06:36.000Z</time>
      </trkpt>
      <trkpt lat="44.3327" lon="4.76631">
        <ele>265.4</ele>
        <time>2025-04-30T12:06:38.000Z</time>
      </trkpt>
      <trkpt lat="44.33273" lon="4.7663">
        <ele>265.8</ele>
        <time>2025-04-30T12:06:42.000Z</time>
      </trkpt>
      <trkpt lat="44.33275" lon="4.76631">
        <ele>266.3</ele>
        <time>2025-04-30T12:06:47.000Z</time>
      </trkpt>
      <trkpt lat="44.33277" lon="4.76629">
        <ele>266.5</ele>
        <time>2025-04-30T12:06:50.000Z</time>
      </trkpt>
      <trkpt lat="44.33278" lon="4.76627">
        <ele>266.6</ele>
        <time>2025-04-30T12:06:54.000Z</time>
      </trkpt>
      <trkpt lat="44.3328" lon="4.76624">
        <ele>266.5</ele>
        <time>2025-04-30T12:06:57.000Z</time>
      </trkpt>
      <trkpt lat="44.33282" lon="4.76622">
        <ele>266.5</ele>
        <time>2025-04-30T12:06:59.000Z</time>
      </trkpt>
      <trkpt lat="44.33284" lon="4.7662">
        <ele>266.4</ele>
        <time>2025-04-30T12:07:02.000Z</time>
      </trkpt>
      <trkpt lat="44.33286" lon="4.76618">
        <ele>266.3</ele>
        <time>2025-04-30T12:07:03.000Z</time>
      </trkpt>
      <trkpt lat="44.33287" lon="4.76617">
        <ele>266.3</ele>
        <time>2025-04-30T12:07:05.000Z</time>
      </trkpt>
      <trkpt lat="44.33288" lon="4.76615">
        <ele>266.2</ele>
        <time>2025-04-30T12:07:07.000Z</time>
      </trkpt>
      <trkpt lat="44.3329" lon="4.76614">
        <ele>266.1</ele>
        <time>2025-04-30T12:07:09.000Z</time>
      </trkpt>
      <trkpt lat="44.33292" lon="4.76614">
        <ele>266.1</ele>
        <time>2025-04-30T12:07:11.000Z</time>
      </trkpt>
      <trkpt lat="44.33294" lon="4.76614">
        <ele>266.2</ele>
        <time>2025-04-30T12:07:14.000Z</time>
      </trkpt>
      <trkpt lat="44.33296" lon="4.76615">
        <ele>266.2</ele>
        <time>2025-04-30T12:07:18.000Z</time>
      </trkpt>
      <trkpt lat="44.33298" lon="4.76616">
        <ele>266.3</ele>
        <time>2025-04-30T12:07:19.000Z</time>
      </trkpt>
      <trkpt lat="44.333" lon="4.76618">
        <ele>266.4</ele>
        <time>2025-04-30T12:07:24.000Z</time>
      </trkpt>
      <trkpt lat="44.33302" lon="4.7662">
        <ele>266.6</ele>
        <time>2025-04-30T12:07:28.000Z</time>
      </trkpt>
      <trkpt lat="44.33305" lon="4.76619">
        <ele>266.6</ele>
        <time>2025-04-30T12:07:55.000Z</time>
      </trkpt>
      <trkpt lat="44.33305" lon="4.76622">
        <ele>266.8</ele>
        <time>2025-04-30T12:07:58.000Z</time>
      </trkpt>
      <trkpt lat="44.33306" lon="4.76626">
        <ele>266.9</ele>
        <time>2025-04-30T12:08:01.000Z</time>
      </trkpt>
      <trkpt lat="44.33307" lon="4.7663">
        <ele>266.9</ele>
        <time>2025-04-30T12:08:07.000Z</time>
      </trkpt>
      <trkpt lat="44.33309" lon="4.76631">
        <ele>266.7</ele>
        <time>2025-04-30T12:08:10.000Z</time>
      </trkpt>
      <trkpt lat="44.3331" lon="4.76634">
        <ele>266.5</ele>
        <time>2025-04-30T12:08:12.000Z</time>
      </trkpt>
      <trkpt lat="44.33312" lon="4.76634">
        <ele>266.2</ele>
        <time>2025-04-30T12:08:19.000Z</time>
      </trkpt>
      <trkpt lat="44.33314" lon="4.76633">
        <ele>265.7</ele>
        <time>2025-04-30T12:08:23.000Z</time>
      </trkpt>
      <trkpt lat="44.33317" lon="4.76633">
        <ele>264.9</ele>
        <time>2025-04-30T12:08:33.000Z</time>
      </trkpt>
      <trkpt lat="44.33319" lon="4.76633">
        <ele>264.5</ele>
        <time>2025-04-30T12:08:35.000Z</time>
      </trkpt>
      <trkpt lat="44.3332" lon="4.76637">
        <ele>264.8</ele>
        <time>2025-04-30T12:08:42.000Z</time>
      </trkpt>
      <trkpt lat="44.33323" lon="4.76637">
        <ele>264</ele>
        <time>2025-04-30T12:08:48.000Z</time>
      </trkpt>
      <trkpt lat="44.33325" lon="4.76636">
        <ele>263.4</ele>
        <time>2025-04-30T12:08:50.000Z</time>
      </trkpt>
      <trkpt lat="44.33329" lon="4.76634">
        <ele>262.4</ele>
        <time>2025-04-30T12:08:54.000Z</time>
      </trkpt>
      <trkpt lat="44.33331" lon="4.76636">
        <ele>262.1</ele>
        <time>2025-04-30T12:08:58.000Z</time>
      </trkpt>
      <trkpt lat="44.33331" lon="4.76638">
        <ele>262.4</ele>
        <time>2025-04-30T12:09:04.000Z</time>
      </trkpt>
      <trkpt lat="44.33334" lon="4.76641">
        <ele>262</ele>
        <time>2025-04-30T12:09:08.000Z</time>
      </trkpt>
      <trkpt lat="44.33336" lon="4.76642">
        <ele>261.7</ele>
        <time>2025-04-30T12:09:10.000Z</time>
      </trkpt>
      <trkpt lat="44.3334" lon="4.76642">
        <ele>261.1</ele>
        <time>2025-04-30T12:09:13.000Z</time>
      </trkpt>
      <trkpt lat="44.33342" lon="4.76642">
        <ele>260.7</ele>
        <time>2025-04-30T12:09:14.000Z</time>
      </trkpt>
      <trkpt lat="44.33344" lon="4.76642">
        <ele>260.4</ele>
        <time>2025-04-30T12:09:16.000Z</time>
      </trkpt>
      <trkpt lat="44.33346" lon="4.76641">
        <ele>259.8</ele>
        <time>2025-04-30T12:09:18.000Z</time>
      </trkpt>
      <trkpt lat="44.33349" lon="4.76641">
        <ele>259.4</ele>
        <time>2025-04-30T12:09:20.000Z</time>
      </trkpt>
      <trkpt lat="44.33351" lon="4.76641">
        <ele>259.1</ele>
        <time>2025-04-30T12:09:23.000Z</time>
      </trkpt>
      <trkpt lat="44.33354" lon="4.76643">
        <ele>258.8</ele>
        <time>2025-04-30T12:09:26.000Z</time>
      </trkpt>
      <trkpt lat="44.33356" lon="4.76645">
        <ele>258.7</ele>
        <time>2025-04-30T12:09:29.000Z</time>
      </trkpt>
      <trkpt lat="44.33358" lon="4.76646">
        <ele>258.6</ele>
        <time>2025-04-30T12:09:32.000Z</time>
      </trkpt>
      <trkpt lat="44.3336" lon="4.76648">
        <ele>258.4</ele>
        <time>2025-04-30T12:09:35.000Z</time>
      </trkpt>
      <trkpt lat="44.33363" lon="4.76649">
        <ele>258.3</ele>
        <time>2025-04-30T12:09:39.000Z</time>
      </trkpt>
      <trkpt lat="44.33365" lon="4.76651">
        <ele>258.3</ele>
        <time>2025-04-30T12:09:41.000Z</time>
      </trkpt>
      <trkpt lat="44.33368" lon="4.76652">
        <ele>258.2</ele>
        <time>2025-04-30T12:09:46.000Z</time>
      </trkpt>
      <trkpt lat="44.33371" lon="4.76652">
        <ele>257.8</ele>
        <time>2025-04-30T12:09:49.000Z</time>
      </trkpt>
      <trkpt lat="44.33374" lon="4.76654">
        <ele>257.8</ele>
        <time>2025-04-30T12:09:54.000Z</time>
      </trkpt>
      <trkpt lat="44.33375" lon="4.76656">
        <ele>258</ele>
        <time>2025-04-30T12:09:57.000Z</time>
      </trkpt>
      <trkpt lat="44.33377" lon="4.76658">
        <ele>258.1</ele>
        <time>2025-04-30T12:09:59.000Z</time>
      </trkpt>
      <trkpt lat="44.33379" lon="4.76661">
        <ele>258.3</ele>
        <time>2025-04-30T12:10:02.000Z</time>
      </trkpt>
      <trkpt lat="44.33381" lon="4.76662">
        <ele>258.2</ele>
        <time>2025-04-30T12:10:05.000Z</time>
      </trkpt>
      <trkpt lat="44.33383" lon="4.76664">
        <ele>258.2</ele>
        <time>2025-04-30T12:10:07.000Z</time>
      </trkpt>
      <trkpt lat="44.33386" lon="4.76665">
        <ele>258.1</ele>
        <time>2025-04-30T12:10:09.000Z</time>
      </trkpt>
      <trkpt lat="44.33388" lon="4.76666">
        <ele>258.1</ele>
        <time>2025-04-30T12:10:11.000Z</time>
      </trkpt>
      <trkpt lat="44.3339" lon="4.76668">
        <ele>258.1</ele>
        <time>2025-04-30T12:10:13.000Z</time>
      </trkpt>
      <trkpt lat="44.33392" lon="4.7667">
        <ele>258.1</ele>
        <time>2025-04-30T12:10:15.000Z</time>
      </trkpt>
      <trkpt lat="44.33395" lon="4.76672">
        <ele>258.1</ele>
        <time>2025-04-30T12:10:17.000Z</time>
      </trkpt>
      <trkpt lat="44.33396" lon="4.76674">
        <ele>258.3</ele>
        <time>2025-04-30T12:10:19.000Z</time>
      </trkpt>
      <trkpt lat="44.33398" lon="4.76675">
        <ele>258.3</ele>
        <time>2025-04-30T12:10:21.000Z</time>
      </trkpt>
      <trkpt lat="44.33401" lon="4.76676">
        <ele>258.2</ele>
        <time>2025-04-30T12:10:24.000Z</time>
      </trkpt>
      <trkpt lat="44.33403" lon="4.76677">
        <ele>258.2</ele>
        <time>2025-04-30T12:10:28.000Z</time>
      </trkpt>
      <trkpt lat="44.33406" lon="4.7668">
        <ele>258.3</ele>
        <time>2025-04-30T12:10:32.000Z</time>
      </trkpt>
      <trkpt lat="44.33408" lon="4.7668">
        <ele>258.2</ele>
        <time>2025-04-30T12:10:35.000Z</time>
      </trkpt>
      <trkpt lat="44.3341" lon="4.76681">
        <ele>258.3</ele>
        <time>2025-04-30T12:10:57.000Z</time>
      </trkpt>
      <trkpt lat="44.33412" lon="4.76683">
        <ele>258.3</ele>
        <time>2025-04-30T12:10:59.000Z</time>
      </trkpt>
      <trkpt lat="44.33414" lon="4.76685">
        <ele>258.4</ele>
        <time>2025-04-30T12:11:01.000Z</time>
      </trkpt>
      <trkpt lat="44.33416" lon="4.76686">
        <ele>258.4</ele>
        <time>2025-04-30T12:11:04.000Z</time>
      </trkpt>
      <trkpt lat="44.33418" lon="4.76688">
        <ele>258.5</ele>
        <time>2025-04-30T12:11:06.000Z</time>
      </trkpt>
      <trkpt lat="44.33421" lon="4.76689">
        <ele>258.5</ele>
        <time>2025-04-30T12:11:09.000Z</time>
      </trkpt>
      <trkpt lat="44.33423" lon="4.76689">
        <ele>258.5</ele>
        <time>2025-04-30T12:11:12.000Z</time>
      </trkpt>
      <trkpt lat="44.33425" lon="4.7669">
        <ele>258.5</ele>
        <time>2025-04-30T12:11:26.000Z</time>
      </trkpt>
      <trkpt lat="44.33428" lon="4.7669">
        <ele>258.5</ele>
        <time>2025-04-30T12:11:33.000Z</time>
      </trkpt>
      <trkpt lat="44.3343" lon="4.7669">
        <ele>258.5</ele>
        <time>2025-04-30T12:11:36.000Z</time>
      </trkpt>
      <trkpt lat="44.33432" lon="4.76691">
        <ele>258.6</ele>
        <time>2025-04-30T12:11:39.000Z</time>
      </trkpt>
      <trkpt lat="44.33434" lon="4.76693">
        <ele>258.8</ele>
        <time>2025-04-30T12:11:45.000Z</time>
      </trkpt>
      <trkpt lat="44.33435" lon="4.76696">
        <ele>259</ele>
        <time>2025-04-30T12:11:51.000Z</time>
      </trkpt>
      <trkpt lat="44.33436" lon="4.76698">
        <ele>259.1</ele>
        <time>2025-04-30T12:11:56.000Z</time>
      </trkpt>
      <trkpt lat="44.33437" lon="4.76702">
        <ele>259.2</ele>
        <time>2025-04-30T12:12:04.000Z</time>
      </trkpt>
      <trkpt lat="44.33439" lon="4.76702">
        <ele>259.2</ele>
        <time>2025-04-30T12:12:06.000Z</time>
      </trkpt>
      <trkpt lat="44.33441" lon="4.76704">
        <ele>259.3</ele>
        <time>2025-04-30T12:12:08.000Z</time>
      </trkpt>
      <trkpt lat="44.33443" lon="4.76706">
        <ele>259.4</ele>
        <time>2025-04-30T12:12:10.000Z</time>
      </trkpt>
      <trkpt lat="44.33445" lon="4.76707">
        <ele>259.5</ele>
        <time>2025-04-30T12:12:12.000Z</time>
      </trkpt>
      <trkpt lat="44.33447" lon="4.76707">
        <ele>259.4</ele>
        <time>2025-04-30T12:12:14.000Z</time>
      </trkpt>
      <trkpt lat="44.33451" lon="4.76706">
        <ele>259.3</ele>
        <time>2025-04-30T12:12:21.000Z</time>
      </trkpt>
      <trkpt lat="44.33453" lon="4.76706">
        <ele>259.2</ele>
        <time>2025-04-30T12:12:24.000Z</time>
      </trkpt>
      <trkpt lat="44.33455" lon="4.76706">
        <ele>259.2</ele>
        <time>2025-04-30T12:12:29.000Z</time>
      </trkpt>
      <trkpt lat="44.33457" lon="4.76706">
        <ele>259.1</ele>
        <time>2025-04-30T12:12:34.000Z</time>
      </trkpt>
      <trkpt lat="44.33459" lon="4.76709">
        <ele>259.3</ele>
        <time>2025-04-30T12:12:40.000Z</time>
      </trkpt>
      <trkpt lat="44.3346" lon="4.76711">
        <ele>259.4</ele>
        <time>2025-04-30T12:12:42.000Z</time>
      </trkpt>
      <trkpt lat="44.33462" lon="4.76713">
        <ele>259.5</ele>
        <time>2025-04-30T12:12:47.000Z</time>
      </trkpt>
      <trkpt lat="44.33464" lon="4.76714">
        <ele>259.5</ele>
        <time>2025-04-30T12:12:49.000Z</time>
      </trkpt>
      <trkpt lat="44.33466" lon="4.76717">
        <ele>259.6</ele>
        <time>2025-04-30T12:12:51.000Z</time>
      </trkpt>
      <trkpt lat="44.33467" lon="4.76718">
        <ele>259.7</ele>
        <time>2025-04-30T12:12:54.000Z</time>
      </trkpt>
      <trkpt lat="44.3347" lon="4.76719">
        <ele>259.7</ele>
        <time>2025-04-30T12:12:58.000Z</time>
      </trkpt>
      <trkpt lat="44.33472" lon="4.7672">
        <ele>259.8</ele>
        <time>2025-04-30T12:13:00.000Z</time>
      </trkpt>
      <trkpt lat="44.33474" lon="4.76721">
        <ele>259.8</ele>
        <time>2025-04-30T12:13:03.000Z</time>
      </trkpt>
      <trkpt lat="44.33476" lon="4.76722">
        <ele>259.8</ele>
        <time>2025-04-30T12:13:05.000Z</time>
      </trkpt>
      <trkpt lat="44.33477" lon="4.76723">
        <ele>259.8</ele>
        <time>2025-04-30T12:13:07.000Z</time>
      </trkpt>
      <trkpt lat="44.33479" lon="4.76725">
        <ele>259.8</ele>
        <time>2025-04-30T12:13:10.000Z</time>
      </trkpt>
      <trkpt lat="44.33481" lon="4.76727">
        <ele>259.9</ele>
        <time>2025-04-30T12:13:14.000Z</time>
      </trkpt>
      <trkpt lat="44.33483" lon="4.76728">
        <ele>260</ele>
        <time>2025-04-30T12:13:16.000Z</time>
      </trkpt>
      <trkpt lat="44.33484" lon="4.7673">
        <ele>260.1</ele>
        <time>2025-04-30T12:13:19.000Z</time>
      </trkpt>
      <trkpt lat="44.33484" lon="4.76733">
        <ele>260.4</ele>
        <time>2025-04-30T12:13:22.000Z</time>
      </trkpt>
      <trkpt lat="44.33484" lon="4.76736">
        <ele>260.8</ele>
        <time>2025-04-30T12:13:24.000Z</time>
      </trkpt>
      <trkpt lat="44.33486" lon="4.76737">
        <ele>260.9</ele>
        <time>2025-04-30T12:13:26.000Z</time>
      </trkpt>
      <trkpt lat="44.33488" lon="4.76739">
        <ele>261</ele>
        <time>2025-04-30T12:13:28.000Z</time>
      </trkpt>
      <trkpt lat="44.3349" lon="4.7674">
        <ele>261.1</ele>
        <time>2025-04-30T12:13:30.000Z</time>
      </trkpt>
      <trkpt lat="44.33492" lon="4.76742">
        <ele>261.2</ele>
        <time>2025-04-30T12:13:32.000Z</time>
      </trkpt>
      <trkpt lat="44.33494" lon="4.76744">
        <ele>261.4</ele>
        <time>2025-04-30T12:13:34.000Z</time>
      </trkpt>
      <trkpt lat="44.33497" lon="4.76748">
        <ele>261.9</ele>
        <time>2025-04-30T12:13:37.000Z</time>
      </trkpt>
      <trkpt lat="44.33498" lon="4.76751">
        <ele>262.1</ele>
        <time>2025-04-30T12:13:39.000Z</time>
      </trkpt>
      <trkpt lat="44.33499" lon="4.76754">
        <ele>262.4</ele>
        <time>2025-04-30T12:13:41.000Z</time>
      </trkpt>
      <trkpt lat="44.33501" lon="4.76757">
        <ele>262.6</ele>
        <time>2025-04-30T12:13:43.000Z</time>
      </trkpt>
      <trkpt lat="44.33502" lon="4.76759">
        <ele>262.6</ele>
        <time>2025-04-30T12:13:45.000Z</time>
      </trkpt>
      <trkpt lat="44.33505" lon="4.76761">
        <ele>262.5</ele>
        <time>2025-04-30T12:13:48.000Z</time>
      </trkpt>
      <trkpt lat="44.33506" lon="4.76764">
        <ele>262.6</ele>
        <time>2025-04-30T12:13:50.000Z</time>
      </trkpt>
      <trkpt lat="44.33508" lon="4.76765">
        <ele>262.5</ele>
        <time>2025-04-30T12:13:52.000Z</time>
      </trkpt>
      <trkpt lat="44.3351" lon="4.76767">
        <ele>262.4</ele>
        <time>2025-04-30T12:13:55.000Z</time>
      </trkpt>
      <trkpt lat="44.33512" lon="4.7677">
        <ele>262.3</ele>
        <time>2025-04-30T12:13:59.000Z</time>
      </trkpt>
      <trkpt lat="44.33514" lon="4.76772">
        <ele>262.3</ele>
        <time>2025-04-30T12:14:01.000Z</time>
      </trkpt>
      <trkpt lat="44.33516" lon="4.76775">
        <ele>262.4</ele>
        <time>2025-04-30T12:14:05.000Z</time>
      </trkpt>
      <trkpt lat="44.33516" lon="4.76778">
        <ele>262.7</ele>
        <time>2025-04-30T12:14:08.000Z</time>
      </trkpt>
      <trkpt lat="44.33517" lon="4.7678">
        <ele>262.7</ele>
        <time>2025-04-30T12:14:11.000Z</time>
      </trkpt>
      <trkpt lat="44.33519" lon="4.76782">
        <ele>262.8</ele>
        <time>2025-04-30T12:14:13.000Z</time>
      </trkpt>
      <trkpt lat="44.33521" lon="4.76785">
        <ele>262.7</ele>
        <time>2025-04-30T12:14:16.000Z</time>
      </trkpt>
      <trkpt lat="44.33523" lon="4.76787">
        <ele>262.6</ele>
        <time>2025-04-30T12:14:18.000Z</time>
      </trkpt>
      <trkpt lat="44.33524" lon="4.76789">
        <ele>262.7</ele>
        <time>2025-04-30T12:14:20.000Z</time>
      </trkpt>
      <trkpt lat="44.33527" lon="4.76791">
        <ele>262.5</ele>
        <time>2025-04-30T12:14:24.000Z</time>
      </trkpt>
      <trkpt lat="44.33529" lon="4.76792">
        <ele>262.2</ele>
        <time>2025-04-30T12:14:26.000Z</time>
      </trkpt>
      <trkpt lat="44.33532" lon="4.76795">
        <ele>261.9</ele>
        <time>2025-04-30T12:14:28.000Z</time>
      </trkpt>
      <trkpt lat="44.33534" lon="4.76796">
        <ele>261.6</ele>
        <time>2025-04-30T12:14:30.000Z</time>
      </trkpt>
      <trkpt lat="44.33535" lon="4.76799">
        <ele>261.6</ele>
        <time>2025-04-30T12:14:32.000Z</time>
      </trkpt>
      <trkpt lat="44.33537" lon="4.76801">
        <ele>261.4</ele>
        <time>2025-04-30T12:14:34.000Z</time>
      </trkpt>
      <trkpt lat="44.33539" lon="4.76804">
        <ele>261.4</ele>
        <time>2025-04-30T12:14:36.000Z</time>
      </trkpt>
      <trkpt lat="44.3354" lon="4.76806">
        <ele>261.3</ele>
        <time>2025-04-30T12:14:38.000Z</time>
      </trkpt>
      <trkpt lat="44.33541" lon="4.76808">
        <ele>261.4</ele>
        <time>2025-04-30T12:14:41.000Z</time>
      </trkpt>
      <trkpt lat="44.33543" lon="4.7681">
        <ele>261.3</ele>
        <time>2025-04-30T12:14:44.000Z</time>
      </trkpt>
      <trkpt lat="44.33545" lon="4.76811">
        <ele>261.1</ele>
        <time>2025-04-30T12:14:46.000Z</time>
      </trkpt>
      <trkpt lat="44.33546" lon="4.76814">
        <ele>261.4</ele>
        <time>2025-04-30T12:14:50.000Z</time>
      </trkpt>
      <trkpt lat="44.33547" lon="4.76816">
        <ele>261.5</ele>
        <time>2025-04-30T12:14:54.000Z</time>
      </trkpt>
      <trkpt lat="44.33549" lon="4.76818">
        <ele>261.4</ele>
        <time>2025-04-30T12:14:56.000Z</time>
      </trkpt>
      <trkpt lat="44.33551" lon="4.7682">
        <ele>261.4</ele>
        <time>2025-04-30T12:14:59.000Z</time>
      </trkpt>
      <trkpt lat="44.33553" lon="4.76822">
        <ele>261.4</ele>
        <time>2025-04-30T12:15:03.000Z</time>
      </trkpt>
      <trkpt lat="44.33555" lon="4.76824">
        <ele>261.5</ele>
        <time>2025-04-30T12:15:06.000Z</time>
      </trkpt>
      <trkpt lat="44.33556" lon="4.76827">
        <ele>261.7</ele>
        <time>2025-04-30T12:15:11.000Z</time>
      </trkpt>
      <trkpt lat="44.33557" lon="4.76829">
        <ele>261.9</ele>
        <time>2025-04-30T12:15:14.000Z</time>
      </trkpt>
      <trkpt lat="44.33559" lon="4.76832">
        <ele>261.9</ele>
        <time>2025-04-30T12:15:17.000Z</time>
      </trkpt>
      <trkpt lat="44.3356" lon="4.76835">
        <ele>262.1</ele>
        <time>2025-04-30T12:15:20.000Z</time>
      </trkpt>
      <trkpt lat="44.33562" lon="4.76837">
        <ele>262.2</ele>
        <time>2025-04-30T12:15:24.000Z</time>
      </trkpt>
      <trkpt lat="44.33564" lon="4.76838">
        <ele>261.8</ele>
        <time>2025-04-30T12:15:26.000Z</time>
      </trkpt>
      <trkpt lat="44.33566" lon="4.7684">
        <ele>261.5</ele>
        <time>2025-04-30T12:15:28.000Z</time>
      </trkpt>
      <trkpt lat="44.33567" lon="4.76844">
        <ele>261.8</ele>
        <time>2025-04-30T12:15:31.000Z</time>
      </trkpt>
      <trkpt lat="44.33568" lon="4.76846">
        <ele>262.3</ele>
        <time>2025-04-30T12:15:33.000Z</time>
      </trkpt>
      <trkpt lat="44.33568" lon="4.76849">
        <ele>262.6</ele>
        <time>2025-04-30T12:15:35.000Z</time>
      </trkpt>
      <trkpt lat="44.3357" lon="4.76852">
        <ele>262.8</ele>
        <time>2025-04-30T12:15:38.000Z</time>
      </trkpt>
      <trkpt lat="44.3357" lon="4.76855">
        <ele>263.3</ele>
        <time>2025-04-30T12:15:42.000Z</time>
      </trkpt>
      <trkpt lat="44.3357" lon="4.76858">
        <ele>263.9</ele>
        <time>2025-04-30T12:15:44.000Z</time>
      </trkpt>
      <trkpt lat="44.3357" lon="4.76861">
        <ele>264.4</ele>
        <time>2025-04-30T12:15:46.000Z</time>
      </trkpt>
      <trkpt lat="44.3357" lon="4.76864">
        <ele>264.8</ele>
        <time>2025-04-30T12:15:48.000Z</time>
      </trkpt>
      <trkpt lat="44.3357" lon="4.76866">
        <ele>265.1</ele>
        <time>2025-04-30T12:15:50.000Z</time>
      </trkpt>
      <trkpt lat="44.33571" lon="4.76869">
        <ele>265.3</ele>
        <time>2025-04-30T12:15:53.000Z</time>
      </trkpt>
      <trkpt lat="44.33572" lon="4.76871">
        <ele>265.5</ele>
        <time>2025-04-30T12:15:55.000Z</time>
      </trkpt>
      <trkpt lat="44.33574" lon="4.76875">
        <ele>265.8</ele>
        <time>2025-04-30T12:15:58.000Z</time>
      </trkpt>
      <trkpt lat="44.33573" lon="4.76877">
        <ele>266.4</ele>
        <time>2025-04-30T12:16:01.000Z</time>
      </trkpt>
      <trkpt lat="44.33574" lon="4.7688">
        <ele>266.6</ele>
        <time>2025-04-30T12:16:04.000Z</time>
      </trkpt>
      <trkpt lat="44.33574" lon="4.76882">
        <ele>267</ele>
        <time>2025-04-30T12:16:07.000Z</time>
      </trkpt>
      <trkpt lat="44.33575" lon="4.76886">
        <ele>267.4</ele>
        <time>2025-04-30T12:16:11.000Z</time>
      </trkpt>
      <trkpt lat="44.33576" lon="4.76889">
        <ele>267.8</ele>
        <time>2025-04-30T12:16:14.000Z</time>
      </trkpt>
      <trkpt lat="44.33577" lon="4.76894">
        <ele>267.9</ele>
        <time>2025-04-30T12:16:18.000Z</time>
      </trkpt>
      <trkpt lat="44.33578" lon="4.76896">
        <ele>268</ele>
        <time>2025-04-30T12:16:20.000Z</time>
      </trkpt>
      <trkpt lat="44.33578" lon="4.76899">
        <ele>268.1</ele>
        <time>2025-04-30T12:16:22.000Z</time>
      </trkpt>
      <trkpt lat="44.33579" lon="4.76902">
        <ele>268.2</ele>
        <time>2025-04-30T12:16:25.000Z</time>
      </trkpt>
      <trkpt lat="44.33582" lon="4.76904">
        <ele>268.2</ele>
        <time>2025-04-30T12:16:29.000Z</time>
      </trkpt>
      <trkpt lat="44.33584" lon="4.76906">
        <ele>268.2</ele>
        <time>2025-04-30T12:16:32.000Z</time>
      </trkpt>
      <trkpt lat="44.33585" lon="4.76908">
        <ele>268</ele>
        <time>2025-04-30T12:16:34.000Z</time>
      </trkpt>
      <trkpt lat="44.33586" lon="4.76911">
        <ele>267.8</ele>
        <time>2025-04-30T12:16:36.000Z</time>
      </trkpt>
      <trkpt lat="44.33589" lon="4.76913">
        <ele>267.4</ele>
        <time>2025-04-30T12:16:39.000Z</time>
      </trkpt>
      <trkpt lat="44.3359" lon="4.76916">
        <ele>267.3</ele>
        <time>2025-04-30T12:16:42.000Z</time>
      </trkpt>
      <trkpt lat="44.33591" lon="4.76917">
        <ele>267</ele>
        <time>2025-04-30T12:16:44.000Z</time>
      </trkpt>
      <trkpt lat="44.33593" lon="4.76919">
        <ele>266.6</ele>
        <time>2025-04-30T12:16:46.000Z</time>
      </trkpt>
      <trkpt lat="44.33593" lon="4.76922">
        <ele>266.4</ele>
        <time>2025-04-30T12:16:49.000Z</time>
      </trkpt>
      <trkpt lat="44.33595" lon="4.76924">
        <ele>265.9</ele>
        <time>2025-04-30T12:16:54.000Z</time>
      </trkpt>
      <trkpt lat="44.33598" lon="4.76927">
        <ele>265.3</ele>
        <time>2025-04-30T12:16:59.000Z</time>
      </trkpt>
      <trkpt lat="44.33601" lon="4.7693">
        <ele>264.7</ele>
        <time>2025-04-30T12:17:05.000Z</time>
      </trkpt>
      <trkpt lat="44.33603" lon="4.76932">
        <ele>264.4</ele>
        <time>2025-04-30T12:17:07.000Z</time>
      </trkpt>
      <trkpt lat="44.33605" lon="4.76934">
        <ele>263.9</ele>
        <time>2025-04-30T12:17:09.000Z</time>
      </trkpt>
      <trkpt lat="44.33607" lon="4.76937">
        <ele>263.6</ele>
        <time>2025-04-30T12:17:17.000Z</time>
      </trkpt>
      <trkpt lat="44.33609" lon="4.76938">
        <ele>263.3</ele>
        <time>2025-04-30T12:17:20.000Z</time>
      </trkpt>
      <trkpt lat="44.33611" lon="4.7694">
        <ele>262.9</ele>
        <time>2025-04-30T12:17:22.000Z</time>
      </trkpt>
      <trkpt lat="44.33612" lon="4.76941">
        <ele>262.7</ele>
        <time>2025-04-30T12:17:25.000Z</time>
      </trkpt>
      <trkpt lat="44.33614" lon="4.76943">
        <ele>262.5</ele>
        <time>2025-04-30T12:17:28.000Z</time>
      </trkpt>
      <trkpt lat="44.33616" lon="4.76944">
        <ele>262.3</ele>
        <time>2025-04-30T12:17:34.000Z</time>
      </trkpt>
      <trkpt lat="44.33619" lon="4.76945">
        <ele>261.9</ele>
        <time>2025-04-30T12:17:37.000Z</time>
      </trkpt>
      <trkpt lat="44.33621" lon="4.76945">
        <ele>261.6</ele>
        <time>2025-04-30T12:17:40.000Z</time>
      </trkpt>
      <trkpt lat="44.33622" lon="4.76947">
        <ele>261.3</ele>
        <time>2025-04-30T12:17:42.000Z</time>
      </trkpt>
      <trkpt lat="44.33625" lon="4.76948">
        <ele>260.9</ele>
        <time>2025-04-30T12:17:44.000Z</time>
      </trkpt>
      <trkpt lat="44.33628" lon="4.76948">
        <ele>260.5</ele>
        <time>2025-04-30T12:17:47.000Z</time>
      </trkpt>
      <trkpt lat="44.3363" lon="4.76949">
        <ele>260.2</ele>
        <time>2025-04-30T12:17:49.000Z</time>
      </trkpt>
      <trkpt lat="44.33631" lon="4.76951">
        <ele>259.9</ele>
        <time>2025-04-30T12:17:51.000Z</time>
      </trkpt>
      <trkpt lat="44.33635" lon="4.76953">
        <ele>259.5</ele>
        <time>2025-04-30T12:17:56.000Z</time>
      </trkpt>
      <trkpt lat="44.33637" lon="4.76956">
        <ele>259.3</ele>
        <time>2025-04-30T12:17:58.000Z</time>
      </trkpt>
      <trkpt lat="44.3364" lon="4.76958">
        <ele>259</ele>
        <time>2025-04-30T12:18:02.000Z</time>
      </trkpt>
      <trkpt lat="44.33642" lon="4.76959">
        <ele>259</ele>
        <time>2025-04-30T12:18:04.000Z</time>
      </trkpt>
      <trkpt lat="44.33644" lon="4.7696">
        <ele>259</ele>
        <time>2025-04-30T12:18:06.000Z</time>
      </trkpt>
      <trkpt lat="44.33645" lon="4.76962">
        <ele>259.1</ele>
        <time>2025-04-30T12:18:08.000Z</time>
      </trkpt>
      <trkpt lat="44.33647" lon="4.76964">
        <ele>259.1</ele>
        <time>2025-04-30T12:18:11.000Z</time>
      </trkpt>
      <trkpt lat="44.33649" lon="4.76966">
        <ele>259.2</ele>
        <time>2025-04-30T12:18:13.000Z</time>
      </trkpt>
      <trkpt lat="44.33651" lon="4.76967">
        <ele>259.3</ele>
        <time>2025-04-30T12:18:15.000Z</time>
      </trkpt>
      <trkpt lat="44.33653" lon="4.76969">
        <ele>259.4</ele>
        <time>2025-04-30T12:18:17.000Z</time>
      </trkpt>
      <trkpt lat="44.33655" lon="4.76972">
        <ele>259.6</ele>
        <time>2025-04-30T12:18:23.000Z</time>
      </trkpt>
      <trkpt lat="44.33657" lon="4.76976">
        <ele>259.7</ele>
        <time>2025-04-30T12:18:27.000Z</time>
      </trkpt>
      <trkpt lat="44.33659" lon="4.76977">
        <ele>259.7</ele>
        <time>2025-04-30T12:18:29.000Z</time>
      </trkpt>
      <trkpt lat="44.33661" lon="4.76978">
        <ele>259.8</ele>
        <time>2025-04-30T12:18:31.000Z</time>
      </trkpt>
      <trkpt lat="44.33663" lon="4.7698">
        <ele>259.9</ele>
        <time>2025-04-30T12:18:34.000Z</time>
      </trkpt>
      <trkpt lat="44.33665" lon="4.76982">
        <ele>259.9</ele>
        <time>2025-04-30T12:18:36.000Z</time>
      </trkpt>
      <trkpt lat="44.33667" lon="4.76983">
        <ele>260</ele>
        <time>2025-04-30T12:18:39.000Z</time>
      </trkpt>
      <trkpt lat="44.33669" lon="4.76985">
        <ele>260</ele>
        <time>2025-04-30T12:18:41.000Z</time>
      </trkpt>
      <trkpt lat="44.3367" lon="4.76986">
        <ele>260.1</ele>
        <time>2025-04-30T12:18:43.000Z</time>
      </trkpt>
      <trkpt lat="44.33672" lon="4.76986">
        <ele>260.1</ele>
        <time>2025-04-30T12:18:45.000Z</time>
      </trkpt>
      <trkpt lat="44.33674" lon="4.76987">
        <ele>260.1</ele>
        <time>2025-04-30T12:18:47.000Z</time>
      </trkpt>
      <trkpt lat="44.33677" lon="4.76989">
        <ele>260.2</ele>
        <time>2025-04-30T12:18:49.000Z</time>
      </trkpt>
      <trkpt lat="44.33679" lon="4.76989">
        <ele>260.3</ele>
        <time>2025-04-30T12:18:51.000Z</time>
      </trkpt>
      <trkpt lat="44.33681" lon="4.7699">
        <ele>260.3</ele>
        <time>2025-04-30T12:18:53.000Z</time>
      </trkpt>
      <trkpt lat="44.33684" lon="4.7699">
        <ele>260.4</ele>
        <time>2025-04-30T12:18:55.000Z</time>
      </trkpt>
      <trkpt lat="44.33686" lon="4.76991">
        <ele>260.5</ele>
        <time>2025-04-30T12:18:58.000Z</time>
      </trkpt>
      <trkpt lat="44.33689" lon="4.76992">
        <ele>260.6</ele>
        <time>2025-04-30T12:19:00.000Z</time>
      </trkpt>
      <trkpt lat="44.33692" lon="4.76994">
        <ele>260.7</ele>
        <time>2025-04-30T12:19:03.000Z</time>
      </trkpt>
      <trkpt lat="44.33694" lon="4.76995">
        <ele>260.8</ele>
        <time>2025-04-30T12:19:05.000Z</time>
      </trkpt>
      <trkpt lat="44.33696" lon="4.76995">
        <ele>260.8</ele>
        <time>2025-04-30T12:19:07.000Z</time>
      </trkpt>
      <trkpt lat="44.33698" lon="4.76995">
        <ele>260.7</ele>
        <time>2025-04-30T12:19:09.000Z</time>
      </trkpt>
      <trkpt lat="44.33701" lon="4.76996">
        <ele>260.6</ele>
        <time>2025-04-30T12:19:12.000Z</time>
      </trkpt>
      <trkpt lat="44.33703" lon="4.76995">
        <ele>260.4</ele>
        <time>2025-04-30T12:19:14.000Z</time>
      </trkpt>
      <trkpt lat="44.33705" lon="4.76993">
        <ele>260.2</ele>
        <time>2025-04-30T12:19:16.000Z</time>
      </trkpt>
      <trkpt lat="44.33707" lon="4.76993">
        <ele>260.1</ele>
        <time>2025-04-30T12:19:18.000Z</time>
      </trkpt>
      <trkpt lat="44.33709" lon="4.76992">
        <ele>259.9</ele>
        <time>2025-04-30T12:19:20.000Z</time>
      </trkpt>
      <trkpt lat="44.33712" lon="4.76993">
        <ele>259.8</ele>
        <time>2025-04-30T12:19:23.000Z</time>
      </trkpt>
      <trkpt lat="44.33714" lon="4.76994">
        <ele>259.8</ele>
        <time>2025-04-30T12:19:25.000Z</time>
      </trkpt>
      <trkpt lat="44.33716" lon="4.76995">
        <ele>259.8</ele>
        <time>2025-04-30T12:19:29.000Z</time>
      </trkpt>
      <trkpt lat="44.33718" lon="4.76994">
        <ele>259.6</ele>
        <time>2025-04-30T12:19:31.000Z</time>
      </trkpt>
      <trkpt lat="44.3372" lon="4.76995">
        <ele>259.5</ele>
        <time>2025-04-30T12:19:33.000Z</time>
      </trkpt>
      <trkpt lat="44.33722" lon="4.76996">
        <ele>259.6</ele>
        <time>2025-04-30T12:19:35.000Z</time>
      </trkpt>
      <trkpt lat="44.33724" lon="4.76998">
        <ele>259.6</ele>
        <time>2025-04-30T12:19:37.000Z</time>
      </trkpt>
      <trkpt lat="44.33726" lon="4.76999">
        <ele>259.5</ele>
        <time>2025-04-30T12:19:40.000Z</time>
      </trkpt>
      <trkpt lat="44.33729" lon="4.77">
        <ele>259.3</ele>
        <time>2025-04-30T12:19:43.000Z</time>
      </trkpt>
      <trkpt lat="44.3373" lon="4.77002">
        <ele>259.1</ele>
        <time>2025-04-30T12:19:46.000Z</time>
      </trkpt>
      <trkpt lat="44.33732" lon="4.77003">
        <ele>258.9</ele>
        <time>2025-04-30T12:19:48.000Z</time>
      </trkpt>
      <trkpt lat="44.33734" lon="4.77003">
        <ele>258.8</ele>
        <time>2025-04-30T12:19:50.000Z</time>
      </trkpt>
      <trkpt lat="44.33736" lon="4.77005">
        <ele>258.6</ele>
        <time>2025-04-30T12:19:52.000Z</time>
      </trkpt>
      <trkpt lat="44.33739" lon="4.77006">
        <ele>258.4</ele>
        <time>2025-04-30T12:19:54.000Z</time>
      </trkpt>
      <trkpt lat="44.33741" lon="4.77006">
        <ele>258.2</ele>
        <time>2025-04-30T12:19:56.000Z</time>
      </trkpt>
      <trkpt lat="44.33743" lon="4.77007">
        <ele>257.9</ele>
        <time>2025-04-30T12:19:58.000Z</time>
      </trkpt>
      <trkpt lat="44.33745" lon="4.77009">
        <ele>257.8</ele>
        <time>2025-04-30T12:20:00.000Z</time>
      </trkpt>
      <trkpt lat="44.33747" lon="4.7701">
        <ele>257.6</ele>
        <time>2025-04-30T12:20:02.000Z</time>
      </trkpt>
      <trkpt lat="44.33749" lon="4.7701">
        <ele>257.5</ele>
        <time>2025-04-30T12:20:04.000Z</time>
      </trkpt>
      <trkpt lat="44.33752" lon="4.7701">
        <ele>256.9</ele>
        <time>2025-04-30T12:20:08.000Z</time>
      </trkpt>
      <trkpt lat="44.33754" lon="4.77012">
        <ele>256.8</ele>
        <time>2025-04-30T12:20:10.000Z</time>
      </trkpt>
      <trkpt lat="44.33756" lon="4.77015">
        <ele>256.6</ele>
        <time>2025-04-30T12:20:16.000Z</time>
      </trkpt>
      <trkpt lat="44.33758" lon="4.77016">
        <ele>256.3</ele>
        <time>2025-04-30T12:20:18.000Z</time>
      </trkpt>
      <trkpt lat="44.3376" lon="4.77017">
        <ele>256.1</ele>
        <time>2025-04-30T12:20:20.000Z</time>
      </trkpt>
      <trkpt lat="44.33762" lon="4.77018">
        <ele>255.9</ele>
        <time>2025-04-30T12:20:22.000Z</time>
      </trkpt>
      <trkpt lat="44.33764" lon="4.7702">
        <ele>255.7</ele>
        <time>2025-04-30T12:20:24.000Z</time>
      </trkpt>
      <trkpt lat="44.33766" lon="4.77022">
        <ele>255.7</ele>
        <time>2025-04-30T12:20:26.000Z</time>
      </trkpt>
      <trkpt lat="44.33769" lon="4.77022">
        <ele>255.3</ele>
        <time>2025-04-30T12:20:29.000Z</time>
      </trkpt>
      <trkpt lat="44.33772" lon="4.77022">
        <ele>254.9</ele>
        <time>2025-04-30T12:20:32.000Z</time>
      </trkpt>
      <trkpt lat="44.33774" lon="4.77023">
        <ele>254.7</ele>
        <time>2025-04-30T12:20:35.000Z</time>
      </trkpt>
      <trkpt lat="44.33776" lon="4.77024">
        <ele>254.8</ele>
        <time>2025-04-30T12:20:38.000Z</time>
      </trkpt>
      <trkpt lat="44.33778" lon="4.77026">
        <ele>254.7</ele>
        <time>2025-04-30T12:20:40.000Z</time>
      </trkpt>
      <trkpt lat="44.3378" lon="4.77026">
        <ele>254.4</ele>
        <time>2025-04-30T12:20:42.000Z</time>
      </trkpt>
      <trkpt lat="44.33783" lon="4.77026">
        <ele>254</ele>
        <time>2025-04-30T12:20:44.000Z</time>
      </trkpt>
      <trkpt lat="44.33785" lon="4.77027">
        <ele>253.8</ele>
        <time>2025-04-30T12:20:46.000Z</time>
      </trkpt>
      <trkpt lat="44.33787" lon="4.77029">
        <ele>253.7</ele>
        <time>2025-04-30T12:20:48.000Z</time>
      </trkpt>
      <trkpt lat="44.33788" lon="4.77031">
        <ele>253.6</ele>
        <time>2025-04-30T12:20:51.000Z</time>
      </trkpt>
      <trkpt lat="44.3379" lon="4.77032">
        <ele>253.4</ele>
        <time>2025-04-30T12:20:53.000Z</time>
      </trkpt>
      <trkpt lat="44.33793" lon="4.77036">
        <ele>253</ele>
        <time>2025-04-30T12:20:57.000Z</time>
      </trkpt>
      <trkpt lat="44.33795" lon="4.77037">
        <ele>252.7</ele>
        <time>2025-04-30T12:21:00.000Z</time>
      </trkpt>
      <trkpt lat="44.33797" lon="4.77037">
        <ele>252.4</ele>
        <time>2025-04-30T12:21:03.000Z</time>
      </trkpt>
      <trkpt lat="44.33799" lon="4.77038">
        <ele>252.2</ele>
        <time>2025-04-30T12:21:05.000Z</time>
      </trkpt>
      <trkpt lat="44.33801" lon="4.77038">
        <ele>251.9</ele>
        <time>2025-04-30T12:21:07.000Z</time>
      </trkpt>
      <trkpt lat="44.33803" lon="4.7704">
        <ele>251.8</ele>
        <time>2025-04-30T12:21:10.000Z</time>
      </trkpt>
      <trkpt lat="44.33805" lon="4.77042">
        <ele>251.6</ele>
        <time>2025-04-30T12:21:13.000Z</time>
      </trkpt>
      <trkpt lat="44.33807" lon="4.77043">
        <ele>251.3</ele>
        <time>2025-04-30T12:21:15.000Z</time>
      </trkpt>
      <trkpt lat="44.33809" lon="4.77044">
        <ele>251</ele>
        <time>2025-04-30T12:21:17.000Z</time>
      </trkpt>
      <trkpt lat="44.33811" lon="4.77045">
        <ele>250.6</ele>
        <time>2025-04-30T12:21:19.000Z</time>
      </trkpt>
      <trkpt lat="44.33812" lon="4.77046">
        <ele>250.4</ele>
        <time>2025-04-30T12:21:22.000Z</time>
      </trkpt>
      <trkpt lat="44.33815" lon="4.77048">
        <ele>250</ele>
        <time>2025-04-30T12:21:24.000Z</time>
      </trkpt>
      <trkpt lat="44.33817" lon="4.77049">
        <ele>249.8</ele>
        <time>2025-04-30T12:21:27.000Z</time>
      </trkpt>
      <trkpt lat="44.33819" lon="4.7705">
        <ele>249.6</ele>
        <time>2025-04-30T12:21:30.000Z</time>
      </trkpt>
      <trkpt lat="44.33821" lon="4.77054">
        <ele>249.5</ele>
        <time>2025-04-30T12:21:35.000Z</time>
      </trkpt>
      <trkpt lat="44.33823" lon="4.77055">
        <ele>249.3</ele>
        <time>2025-04-30T12:21:38.000Z</time>
      </trkpt>
      <trkpt lat="44.33827" lon="4.77057">
        <ele>249</ele>
        <time>2025-04-30T12:21:43.000Z</time>
      </trkpt>
      <trkpt lat="44.33828" lon="4.77059">
        <ele>248.7</ele>
        <time>2025-04-30T12:21:46.000Z</time>
      </trkpt>
      <trkpt lat="44.33831" lon="4.77061">
        <ele>248.4</ele>
        <time>2025-04-30T12:21:49.000Z</time>
      </trkpt>
      <trkpt lat="44.33832" lon="4.77063">
        <ele>248.2</ele>
        <time>2025-04-30T12:21:52.000Z</time>
      </trkpt>
      <trkpt lat="44.33834" lon="4.77064">
        <ele>247.9</ele>
        <time>2025-04-30T12:21:54.000Z</time>
      </trkpt>
      <trkpt lat="44.33836" lon="4.77066">
        <ele>247.7</ele>
        <time>2025-04-30T12:22:01.000Z</time>
      </trkpt>
      <trkpt lat="44.33838" lon="4.77067">
        <ele>247.3</ele>
        <time>2025-04-30T12:22:04.000Z</time>
      </trkpt>
      <trkpt lat="44.3384" lon="4.77069">
        <ele>247.1</ele>
        <time>2025-04-30T12:22:06.000Z</time>
      </trkpt>
      <trkpt lat="44.33842" lon="4.77069">
        <ele>246.8</ele>
        <time>2025-04-30T12:22:08.000Z</time>
      </trkpt>
      <trkpt lat="44.33844" lon="4.77069">
        <ele>246.5</ele>
        <time>2025-04-30T12:22:10.000Z</time>
      </trkpt>
      <trkpt lat="44.33846" lon="4.7707">
        <ele>246.2</ele>
        <time>2025-04-30T12:22:12.000Z</time>
      </trkpt>
      <trkpt lat="44.33848" lon="4.77071">
        <ele>245.9</ele>
        <time>2025-04-30T12:22:14.000Z</time>
      </trkpt>
      <trkpt lat="44.3385" lon="4.77071">
        <ele>245.7</ele>
        <time>2025-04-30T12:22:16.000Z</time>
      </trkpt>
      <trkpt lat="44.33852" lon="4.77072">
        <ele>245.4</ele>
        <time>2025-04-30T12:22:18.000Z</time>
      </trkpt>
      <trkpt lat="44.33855" lon="4.77074">
        <ele>245.2</ele>
        <time>2025-04-30T12:22:21.000Z</time>
      </trkpt>
      <trkpt lat="44.33857" lon="4.77076">
        <ele>245</ele>
        <time>2025-04-30T12:22:24.000Z</time>
      </trkpt>
      <trkpt lat="44.33859" lon="4.77076">
        <ele>244.8</ele>
        <time>2025-04-30T12:22:26.000Z</time>
      </trkpt>
      <trkpt lat="44.3386" lon="4.77077">
        <ele>244.6</ele>
        <time>2025-04-30T12:22:28.000Z</time>
      </trkpt>
      <trkpt lat="44.33862" lon="4.77078">
        <ele>244.4</ele>
        <time>2025-04-30T12:22:30.000Z</time>
      </trkpt>
      <trkpt lat="44.33864" lon="4.77079">
        <ele>244.2</ele>
        <time>2025-04-30T12:22:32.000Z</time>
      </trkpt>
      <trkpt lat="44.33865" lon="4.77082">
        <ele>244.4</ele>
        <time>2025-04-30T12:22:34.000Z</time>
      </trkpt>
      <trkpt lat="44.33867" lon="4.77083">
        <ele>244.1</ele>
        <time>2025-04-30T12:22:38.000Z</time>
      </trkpt>
      <trkpt lat="44.33869" lon="4.77083">
        <ele>243.8</ele>
        <time>2025-04-30T12:22:41.000Z</time>
      </trkpt>
      <trkpt lat="44.33871" lon="4.77085">
        <ele>243.4</ele>
        <time>2025-04-30T12:22:43.000Z</time>
      </trkpt>
      <trkpt lat="44.33873" lon="4.77086">
        <ele>243.1</ele>
        <time>2025-04-30T12:22:45.000Z</time>
      </trkpt>
      <trkpt lat="44.33875" lon="4.77086">
        <ele>242.9</ele>
        <time>2025-04-30T12:22:47.000Z</time>
      </trkpt>
      <trkpt lat="44.33877" lon="4.77086">
        <ele>242.6</ele>
        <time>2025-04-30T12:22:49.000Z</time>
      </trkpt>
      <trkpt lat="44.33879" lon="4.77087">
        <ele>242.3</ele>
        <time>2025-04-30T12:22:52.000Z</time>
      </trkpt>
      <trkpt lat="44.33881" lon="4.77087">
        <ele>242</ele>
        <time>2025-04-30T12:22:54.000Z</time>
      </trkpt>
      <trkpt lat="44.33883" lon="4.77088">
        <ele>241.7</ele>
        <time>2025-04-30T12:22:56.000Z</time>
      </trkpt>
      <trkpt lat="44.33885" lon="4.7709">
        <ele>241.3</ele>
        <time>2025-04-30T12:22:59.000Z</time>
      </trkpt>
      <trkpt lat="44.33887" lon="4.77091">
        <ele>241</ele>
        <time>2025-04-30T12:23:01.000Z</time>
      </trkpt>
      <trkpt lat="44.33889" lon="4.77092">
        <ele>240.6</ele>
        <time>2025-04-30T12:23:03.000Z</time>
      </trkpt>
      <trkpt lat="44.33892" lon="4.77092">
        <ele>240.4</ele>
        <time>2025-04-30T12:23:06.000Z</time>
      </trkpt>
      <trkpt lat="44.33894" lon="4.77092">
        <ele>240.2</ele>
        <time>2025-04-30T12:23:08.000Z</time>
      </trkpt>
      <trkpt lat="44.33896" lon="4.77092">
        <ele>240</ele>
        <time>2025-04-30T12:23:10.000Z</time>
      </trkpt>
      <trkpt lat="44.33899" lon="4.77094">
        <ele>239.7</ele>
        <time>2025-04-30T12:23:14.000Z</time>
      </trkpt>
      <trkpt lat="44.33901" lon="4.77094">
        <ele>239.5</ele>
        <time>2025-04-30T12:23:17.000Z</time>
      </trkpt>
      <trkpt lat="44.33905" lon="4.77097">
        <ele>239.1</ele>
        <time>2025-04-30T12:23:24.000Z</time>
      </trkpt>
      <trkpt lat="44.33907" lon="4.77097">
        <ele>238.9</ele>
        <time>2025-04-30T12:23:26.000Z</time>
      </trkpt>
      <trkpt lat="44.33909" lon="4.77098">
        <ele>238.7</ele>
        <time>2025-04-30T12:23:28.000Z</time>
      </trkpt>
      <trkpt lat="44.33911" lon="4.77099">
        <ele>238.5</ele>
        <time>2025-04-30T12:23:30.000Z</time>
      </trkpt>
      <trkpt lat="44.33913" lon="4.771">
        <ele>238.3</ele>
        <time>2025-04-30T12:23:32.000Z</time>
      </trkpt>
      <trkpt lat="44.33914" lon="4.77102">
        <ele>238.2</ele>
        <time>2025-04-30T12:23:36.000Z</time>
      </trkpt>
      <trkpt lat="44.33917" lon="4.77103">
        <ele>238</ele>
        <time>2025-04-30T12:23:40.000Z</time>
      </trkpt>
      <trkpt lat="44.33919" lon="4.77103">
        <ele>237.8</ele>
        <time>2025-04-30T12:23:42.000Z</time>
      </trkpt>
      <trkpt lat="44.33921" lon="4.77105">
        <ele>237.6</ele>
        <time>2025-04-30T12:23:45.000Z</time>
      </trkpt>
      <trkpt lat="44.33923" lon="4.77107">
        <ele>237.4</ele>
        <time>2025-04-30T12:23:47.000Z</time>
      </trkpt>
      <trkpt lat="44.33924" lon="4.77108">
        <ele>237.3</ele>
        <time>2025-04-30T12:23:49.000Z</time>
      </trkpt>
      <trkpt lat="44.33927" lon="4.77108">
        <ele>237.1</ele>
        <time>2025-04-30T12:23:51.000Z</time>
      </trkpt>
      <trkpt lat="44.33929" lon="4.77108">
        <ele>236.9</ele>
        <time>2025-04-30T12:23:53.000Z</time>
      </trkpt>
      <trkpt lat="44.33931" lon="4.77108">
        <ele>236.7</ele>
        <time>2025-04-30T12:23:55.000Z</time>
      </trkpt>
      <trkpt lat="44.33933" lon="4.77109">
        <ele>236.6</ele>
        <time>2025-04-30T12:23:57.000Z</time>
      </trkpt>
      <trkpt lat="44.33935" lon="4.7711">
        <ele>236.5</ele>
        <time>2025-04-30T12:23:59.000Z</time>
      </trkpt>
      <trkpt lat="44.33937" lon="4.77111">
        <ele>236.5</ele>
        <time>2025-04-30T12:24:01.000Z</time>
      </trkpt>
      <trkpt lat="44.33939" lon="4.77112">
        <ele>236.3</ele>
        <time>2025-04-30T12:24:04.000Z</time>
      </trkpt>
      <trkpt lat="44.33942" lon="4.77114">
        <ele>235.9</ele>
        <time>2025-04-30T12:24:08.000Z</time>
      </trkpt>
      <trkpt lat="44.33944" lon="4.77115">
        <ele>235.7</ele>
        <time>2025-04-30T12:24:11.000Z</time>
      </trkpt>
      <trkpt lat="44.33946" lon="4.77116">
        <ele>235.3</ele>
        <time>2025-04-30T12:24:14.000Z</time>
      </trkpt>
      <trkpt lat="44.33948" lon="4.77116">
        <ele>234.9</ele>
        <time>2025-04-30T12:24:16.000Z</time>
      </trkpt>
      <trkpt lat="44.33951" lon="4.77115">
        <ele>234.6</ele>
        <time>2025-04-30T12:24:18.000Z</time>
      </trkpt>
      <trkpt lat="44.33953" lon="4.77115">
        <ele>234.2</ele>
        <time>2025-04-30T12:24:20.000Z</time>
      </trkpt>
      <trkpt lat="44.33956" lon="4.77114">
        <ele>233.7</ele>
        <time>2025-04-30T12:24:25.000Z</time>
      </trkpt>
      <trkpt lat="44.3396" lon="4.77115">
        <ele>233</ele>
        <time>2025-04-30T12:24:32.000Z</time>
      </trkpt>
      <trkpt lat="44.33964" lon="4.77115">
        <ele>232.4</ele>
        <time>2025-04-30T12:24:41.000Z</time>
      </trkpt>
      <trkpt lat="44.33966" lon="4.77116">
        <ele>232</ele>
        <time>2025-04-30T12:24:44.000Z</time>
      </trkpt>
      <trkpt lat="44.33968" lon="4.77117">
        <ele>231.7</ele>
        <time>2025-04-30T12:24:53.000Z</time>
      </trkpt>
      <trkpt lat="44.33971" lon="4.7712">
        <ele>231.1</ele>
        <time>2025-04-30T12:24:59.000Z</time>
      </trkpt>
      <trkpt lat="44.33974" lon="4.77122">
        <ele>230.5</ele>
        <time>2025-04-30T12:25:02.000Z</time>
      </trkpt>
      <trkpt lat="44.33976" lon="4.77123">
        <ele>230</ele>
        <time>2025-04-30T12:25:04.000Z</time>
      </trkpt>
      <trkpt lat="44.33978" lon="4.77124">
        <ele>229.5</ele>
        <time>2025-04-30T12:25:08.000Z</time>
      </trkpt>
      <trkpt lat="44.3398" lon="4.77125">
        <ele>229</ele>
        <time>2025-04-30T12:25:11.000Z</time>
      </trkpt>
      <trkpt lat="44.33981" lon="4.77127">
        <ele>228.7</ele>
        <time>2025-04-30T12:25:13.000Z</time>
      </trkpt>
      <trkpt lat="44.33983" lon="4.77128">
        <ele>228.4</ele>
        <time>2025-04-30T12:25:16.000Z</time>
      </trkpt>
      <trkpt lat="44.33985" lon="4.7713">
        <ele>228</ele>
        <time>2025-04-30T12:25:19.000Z</time>
      </trkpt>
      <trkpt lat="44.33988" lon="4.77128">
        <ele>227.2</ele>
        <time>2025-04-30T12:25:22.000Z</time>
      </trkpt>
      <trkpt lat="44.3399" lon="4.77127">
        <ele>226.6</ele>
        <time>2025-04-30T12:25:24.000Z</time>
      </trkpt>
      <trkpt lat="44.33993" lon="4.77127">
        <ele>225.8</ele>
        <time>2025-04-30T12:25:26.000Z</time>
      </trkpt>
      <trkpt lat="44.33994" lon="4.77127">
        <ele>225.5</ele>
        <time>2025-04-30T12:25:28.000Z</time>
      </trkpt>
      <trkpt lat="44.33996" lon="4.77128">
        <ele>225.2</ele>
        <time>2025-04-30T12:25:30.000Z</time>
      </trkpt>
      <trkpt lat="44.33999" lon="4.7713">
        <ele>225.1</ele>
        <time>2025-04-30T12:25:38.000Z</time>
      </trkpt>
      <trkpt lat="44.34" lon="4.77132">
        <ele>225.3</ele>
        <time>2025-04-30T12:25:40.000Z</time>
      </trkpt>
      <trkpt lat="44.34002" lon="4.77134">
        <ele>225.1</ele>
        <time>2025-04-30T12:25:43.000Z</time>
      </trkpt>
      <trkpt lat="44.34002" lon="4.77137">
        <ele>225.8</ele>
        <time>2025-04-30T12:25:45.000Z</time>
      </trkpt>
      <trkpt lat="44.34004" lon="4.77139">
        <ele>225.6</ele>
        <time>2025-04-30T12:25:48.000Z</time>
      </trkpt>
      <trkpt lat="44.34003" lon="4.77141">
        <ele>225.8</ele>
        <time>2025-04-30T12:25:50.000Z</time>
      </trkpt>
      <trkpt lat="44.34005" lon="4.77141">
        <ele>225</ele>
        <time>2025-04-30T12:29:17.000Z</time>
      </trkpt>
      <trkpt lat="44.34007" lon="4.7714">
        <ele>224.5</ele>
        <time>2025-04-30T12:29:21.000Z</time>
      </trkpt>
      <trkpt lat="44.34009" lon="4.7714">
        <ele>223.7</ele>
        <time>2025-04-30T12:29:24.000Z</time>
      </trkpt>
      <trkpt lat="44.34011" lon="4.7714">
        <ele>223</ele>
        <time>2025-04-30T12:29:26.000Z</time>
      </trkpt>
      <trkpt lat="44.34014" lon="4.77141">
        <ele>222.1</ele>
        <time>2025-04-30T12:29:29.000Z</time>
      </trkpt>
      <trkpt lat="44.34016" lon="4.77143">
        <ele>221.6</ele>
        <time>2025-04-30T12:29:31.000Z</time>
      </trkpt>
      <trkpt lat="44.34018" lon="4.77144">
        <ele>221.1</ele>
        <time>2025-04-30T12:29:33.000Z</time>
      </trkpt>
      <trkpt lat="44.3402" lon="4.77146">
        <ele>220.7</ele>
        <time>2025-04-30T12:29:36.000Z</time>
      </trkpt>
      <trkpt lat="44.34022" lon="4.77147">
        <ele>220.5</ele>
        <time>2025-04-30T12:29:40.000Z</time>
      </trkpt>
      <trkpt lat="44.34023" lon="4.7715">
        <ele>220.5</ele>
        <time>2025-04-30T12:29:44.000Z</time>
      </trkpt>
      <trkpt lat="44.34025" lon="4.77152">
        <ele>220.5</ele>
        <time>2025-04-30T12:29:47.000Z</time>
      </trkpt>
      <trkpt lat="44.34027" lon="4.77152">
        <ele>220</ele>
        <time>2025-04-30T12:29:49.000Z</time>
      </trkpt>
      <trkpt lat="44.34027" lon="4.77154">
        <ele>220.4</ele>
        <time>2025-04-30T12:29:51.000Z</time>
      </trkpt>
      <trkpt lat="44.34028" lon="4.77157">
        <ele>220.8</ele>
        <time>2025-04-30T12:29:53.000Z</time>
      </trkpt>
      <trkpt lat="44.3403" lon="4.77159">
        <ele>221</ele>
        <time>2025-04-30T12:29:56.000Z</time>
      </trkpt>
      <trkpt lat="44.34032" lon="4.77161">
        <ele>221.1</ele>
        <time>2025-04-30T12:29:58.000Z</time>
      </trkpt>
      <trkpt lat="44.34034" lon="4.77163">
        <ele>221.4</ele>
        <time>2025-04-30T12:30:01.000Z</time>
      </trkpt>
      <trkpt lat="44.34035" lon="4.77165">
        <ele>221.6</ele>
        <time>2025-04-30T12:30:03.000Z</time>
      </trkpt>
      <trkpt lat="44.34037" lon="4.77165">
        <ele>221.6</ele>
        <time>2025-04-30T12:30:05.000Z</time>
      </trkpt>
      <trkpt lat="44.34039" lon="4.77167">
        <ele>221.8</ele>
        <time>2025-04-30T12:30:07.000Z</time>
      </trkpt>
      <trkpt lat="44.34041" lon="4.77169">
        <ele>221.5</ele>
        <time>2025-04-30T12:30:10.000Z</time>
      </trkpt>
      <trkpt lat="44.34044" lon="4.7717">
        <ele>221.3</ele>
        <time>2025-04-30T12:30:13.000Z</time>
      </trkpt>
      <trkpt lat="44.34045" lon="4.77172">
        <ele>221.2</ele>
        <time>2025-04-30T12:30:16.000Z</time>
      </trkpt>
      <trkpt lat="44.34046" lon="4.77174">
        <ele>221.2</ele>
        <time>2025-04-30T12:30:23.000Z</time>
      </trkpt>
      <trkpt lat="44.34047" lon="4.77177">
        <ele>221.2</ele>
        <time>2025-04-30T12:30:28.000Z</time>
      </trkpt>
      <trkpt lat="44.34048" lon="4.77179">
        <ele>221.3</ele>
        <time>2025-04-30T12:30:31.000Z</time>
      </trkpt>
      <trkpt lat="44.3405" lon="4.7718">
        <ele>221.4</ele>
        <time>2025-04-30T12:30:33.000Z</time>
      </trkpt>
      <trkpt lat="44.34052" lon="4.77183">
        <ele>221.6</ele>
        <time>2025-04-30T12:30:35.000Z</time>
      </trkpt>
      <trkpt lat="44.34053" lon="4.77185">
        <ele>221.8</ele>
        <time>2025-04-30T12:30:37.000Z</time>
      </trkpt>
      <trkpt lat="44.34055" lon="4.77186">
        <ele>222.1</ele>
        <time>2025-04-30T12:30:39.000Z</time>
      </trkpt>
      <trkpt lat="44.34056" lon="4.77189">
        <ele>222.4</ele>
        <time>2025-04-30T12:30:41.000Z</time>
      </trkpt>
      <trkpt lat="44.34058" lon="4.77192">
        <ele>223.1</ele>
        <time>2025-04-30T12:30:44.000Z</time>
      </trkpt>
      <trkpt lat="44.3406" lon="4.77193">
        <ele>223.7</ele>
        <time>2025-04-30T12:30:47.000Z</time>
      </trkpt>
      <trkpt lat="44.34062" lon="4.77196">
        <ele>223.8</ele>
        <time>2025-04-30T12:30:50.000Z</time>
      </trkpt>
      <trkpt lat="44.34064" lon="4.77198">
        <ele>223.9</ele>
        <time>2025-04-30T12:30:53.000Z</time>
      </trkpt>
      <trkpt lat="44.34066" lon="4.77197">
        <ele>224.3</ele>
        <time>2025-04-30T12:30:55.000Z</time>
      </trkpt>
      <trkpt lat="44.34068" lon="4.77197">
        <ele>224.8</ele>
        <time>2025-04-30T12:30:58.000Z</time>
      </trkpt>
      <trkpt lat="44.3407" lon="4.77197">
        <ele>225.2</ele>
        <time>2025-04-30T12:31:01.000Z</time>
      </trkpt>
      <trkpt lat="44.34073" lon="4.77196">
        <ele>225.7</ele>
        <time>2025-04-30T12:31:03.000Z</time>
      </trkpt>
      <trkpt lat="44.34075" lon="4.77196">
        <ele>226.2</ele>
        <time>2025-04-30T12:31:05.000Z</time>
      </trkpt>
      <trkpt lat="44.34077" lon="4.77198">
        <ele>226.4</ele>
        <time>2025-04-30T12:31:08.000Z</time>
      </trkpt>
      <trkpt lat="44.34079" lon="4.77198">
        <ele>226.7</ele>
        <time>2025-04-30T12:31:10.000Z</time>
      </trkpt>
      <trkpt lat="44.34082" lon="4.77198">
        <ele>227.2</ele>
        <time>2025-04-30T12:31:12.000Z</time>
      </trkpt>
      <trkpt lat="44.34084" lon="4.77199">
        <ele>227.4</ele>
        <time>2025-04-30T12:31:15.000Z</time>
      </trkpt>
      <trkpt lat="44.34086" lon="4.77201">
        <ele>227.3</ele>
        <time>2025-04-30T12:31:17.000Z</time>
      </trkpt>
      <trkpt lat="44.34087" lon="4.77203">
        <ele>227.1</ele>
        <time>2025-04-30T12:31:20.000Z</time>
      </trkpt>
      <trkpt lat="44.34088" lon="4.77207">
        <ele>226.7</ele>
        <time>2025-04-30T12:31:32.000Z</time>
      </trkpt>
      <trkpt lat="44.3409" lon="4.77209">
        <ele>226.8</ele>
        <time>2025-04-30T12:31:42.000Z</time>
      </trkpt>
      <trkpt lat="44.34092" lon="4.77209">
        <ele>227</ele>
        <time>2025-04-30T12:31:47.000Z</time>
      </trkpt>
      <trkpt lat="44.34095" lon="4.7721">
        <ele>227.3</ele>
        <time>2025-04-30T12:31:54.000Z</time>
      </trkpt>
      <trkpt lat="44.34097" lon="4.7721">
        <ele>227.5</ele>
        <time>2025-04-30T12:31:59.000Z</time>
      </trkpt>
      <trkpt lat="44.341" lon="4.77209">
        <ele>228.1</ele>
        <time>2025-04-30T12:32:05.000Z</time>
      </trkpt>
      <trkpt lat="44.34102" lon="4.77211">
        <ele>228.3</ele>
        <time>2025-04-30T12:32:17.000Z</time>
      </trkpt>
      <trkpt lat="44.34104" lon="4.77212">
        <ele>228.6</ele>
        <time>2025-04-30T12:32:22.000Z</time>
      </trkpt>
      <trkpt lat="44.34107" lon="4.77216">
        <ele>229</ele>
        <time>2025-04-30T12:32:27.000Z</time>
      </trkpt>
      <trkpt lat="44.34109" lon="4.77215">
        <ele>229.3</ele>
        <time>2025-04-30T12:32:30.000Z</time>
      </trkpt>
      <trkpt lat="44.34112" lon="4.77214">
        <ele>229.6</ele>
        <time>2025-04-30T12:32:35.000Z</time>
      </trkpt>
      <trkpt lat="44.34115" lon="4.77213">
        <ele>229.2</ele>
        <time>2025-04-30T12:32:41.000Z</time>
      </trkpt>
      <trkpt lat="44.34116" lon="4.77211">
        <ele>228.9</ele>
        <time>2025-04-30T12:32:44.000Z</time>
      </trkpt>
      <trkpt lat="44.34117" lon="4.77209">
        <ele>228.6</ele>
        <time>2025-04-30T12:32:48.000Z</time>
      </trkpt>
      <trkpt lat="44.34118" lon="4.77206">
        <ele>228.3</ele>
        <time>2025-04-30T12:36:24.000Z</time>
      </trkpt>
      <trkpt lat="44.34116" lon="4.77208">
        <ele>228.7</ele>
        <time>2025-04-30T12:42:38.000Z</time>
      </trkpt>
      <trkpt lat="44.34114" lon="4.77209">
        <ele>229</ele>
        <time>2025-04-30T12:42:44.000Z</time>
      </trkpt>
      <trkpt lat="44.34113" lon="4.77208">
        <ele>229.3</ele>
        <time>2025-04-30T12:42:49.000Z</time>
      </trkpt>
      <trkpt lat="44.34111" lon="4.77208">
        <ele>229.4</ele>
        <time>2025-04-30T12:42:54.000Z</time>
      </trkpt>
      <trkpt lat="44.34109" lon="4.77205">
        <ele>229.2</ele>
        <time>2025-04-30T12:43:13.000Z</time>
      </trkpt>
      <trkpt lat="44.34108" lon="4.77203">
        <ele>229</ele>
        <time>2025-04-30T12:43:50.000Z</time>
      </trkpt>
      <trkpt lat="44.34107" lon="4.772">
        <ele>228.9</ele>
        <time>2025-04-30T12:43:56.000Z</time>
      </trkpt>
      <trkpt lat="44.34105" lon="4.77199">
        <ele>228.7</ele>
        <time>2025-04-30T12:44:07.000Z</time>
      </trkpt>
      <trkpt lat="44.34102" lon="4.772">
        <ele>228.6</ele>
        <time>2025-04-30T12:44:26.000Z</time>
      </trkpt>
      <trkpt lat="44.34105" lon="4.77202">
        <ele>228.8</ele>
        <time>2025-04-30T12:45:19.000Z</time>
      </trkpt>
      <trkpt lat="44.34106" lon="4.77204">
        <ele>228.9</ele>
        <time>2025-04-30T12:45:31.000Z</time>
      </trkpt>
      <trkpt lat="44.34107" lon="4.77207">
        <ele>228.9</ele>
        <time>2025-04-30T12:45:36.000Z</time>
      </trkpt>
      <trkpt lat="44.34108" lon="4.77208">
        <ele>229.1</ele>
        <time>2025-04-30T12:45:42.000Z</time>
      </trkpt>
      <trkpt lat="44.34106" lon="4.77208">
        <ele>228.9</ele>
        <time>2025-04-30T12:46:04.000Z</time>
      </trkpt>
      <trkpt lat="44.34104" lon="4.77207">
        <ele>228.6</ele>
        <time>2025-04-30T12:46:16.000Z</time>
      </trkpt>
      <trkpt lat="44.34102" lon="4.77206">
        <ele>228.4</ele>
        <time>2025-04-30T12:46:42.000Z</time>
      </trkpt>
      <trkpt lat="44.34099" lon="4.77206">
        <ele>228.1</ele>
        <time>2025-04-30T12:46:56.000Z</time>
      </trkpt>
      <trkpt lat="44.34097" lon="4.77206">
        <ele>227.9</ele>
        <time>2025-04-30T12:47:03.000Z</time>
      </trkpt>
      <trkpt lat="44.34096" lon="4.77205">
        <ele>227.7</ele>
        <time>2025-04-30T12:47:09.000Z</time>
      </trkpt>
      <trkpt lat="44.34093" lon="4.77206">
        <ele>227.5</ele>
        <time>2025-04-30T12:47:16.000Z</time>
      </trkpt>
      <trkpt lat="44.34091" lon="4.77205">
        <ele>227.3</ele>
        <time>2025-04-30T12:47:18.000Z</time>
      </trkpt>
      <trkpt lat="44.34089" lon="4.77204">
        <ele>227.2</ele>
        <time>2025-04-30T12:47:20.000Z</time>
      </trkpt>
      <trkpt lat="44.34089" lon="4.772">
        <ele>227.6</ele>
        <time>2025-04-30T12:47:24.000Z</time>
      </trkpt>
      <trkpt lat="44.34087" lon="4.77199">
        <ele>227.6</ele>
        <time>2025-04-30T12:47:29.000Z</time>
      </trkpt>
      <trkpt lat="44.34085" lon="4.77198">
        <ele>227.6</ele>
        <time>2025-04-30T12:47:32.000Z</time>
      </trkpt>
      <trkpt lat="44.34083" lon="4.77196">
        <ele>227.7</ele>
        <time>2025-04-30T12:47:35.000Z</time>
      </trkpt>
      <trkpt lat="44.3408" lon="4.77195">
        <ele>227.4</ele>
        <time>2025-04-30T12:47:38.000Z</time>
      </trkpt>
      <trkpt lat="44.34078" lon="4.77195">
        <ele>227</ele>
        <time>2025-04-30T12:47:41.000Z</time>
      </trkpt>
      <trkpt lat="44.34075" lon="4.77194">
        <ele>226.4</ele>
        <time>2025-04-30T12:47:44.000Z</time>
      </trkpt>
      <trkpt lat="44.34073" lon="4.77194">
        <ele>226</ele>
        <time>2025-04-30T12:47:46.000Z</time>
      </trkpt>
      <trkpt lat="44.34071" lon="4.77194">
        <ele>225.7</ele>
        <time>2025-04-30T12:47:49.000Z</time>
      </trkpt>
      <trkpt lat="44.34068" lon="4.77194">
        <ele>225.2</ele>
        <time>2025-04-30T12:47:52.000Z</time>
      </trkpt>
      <trkpt lat="44.34066" lon="4.77195">
        <ele>224.8</ele>
        <time>2025-04-30T12:48:01.000Z</time>
      </trkpt>
      <trkpt lat="44.34064" lon="4.77194">
        <ele>224.3</ele>
        <time>2025-04-30T12:48:04.000Z</time>
      </trkpt>
      <trkpt lat="44.34062" lon="4.77192">
        <ele>223.7</ele>
        <time>2025-04-30T12:48:07.000Z</time>
      </trkpt>
      <trkpt lat="44.3406" lon="4.77191">
        <ele>223.2</ele>
        <time>2025-04-30T12:48:09.000Z</time>
      </trkpt>
      <trkpt lat="44.34058" lon="4.77189">
        <ele>222.7</ele>
        <time>2025-04-30T12:48:11.000Z</time>
      </trkpt>
      <trkpt lat="44.34056" lon="4.77187">
        <ele>222.3</ele>
        <time>2025-04-30T12:48:13.000Z</time>
      </trkpt>
      <trkpt lat="44.34055" lon="4.77184">
        <ele>221.9</ele>
        <time>2025-04-30T12:48:16.000Z</time>
      </trkpt>
      <trkpt lat="44.34053" lon="4.77182">
        <ele>221.6</ele>
        <time>2025-04-30T12:48:18.000Z</time>
      </trkpt>
      <trkpt lat="44.34051" lon="4.77181">
        <ele>221.4</ele>
        <time>2025-04-30T12:48:21.000Z</time>
      </trkpt>
      <trkpt lat="44.34049" lon="4.7718">
        <ele>221.3</ele>
        <time>2025-04-30T12:48:24.000Z</time>
      </trkpt>
      <trkpt lat="44.34046" lon="4.77181">
        <ele>221.3</ele>
        <time>2025-04-30T12:48:31.000Z</time>
      </trkpt>
      <trkpt lat="44.34044" lon="4.77183">
        <ele>221.3</ele>
        <time>2025-04-30T12:48:33.000Z</time>
      </trkpt>
      <trkpt lat="44.34041" lon="4.77182">
        <ele>221.2</ele>
        <time>2025-04-30T12:48:36.000Z</time>
      </trkpt>
      <trkpt lat="44.34039" lon="4.77181">
        <ele>221.2</ele>
        <time>2025-04-30T12:48:38.000Z</time>
      </trkpt>
      <trkpt lat="44.34036" lon="4.7718">
        <ele>221.2</ele>
        <time>2025-04-30T12:48:41.000Z</time>
      </trkpt>
      <trkpt lat="44.34035" lon="4.77179">
        <ele>221.2</ele>
        <time>2025-04-30T12:48:43.000Z</time>
      </trkpt>
      <trkpt lat="44.34033" lon="4.77178">
        <ele>221.3</ele>
        <time>2025-04-30T12:48:45.000Z</time>
      </trkpt>
      <trkpt lat="44.34031" lon="4.77177">
        <ele>221.5</ele>
        <time>2025-04-30T12:48:49.000Z</time>
      </trkpt>
      <trkpt lat="44.34029" lon="4.77176">
        <ele>221.7</ele>
        <time>2025-04-30T12:48:52.000Z</time>
      </trkpt>
      <trkpt lat="44.34026" lon="4.77174">
        <ele>221.9</ele>
        <time>2025-04-30T12:48:57.000Z</time>
      </trkpt>
      <trkpt lat="44.34024" lon="4.77175">
        <ele>221.8</ele>
        <time>2025-04-30T12:49:01.000Z</time>
      </trkpt>
      <trkpt lat="44.34022" lon="4.77174">
        <ele>221.9</ele>
        <time>2025-04-30T12:49:04.000Z</time>
      </trkpt>
      <trkpt lat="44.34019" lon="4.77175">
        <ele>221.8</ele>
        <time>2025-04-30T12:49:14.000Z</time>
      </trkpt>
      <trkpt lat="44.34017" lon="4.77177">
        <ele>221.6</ele>
        <time>2025-04-30T12:49:32.000Z</time>
      </trkpt>
      <trkpt lat="44.34016" lon="4.77179">
        <ele>221.1</ele>
        <time>2025-04-30T12:49:34.000Z</time>
      </trkpt>
      <trkpt lat="44.34014" lon="4.7718">
        <ele>220.9</ele>
        <time>2025-04-30T12:49:48.000Z</time>
      </trkpt>
      <trkpt lat="44.34012" lon="4.7718">
        <ele>220.8</ele>
        <time>2025-04-30T12:49:50.000Z</time>
      </trkpt>
      <trkpt lat="44.3401" lon="4.77181">
        <ele>220.7</ele>
        <time>2025-04-30T12:49:52.000Z</time>
      </trkpt>
      <trkpt lat="44.34008" lon="4.7718">
        <ele>220.7</ele>
        <time>2025-04-30T12:49:55.000Z</time>
      </trkpt>
      <trkpt lat="44.34005" lon="4.7718">
        <ele>220.7</ele>
        <time>2025-04-30T12:49:57.000Z</time>
      </trkpt>
      <trkpt lat="44.34003" lon="4.7718">
        <ele>220.7</ele>
        <time>2025-04-30T12:49:59.000Z</time>
      </trkpt>
      <trkpt lat="44.34" lon="4.7718">
        <ele>220.6</ele>
        <time>2025-04-30T12:50:03.000Z</time>
      </trkpt>
      <trkpt lat="44.33998" lon="4.7718">
        <ele>220.8</ele>
        <time>2025-04-30T12:50:06.000Z</time>
      </trkpt>
      <trkpt lat="44.33995" lon="4.77179">
        <ele>221.1</ele>
        <time>2025-04-30T12:50:09.000Z</time>
      </trkpt>
      <trkpt lat="44.33993" lon="4.77178">
        <ele>221.6</ele>
        <time>2025-04-30T12:50:12.000Z</time>
      </trkpt>
      <trkpt lat="44.33991" lon="4.77177">
        <ele>222</ele>
        <time>2025-04-30T12:50:16.000Z</time>
      </trkpt>
      <trkpt lat="44.33988" lon="4.77177">
        <ele>222.2</ele>
        <time>2025-04-30T12:50:19.000Z</time>
      </trkpt>
      <trkpt lat="44.33986" lon="4.77178">
        <ele>222</ele>
        <time>2025-04-30T12:50:21.000Z</time>
      </trkpt>
      <trkpt lat="44.33984" lon="4.77178">
        <ele>222.2</ele>
        <time>2025-04-30T12:50:24.000Z</time>
      </trkpt>
      <trkpt lat="44.33982" lon="4.77177">
        <ele>222.4</ele>
        <time>2025-04-30T12:50:26.000Z</time>
      </trkpt>
      <trkpt lat="44.3398" lon="4.77177">
        <ele>222.6</ele>
        <time>2025-04-30T12:50:29.000Z</time>
      </trkpt>
      <trkpt lat="44.33978" lon="4.77177">
        <ele>222.6</ele>
        <time>2025-04-30T12:50:31.000Z</time>
      </trkpt>
      <trkpt lat="44.33976" lon="4.77176">
        <ele>223</ele>
        <time>2025-04-30T12:50:33.000Z</time>
      </trkpt>
      <trkpt lat="44.33974" lon="4.77177">
        <ele>222.8</ele>
        <time>2025-04-30T12:50:35.000Z</time>
      </trkpt>
      <trkpt lat="44.33972" lon="4.77178">
        <ele>222.9</ele>
        <time>2025-04-30T12:50:37.000Z</time>
      </trkpt>
      <trkpt lat="44.3397" lon="4.77179">
        <ele>222.7</ele>
        <time>2025-04-30T12:50:39.000Z</time>
      </trkpt>
      <trkpt lat="44.33968" lon="4.77179">
        <ele>222.7</ele>
        <time>2025-04-30T12:50:41.000Z</time>
      </trkpt>
      <trkpt lat="44.33966" lon="4.77179">
        <ele>223</ele>
        <time>2025-04-30T12:50:44.000Z</time>
      </trkpt>
      <trkpt lat="44.33964" lon="4.77179">
        <ele>223.1</ele>
        <time>2025-04-30T12:50:46.000Z</time>
      </trkpt>
      <trkpt lat="44.33962" lon="4.77177">
        <ele>223.8</ele>
        <time>2025-04-30T12:50:49.000Z</time>
      </trkpt>
      <trkpt lat="44.3396" lon="4.77175">
        <ele>224.4</ele>
        <time>2025-04-30T12:50:51.000Z</time>
      </trkpt>
      <trkpt lat="44.33959" lon="4.77175">
        <ele>224.5</ele>
        <time>2025-04-30T12:50:54.000Z</time>
      </trkpt>
      <trkpt lat="44.33956" lon="4.77174">
        <ele>225</ele>
        <time>2025-04-30T12:50:57.000Z</time>
      </trkpt>
      <trkpt lat="44.33955" lon="4.77175">
        <ele>224.8</ele>
        <time>2025-04-30T12:51:03.000Z</time>
      </trkpt>
      <trkpt lat="44.33953" lon="4.77176">
        <ele>224.7</ele>
        <time>2025-04-30T12:51:21.000Z</time>
      </trkpt>
      <trkpt lat="44.3395" lon="4.77176">
        <ele>225</ele>
        <time>2025-04-30T12:51:27.000Z</time>
      </trkpt>
      <trkpt lat="44.33948" lon="4.77176">
        <ele>225</ele>
        <time>2025-04-30T12:51:30.000Z</time>
      </trkpt>
      <trkpt lat="44.33946" lon="4.77178">
        <ele>224.8</ele>
        <time>2025-04-30T12:51:34.000Z</time>
      </trkpt>
      <trkpt lat="44.33944" lon="4.77179">
        <ele>224.9</ele>
        <time>2025-04-30T12:51:36.000Z</time>
      </trkpt>
      <trkpt lat="44.33942" lon="4.7718">
        <ele>225.1</ele>
        <time>2025-04-30T12:51:38.000Z</time>
      </trkpt>
      <trkpt lat="44.3394" lon="4.7718">
        <ele>225.2</ele>
        <time>2025-04-30T12:51:40.000Z</time>
      </trkpt>
      <trkpt lat="44.33938" lon="4.77182">
        <ele>225.3</ele>
        <time>2025-04-30T12:51:43.000Z</time>
      </trkpt>
      <trkpt lat="44.33935" lon="4.77182">
        <ele>225.6</ele>
        <time>2025-04-30T12:51:45.000Z</time>
      </trkpt>
      <trkpt lat="44.33933" lon="4.77183">
        <ele>225.9</ele>
        <time>2025-04-30T12:51:47.000Z</time>
      </trkpt>
      <trkpt lat="44.3393" lon="4.77183">
        <ele>226.2</ele>
        <time>2025-04-30T12:51:49.000Z</time>
      </trkpt>
      <trkpt lat="44.33928" lon="4.77182">
        <ele>226.6</ele>
        <time>2025-04-30T12:51:51.000Z</time>
      </trkpt>
      <trkpt lat="44.33928" lon="4.77179">
        <ele>227</ele>
        <time>2025-04-30T12:52:04.000Z</time>
      </trkpt>
      <trkpt lat="44.33926" lon="4.77178">
        <ele>227.5</ele>
        <time>2025-04-30T12:52:07.000Z</time>
      </trkpt>
      <trkpt lat="44.33924" lon="4.77177">
        <ele>227.9</ele>
        <time>2025-04-30T12:52:09.000Z</time>
      </trkpt>
      <trkpt lat="44.33922" lon="4.77176">
        <ele>228.3</ele>
        <time>2025-04-30T12:52:11.000Z</time>
      </trkpt>
      <trkpt lat="44.33921" lon="4.77174">
        <ele>228.7</ele>
        <time>2025-04-30T12:52:13.000Z</time>
      </trkpt>
      <trkpt lat="44.3392" lon="4.77172">
        <ele>229.1</ele>
        <time>2025-04-30T12:52:21.000Z</time>
      </trkpt>
      <trkpt lat="44.33918" lon="4.77168">
        <ele>229.7</ele>
        <time>2025-04-30T12:52:28.000Z</time>
      </trkpt>
      <trkpt lat="44.33917" lon="4.77166">
        <ele>230.1</ele>
        <time>2025-04-30T12:52:32.000Z</time>
      </trkpt>
      <trkpt lat="44.33915" lon="4.77165">
        <ele>230.4</ele>
        <time>2025-04-30T12:52:33.000Z</time>
      </trkpt>
      <trkpt lat="44.33913" lon="4.77164">
        <ele>230.8</ele>
        <time>2025-04-30T12:52:35.000Z</time>
      </trkpt>
      <trkpt lat="44.33912" lon="4.77161">
        <ele>231.3</ele>
        <time>2025-04-30T12:52:37.000Z</time>
      </trkpt>
      <trkpt lat="44.3391" lon="4.7716">
        <ele>231.7</ele>
        <time>2025-04-30T12:52:40.000Z</time>
      </trkpt>
      <trkpt lat="44.33907" lon="4.77159">
        <ele>232</ele>
        <time>2025-04-30T12:52:44.000Z</time>
      </trkpt>
      <trkpt lat="44.33905" lon="4.77158">
        <ele>232.4</ele>
        <time>2025-04-30T12:52:49.000Z</time>
      </trkpt>
      <trkpt lat="44.33904" lon="4.77157">
        <ele>232.7</ele>
        <time>2025-04-30T12:52:51.000Z</time>
      </trkpt>
      <trkpt lat="44.33902" lon="4.77156">
        <ele>233</ele>
        <time>2025-04-30T12:52:53.000Z</time>
      </trkpt>
      <trkpt lat="44.33899" lon="4.77156">
        <ele>233.2</ele>
        <time>2025-04-30T12:52:55.000Z</time>
      </trkpt>
      <trkpt lat="44.33897" lon="4.77155">
        <ele>233.5</ele>
        <time>2025-04-30T12:52:59.000Z</time>
      </trkpt>
      <trkpt lat="44.33895" lon="4.77154">
        <ele>233.9</ele>
        <time>2025-04-30T12:53:02.000Z</time>
      </trkpt>
      <trkpt lat="44.33893" lon="4.77151">
        <ele>234.4</ele>
        <time>2025-04-30T12:53:09.000Z</time>
      </trkpt>
      <trkpt lat="44.33891" lon="4.77149">
        <ele>234.7</ele>
        <time>2025-04-30T12:53:12.000Z</time>
      </trkpt>
      <trkpt lat="44.3389" lon="4.77147">
        <ele>235.1</ele>
        <time>2025-04-30T12:53:15.000Z</time>
      </trkpt>
      <trkpt lat="44.33887" lon="4.77146">
        <ele>235.4</ele>
        <time>2025-04-30T12:53:19.000Z</time>
      </trkpt>
      <trkpt lat="44.33886" lon="4.77143">
        <ele>235.8</ele>
        <time>2025-04-30T12:53:22.000Z</time>
      </trkpt>
      <trkpt lat="44.33884" lon="4.77142">
        <ele>236.2</ele>
        <time>2025-04-30T12:53:27.000Z</time>
      </trkpt>
      <trkpt lat="44.33882" lon="4.77142">
        <ele>236.5</ele>
        <time>2025-04-30T12:53:30.000Z</time>
      </trkpt>
      <trkpt lat="44.3388" lon="4.7714">
        <ele>236.8</ele>
        <time>2025-04-30T12:53:33.000Z</time>
      </trkpt>
      <trkpt lat="44.33878" lon="4.77139">
        <ele>237.1</ele>
        <time>2025-04-30T12:53:36.000Z</time>
      </trkpt>
      <trkpt lat="44.33876" lon="4.77139">
        <ele>237.3</ele>
        <time>2025-04-30T12:53:38.000Z</time>
      </trkpt>
      <trkpt lat="44.33875" lon="4.77139">
        <ele>237.6</ele>
        <time>2025-04-30T12:53:40.000Z</time>
      </trkpt>
      <trkpt lat="44.33873" lon="4.77138">
        <ele>237.9</ele>
        <time>2025-04-30T12:53:44.000Z</time>
      </trkpt>
      <trkpt lat="44.3387" lon="4.77137">
        <ele>238.3</ele>
        <time>2025-04-30T12:53:48.000Z</time>
      </trkpt>
      <trkpt lat="44.33868" lon="4.77136">
        <ele>238.7</ele>
        <time>2025-04-30T12:53:53.000Z</time>
      </trkpt>
      <trkpt lat="44.33865" lon="4.77137">
        <ele>238.8</ele>
        <time>2025-04-30T12:53:57.000Z</time>
      </trkpt>
      <trkpt lat="44.33863" lon="4.77137">
        <ele>239</ele>
        <time>2025-04-30T12:54:04.000Z</time>
      </trkpt>
      <trkpt lat="44.3386" lon="4.77135">
        <ele>239.7</ele>
        <time>2025-04-30T12:54:10.000Z</time>
      </trkpt>
      <trkpt lat="44.33858" lon="4.77134">
        <ele>240.2</ele>
        <time>2025-04-30T12:54:16.000Z</time>
      </trkpt>
      <trkpt lat="44.33856" lon="4.77132">
        <ele>240.6</ele>
        <time>2025-04-30T12:54:19.000Z</time>
      </trkpt>
      <trkpt lat="44.33854" lon="4.77132">
        <ele>240.9</ele>
        <time>2025-04-30T12:54:22.000Z</time>
      </trkpt>
      <trkpt lat="44.33852" lon="4.77132">
        <ele>241.2</ele>
        <time>2025-04-30T12:54:28.000Z</time>
      </trkpt>
      <trkpt lat="44.3385" lon="4.77132">
        <ele>241.3</ele>
        <time>2025-04-30T12:54:32.000Z</time>
      </trkpt>
      <trkpt lat="44.33848" lon="4.77131">
        <ele>241.8</ele>
        <time>2025-04-30T12:54:40.000Z</time>
      </trkpt>
      <trkpt lat="44.33846" lon="4.7713">
        <ele>242.2</ele>
        <time>2025-04-30T12:54:45.000Z</time>
      </trkpt>
      <trkpt lat="44.33844" lon="4.77127">
        <ele>242.6</ele>
        <time>2025-04-30T12:54:48.000Z</time>
      </trkpt>
      <trkpt lat="44.33843" lon="4.77125">
        <ele>242.9</ele>
        <time>2025-04-30T12:55:06.000Z</time>
      </trkpt>
      <trkpt lat="44.33841" lon="4.77124">
        <ele>243.3</ele>
        <time>2025-04-30T12:55:17.000Z</time>
      </trkpt>
      <trkpt lat="44.33839" lon="4.77123">
        <ele>243.5</ele>
        <time>2025-04-30T12:55:20.000Z</time>
      </trkpt>
      <trkpt lat="44.33836" lon="4.77123">
        <ele>243.9</ele>
        <time>2025-04-30T12:55:27.000Z</time>
      </trkpt>
      <trkpt lat="44.33834" lon="4.77123">
        <ele>244.1</ele>
        <time>2025-04-30T12:55:32.000Z</time>
      </trkpt>
      <trkpt lat="44.33831" lon="4.77122">
        <ele>244.5</ele>
        <time>2025-04-30T12:55:36.000Z</time>
      </trkpt>
      <trkpt lat="44.33829" lon="4.77123">
        <ele>244.7</ele>
        <time>2025-04-30T12:55:38.000Z</time>
      </trkpt>
      <trkpt lat="44.33827" lon="4.77123">
        <ele>244.9</ele>
        <time>2025-04-30T12:55:40.000Z</time>
      </trkpt>
      <trkpt lat="44.33825" lon="4.77123">
        <ele>245.3</ele>
        <time>2025-04-30T12:55:44.000Z</time>
      </trkpt>
      <trkpt lat="44.33823" lon="4.77121">
        <ele>245.6</ele>
        <time>2025-04-30T12:55:47.000Z</time>
      </trkpt>
      <trkpt lat="44.33822" lon="4.77118">
        <ele>245.9</ele>
        <time>2025-04-30T12:55:50.000Z</time>
      </trkpt>
      <trkpt lat="44.3382" lon="4.77118">
        <ele>246.1</ele>
        <time>2025-04-30T12:55:53.000Z</time>
      </trkpt>
      <trkpt lat="44.33818" lon="4.77118">
        <ele>246.3</ele>
        <time>2025-04-30T12:55:56.000Z</time>
      </trkpt>
      <trkpt lat="44.33816" lon="4.77118">
        <ele>246.6</ele>
        <time>2025-04-30T12:55:59.000Z</time>
      </trkpt>
      <trkpt lat="44.33812" lon="4.77118">
        <ele>247</ele>
        <time>2025-04-30T12:56:05.000Z</time>
      </trkpt>
      <trkpt lat="44.3381" lon="4.77117">
        <ele>247.2</ele>
        <time>2025-04-30T12:56:08.000Z</time>
      </trkpt>
      <trkpt lat="44.33809" lon="4.77116">
        <ele>247.5</ele>
        <time>2025-04-30T12:56:11.000Z</time>
      </trkpt>
      <trkpt lat="44.33806" lon="4.77115">
        <ele>247.8</ele>
        <time>2025-04-30T12:56:15.000Z</time>
      </trkpt>
      <trkpt lat="44.33804" lon="4.77115">
        <ele>248</ele>
        <time>2025-04-30T12:56:17.000Z</time>
      </trkpt>
      <trkpt lat="44.33801" lon="4.77114">
        <ele>248.2</ele>
        <time>2025-04-30T12:56:20.000Z</time>
      </trkpt>
      <trkpt lat="44.33798" lon="4.77115">
        <ele>248.4</ele>
        <time>2025-04-30T12:56:23.000Z</time>
      </trkpt>
      <trkpt lat="44.33797" lon="4.77113">
        <ele>248.6</ele>
        <time>2025-04-30T12:56:26.000Z</time>
      </trkpt>
      <trkpt lat="44.33795" lon="4.77112">
        <ele>248.8</ele>
        <time>2025-04-30T12:56:29.000Z</time>
      </trkpt>
      <trkpt lat="44.33792" lon="4.77112">
        <ele>248.9</ele>
        <time>2025-04-30T12:56:32.000Z</time>
      </trkpt>
      <trkpt lat="44.3379" lon="4.77112">
        <ele>249.1</ele>
        <time>2025-04-30T12:56:36.000Z</time>
      </trkpt>
      <trkpt lat="44.33787" lon="4.77113">
        <ele>249.3</ele>
        <time>2025-04-30T12:56:40.000Z</time>
      </trkpt>
      <trkpt lat="44.33785" lon="4.77113">
        <ele>249.4</ele>
        <time>2025-04-30T12:56:44.000Z</time>
      </trkpt>
      <trkpt lat="44.33783" lon="4.77114">
        <ele>249.6</ele>
        <time>2025-04-30T12:57:12.000Z</time>
      </trkpt>
      <trkpt lat="44.33781" lon="4.77114">
        <ele>249.8</ele>
        <time>2025-04-30T12:57:17.000Z</time>
      </trkpt>
      <trkpt lat="44.33778" lon="4.77114">
        <ele>250</ele>
        <time>2025-04-30T12:57:24.000Z</time>
      </trkpt>
      <trkpt lat="44.33777" lon="4.77112">
        <ele>250.1</ele>
        <time>2025-04-30T12:57:28.000Z</time>
      </trkpt>
      <trkpt lat="44.33774" lon="4.77112">
        <ele>250.4</ele>
        <time>2025-04-30T12:57:31.000Z</time>
      </trkpt>
      <trkpt lat="44.33772" lon="4.77111">
        <ele>250.7</ele>
        <time>2025-04-30T12:57:34.000Z</time>
      </trkpt>
      <trkpt lat="44.3377" lon="4.77109">
        <ele>251</ele>
        <time>2025-04-30T12:57:37.000Z</time>
      </trkpt>
      <trkpt lat="44.33766" lon="4.77109">
        <ele>251.3</ele>
        <time>2025-04-30T12:57:41.000Z</time>
      </trkpt>
      <trkpt lat="44.33763" lon="4.77108">
        <ele>251.7</ele>
        <time>2025-04-30T12:57:43.000Z</time>
      </trkpt>
      <trkpt lat="44.33761" lon="4.77109">
        <ele>251.9</ele>
        <time>2025-04-30T12:57:48.000Z</time>
      </trkpt>
      <trkpt lat="44.3376" lon="4.77107">
        <ele>252.2</ele>
        <time>2025-04-30T12:57:51.000Z</time>
      </trkpt>
      <trkpt lat="44.33758" lon="4.77106">
        <ele>252.4</ele>
        <time>2025-04-30T12:57:54.000Z</time>
      </trkpt>
      <trkpt lat="44.33756" lon="4.77104">
        <ele>252.7</ele>
        <time>2025-04-30T12:57:56.000Z</time>
      </trkpt>
      <trkpt lat="44.33753" lon="4.77103">
        <ele>253</ele>
        <time>2025-04-30T12:58:00.000Z</time>
      </trkpt>
      <trkpt lat="44.33751" lon="4.77103">
        <ele>253.2</ele>
        <time>2025-04-30T12:58:02.000Z</time>
      </trkpt>
      <trkpt lat="44.33749" lon="4.77101">
        <ele>253.4</ele>
        <time>2025-04-30T12:58:16.000Z</time>
      </trkpt>
      <trkpt lat="44.33747" lon="4.77101">
        <ele>253.5</ele>
        <time>2025-04-30T12:58:18.000Z</time>
      </trkpt>
      <trkpt lat="44.33746" lon="4.77098">
        <ele>253.6</ele>
        <time>2025-04-30T12:58:22.000Z</time>
      </trkpt>
      <trkpt lat="44.33744" lon="4.77095">
        <ele>253.8</ele>
        <time>2025-04-30T12:58:34.000Z</time>
      </trkpt>
      <trkpt lat="44.33742" lon="4.77095">
        <ele>253.9</ele>
        <time>2025-04-30T12:58:40.000Z</time>
      </trkpt>
      <trkpt lat="44.3374" lon="4.77094">
        <ele>254</ele>
        <time>2025-04-30T12:58:43.000Z</time>
      </trkpt>
      <trkpt lat="44.3374" lon="4.77091">
        <ele>254.1</ele>
        <time>2025-04-30T12:58:48.000Z</time>
      </trkpt>
      <trkpt lat="44.33739" lon="4.77087">
        <ele>254.3</ele>
        <time>2025-04-30T12:58:52.000Z</time>
      </trkpt>
      <trkpt lat="44.33737" lon="4.77085">
        <ele>254.4</ele>
        <time>2025-04-30T12:58:55.000Z</time>
      </trkpt>
      <trkpt lat="44.33735" lon="4.77084">
        <ele>254.5</ele>
        <time>2025-04-30T12:58:59.000Z</time>
      </trkpt>
      <trkpt lat="44.33733" lon="4.77084">
        <ele>254.6</ele>
        <time>2025-04-30T12:59:01.000Z</time>
      </trkpt>
      <trkpt lat="44.33731" lon="4.77081">
        <ele>254.9</ele>
        <time>2025-04-30T12:59:04.000Z</time>
      </trkpt>
      <trkpt lat="44.33729" lon="4.77079">
        <ele>255.2</ele>
        <time>2025-04-30T12:59:06.000Z</time>
      </trkpt>
      <trkpt lat="44.33728" lon="4.77077">
        <ele>255.5</ele>
        <time>2025-04-30T12:59:08.000Z</time>
      </trkpt>
      <trkpt lat="44.33726" lon="4.77075">
        <ele>255.7</ele>
        <time>2025-04-30T12:59:10.000Z</time>
      </trkpt>
      <trkpt lat="44.33723" lon="4.77075">
        <ele>255.9</ele>
        <time>2025-04-30T12:59:13.000Z</time>
      </trkpt>
      <trkpt lat="44.33722" lon="4.77074">
        <ele>256</ele>
        <time>2025-04-30T12:59:15.000Z</time>
      </trkpt>
      <trkpt lat="44.3372" lon="4.77073">
        <ele>256.1</ele>
        <time>2025-04-30T12:59:17.000Z</time>
      </trkpt>
      <trkpt lat="44.33717" lon="4.77073">
        <ele>256.1</ele>
        <time>2025-04-30T12:59:19.000Z</time>
      </trkpt>
      <trkpt lat="44.33715" lon="4.77073">
        <ele>256.1</ele>
        <time>2025-04-30T12:59:21.000Z</time>
      </trkpt>
      <trkpt lat="44.33712" lon="4.77073">
        <ele>256.2</ele>
        <time>2025-04-30T12:59:23.000Z</time>
      </trkpt>
      <trkpt lat="44.3371" lon="4.77073">
        <ele>256.1</ele>
        <time>2025-04-30T12:59:25.000Z</time>
      </trkpt>
      <trkpt lat="44.33708" lon="4.77072">
        <ele>256.2</ele>
        <time>2025-04-30T12:59:27.000Z</time>
      </trkpt>
      <trkpt lat="44.33706" lon="4.77072">
        <ele>256.2</ele>
        <time>2025-04-30T12:59:29.000Z</time>
      </trkpt>
      <trkpt lat="44.33704" lon="4.77072">
        <ele>256.2</ele>
        <time>2025-04-30T12:59:31.000Z</time>
      </trkpt>
      <trkpt lat="44.33701" lon="4.77072">
        <ele>256.3</ele>
        <time>2025-04-30T12:59:34.000Z</time>
      </trkpt>
      <trkpt lat="44.33698" lon="4.77069">
        <ele>256.6</ele>
        <time>2025-04-30T12:59:40.000Z</time>
      </trkpt>
      <trkpt lat="44.33697" lon="4.77066">
        <ele>256.9</ele>
        <time>2025-04-30T12:59:43.000Z</time>
      </trkpt>
      <trkpt lat="44.33695" lon="4.77066">
        <ele>256.9</ele>
        <time>2025-04-30T12:59:46.000Z</time>
      </trkpt>
      <trkpt lat="44.33692" lon="4.77066">
        <ele>256.8</ele>
        <time>2025-04-30T12:59:48.000Z</time>
      </trkpt>
      <trkpt lat="44.3369" lon="4.77065">
        <ele>256.9</ele>
        <time>2025-04-30T12:59:49.000Z</time>
      </trkpt>
      <trkpt lat="44.33687" lon="4.77065">
        <ele>256.8</ele>
        <time>2025-04-30T12:59:51.000Z</time>
      </trkpt>
      <trkpt lat="44.33684" lon="4.77065">
        <ele>256.8</ele>
        <time>2025-04-30T12:59:53.000Z</time>
      </trkpt>
      <trkpt lat="44.33681" lon="4.77063">
        <ele>256.9</ele>
        <time>2025-04-30T12:59:56.000Z</time>
      </trkpt>
      <trkpt lat="44.33678" lon="4.77062">
        <ele>256.9</ele>
        <time>2025-04-30T12:59:58.000Z</time>
      </trkpt>
      <trkpt lat="44.33676" lon="4.77061">
        <ele>256.9</ele>
        <time>2025-04-30T13:00:00.000Z</time>
      </trkpt>
      <trkpt lat="44.33674" lon="4.7706">
        <ele>256.9</ele>
        <time>2025-04-30T13:00:02.000Z</time>
      </trkpt>
      <trkpt lat="44.33672" lon="4.77061">
        <ele>256.8</ele>
        <time>2025-04-30T13:00:04.000Z</time>
      </trkpt>
      <trkpt lat="44.33668" lon="4.7706">
        <ele>256.7</ele>
        <time>2025-04-30T13:00:09.000Z</time>
      </trkpt>
      <trkpt lat="44.33666" lon="4.7706">
        <ele>256.7</ele>
        <time>2025-04-30T13:00:11.000Z</time>
      </trkpt>
      <trkpt lat="44.33661" lon="4.77061">
        <ele>256.7</ele>
        <time>2025-04-30T13:00:15.000Z</time>
      </trkpt>
      <trkpt lat="44.33658" lon="4.77061">
        <ele>256.8</ele>
        <time>2025-04-30T13:00:17.000Z</time>
      </trkpt>
      <trkpt lat="44.33656" lon="4.77061">
        <ele>256.8</ele>
        <time>2025-04-30T13:00:18.000Z</time>
      </trkpt>
      <trkpt lat="44.33652" lon="4.77061">
        <ele>256.9</ele>
        <time>2025-04-30T13:00:21.000Z</time>
      </trkpt>
      <trkpt lat="44.3365" lon="4.77062">
        <ele>257</ele>
        <time>2025-04-30T13:00:23.000Z</time>
      </trkpt>
      <trkpt lat="44.33648" lon="4.77062">
        <ele>257</ele>
        <time>2025-04-30T13:00:25.000Z</time>
      </trkpt>
      <trkpt lat="44.33645" lon="4.77062">
        <ele>257.1</ele>
        <time>2025-04-30T13:00:27.000Z</time>
      </trkpt>
      <trkpt lat="44.33643" lon="4.77062">
        <ele>257.1</ele>
        <time>2025-04-30T13:00:29.000Z</time>
      </trkpt>
      <trkpt lat="44.33641" lon="4.77061">
        <ele>257.2</ele>
        <time>2025-04-30T13:00:33.000Z</time>
      </trkpt>
      <trkpt lat="44.33639" lon="4.7706">
        <ele>257.2</ele>
        <time>2025-04-30T13:00:36.000Z</time>
      </trkpt>
      <trkpt lat="44.33637" lon="4.77061">
        <ele>257.1</ele>
        <time>2025-04-30T13:00:39.000Z</time>
      </trkpt>
      <trkpt lat="44.33635" lon="4.77062">
        <ele>257.2</ele>
        <time>2025-04-30T13:00:42.000Z</time>
      </trkpt>
      <trkpt lat="44.33632" lon="4.77062">
        <ele>257.1</ele>
        <time>2025-04-30T13:00:47.000Z</time>
      </trkpt>
      <trkpt lat="44.3363" lon="4.77061">
        <ele>257</ele>
        <time>2025-04-30T13:00:50.000Z</time>
      </trkpt>
      <trkpt lat="44.33628" lon="4.77063">
        <ele>257.1</ele>
        <time>2025-04-30T13:00:52.000Z</time>
      </trkpt>
      <trkpt lat="44.33625" lon="4.77059">
        <ele>256.8</ele>
        <time>2025-04-30T13:00:54.000Z</time>
      </trkpt>
      <trkpt lat="44.33626" lon="4.77056">
        <ele>256.5</ele>
        <time>2025-04-30T13:00:55.000Z</time>
      </trkpt>
      <trkpt lat="44.33626" lon="4.77051">
        <ele>256.6</ele>
        <time>2025-04-30T13:00:57.000Z</time>
      </trkpt>
      <trkpt lat="44.33623" lon="4.77048">
        <ele>256.6</ele>
        <time>2025-04-30T13:00:59.000Z</time>
      </trkpt>
      <trkpt lat="44.3362" lon="4.7705">
        <ele>256.5</ele>
        <time>2025-04-30T13:01:03.000Z</time>
      </trkpt>
      <trkpt lat="44.33618" lon="4.77051">
        <ele>256.4</ele>
        <time>2025-04-30T13:01:04.000Z</time>
      </trkpt>
      <trkpt lat="44.33616" lon="4.77051">
        <ele>256.3</ele>
        <time>2025-04-30T13:01:05.000Z</time>
      </trkpt>
      <trkpt lat="44.33614" lon="4.77053">
        <ele>256.2</ele>
        <time>2025-04-30T13:01:08.000Z</time>
      </trkpt>
      <trkpt lat="44.33612" lon="4.77054">
        <ele>256.1</ele>
        <time>2025-04-30T13:01:10.000Z</time>
      </trkpt>
      <trkpt lat="44.3361" lon="4.77054">
        <ele>256.1</ele>
        <time>2025-04-30T13:01:12.000Z</time>
      </trkpt>
      <trkpt lat="44.33607" lon="4.77054">
        <ele>256.1</ele>
        <time>2025-04-30T13:01:15.000Z</time>
      </trkpt>
      <trkpt lat="44.33605" lon="4.77053">
        <ele>256.1</ele>
        <time>2025-04-30T13:01:21.000Z</time>
      </trkpt>
      <trkpt lat="44.33603" lon="4.77054">
        <ele>256.1</ele>
        <time>2025-04-30T13:01:24.000Z</time>
      </trkpt>
      <trkpt lat="44.33601" lon="4.77054">
        <ele>256.1</ele>
        <time>2025-04-30T13:01:27.000Z</time>
      </trkpt>
      <trkpt lat="44.33599" lon="4.77055">
        <ele>256</ele>
        <time>2025-04-30T13:01:29.000Z</time>
      </trkpt>
      <trkpt lat="44.33597" lon="4.77055">
        <ele>256</ele>
        <time>2025-04-30T13:01:32.000Z</time>
      </trkpt>
      <trkpt lat="44.33595" lon="4.77056">
        <ele>256</ele>
        <time>2025-04-30T13:01:35.000Z</time>
      </trkpt>
      <trkpt lat="44.33593" lon="4.77056">
        <ele>256</ele>
        <time>2025-04-30T13:01:38.000Z</time>
      </trkpt>
      <trkpt lat="44.33591" lon="4.77055">
        <ele>256</ele>
        <time>2025-04-30T13:01:40.000Z</time>
      </trkpt>
      <trkpt lat="44.33588" lon="4.77057">
        <ele>256.1</ele>
        <time>2025-04-30T13:01:43.000Z</time>
      </trkpt>
      <trkpt lat="44.33585" lon="4.77057">
        <ele>256.1</ele>
        <time>2025-04-30T13:01:45.000Z</time>
      </trkpt>
      <trkpt lat="44.33583" lon="4.77058">
        <ele>256.1</ele>
        <time>2025-04-30T13:01:47.000Z</time>
      </trkpt>
      <trkpt lat="44.33581" lon="4.77059">
        <ele>256</ele>
        <time>2025-04-30T13:01:50.000Z</time>
      </trkpt>
      <trkpt lat="44.33579" lon="4.7706">
        <ele>256</ele>
        <time>2025-04-30T13:01:53.000Z</time>
      </trkpt>
      <trkpt lat="44.33577" lon="4.77064">
        <ele>256</ele>
        <time>2025-04-30T13:01:56.000Z</time>
      </trkpt>
      <trkpt lat="44.33573" lon="4.77065">
        <ele>255.8</ele>
        <time>2025-04-30T13:02:17.000Z</time>
      </trkpt>
      <trkpt lat="44.3357" lon="4.77065">
        <ele>255.7</ele>
        <time>2025-04-30T13:02:22.000Z</time>
      </trkpt>
      <trkpt lat="44.33568" lon="4.77066">
        <ele>255.6</ele>
        <time>2025-04-30T13:02:24.000Z</time>
      </trkpt>
      <trkpt lat="44.33565" lon="4.77066">
        <ele>255.5</ele>
        <time>2025-04-30T13:02:27.000Z</time>
      </trkpt>
      <trkpt lat="44.33563" lon="4.77066">
        <ele>255.4</ele>
        <time>2025-04-30T13:02:29.000Z</time>
      </trkpt>
      <trkpt lat="44.3356" lon="4.77066">
        <ele>255.2</ele>
        <time>2025-04-30T13:02:32.000Z</time>
      </trkpt>
      <trkpt lat="44.33557" lon="4.77065">
        <ele>255</ele>
        <time>2025-04-30T13:02:36.000Z</time>
      </trkpt>
      <trkpt lat="44.33554" lon="4.77065">
        <ele>255</ele>
        <time>2025-04-30T13:02:38.000Z</time>
      </trkpt>
      <trkpt lat="44.33553" lon="4.77066">
        <ele>254.9</ele>
        <time>2025-04-30T13:02:41.000Z</time>
      </trkpt>
      <trkpt lat="44.3355" lon="4.77065">
        <ele>254.9</ele>
        <time>2025-04-30T13:02:44.000Z</time>
      </trkpt>
      <trkpt lat="44.33548" lon="4.77064">
        <ele>254.8</ele>
        <time>2025-04-30T13:02:49.000Z</time>
      </trkpt>
      <trkpt lat="44.33546" lon="4.77064">
        <ele>254.8</ele>
        <time>2025-04-30T13:02:52.000Z</time>
      </trkpt>
      <trkpt lat="44.33544" lon="4.77065">
        <ele>254.7</ele>
        <time>2025-04-30T13:02:55.000Z</time>
      </trkpt>
      <trkpt lat="44.33541" lon="4.77065">
        <ele>254.7</ele>
        <time>2025-04-30T13:03:14.000Z</time>
      </trkpt>
      <trkpt lat="44.33539" lon="4.77066">
        <ele>254.6</ele>
        <time>2025-04-30T13:03:53.000Z</time>
      </trkpt>
      <trkpt lat="44.33537" lon="4.77066">
        <ele>254.6</ele>
        <time>2025-04-30T13:04:15.000Z</time>
      </trkpt>
      <trkpt lat="44.33535" lon="4.77065">
        <ele>254.5</ele>
        <time>2025-04-30T13:04:18.000Z</time>
      </trkpt>
      <trkpt lat="44.33533" lon="4.77064">
        <ele>254.4</ele>
        <time>2025-04-30T13:04:21.000Z</time>
      </trkpt>
      <trkpt lat="44.33531" lon="4.77064">
        <ele>254.4</ele>
        <time>2025-04-30T13:04:24.000Z</time>
      </trkpt>
      <trkpt lat="44.33529" lon="4.77062">
        <ele>254.3</ele>
        <time>2025-04-30T13:04:28.000Z</time>
      </trkpt>
      <trkpt lat="44.33528" lon="4.77061">
        <ele>254.2</ele>
        <time>2025-04-30T13:04:30.000Z</time>
      </trkpt>
      <trkpt lat="44.33525" lon="4.77058">
        <ele>254.1</ele>
        <time>2025-04-30T13:04:33.000Z</time>
      </trkpt>
      <trkpt lat="44.33523" lon="4.77057">
        <ele>254</ele>
        <time>2025-04-30T13:04:35.000Z</time>
      </trkpt>
      <trkpt lat="44.33521" lon="4.77057">
        <ele>254</ele>
        <time>2025-04-30T13:04:38.000Z</time>
      </trkpt>
      <trkpt lat="44.33519" lon="4.77055">
        <ele>254</ele>
        <time>2025-04-30T13:04:40.000Z</time>
      </trkpt>
      <trkpt lat="44.33517" lon="4.77053">
        <ele>254.2</ele>
        <time>2025-04-30T13:04:43.000Z</time>
      </trkpt>
      <trkpt lat="44.33515" lon="4.77052">
        <ele>254.2</ele>
        <time>2025-04-30T13:04:45.000Z</time>
      </trkpt>
      <trkpt lat="44.33513" lon="4.77052">
        <ele>254.3</ele>
        <time>2025-04-30T13:04:47.000Z</time>
      </trkpt>
      <trkpt lat="44.33512" lon="4.7705">
        <ele>254.4</ele>
        <time>2025-04-30T13:04:49.000Z</time>
      </trkpt>
      <trkpt lat="44.3351" lon="4.77047">
        <ele>254.5</ele>
        <time>2025-04-30T13:04:52.000Z</time>
      </trkpt>
      <trkpt lat="44.33508" lon="4.77045">
        <ele>254.6</ele>
        <time>2025-04-30T13:04:54.000Z</time>
      </trkpt>
      <trkpt lat="44.33505" lon="4.77044">
        <ele>254.6</ele>
        <time>2025-04-30T13:04:57.000Z</time>
      </trkpt>
      <trkpt lat="44.33503" lon="4.77042">
        <ele>254.6</ele>
        <time>2025-04-30T13:05:00.000Z</time>
      </trkpt>
      <trkpt lat="44.33501" lon="4.77041">
        <ele>254.6</ele>
        <time>2025-04-30T13:05:03.000Z</time>
      </trkpt>
      <trkpt lat="44.33499" lon="4.7704">
        <ele>254.6</ele>
        <time>2025-04-30T13:05:06.000Z</time>
      </trkpt>
      <trkpt lat="44.33497" lon="4.77039">
        <ele>254.7</ele>
        <time>2025-04-30T13:05:08.000Z</time>
      </trkpt>
      <trkpt lat="44.33495" lon="4.77038">
        <ele>254.8</ele>
        <time>2025-04-30T13:05:11.000Z</time>
      </trkpt>
      <trkpt lat="44.33493" lon="4.77037">
        <ele>254.8</ele>
        <time>2025-04-30T13:05:14.000Z</time>
      </trkpt>
      <trkpt lat="44.33492" lon="4.77036">
        <ele>254.9</ele>
        <time>2025-04-30T13:05:17.000Z</time>
      </trkpt>
      <trkpt lat="44.3349" lon="4.77034">
        <ele>254.9</ele>
        <time>2025-04-30T13:05:19.000Z</time>
      </trkpt>
      <trkpt lat="44.33488" lon="4.77032">
        <ele>255</ele>
        <time>2025-04-30T13:05:22.000Z</time>
      </trkpt>
      <trkpt lat="44.33486" lon="4.7703">
        <ele>255</ele>
        <time>2025-04-30T13:05:25.000Z</time>
      </trkpt>
      <trkpt lat="44.33484" lon="4.77028">
        <ele>255</ele>
        <time>2025-04-30T13:05:27.000Z</time>
      </trkpt>
      <trkpt lat="44.33481" lon="4.77027">
        <ele>255.1</ele>
        <time>2025-04-30T13:05:29.000Z</time>
      </trkpt>
      <trkpt lat="44.33479" lon="4.77025">
        <ele>255.4</ele>
        <time>2025-04-30T13:05:31.000Z</time>
      </trkpt>
      <trkpt lat="44.33477" lon="4.77024">
        <ele>255.4</ele>
        <time>2025-04-30T13:05:33.000Z</time>
      </trkpt>
      <trkpt lat="44.33475" lon="4.77023">
        <ele>255.6</ele>
        <time>2025-04-30T13:05:35.000Z</time>
      </trkpt>
      <trkpt lat="44.33473" lon="4.77022">
        <ele>255.7</ele>
        <time>2025-04-30T13:05:37.000Z</time>
      </trkpt>
      <trkpt lat="44.33471" lon="4.77021">
        <ele>255.8</ele>
        <time>2025-04-30T13:05:39.000Z</time>
      </trkpt>
      <trkpt lat="44.33468" lon="4.77022">
        <ele>255.7</ele>
        <time>2025-04-30T13:06:06.000Z</time>
      </trkpt>
      <trkpt lat="44.33467" lon="4.77021">
        <ele>255.8</ele>
        <time>2025-04-30T13:06:18.000Z</time>
      </trkpt>
      <trkpt lat="44.33464" lon="4.77019">
        <ele>256</ele>
        <time>2025-04-30T13:06:26.000Z</time>
      </trkpt>
      <trkpt lat="44.33462" lon="4.77016">
        <ele>256.2</ele>
        <time>2025-04-30T13:06:29.000Z</time>
      </trkpt>
      <trkpt lat="44.3346" lon="4.77014">
        <ele>256.3</ele>
        <time>2025-04-30T13:06:31.000Z</time>
      </trkpt>
      <trkpt lat="44.33458" lon="4.77014">
        <ele>256.2</ele>
        <time>2025-04-30T13:06:34.000Z</time>
      </trkpt>
      <trkpt lat="44.33456" lon="4.77013">
        <ele>256.2</ele>
        <time>2025-04-30T13:06:37.000Z</time>
      </trkpt>
      <trkpt lat="44.33454" lon="4.77012">
        <ele>256.3</ele>
        <time>2025-04-30T13:06:40.000Z</time>
      </trkpt>
      <trkpt lat="44.33452" lon="4.77011">
        <ele>256.2</ele>
        <time>2025-04-30T13:06:44.000Z</time>
      </trkpt>
      <trkpt lat="44.33449" lon="4.77009">
        <ele>256.2</ele>
        <time>2025-04-30T13:06:47.000Z</time>
      </trkpt>
      <trkpt lat="44.33447" lon="4.77008">
        <ele>256.1</ele>
        <time>2025-04-30T13:06:51.000Z</time>
      </trkpt>
      <trkpt lat="44.33445" lon="4.77007">
        <ele>256</ele>
        <time>2025-04-30T13:06:54.000Z</time>
      </trkpt>
      <trkpt lat="44.33443" lon="4.77005">
        <ele>256.1</ele>
        <time>2025-04-30T13:06:57.000Z</time>
      </trkpt>
      <trkpt lat="44.3344" lon="4.77005">
        <ele>256.2</ele>
        <time>2025-04-30T13:07:00.000Z</time>
      </trkpt>
      <trkpt lat="44.33437" lon="4.77005">
        <ele>256.4</ele>
        <time>2025-04-30T13:07:04.000Z</time>
      </trkpt>
      <trkpt lat="44.33435" lon="4.77004">
        <ele>256.4</ele>
        <time>2025-04-30T13:07:06.000Z</time>
      </trkpt>
      <trkpt lat="44.33433" lon="4.77003">
        <ele>256.5</ele>
        <time>2025-04-30T13:07:08.000Z</time>
      </trkpt>
      <trkpt lat="44.33431" lon="4.77002">
        <ele>256.6</ele>
        <time>2025-04-30T13:07:11.000Z</time>
      </trkpt>
      <trkpt lat="44.33429" lon="4.77">
        <ele>256.6</ele>
        <time>2025-04-30T13:07:14.000Z</time>
      </trkpt>
      <trkpt lat="44.33426" lon="4.76999">
        <ele>256.8</ele>
        <time>2025-04-30T13:07:16.000Z</time>
      </trkpt>
      <trkpt lat="44.33423" lon="4.76998">
        <ele>257</ele>
        <time>2025-04-30T13:07:19.000Z</time>
      </trkpt>
      <trkpt lat="44.33421" lon="4.76997">
        <ele>257.1</ele>
        <time>2025-04-30T13:07:22.000Z</time>
      </trkpt>
      <trkpt lat="44.3342" lon="4.76996">
        <ele>257.3</ele>
        <time>2025-04-30T13:07:25.000Z</time>
      </trkpt>
      <trkpt lat="44.33418" lon="4.76995">
        <ele>257.4</ele>
        <time>2025-04-30T13:07:28.000Z</time>
      </trkpt>
      <trkpt lat="44.33415" lon="4.76995">
        <ele>257.5</ele>
        <time>2025-04-30T13:07:31.000Z</time>
      </trkpt>
      <trkpt lat="44.33413" lon="4.76994">
        <ele>257.8</ele>
        <time>2025-04-30T13:07:33.000Z</time>
      </trkpt>
      <trkpt lat="44.33411" lon="4.76992">
        <ele>258</ele>
        <time>2025-04-30T13:07:37.000Z</time>
      </trkpt>
      <trkpt lat="44.33409" lon="4.7699">
        <ele>258.3</ele>
        <time>2025-04-30T13:07:39.000Z</time>
      </trkpt>
      <trkpt lat="44.33407" lon="4.76988">
        <ele>258.5</ele>
        <time>2025-04-30T13:07:41.000Z</time>
      </trkpt>
      <trkpt lat="44.33405" lon="4.76986">
        <ele>258.6</ele>
        <time>2025-04-30T13:07:43.000Z</time>
      </trkpt>
      <trkpt lat="44.33403" lon="4.76985">
        <ele>258.8</ele>
        <time>2025-04-30T13:07:45.000Z</time>
      </trkpt>
      <trkpt lat="44.33401" lon="4.76983">
        <ele>258.9</ele>
        <time>2025-04-30T13:07:47.000Z</time>
      </trkpt>
      <trkpt lat="44.334" lon="4.76981">
        <ele>258.9</ele>
        <time>2025-04-30T13:07:50.000Z</time>
      </trkpt>
      <trkpt lat="44.33398" lon="4.76979">
        <ele>259</ele>
        <time>2025-04-30T13:07:53.000Z</time>
      </trkpt>
      <trkpt lat="44.33395" lon="4.76978">
        <ele>259.1</ele>
        <time>2025-04-30T13:07:55.000Z</time>
      </trkpt>
      <trkpt lat="44.33393" lon="4.76977">
        <ele>259.1</ele>
        <time>2025-04-30T13:07:57.000Z</time>
      </trkpt>
      <trkpt lat="44.33391" lon="4.76976">
        <ele>259.1</ele>
        <time>2025-04-30T13:07:59.000Z</time>
      </trkpt>
      <trkpt lat="44.33389" lon="4.76975">
        <ele>259.1</ele>
        <time>2025-04-30T13:08:01.000Z</time>
      </trkpt>
      <trkpt lat="44.33387" lon="4.76975">
        <ele>259.1</ele>
        <time>2025-04-30T13:08:03.000Z</time>
      </trkpt>
      <trkpt lat="44.33385" lon="4.76974">
        <ele>259.1</ele>
        <time>2025-04-30T13:08:05.000Z</time>
      </trkpt>
      <trkpt lat="44.33382" lon="4.76973">
        <ele>259</ele>
        <time>2025-04-30T13:08:07.000Z</time>
      </trkpt>
      <trkpt lat="44.3338" lon="4.76972">
        <ele>259</ele>
        <time>2025-04-30T13:08:09.000Z</time>
      </trkpt>
      <trkpt lat="44.33377" lon="4.7697">
        <ele>259</ele>
        <time>2025-04-30T13:08:11.000Z</time>
      </trkpt>
      <trkpt lat="44.33375" lon="4.76969">
        <ele>259</ele>
        <time>2025-04-30T13:08:13.000Z</time>
      </trkpt>
      <trkpt lat="44.33373" lon="4.76968">
        <ele>259</ele>
        <time>2025-04-30T13:08:15.000Z</time>
      </trkpt>
      <trkpt lat="44.33371" lon="4.76968">
        <ele>259</ele>
        <time>2025-04-30T13:08:17.000Z</time>
      </trkpt>
      <trkpt lat="44.33368" lon="4.76967">
        <ele>259</ele>
        <time>2025-04-30T13:08:19.000Z</time>
      </trkpt>
      <trkpt lat="44.33366" lon="4.76966">
        <ele>259</ele>
        <time>2025-04-30T13:08:21.000Z</time>
      </trkpt>
      <trkpt lat="44.33364" lon="4.76966">
        <ele>259</ele>
        <time>2025-04-30T13:08:23.000Z</time>
      </trkpt>
      <trkpt lat="44.33362" lon="4.76965">
        <ele>259</ele>
        <time>2025-04-30T13:08:25.000Z</time>
      </trkpt>
      <trkpt lat="44.33359" lon="4.76964">
        <ele>259</ele>
        <time>2025-04-30T13:08:27.000Z</time>
      </trkpt>
      <trkpt lat="44.33357" lon="4.76963">
        <ele>259</ele>
        <time>2025-04-30T13:08:29.000Z</time>
      </trkpt>
      <trkpt lat="44.33355" lon="4.76961">
        <ele>259</ele>
        <time>2025-04-30T13:08:32.000Z</time>
      </trkpt>
      <trkpt lat="44.33352" lon="4.7696">
        <ele>259</ele>
        <time>2025-04-30T13:08:34.000Z</time>
      </trkpt>
      <trkpt lat="44.3335" lon="4.76959">
        <ele>259</ele>
        <time>2025-04-30T13:08:36.000Z</time>
      </trkpt>
      <trkpt lat="44.33349" lon="4.76958">
        <ele>259</ele>
        <time>2025-04-30T13:08:38.000Z</time>
      </trkpt>
      <trkpt lat="44.33347" lon="4.76956">
        <ele>259</ele>
        <time>2025-04-30T13:08:40.000Z</time>
      </trkpt>
      <trkpt lat="44.33345" lon="4.76954">
        <ele>259</ele>
        <time>2025-04-30T13:08:42.000Z</time>
      </trkpt>
      <trkpt lat="44.33343" lon="4.76954">
        <ele>259</ele>
        <time>2025-04-30T13:08:44.000Z</time>
      </trkpt>
      <trkpt lat="44.33342" lon="4.76951">
        <ele>259</ele>
        <time>2025-04-30T13:08:47.000Z</time>
      </trkpt>
      <trkpt lat="44.33339" lon="4.7695">
        <ele>259</ele>
        <time>2025-04-30T13:08:50.000Z</time>
      </trkpt>
      <trkpt lat="44.33338" lon="4.76948">
        <ele>259</ele>
        <time>2025-04-30T13:08:52.000Z</time>
      </trkpt>
      <trkpt lat="44.33335" lon="4.76946">
        <ele>259</ele>
        <time>2025-04-30T13:08:55.000Z</time>
      </trkpt>
      <trkpt lat="44.33333" lon="4.76944">
        <ele>259</ele>
        <time>2025-04-30T13:08:57.000Z</time>
      </trkpt>
      <trkpt lat="44.33331" lon="4.76944">
        <ele>259.1</ele>
        <time>2025-04-30T13:08:59.000Z</time>
      </trkpt>
      <trkpt lat="44.33329" lon="4.76943">
        <ele>259.2</ele>
        <time>2025-04-30T13:09:01.000Z</time>
      </trkpt>
      <trkpt lat="44.33327" lon="4.76942">
        <ele>259.2</ele>
        <time>2025-04-30T13:09:03.000Z</time>
      </trkpt>
      <trkpt lat="44.33324" lon="4.76941">
        <ele>259.3</ele>
        <time>2025-04-30T13:09:06.000Z</time>
      </trkpt>
      <trkpt lat="44.33323" lon="4.7694">
        <ele>259.3</ele>
        <time>2025-04-30T13:09:08.000Z</time>
      </trkpt>
      <trkpt lat="44.3332" lon="4.76938">
        <ele>259.4</ele>
        <time>2025-04-30T13:09:10.000Z</time>
      </trkpt>
      <trkpt lat="44.33319" lon="4.76936">
        <ele>259.4</ele>
        <time>2025-04-30T13:09:12.000Z</time>
      </trkpt>
      <trkpt lat="44.33317" lon="4.76934">
        <ele>259.4</ele>
        <time>2025-04-30T13:09:15.000Z</time>
      </trkpt>
      <trkpt lat="44.33315" lon="4.76931">
        <ele>259.3</ele>
        <time>2025-04-30T13:09:18.000Z</time>
      </trkpt>
      <trkpt lat="44.33312" lon="4.76929">
        <ele>259.3</ele>
        <time>2025-04-30T13:09:20.000Z</time>
      </trkpt>
      <trkpt lat="44.33311" lon="4.76928">
        <ele>259.3</ele>
        <time>2025-04-30T13:09:22.000Z</time>
      </trkpt>
      <trkpt lat="44.33309" lon="4.76927">
        <ele>259.3</ele>
        <time>2025-04-30T13:09:24.000Z</time>
      </trkpt>
      <trkpt lat="44.33306" lon="4.76927">
        <ele>259.4</ele>
        <time>2025-04-30T13:09:26.000Z</time>
      </trkpt>
      <trkpt lat="44.33305" lon="4.76926">
        <ele>259.5</ele>
        <time>2025-04-30T13:09:28.000Z</time>
      </trkpt>
      <trkpt lat="44.33303" lon="4.76925">
        <ele>259.6</ele>
        <time>2025-04-30T13:09:30.000Z</time>
      </trkpt>
      <trkpt lat="44.33301" lon="4.76922">
        <ele>259.7</ele>
        <time>2025-04-30T13:09:33.000Z</time>
      </trkpt>
      <trkpt lat="44.33299" lon="4.76921">
        <ele>259.9</ele>
        <time>2025-04-30T13:09:35.000Z</time>
      </trkpt>
      <trkpt lat="44.33296" lon="4.7692">
        <ele>260.2</ele>
        <time>2025-04-30T13:09:37.000Z</time>
      </trkpt>
      <trkpt lat="44.33294" lon="4.76919">
        <ele>260.4</ele>
        <time>2025-04-30T13:09:39.000Z</time>
      </trkpt>
      <trkpt lat="44.33291" lon="4.76918">
        <ele>260.6</ele>
        <time>2025-04-30T13:09:41.000Z</time>
      </trkpt>
      <trkpt lat="44.33289" lon="4.76916">
        <ele>260.8</ele>
        <time>2025-04-30T13:09:44.000Z</time>
      </trkpt>
      <trkpt lat="44.33287" lon="4.76915">
        <ele>261</ele>
        <time>2025-04-30T13:09:47.000Z</time>
      </trkpt>
      <trkpt lat="44.33285" lon="4.76914">
        <ele>261.2</ele>
        <time>2025-04-30T13:09:49.000Z</time>
      </trkpt>
      <trkpt lat="44.33283" lon="4.76913">
        <ele>261.3</ele>
        <time>2025-04-30T13:09:52.000Z</time>
      </trkpt>
      <trkpt lat="44.33281" lon="4.76911">
        <ele>261.5</ele>
        <time>2025-04-30T13:09:54.000Z</time>
      </trkpt>
      <trkpt lat="44.33278" lon="4.76911">
        <ele>261.7</ele>
        <time>2025-04-30T13:09:57.000Z</time>
      </trkpt>
      <trkpt lat="44.33276" lon="4.7691">
        <ele>262</ele>
        <time>2025-04-30T13:09:59.000Z</time>
      </trkpt>
      <trkpt lat="44.33274" lon="4.76908">
        <ele>262.3</ele>
        <time>2025-04-30T13:10:02.000Z</time>
      </trkpt>
      <trkpt lat="44.33272" lon="4.76908">
        <ele>262.6</ele>
        <time>2025-04-30T13:10:04.000Z</time>
      </trkpt>
      <trkpt lat="44.3327" lon="4.76907">
        <ele>262.8</ele>
        <time>2025-04-30T13:10:06.000Z</time>
      </trkpt>
      <trkpt lat="44.33268" lon="4.76906">
        <ele>263.1</ele>
        <time>2025-04-30T13:10:08.000Z</time>
      </trkpt>
      <trkpt lat="44.33266" lon="4.76905">
        <ele>263.3</ele>
        <time>2025-04-30T13:10:10.000Z</time>
      </trkpt>
      <trkpt lat="44.33263" lon="4.76904">
        <ele>263.7</ele>
        <time>2025-04-30T13:10:12.000Z</time>
      </trkpt>
      <trkpt lat="44.3326" lon="4.76903">
        <ele>264</ele>
        <time>2025-04-30T13:10:15.000Z</time>
      </trkpt>
      <trkpt lat="44.33259" lon="4.769">
        <ele>264.2</ele>
        <time>2025-04-30T13:10:19.000Z</time>
      </trkpt>
      <trkpt lat="44.33257" lon="4.76898">
        <ele>264.4</ele>
        <time>2025-04-30T13:10:22.000Z</time>
      </trkpt>
      <trkpt lat="44.33254" lon="4.76896">
        <ele>264.7</ele>
        <time>2025-04-30T13:10:25.000Z</time>
      </trkpt>
      <trkpt lat="44.33252" lon="4.76896">
        <ele>265</ele>
        <time>2025-04-30T13:10:27.000Z</time>
      </trkpt>
      <trkpt lat="44.3325" lon="4.76894">
        <ele>265.3</ele>
        <time>2025-04-30T13:10:29.000Z</time>
      </trkpt>
      <trkpt lat="44.33248" lon="4.76893">
        <ele>265.5</ele>
        <time>2025-04-30T13:10:31.000Z</time>
      </trkpt>
      <trkpt lat="44.33244" lon="4.76893">
        <ele>266</ele>
        <time>2025-04-30T13:10:36.000Z</time>
      </trkpt>
      <trkpt lat="44.33241" lon="4.76891">
        <ele>266.3</ele>
        <time>2025-04-30T13:10:38.000Z</time>
      </trkpt>
      <trkpt lat="44.33239" lon="4.7689">
        <ele>266.6</ele>
        <time>2025-04-30T13:10:42.000Z</time>
      </trkpt>
      <trkpt lat="44.33237" lon="4.76887">
        <ele>266.7</ele>
        <time>2025-04-30T13:10:45.000Z</time>
      </trkpt>
      <trkpt lat="44.33237" lon="4.76884">
        <ele>266.6</ele>
        <time>2025-04-30T13:10:49.000Z</time>
      </trkpt>
      <trkpt lat="44.33234" lon="4.76883">
        <ele>266.8</ele>
        <time>2025-04-30T13:10:51.000Z</time>
      </trkpt>
      <trkpt lat="44.33232" lon="4.76882">
        <ele>267.1</ele>
        <time>2025-04-30T13:10:52.000Z</time>
      </trkpt>
      <trkpt lat="44.3323" lon="4.76882">
        <ele>267.4</ele>
        <time>2025-04-30T13:10:53.000Z</time>
      </trkpt>
      <trkpt lat="44.33227" lon="4.76881">
        <ele>267.7</ele>
        <time>2025-04-30T13:10:54.000Z</time>
      </trkpt>
      <trkpt lat="44.33224" lon="4.7688">
        <ele>268.1</ele>
        <time>2025-04-30T13:10:55.000Z</time>
      </trkpt>
      <trkpt lat="44.33221" lon="4.76878">
        <ele>268.3</ele>
        <time>2025-04-30T13:10:56.000Z</time>
      </trkpt>
      <trkpt lat="44.33218" lon="4.76872">
        <ele>268.2</ele>
        <time>2025-04-30T13:10:57.000Z</time>
      </trkpt>
      <trkpt lat="44.33216" lon="4.76866">
        <ele>268</ele>
        <time>2025-04-30T13:10:58.000Z</time>
      </trkpt>
      <trkpt lat="44.33217" lon="4.76862">
        <ele>267.7</ele>
        <time>2025-04-30T13:10:59.000Z</time>
      </trkpt>
      <trkpt lat="44.33214" lon="4.76867">
        <ele>268.2</ele>
        <time>2025-04-30T13:11:01.000Z</time>
      </trkpt>
      <trkpt lat="44.33217" lon="4.76867">
        <ele>267.9</ele>
        <time>2025-04-30T13:11:03.000Z</time>
      </trkpt>
      <trkpt lat="44.3322" lon="4.76864">
        <ele>267.5</ele>
        <time>2025-04-30T13:11:04.000Z</time>
      </trkpt>
      <trkpt lat="44.33217" lon="4.76868">
        <ele>268</ele>
        <time>2025-04-30T13:11:06.000Z</time>
      </trkpt>
      <trkpt lat="44.33215" lon="4.76869">
        <ele>268.3</ele>
        <time>2025-04-30T13:11:08.000Z</time>
      </trkpt>
      <trkpt lat="44.33212" lon="4.76869">
        <ele>268.6</ele>
        <time>2025-04-30T13:11:11.000Z</time>
      </trkpt>
      <trkpt lat="44.33215" lon="4.76869">
        <ele>268.3</ele>
        <time>2025-04-30T13:11:15.000Z</time>
      </trkpt>
      <trkpt lat="44.33218" lon="4.76867">
        <ele>267.8</ele>
        <time>2025-04-30T13:11:17.000Z</time>
      </trkpt>
      <trkpt lat="44.33219" lon="4.76864">
        <ele>267.5</ele>
        <time>2025-04-30T13:11:18.000Z</time>
      </trkpt>
      <trkpt lat="44.33218" lon="4.76861">
        <ele>267.4</ele>
        <time>2025-04-30T13:11:21.000Z</time>
      </trkpt>
      <trkpt lat="44.33217" lon="4.7686">
        <ele>267.5</ele>
        <time>2025-04-30T13:11:24.000Z</time>
      </trkpt>
      <trkpt lat="44.33215" lon="4.76857">
        <ele>267.5</ele>
        <time>2025-04-30T13:11:28.000Z</time>
      </trkpt>
      <trkpt lat="44.33214" lon="4.76854">
        <ele>267.3</ele>
        <time>2025-04-30T13:11:30.000Z</time>
      </trkpt>
      <trkpt lat="44.33216" lon="4.76856">
        <ele>267.3</ele>
        <time>2025-04-30T13:11:36.000Z</time>
      </trkpt>
      <trkpt lat="44.33218" lon="4.76859">
        <ele>267.4</ele>
        <time>2025-04-30T13:11:38.000Z</time>
      </trkpt>
      <trkpt lat="44.33219" lon="4.76862">
        <ele>267.5</ele>
        <time>2025-04-30T13:11:40.000Z</time>
      </trkpt>
      <trkpt lat="44.33219" lon="4.76865">
        <ele>267.6</ele>
        <time>2025-04-30T13:11:41.000Z</time>
      </trkpt>
      <trkpt lat="44.33219" lon="4.76869">
        <ele>267.9</ele>
        <time>2025-04-30T13:11:42.000Z</time>
      </trkpt>
      <trkpt lat="44.33219" lon="4.76872">
        <ele>268.1</ele>
        <time>2025-04-30T13:11:43.000Z</time>
      </trkpt>
      <trkpt lat="44.33219" lon="4.76876">
        <ele>268.4</ele>
        <time>2025-04-30T13:11:44.000Z</time>
      </trkpt>
      <trkpt lat="44.33219" lon="4.76881">
        <ele>268.7</ele>
        <time>2025-04-30T13:11:45.000Z</time>
      </trkpt>
      <trkpt lat="44.33218" lon="4.76884">
        <ele>269</ele>
        <time>2025-04-30T13:11:46.000Z</time>
      </trkpt>
      <trkpt lat="44.33215" lon="4.76887">
        <ele>269.4</ele>
        <time>2025-04-30T13:11:47.000Z</time>
      </trkpt>
      <trkpt lat="44.33212" lon="4.7689">
        <ele>269.8</ele>
        <time>2025-04-30T13:11:48.000Z</time>
      </trkpt>
      <trkpt lat="44.33208" lon="4.76893">
        <ele>270.1</ele>
        <time>2025-04-30T13:11:49.000Z</time>
      </trkpt>
      <trkpt lat="44.33201" lon="4.76894">
        <ele>270.6</ele>
        <time>2025-04-30T13:11:50.000Z</time>
      </trkpt>
      <trkpt lat="44.33195" lon="4.76896">
        <ele>271</ele>
        <time>2025-04-30T13:11:51.000Z</time>
      </trkpt>
      <trkpt lat="44.3319" lon="4.76898">
        <ele>271.2</ele>
        <time>2025-04-30T13:11:53.000Z</time>
      </trkpt>
      <trkpt lat="44.33187" lon="4.76902">
        <ele>271.3</ele>
        <time>2025-04-30T13:11:54.000Z</time>
      </trkpt>
      <trkpt lat="44.33184" lon="4.76903">
        <ele>271.4</ele>
        <time>2025-04-30T13:11:55.000Z</time>
      </trkpt>
      <trkpt lat="44.33176" lon="4.76902">
        <ele>271.7</ele>
        <time>2025-04-30T13:11:56.000Z</time>
      </trkpt>
      <trkpt lat="44.33166" lon="4.76899">
        <ele>272</ele>
        <time>2025-04-30T13:11:57.000Z</time>
      </trkpt>
      <trkpt lat="44.33148" lon="4.76825">
        <ele>270.5</ele>
        <time>2025-04-30T13:13:21.000Z</time>
      </trkpt>
      <trkpt lat="44.33148" lon="4.76822">
        <ele>270.1</ele>
        <time>2025-04-30T13:13:22.000Z</time>
      </trkpt>
      <trkpt lat="44.33147" lon="4.76818">
        <ele>269.7</ele>
        <time>2025-04-30T13:13:38.000Z</time>
      </trkpt>
      <trkpt lat="44.33144" lon="4.76817">
        <ele>269.8</ele>
        <time>2025-04-30T13:13:40.000Z</time>
      </trkpt>
      <trkpt lat="44.3314" lon="4.76816">
        <ele>270.1</ele>
        <time>2025-04-30T13:13:44.000Z</time>
      </trkpt>
      <trkpt lat="44.33138" lon="4.76813">
        <ele>269.9</ele>
        <time>2025-04-30T13:13:46.000Z</time>
      </trkpt>
      <trkpt lat="44.33136" lon="4.7681">
        <ele>269.7</ele>
        <time>2025-04-30T13:13:47.000Z</time>
      </trkpt>
      <trkpt lat="44.33134" lon="4.76808">
        <ele>269.6</ele>
        <time>2025-04-30T13:13:49.000Z</time>
      </trkpt>
      <trkpt lat="44.33132" lon="4.76805">
        <ele>269.4</ele>
        <time>2025-04-30T13:13:51.000Z</time>
      </trkpt>
      <trkpt lat="44.33131" lon="4.76802">
        <ele>269.2</ele>
        <time>2025-04-30T13:13:53.000Z</time>
      </trkpt>
      <trkpt lat="44.33131" lon="4.76799">
        <ele>269</ele>
        <time>2025-04-30T13:13:55.000Z</time>
      </trkpt>
      <trkpt lat="44.33129" lon="4.76797">
        <ele>268.9</ele>
        <time>2025-04-30T13:14:01.000Z</time>
      </trkpt>
      <trkpt lat="44.33129" lon="4.76794">
        <ele>268.6</ele>
        <time>2025-04-30T13:14:03.000Z</time>
      </trkpt>
      <trkpt lat="44.33129" lon="4.76791">
        <ele>268.3</ele>
        <time>2025-04-30T13:14:11.000Z</time>
      </trkpt>
      <trkpt lat="44.3313" lon="4.76788">
        <ele>267.9</ele>
        <time>2025-04-30T13:14:12.000Z</time>
      </trkpt>
      <trkpt lat="44.33128" lon="4.76787">
        <ele>268.1</ele>
        <time>2025-04-30T13:14:15.000Z</time>
      </trkpt>
      <trkpt lat="44.33125" lon="4.76784">
        <ele>268.1</ele>
        <time>2025-04-30T13:14:17.000Z</time>
      </trkpt>
      <trkpt lat="44.33123" lon="4.76783">
        <ele>268.1</ele>
        <time>2025-04-30T13:14:18.000Z</time>
      </trkpt>
      <trkpt lat="44.33122" lon="4.76781">
        <ele>268.1</ele>
        <time>2025-04-30T13:14:20.000Z</time>
      </trkpt>
      <trkpt lat="44.33121" lon="4.76776">
        <ele>267.9</ele>
        <time>2025-04-30T13:14:25.000Z</time>
      </trkpt>
      <trkpt lat="44.33119" lon="4.76774">
        <ele>267.8</ele>
        <time>2025-04-30T13:14:27.000Z</time>
      </trkpt>
      <trkpt lat="44.33118" lon="4.76771">
        <ele>267.5</ele>
        <time>2025-04-30T13:14:31.000Z</time>
      </trkpt>
      <trkpt lat="44.33118" lon="4.76767">
        <ele>267.2</ele>
        <time>2025-04-30T13:14:35.000Z</time>
      </trkpt>
      <trkpt lat="44.33116" lon="4.76764">
        <ele>267.1</ele>
        <time>2025-04-30T13:14:38.000Z</time>
      </trkpt>
      <trkpt lat="44.33116" lon="4.76761">
        <ele>266.8</ele>
        <time>2025-04-30T13:14:42.000Z</time>
      </trkpt>
      <trkpt lat="44.33114" lon="4.76758">
        <ele>266.6</ele>
        <time>2025-04-30T13:14:44.000Z</time>
      </trkpt>
      <trkpt lat="44.33112" lon="4.76753">
        <ele>266.2</ele>
        <time>2025-04-30T13:14:47.000Z</time>
      </trkpt>
      <trkpt lat="44.33111" lon="4.7675">
        <ele>266</ele>
        <time>2025-04-30T13:14:49.000Z</time>
      </trkpt>
      <trkpt lat="44.3311" lon="4.76748">
        <ele>265.9</ele>
        <time>2025-04-30T13:14:52.000Z</time>
      </trkpt>
      <trkpt lat="44.33109" lon="4.76742">
        <ele>265.6</ele>
        <time>2025-04-30T13:14:59.000Z</time>
      </trkpt>
      <trkpt lat="44.33108" lon="4.7674">
        <ele>265.5</ele>
        <time>2025-04-30T13:15:01.000Z</time>
      </trkpt>
      <trkpt lat="44.33107" lon="4.76737">
        <ele>265.3</ele>
        <time>2025-04-30T13:15:04.000Z</time>
      </trkpt>
      <trkpt lat="44.33105" lon="4.76733">
        <ele>265.1</ele>
        <time>2025-04-30T13:15:09.000Z</time>
      </trkpt>
      <trkpt lat="44.33104" lon="4.7673">
        <ele>264.8</ele>
        <time>2025-04-30T13:15:12.000Z</time>
      </trkpt>
      <trkpt lat="44.33103" lon="4.76727">
        <ele>264.7</ele>
        <time>2025-04-30T13:15:15.000Z</time>
      </trkpt>
      <trkpt lat="44.33102" lon="4.76724">
        <ele>264.4</ele>
        <time>2025-04-30T13:15:17.000Z</time>
      </trkpt>
      <trkpt lat="44.33101" lon="4.76718">
        <ele>264.5</ele>
        <time>2025-04-30T13:15:21.000Z</time>
      </trkpt>
      <trkpt lat="44.331" lon="4.76714">
        <ele>264.6</ele>
        <time>2025-04-30T13:15:23.000Z</time>
      </trkpt>
      <trkpt lat="44.33099" lon="4.76708">
        <ele>264.7</ele>
        <time>2025-04-30T13:15:27.000Z</time>
      </trkpt>
      <trkpt lat="44.33098" lon="4.76705">
        <ele>264.8</ele>
        <time>2025-04-30T13:15:29.000Z</time>
      </trkpt>
      <trkpt lat="44.33097" lon="4.767">
        <ele>264.9</ele>
        <time>2025-04-30T13:15:33.000Z</time>
      </trkpt>
      <trkpt lat="44.33097" lon="4.76696">
        <ele>265</ele>
        <time>2025-04-30T13:15:36.000Z</time>
      </trkpt>
      <trkpt lat="44.33098" lon="4.76693">
        <ele>265.1</ele>
        <time>2025-04-30T13:15:39.000Z</time>
      </trkpt>
      <trkpt lat="44.33097" lon="4.76691">
        <ele>265.2</ele>
        <time>2025-04-30T13:15:41.000Z</time>
      </trkpt>
      <trkpt lat="44.33095" lon="4.76686">
        <ele>265.5</ele>
        <time>2025-04-30T13:15:45.000Z</time>
      </trkpt>
      <trkpt lat="44.33093" lon="4.76685">
        <ele>265.7</ele>
        <time>2025-04-30T13:15:47.000Z</time>
      </trkpt>
      <trkpt lat="44.33092" lon="4.76683">
        <ele>265.9</ele>
        <time>2025-04-30T13:15:49.000Z</time>
      </trkpt>
      <trkpt lat="44.33089" lon="4.76683">
        <ele>266</ele>
        <time>2025-04-30T13:15:50.000Z</time>
      </trkpt>
      <trkpt lat="44.33089" lon="4.7668">
        <ele>266.3</ele>
        <time>2025-04-30T13:15:52.000Z</time>
      </trkpt>
      <trkpt lat="44.33088" lon="4.76678">
        <ele>266.6</ele>
        <time>2025-04-30T13:15:54.000Z</time>
      </trkpt>
      <trkpt lat="44.33087" lon="4.76675">
        <ele>266.8</ele>
        <time>2025-04-30T13:15:56.000Z</time>
      </trkpt>
      <trkpt lat="44.33085" lon="4.76673">
        <ele>267.2</ele>
        <time>2025-04-30T13:15:59.000Z</time>
      </trkpt>
      <trkpt lat="44.33082" lon="4.76673">
        <ele>267.4</ele>
        <time>2025-04-30T13:16:01.000Z</time>
      </trkpt>
      <trkpt lat="44.3308" lon="4.76672">
        <ele>267.8</ele>
        <time>2025-04-30T13:16:05.000Z</time>
      </trkpt>
      <trkpt lat="44.33078" lon="4.76671">
        <ele>268.2</ele>
        <time>2025-04-30T13:16:07.000Z</time>
      </trkpt>
      <trkpt lat="44.33075" lon="4.76672">
        <ele>268.4</ele>
        <time>2025-04-30T13:16:10.000Z</time>
      </trkpt>
      <trkpt lat="44.33074" lon="4.76669">
        <ele>268.8</ele>
        <time>2025-04-30T13:16:13.000Z</time>
      </trkpt>
      <trkpt lat="44.33072" lon="4.76667">
        <ele>269.2</ele>
        <time>2025-04-30T13:16:18.000Z</time>
      </trkpt>
      <trkpt lat="44.33069" lon="4.76666">
        <ele>269.6</ele>
        <time>2025-04-30T13:16:21.000Z</time>
      </trkpt>
      <trkpt lat="44.33067" lon="4.76667">
        <ele>269.7</ele>
        <time>2025-04-30T13:16:23.000Z</time>
      </trkpt>
      <trkpt lat="44.33065" lon="4.76666">
        <ele>270</ele>
        <time>2025-04-30T13:16:25.000Z</time>
      </trkpt>
      <trkpt lat="44.33063" lon="4.76664">
        <ele>270.4</ele>
        <time>2025-04-30T13:16:27.000Z</time>
      </trkpt>
      <trkpt lat="44.33062" lon="4.76663">
        <ele>270.6</ele>
        <time>2025-04-30T13:16:29.000Z</time>
      </trkpt>
      <trkpt lat="44.33057" lon="4.7666">
        <ele>271.3</ele>
        <time>2025-04-30T13:16:36.000Z</time>
      </trkpt>
      <trkpt lat="44.33056" lon="4.76658">
        <ele>271.6</ele>
        <time>2025-04-30T13:16:39.000Z</time>
      </trkpt>
      <trkpt lat="44.33054" lon="4.76657">
        <ele>271.9</ele>
        <time>2025-04-30T13:16:41.000Z</time>
      </trkpt>
      <trkpt lat="44.33052" lon="4.76657">
        <ele>272.2</ele>
        <time>2025-04-30T13:16:43.000Z</time>
      </trkpt>
      <trkpt lat="44.3305" lon="4.76655">
        <ele>272.6</ele>
        <time>2025-04-30T13:16:47.000Z</time>
      </trkpt>
      <trkpt lat="44.33048" lon="4.76654">
        <ele>273</ele>
        <time>2025-04-30T13:16:50.000Z</time>
      </trkpt>
      <trkpt lat="44.33046" lon="4.76653">
        <ele>273.3</ele>
        <time>2025-04-30T13:16:53.000Z</time>
      </trkpt>
      <trkpt lat="44.33043" lon="4.76651">
        <ele>273.7</ele>
        <time>2025-04-30T13:16:56.000Z</time>
      </trkpt>
      <trkpt lat="44.33041" lon="4.7665">
        <ele>274.1</ele>
        <time>2025-04-30T13:16:59.000Z</time>
      </trkpt>
      <trkpt lat="44.33039" lon="4.76649">
        <ele>274.3</ele>
        <time>2025-04-30T13:17:01.000Z</time>
      </trkpt>
      <trkpt lat="44.33036" lon="4.76647">
        <ele>274.8</ele>
        <time>2025-04-30T13:17:04.000Z</time>
      </trkpt>
      <trkpt lat="44.33036" lon="4.76643">
        <ele>275</ele>
        <time>2025-04-30T13:17:06.000Z</time>
      </trkpt>
      <trkpt lat="44.33034" lon="4.76643">
        <ele>275.2</ele>
        <time>2025-04-30T13:17:09.000Z</time>
      </trkpt>
      <trkpt lat="44.33032" lon="4.76641">
        <ele>275.4</ele>
        <time>2025-04-30T13:17:11.000Z</time>
      </trkpt>
      <trkpt lat="44.3303" lon="4.7664">
        <ele>275.8</ele>
        <time>2025-04-30T13:17:14.000Z</time>
      </trkpt>
      <trkpt lat="44.33027" lon="4.76639">
        <ele>276</ele>
        <time>2025-04-30T13:17:17.000Z</time>
      </trkpt>
      <trkpt lat="44.33025" lon="4.76638">
        <ele>276.1</ele>
        <time>2025-04-30T13:17:19.000Z</time>
      </trkpt>
      <trkpt lat="44.33023" lon="4.76638">
        <ele>276.2</ele>
        <time>2025-04-30T13:17:21.000Z</time>
      </trkpt>
      <trkpt lat="44.33022" lon="4.76636">
        <ele>276.2</ele>
        <time>2025-04-30T13:17:23.000Z</time>
      </trkpt>
      <trkpt lat="44.33019" lon="4.76635">
        <ele>276.3</ele>
        <time>2025-04-30T13:17:26.000Z</time>
      </trkpt>
      <trkpt lat="44.33017" lon="4.76635">
        <ele>276.4</ele>
        <time>2025-04-30T13:17:28.000Z</time>
      </trkpt>
      <trkpt lat="44.33014" lon="4.76634">
        <ele>276.5</ele>
        <time>2025-04-30T13:17:32.000Z</time>
      </trkpt>
      <trkpt lat="44.33012" lon="4.76634">
        <ele>276.6</ele>
        <time>2025-04-30T13:17:34.000Z</time>
      </trkpt>
      <trkpt lat="44.33009" lon="4.7663">
        <ele>276.7</ele>
        <time>2025-04-30T13:17:39.000Z</time>
      </trkpt>
      <trkpt lat="44.33008" lon="4.76629">
        <ele>276.7</ele>
        <time>2025-04-30T13:17:42.000Z</time>
      </trkpt>
      <trkpt lat="44.33006" lon="4.76631">
        <ele>276.8</ele>
        <time>2025-04-30T13:17:45.000Z</time>
      </trkpt>
      <trkpt lat="44.33004" lon="4.76631">
        <ele>276.9</ele>
        <time>2025-04-30T13:17:48.000Z</time>
      </trkpt>
      <trkpt lat="44.33002" lon="4.76628">
        <ele>276.9</ele>
        <time>2025-04-30T13:19:34.000Z</time>
      </trkpt>
      <trkpt lat="44.33" lon="4.76631">
        <ele>277</ele>
        <time>2025-04-30T13:20:42.000Z</time>
      </trkpt>
      <trkpt lat="44.32997" lon="4.76632">
        <ele>276.9</ele>
        <time>2025-04-30T13:20:45.000Z</time>
      </trkpt>
      <trkpt lat="44.32995" lon="4.76631">
        <ele>276.8</ele>
        <time>2025-04-30T13:20:47.000Z</time>
      </trkpt>
      <trkpt lat="44.32993" lon="4.76632">
        <ele>276.7</ele>
        <time>2025-04-30T13:20:49.000Z</time>
      </trkpt>
      <trkpt lat="44.32991" lon="4.76632">
        <ele>276.6</ele>
        <time>2025-04-30T13:20:51.000Z</time>
      </trkpt>
      <trkpt lat="44.32989" lon="4.76631">
        <ele>276.5</ele>
        <time>2025-04-30T13:20:53.000Z</time>
      </trkpt>
      <trkpt lat="44.32987" lon="4.76631">
        <ele>276.4</ele>
        <time>2025-04-30T13:20:55.000Z</time>
      </trkpt>
      <trkpt lat="44.32985" lon="4.76632">
        <ele>276.3</ele>
        <time>2025-04-30T13:20:57.000Z</time>
      </trkpt>
      <trkpt lat="44.32983" lon="4.76631">
        <ele>276.2</ele>
        <time>2025-04-30T13:20:59.000Z</time>
      </trkpt>
      <trkpt lat="44.32981" lon="4.76632">
        <ele>276.1</ele>
        <time>2025-04-30T13:21:02.000Z</time>
      </trkpt>
      <trkpt lat="44.32978" lon="4.76632">
        <ele>276</ele>
        <time>2025-04-30T13:21:04.000Z</time>
      </trkpt>
      <trkpt lat="44.32976" lon="4.76632">
        <ele>275.9</ele>
        <time>2025-04-30T13:21:06.000Z</time>
      </trkpt>
      <trkpt lat="44.32974" lon="4.76632">
        <ele>275.8</ele>
        <time>2025-04-30T13:21:10.000Z</time>
      </trkpt>
      <trkpt lat="44.32972" lon="4.76633">
        <ele>275.8</ele>
        <time>2025-04-30T13:21:12.000Z</time>
      </trkpt>
      <trkpt lat="44.32969" lon="4.76632">
        <ele>275.9</ele>
        <time>2025-04-30T13:21:16.000Z</time>
      </trkpt>
      <trkpt lat="44.32966" lon="4.76632">
        <ele>275.9</ele>
        <time>2025-04-30T13:21:20.000Z</time>
      </trkpt>
      <trkpt lat="44.32964" lon="4.76633">
        <ele>276</ele>
        <time>2025-04-30T13:21:22.000Z</time>
      </trkpt>
      <trkpt lat="44.32961" lon="4.76632">
        <ele>276.1</ele>
        <time>2025-04-30T13:21:24.000Z</time>
      </trkpt>
      <trkpt lat="44.32959" lon="4.76632">
        <ele>276.1</ele>
        <time>2025-04-30T13:21:26.000Z</time>
      </trkpt>
      <trkpt lat="44.32958" lon="4.76631">
        <ele>276.1</ele>
        <time>2025-04-30T13:21:28.000Z</time>
      </trkpt>
      <trkpt lat="44.32956" lon="4.76629">
        <ele>276</ele>
        <time>2025-04-30T13:21:30.000Z</time>
      </trkpt>
      <trkpt lat="44.32953" lon="4.76629">
        <ele>276.1</ele>
        <time>2025-04-30T13:21:33.000Z</time>
      </trkpt>
      <trkpt lat="44.32951" lon="4.76626">
        <ele>276</ele>
        <time>2025-04-30T13:21:36.000Z</time>
      </trkpt>
      <trkpt lat="44.32949" lon="4.76625">
        <ele>275.9</ele>
        <time>2025-04-30T13:21:38.000Z</time>
      </trkpt>
      <trkpt lat="44.32947" lon="4.76626">
        <ele>276.1</ele>
        <time>2025-04-30T13:21:40.000Z</time>
      </trkpt>
      <trkpt lat="44.32944" lon="4.76626">
        <ele>276.1</ele>
        <time>2025-04-30T13:21:43.000Z</time>
      </trkpt>
      <trkpt lat="44.32942" lon="4.76626">
        <ele>276.1</ele>
        <time>2025-04-30T13:21:45.000Z</time>
      </trkpt>
      <trkpt lat="44.3294" lon="4.76627">
        <ele>276.1</ele>
        <time>2025-04-30T13:21:47.000Z</time>
      </trkpt>
      <trkpt lat="44.32938" lon="4.76627">
        <ele>276.1</ele>
        <time>2025-04-30T13:21:49.000Z</time>
      </trkpt>
      <trkpt lat="44.32936" lon="4.76627">
        <ele>276.2</ele>
        <time>2025-04-30T13:21:51.000Z</time>
      </trkpt>
      <trkpt lat="44.32934" lon="4.76625">
        <ele>276</ele>
        <time>2025-04-30T13:21:54.000Z</time>
      </trkpt>
      <trkpt lat="44.32932" lon="4.76626">
        <ele>276.1</ele>
        <time>2025-04-30T13:21:56.000Z</time>
      </trkpt>
      <trkpt lat="44.32929" lon="4.76626">
        <ele>276.1</ele>
        <time>2025-04-30T13:21:58.000Z</time>
      </trkpt>
      <trkpt lat="44.32926" lon="4.76625">
        <ele>276</ele>
        <time>2025-04-30T13:22:00.000Z</time>
      </trkpt>
      <trkpt lat="44.32924" lon="4.76624">
        <ele>275.9</ele>
        <time>2025-04-30T13:22:03.000Z</time>
      </trkpt>
      <trkpt lat="44.32921" lon="4.76624">
        <ele>275.9</ele>
        <time>2025-04-30T13:22:05.000Z</time>
      </trkpt>
      <trkpt lat="44.32919" lon="4.76623">
        <ele>275.9</ele>
        <time>2025-04-30T13:22:08.000Z</time>
      </trkpt>
      <trkpt lat="44.32916" lon="4.76622">
        <ele>275.8</ele>
        <time>2025-04-30T13:22:11.000Z</time>
      </trkpt>
      <trkpt lat="44.32915" lon="4.76622">
        <ele>275.8</ele>
        <time>2025-04-30T13:22:13.000Z</time>
      </trkpt>
      <trkpt lat="44.32912" lon="4.76622">
        <ele>275.9</ele>
        <time>2025-04-30T13:22:15.000Z</time>
      </trkpt>
      <trkpt lat="44.3291" lon="4.76622">
        <ele>275.9</ele>
        <time>2025-04-30T13:22:17.000Z</time>
      </trkpt>
      <trkpt lat="44.32908" lon="4.76622">
        <ele>276</ele>
        <time>2025-04-30T13:22:19.000Z</time>
      </trkpt>
      <trkpt lat="44.32906" lon="4.76621">
        <ele>276</ele>
        <time>2025-04-30T13:22:21.000Z</time>
      </trkpt>
      <trkpt lat="44.32904" lon="4.76621">
        <ele>276</ele>
        <time>2025-04-30T13:22:24.000Z</time>
      </trkpt>
      <trkpt lat="44.32901" lon="4.76622">
        <ele>276.1</ele>
        <time>2025-04-30T13:22:26.000Z</time>
      </trkpt>
      <trkpt lat="44.32899" lon="4.76622">
        <ele>276.2</ele>
        <time>2025-04-30T13:22:30.000Z</time>
      </trkpt>
      <trkpt lat="44.32897" lon="4.76622">
        <ele>276.2</ele>
        <time>2025-04-30T13:22:32.000Z</time>
      </trkpt>
      <trkpt lat="44.32894" lon="4.76621">
        <ele>276.2</ele>
        <time>2025-04-30T13:22:34.000Z</time>
      </trkpt>
      <trkpt lat="44.32892" lon="4.76621">
        <ele>276.3</ele>
        <time>2025-04-30T13:22:36.000Z</time>
      </trkpt>
      <trkpt lat="44.32891" lon="4.7662">
        <ele>276.3</ele>
        <time>2025-04-30T13:22:37.000Z</time>
      </trkpt>
      <trkpt lat="44.32888" lon="4.7662">
        <ele>276.3</ele>
        <time>2025-04-30T13:22:39.000Z</time>
      </trkpt>
      <trkpt lat="44.32885" lon="4.7662">
        <ele>276.5</ele>
        <time>2025-04-30T13:22:42.000Z</time>
      </trkpt>
      <trkpt lat="44.32883" lon="4.7662">
        <ele>276.6</ele>
        <time>2025-04-30T13:22:44.000Z</time>
      </trkpt>
      <trkpt lat="44.32881" lon="4.7662">
        <ele>276.8</ele>
        <time>2025-04-30T13:22:46.000Z</time>
      </trkpt>
      <trkpt lat="44.32879" lon="4.7662">
        <ele>276.9</ele>
        <time>2025-04-30T13:22:48.000Z</time>
      </trkpt>
      <trkpt lat="44.32877" lon="4.7662">
        <ele>277</ele>
        <time>2025-04-30T13:22:50.000Z</time>
      </trkpt>
      <trkpt lat="44.32875" lon="4.76621">
        <ele>277.2</ele>
        <time>2025-04-30T13:22:52.000Z</time>
      </trkpt>
      <trkpt lat="44.32872" lon="4.76621">
        <ele>277.4</ele>
        <time>2025-04-30T13:22:54.000Z</time>
      </trkpt>
      <trkpt lat="44.32869" lon="4.76621">
        <ele>277.5</ele>
        <time>2025-04-30T13:22:57.000Z</time>
      </trkpt>
      <trkpt lat="44.32867" lon="4.7662">
        <ele>277.6</ele>
        <time>2025-04-30T13:22:59.000Z</time>
      </trkpt>
      <trkpt lat="44.32865" lon="4.7662">
        <ele>277.8</ele>
        <time>2025-04-30T13:23:01.000Z</time>
      </trkpt>
      <trkpt lat="44.32863" lon="4.76618">
        <ele>277.9</ele>
        <time>2025-04-30T13:23:04.000Z</time>
      </trkpt>
      <trkpt lat="44.32861" lon="4.76617">
        <ele>278</ele>
        <time>2025-04-30T13:23:06.000Z</time>
      </trkpt>
      <trkpt lat="44.32859" lon="4.76617">
        <ele>278</ele>
        <time>2025-04-30T13:23:08.000Z</time>
      </trkpt>
      <trkpt lat="44.32857" lon="4.76617">
        <ele>278</ele>
        <time>2025-04-30T13:23:10.000Z</time>
      </trkpt>
      <trkpt lat="44.32855" lon="4.76617">
        <ele>278</ele>
        <time>2025-04-30T13:23:12.000Z</time>
      </trkpt>
      <trkpt lat="44.32853" lon="4.76618">
        <ele>278</ele>
        <time>2025-04-30T13:23:14.000Z</time>
      </trkpt>
      <trkpt lat="44.3285" lon="4.76618">
        <ele>278</ele>
        <time>2025-04-30T13:23:16.000Z</time>
      </trkpt>
      <trkpt lat="44.32848" lon="4.76616">
        <ele>278</ele>
        <time>2025-04-30T13:23:18.000Z</time>
      </trkpt>
      <trkpt lat="44.32846" lon="4.76615">
        <ele>278</ele>
        <time>2025-04-30T13:23:20.000Z</time>
      </trkpt>
      <trkpt lat="44.32844" lon="4.76616">
        <ele>278</ele>
        <time>2025-04-30T13:23:22.000Z</time>
      </trkpt>
      <trkpt lat="44.32842" lon="4.76614">
        <ele>278</ele>
        <time>2025-04-30T13:23:24.000Z</time>
      </trkpt>
      <trkpt lat="44.3284" lon="4.7661">
        <ele>278</ele>
        <time>2025-04-30T13:23:26.000Z</time>
      </trkpt>
      <trkpt lat="44.32838" lon="4.76609">
        <ele>278.1</ele>
        <time>2025-04-30T13:23:28.000Z</time>
      </trkpt>
      <trkpt lat="44.32836" lon="4.7661">
        <ele>278</ele>
        <time>2025-04-30T13:23:30.000Z</time>
      </trkpt>
      <trkpt lat="44.32835" lon="4.76611">
        <ele>278</ele>
        <time>2025-04-30T13:23:31.000Z</time>
      </trkpt>
      <trkpt lat="44.32833" lon="4.76612">
        <ele>278</ele>
        <time>2025-04-30T13:23:32.000Z</time>
      </trkpt>
      <trkpt lat="44.32831" lon="4.76612">
        <ele>278</ele>
        <time>2025-04-30T13:23:33.000Z</time>
      </trkpt>
      <trkpt lat="44.32827" lon="4.76612">
        <ele>278</ele>
        <time>2025-04-30T13:23:36.000Z</time>
      </trkpt>
      <trkpt lat="44.32826" lon="4.76609">
        <ele>278.1</ele>
        <time>2025-04-30T13:23:38.000Z</time>
      </trkpt>
      <trkpt lat="44.32823" lon="4.76609">
        <ele>278.1</ele>
        <time>2025-04-30T13:23:41.000Z</time>
      </trkpt>
      <trkpt lat="44.3282" lon="4.76609">
        <ele>278.1</ele>
        <time>2025-04-30T13:23:44.000Z</time>
      </trkpt>
      <trkpt lat="44.32817" lon="4.7661">
        <ele>278</ele>
        <time>2025-04-30T13:23:46.000Z</time>
      </trkpt>
      <trkpt lat="44.32815" lon="4.7661">
        <ele>278.1</ele>
        <time>2025-04-30T13:23:48.000Z</time>
      </trkpt>
      <trkpt lat="44.32813" lon="4.76609">
        <ele>278.1</ele>
        <time>2025-04-30T13:23:50.000Z</time>
      </trkpt>
      <trkpt lat="44.32811" lon="4.7661">
        <ele>278</ele>
        <time>2025-04-30T13:23:53.000Z</time>
      </trkpt>
      <trkpt lat="44.3281" lon="4.76608">
        <ele>278.1</ele>
        <time>2025-04-30T13:23:55.000Z</time>
      </trkpt>
      <trkpt lat="44.32807" lon="4.76609">
        <ele>278.1</ele>
        <time>2025-04-30T13:23:57.000Z</time>
      </trkpt>
      <trkpt lat="44.32805" lon="4.76609">
        <ele>278</ele>
        <time>2025-04-30T13:23:59.000Z</time>
      </trkpt>
      <trkpt lat="44.32803" lon="4.7661">
        <ele>277.9</ele>
        <time>2025-04-30T13:24:01.000Z</time>
      </trkpt>
      <trkpt lat="44.328" lon="4.7661">
        <ele>277.9</ele>
        <time>2025-04-30T13:24:03.000Z</time>
      </trkpt>
      <trkpt lat="44.32798" lon="4.76611">
        <ele>277.7</ele>
        <time>2025-04-30T13:24:05.000Z</time>
      </trkpt>
      <trkpt lat="44.32795" lon="4.76612">
        <ele>277.6</ele>
        <time>2025-04-30T13:24:08.000Z</time>
      </trkpt>
      <trkpt lat="44.32793" lon="4.7661">
        <ele>277.6</ele>
        <time>2025-04-30T13:24:10.000Z</time>
      </trkpt>
      <trkpt lat="44.3279" lon="4.76608">
        <ele>277.6</ele>
        <time>2025-04-30T13:24:12.000Z</time>
      </trkpt>
      <trkpt lat="44.32788" lon="4.76608">
        <ele>277.5</ele>
        <time>2025-04-30T13:24:15.000Z</time>
      </trkpt>
      <trkpt lat="44.32786" lon="4.76607">
        <ele>277.4</ele>
        <time>2025-04-30T13:24:17.000Z</time>
      </trkpt>
      <trkpt lat="44.32784" lon="4.76607">
        <ele>277.4</ele>
        <time>2025-04-30T13:24:19.000Z</time>
      </trkpt>
      <trkpt lat="44.32782" lon="4.76605">
        <ele>277.4</ele>
        <time>2025-04-30T13:24:22.000Z</time>
      </trkpt>
      <trkpt lat="44.3278" lon="4.76604">
        <ele>277.4</ele>
        <time>2025-04-30T13:24:24.000Z</time>
      </trkpt>
      <trkpt lat="44.32779" lon="4.76602">
        <ele>277.3</ele>
        <time>2025-04-30T13:24:26.000Z</time>
      </trkpt>
      <trkpt lat="44.32777" lon="4.766">
        <ele>277.4</ele>
        <time>2025-04-30T13:24:29.000Z</time>
      </trkpt>
      <trkpt lat="44.32774" lon="4.766">
        <ele>277.5</ele>
        <time>2025-04-30T13:24:31.000Z</time>
      </trkpt>
      <trkpt lat="44.32772" lon="4.76599">
        <ele>277.5</ele>
        <time>2025-04-30T13:24:33.000Z</time>
      </trkpt>
      <trkpt lat="44.3277" lon="4.76598">
        <ele>277.6</ele>
        <time>2025-04-30T13:24:35.000Z</time>
      </trkpt>
      <trkpt lat="44.32768" lon="4.76598">
        <ele>277.6</ele>
        <time>2025-04-30T13:24:37.000Z</time>
      </trkpt>
      <trkpt lat="44.32766" lon="4.76598">
        <ele>277.7</ele>
        <time>2025-04-30T13:24:39.000Z</time>
      </trkpt>
      <trkpt lat="44.32763" lon="4.76598">
        <ele>277.7</ele>
        <time>2025-04-30T13:24:41.000Z</time>
      </trkpt>
      <trkpt lat="44.32761" lon="4.76596">
        <ele>277.8</ele>
        <time>2025-04-30T13:24:44.000Z</time>
      </trkpt>
      <trkpt lat="44.32759" lon="4.76596">
        <ele>277.9</ele>
        <time>2025-04-30T13:24:46.000Z</time>
      </trkpt>
      <trkpt lat="44.32757" lon="4.76595">
        <ele>278</ele>
        <time>2025-04-30T13:24:48.000Z</time>
      </trkpt>
      <trkpt lat="44.32754" lon="4.76594">
        <ele>278.1</ele>
        <time>2025-04-30T13:24:50.000Z</time>
      </trkpt>
      <trkpt lat="44.32752" lon="4.76594">
        <ele>278.2</ele>
        <time>2025-04-30T13:24:52.000Z</time>
      </trkpt>
      <trkpt lat="44.32749" lon="4.76594">
        <ele>278.2</ele>
        <time>2025-04-30T13:24:54.000Z</time>
      </trkpt>
      <trkpt lat="44.32747" lon="4.76594">
        <ele>278.2</ele>
        <time>2025-04-30T13:24:56.000Z</time>
      </trkpt>
      <trkpt lat="44.32744" lon="4.76593">
        <ele>278.1</ele>
        <time>2025-04-30T13:24:59.000Z</time>
      </trkpt>
      <trkpt lat="44.3274" lon="4.76593">
        <ele>278</ele>
        <time>2025-04-30T13:25:02.000Z</time>
      </trkpt>
      <trkpt lat="44.32739" lon="4.76592">
        <ele>278</ele>
        <time>2025-04-30T13:25:04.000Z</time>
      </trkpt>
      <trkpt lat="44.32736" lon="4.76592">
        <ele>277.9</ele>
        <time>2025-04-30T13:25:06.000Z</time>
      </trkpt>
      <trkpt lat="44.32734" lon="4.76591">
        <ele>277.9</ele>
        <time>2025-04-30T13:25:08.000Z</time>
      </trkpt>
      <trkpt lat="44.32731" lon="4.7659">
        <ele>277.8</ele>
        <time>2025-04-30T13:25:10.000Z</time>
      </trkpt>
      <trkpt lat="44.32729" lon="4.7659">
        <ele>277.8</ele>
        <time>2025-04-30T13:25:12.000Z</time>
      </trkpt>
      <trkpt lat="44.32727" lon="4.76585">
        <ele>278</ele>
        <time>2025-04-30T13:25:15.000Z</time>
      </trkpt>
      <trkpt lat="44.32725" lon="4.76583">
        <ele>278.1</ele>
        <time>2025-04-30T13:25:17.000Z</time>
      </trkpt>
      <trkpt lat="44.32723" lon="4.76582">
        <ele>278.1</ele>
        <time>2025-04-30T13:25:19.000Z</time>
      </trkpt>
      <trkpt lat="44.32721" lon="4.76579">
        <ele>278.2</ele>
        <time>2025-04-30T13:25:21.000Z</time>
      </trkpt>
      <trkpt lat="44.32719" lon="4.76578">
        <ele>278.3</ele>
        <time>2025-04-30T13:25:23.000Z</time>
      </trkpt>
      <trkpt lat="44.32717" lon="4.76577">
        <ele>278.3</ele>
        <time>2025-04-30T13:25:25.000Z</time>
      </trkpt>
      <trkpt lat="44.32715" lon="4.76576">
        <ele>278.3</ele>
        <time>2025-04-30T13:25:27.000Z</time>
      </trkpt>
      <trkpt lat="44.32713" lon="4.76573">
        <ele>278.4</ele>
        <time>2025-04-30T13:25:30.000Z</time>
      </trkpt>
      <trkpt lat="44.32711" lon="4.76571">
        <ele>278.5</ele>
        <time>2025-04-30T13:25:33.000Z</time>
      </trkpt>
      <trkpt lat="44.32709" lon="4.76569">
        <ele>278.6</ele>
        <time>2025-04-30T13:25:36.000Z</time>
      </trkpt>
      <trkpt lat="44.32708" lon="4.76565">
        <ele>278.8</ele>
        <time>2025-04-30T13:25:38.000Z</time>
      </trkpt>
      <trkpt lat="44.32707" lon="4.76561">
        <ele>279</ele>
        <time>2025-04-30T13:25:40.000Z</time>
      </trkpt>
      <trkpt lat="44.32706" lon="4.76558">
        <ele>279.3</ele>
        <time>2025-04-30T13:25:42.000Z</time>
      </trkpt>
      <trkpt lat="44.32704" lon="4.76555">
        <ele>279.4</ele>
        <time>2025-04-30T13:25:44.000Z</time>
      </trkpt>
      <trkpt lat="44.32704" lon="4.76551">
        <ele>279.6</ele>
        <time>2025-04-30T13:25:48.000Z</time>
      </trkpt>
      <trkpt lat="44.32703" lon="4.76548">
        <ele>279.8</ele>
        <time>2025-04-30T13:25:50.000Z</time>
      </trkpt>
      <trkpt lat="44.32703" lon="4.76545">
        <ele>280</ele>
        <time>2025-04-30T13:25:53.000Z</time>
      </trkpt>
      <trkpt lat="44.32703" lon="4.76541">
        <ele>280.2</ele>
        <time>2025-04-30T13:25:55.000Z</time>
      </trkpt>
      <trkpt lat="44.32702" lon="4.76539">
        <ele>280.3</ele>
        <time>2025-04-30T13:25:57.000Z</time>
      </trkpt>
      <trkpt lat="44.32701" lon="4.76536">
        <ele>280.5</ele>
        <time>2025-04-30T13:25:59.000Z</time>
      </trkpt>
      <trkpt lat="44.32701" lon="4.76533">
        <ele>280.7</ele>
        <time>2025-04-30T13:26:01.000Z</time>
      </trkpt>
      <trkpt lat="44.32701" lon="4.7653">
        <ele>280.9</ele>
        <time>2025-04-30T13:26:03.000Z</time>
      </trkpt>
      <trkpt lat="44.32701" lon="4.76527">
        <ele>281</ele>
        <time>2025-04-30T13:26:05.000Z</time>
      </trkpt>
      <trkpt lat="44.327" lon="4.76524">
        <ele>281.1</ele>
        <time>2025-04-30T13:26:07.000Z</time>
      </trkpt>
      <trkpt lat="44.327" lon="4.76521">
        <ele>281.2</ele>
        <time>2025-04-30T13:26:09.000Z</time>
      </trkpt>
      <trkpt lat="44.327" lon="4.76518">
        <ele>281.3</ele>
        <time>2025-04-30T13:26:11.000Z</time>
      </trkpt>
      <trkpt lat="44.327" lon="4.76515">
        <ele>281.5</ele>
        <time>2025-04-30T13:26:13.000Z</time>
      </trkpt>
      <trkpt lat="44.327" lon="4.76512">
        <ele>281.6</ele>
        <time>2025-04-30T13:26:15.000Z</time>
      </trkpt>
      <trkpt lat="44.32699" lon="4.7651">
        <ele>281.7</ele>
        <time>2025-04-30T13:26:17.000Z</time>
      </trkpt>
      <trkpt lat="44.32699" lon="4.76507">
        <ele>281.8</ele>
        <time>2025-04-30T13:26:19.000Z</time>
      </trkpt>
      <trkpt lat="44.32698" lon="4.76504">
        <ele>281.9</ele>
        <time>2025-04-30T13:26:21.000Z</time>
      </trkpt>
      <trkpt lat="44.32698" lon="4.76501">
        <ele>282</ele>
        <time>2025-04-30T13:26:23.000Z</time>
      </trkpt>
      <trkpt lat="44.32698" lon="4.76498">
        <ele>282</ele>
        <time>2025-04-30T13:26:25.000Z</time>
      </trkpt>
      <trkpt lat="44.32698" lon="4.76495">
        <ele>282</ele>
        <time>2025-04-30T13:26:27.000Z</time>
      </trkpt>
      <trkpt lat="44.32698" lon="4.76493">
        <ele>282</ele>
        <time>2025-04-30T13:26:29.000Z</time>
      </trkpt>
      <trkpt lat="44.32698" lon="4.7649">
        <ele>282</ele>
        <time>2025-04-30T13:26:31.000Z</time>
      </trkpt>
      <trkpt lat="44.32698" lon="4.76487">
        <ele>282</ele>
        <time>2025-04-30T13:26:33.000Z</time>
      </trkpt>
      <trkpt lat="44.32697" lon="4.76483">
        <ele>282</ele>
        <time>2025-04-30T13:26:35.000Z</time>
      </trkpt>
      <trkpt lat="44.32697" lon="4.7648">
        <ele>282</ele>
        <time>2025-04-30T13:26:37.000Z</time>
      </trkpt>
      <trkpt lat="44.32697" lon="4.76476">
        <ele>282</ele>
        <time>2025-04-30T13:26:39.000Z</time>
      </trkpt>
      <trkpt lat="44.32697" lon="4.76473">
        <ele>282</ele>
        <time>2025-04-30T13:26:41.000Z</time>
      </trkpt>
      <trkpt lat="44.32697" lon="4.7647">
        <ele>282</ele>
        <time>2025-04-30T13:26:43.000Z</time>
      </trkpt>
      <trkpt lat="44.32697" lon="4.76466">
        <ele>282</ele>
        <time>2025-04-30T13:26:45.000Z</time>
      </trkpt>
      <trkpt lat="44.32696" lon="4.76463">
        <ele>282</ele>
        <time>2025-04-30T13:26:47.000Z</time>
      </trkpt>
      <trkpt lat="44.32694" lon="4.76461">
        <ele>282</ele>
        <time>2025-04-30T13:26:49.000Z</time>
      </trkpt>
      <trkpt lat="44.32694" lon="4.76458">
        <ele>282</ele>
        <time>2025-04-30T13:26:51.000Z</time>
      </trkpt>
      <trkpt lat="44.32692" lon="4.76453">
        <ele>282</ele>
        <time>2025-04-30T13:26:54.000Z</time>
      </trkpt>
      <trkpt lat="44.32691" lon="4.76451">
        <ele>282</ele>
        <time>2025-04-30T13:26:55.000Z</time>
      </trkpt>
      <trkpt lat="44.3269" lon="4.76448">
        <ele>282</ele>
        <time>2025-04-30T13:26:57.000Z</time>
      </trkpt>
      <trkpt lat="44.3269" lon="4.76445">
        <ele>282</ele>
        <time>2025-04-30T13:26:59.000Z</time>
      </trkpt>
      <trkpt lat="44.32689" lon="4.76442">
        <ele>281.9</ele>
        <time>2025-04-30T13:27:01.000Z</time>
      </trkpt>
      <trkpt lat="44.32688" lon="4.76439">
        <ele>281.8</ele>
        <time>2025-04-30T13:27:03.000Z</time>
      </trkpt>
      <trkpt lat="44.32686" lon="4.76437">
        <ele>281.7</ele>
        <time>2025-04-30T13:27:05.000Z</time>
      </trkpt>
      <trkpt lat="44.32686" lon="4.76434">
        <ele>281.6</ele>
        <time>2025-04-30T13:27:07.000Z</time>
      </trkpt>
      <trkpt lat="44.32684" lon="4.76431">
        <ele>281.5</ele>
        <time>2025-04-30T13:27:09.000Z</time>
      </trkpt>
      <trkpt lat="44.32682" lon="4.76428">
        <ele>281.4</ele>
        <time>2025-04-30T13:27:11.000Z</time>
      </trkpt>
      <trkpt lat="44.32681" lon="4.76426">
        <ele>281.3</ele>
        <time>2025-04-30T13:27:13.000Z</time>
      </trkpt>
      <trkpt lat="44.3268" lon="4.76423">
        <ele>281.2</ele>
        <time>2025-04-30T13:27:15.000Z</time>
      </trkpt>
      <trkpt lat="44.32678" lon="4.76422">
        <ele>281.2</ele>
        <time>2025-04-30T13:27:17.000Z</time>
      </trkpt>
      <trkpt lat="44.32676" lon="4.76419">
        <ele>281.1</ele>
        <time>2025-04-30T13:27:19.000Z</time>
      </trkpt>
      <trkpt lat="44.32674" lon="4.76415">
        <ele>280.9</ele>
        <time>2025-04-30T13:27:22.000Z</time>
      </trkpt>
      <trkpt lat="44.32672" lon="4.76413">
        <ele>280.9</ele>
        <time>2025-04-30T13:27:24.000Z</time>
      </trkpt>
      <trkpt lat="44.32671" lon="4.76411">
        <ele>280.8</ele>
        <time>2025-04-30T13:27:26.000Z</time>
      </trkpt>
      <trkpt lat="44.32671" lon="4.76408">
        <ele>280.7</ele>
        <time>2025-04-30T13:27:29.000Z</time>
      </trkpt>
      <trkpt lat="44.32669" lon="4.76405">
        <ele>280.6</ele>
        <time>2025-04-30T13:27:31.000Z</time>
      </trkpt>
      <trkpt lat="44.32668" lon="4.76402">
        <ele>280.5</ele>
        <time>2025-04-30T13:27:34.000Z</time>
      </trkpt>
      <trkpt lat="44.32665" lon="4.764">
        <ele>280.4</ele>
        <time>2025-04-30T13:27:36.000Z</time>
      </trkpt>
      <trkpt lat="44.32663" lon="4.76397">
        <ele>280.4</ele>
        <time>2025-04-30T13:27:38.000Z</time>
      </trkpt>
      <trkpt lat="44.32661" lon="4.76395">
        <ele>280.4</ele>
        <time>2025-04-30T13:27:40.000Z</time>
      </trkpt>
      <trkpt lat="44.32659" lon="4.76392">
        <ele>280.4</ele>
        <time>2025-04-30T13:27:42.000Z</time>
      </trkpt>
      <trkpt lat="44.32657" lon="4.7639">
        <ele>280.4</ele>
        <time>2025-04-30T13:27:44.000Z</time>
      </trkpt>
      <trkpt lat="44.32656" lon="4.76388">
        <ele>280.3</ele>
        <time>2025-04-30T13:27:46.000Z</time>
      </trkpt>
      <trkpt lat="44.32654" lon="4.76385">
        <ele>280.1</ele>
        <time>2025-04-30T13:27:48.000Z</time>
      </trkpt>
      <trkpt lat="44.32653" lon="4.76382">
        <ele>280</ele>
        <time>2025-04-30T13:27:50.000Z</time>
      </trkpt>
      <trkpt lat="44.32652" lon="4.7638">
        <ele>279.9</ele>
        <time>2025-04-30T13:27:52.000Z</time>
      </trkpt>
      <trkpt lat="44.3265" lon="4.76378">
        <ele>279.8</ele>
        <time>2025-04-30T13:27:54.000Z</time>
      </trkpt>
      <trkpt lat="44.32648" lon="4.76375">
        <ele>279.7</ele>
        <time>2025-04-30T13:27:56.000Z</time>
      </trkpt>
      <trkpt lat="44.32647" lon="4.76373">
        <ele>279.6</ele>
        <time>2025-04-30T13:27:58.000Z</time>
      </trkpt>
      <trkpt lat="44.32645" lon="4.76371">
        <ele>279.5</ele>
        <time>2025-04-30T13:28:00.000Z</time>
      </trkpt>
      <trkpt lat="44.32644" lon="4.76368">
        <ele>279.3</ele>
        <time>2025-04-30T13:28:02.000Z</time>
      </trkpt>
      <trkpt lat="44.32643" lon="4.76366">
        <ele>279.2</ele>
        <time>2025-04-30T13:28:04.000Z</time>
      </trkpt>
      <trkpt lat="44.32642" lon="4.76364">
        <ele>279.1</ele>
        <time>2025-04-30T13:28:06.000Z</time>
      </trkpt>
      <trkpt lat="44.3264" lon="4.76362">
        <ele>279</ele>
        <time>2025-04-30T13:28:08.000Z</time>
      </trkpt>
      <trkpt lat="44.32638" lon="4.7636">
        <ele>278.9</ele>
        <time>2025-04-30T13:28:11.000Z</time>
      </trkpt>
      <trkpt lat="44.32637" lon="4.76358">
        <ele>278.8</ele>
        <time>2025-04-30T13:28:13.000Z</time>
      </trkpt>
      <trkpt lat="44.32636" lon="4.76355">
        <ele>278.6</ele>
        <time>2025-04-30T13:28:15.000Z</time>
      </trkpt>
      <trkpt lat="44.32634" lon="4.76353">
        <ele>278.5</ele>
        <time>2025-04-30T13:28:18.000Z</time>
      </trkpt>
      <trkpt lat="44.32633" lon="4.7635">
        <ele>278.3</ele>
        <time>2025-04-30T13:28:22.000Z</time>
      </trkpt>
      <trkpt lat="44.32632" lon="4.76348">
        <ele>278.2</ele>
        <time>2025-04-30T13:28:24.000Z</time>
      </trkpt>
      <trkpt lat="44.32632" lon="4.76345">
        <ele>277.9</ele>
        <time>2025-04-30T13:28:26.000Z</time>
      </trkpt>
      <trkpt lat="44.32633" lon="4.76342">
        <ele>277.5</ele>
        <time>2025-04-30T13:28:28.000Z</time>
      </trkpt>
      <trkpt lat="44.32632" lon="4.76339">
        <ele>277.3</ele>
        <time>2025-04-30T13:28:31.000Z</time>
      </trkpt>
      <trkpt lat="44.32634" lon="4.76336">
        <ele>276.8</ele>
        <time>2025-04-30T13:28:39.000Z</time>
      </trkpt>
      <trkpt lat="44.32636" lon="4.76335">
        <ele>276.4</ele>
        <time>2025-04-30T13:28:45.000Z</time>
      </trkpt>
      <trkpt lat="44.32633" lon="4.76334">
        <ele>276.7</ele>
        <time>2025-04-30T13:28:59.000Z</time>
      </trkpt>
    </trkseg>
  </trk>
</gpx>